<?xml version="1.0" encoding="UTF-8" standalone="no" ?>
<gpx xmlns="http://www.topografix.com/GPX/1/1" xmlns:xsi="http://www.w3.org/2001/XMLSchema-instance" xsi:schemaLocation="http://www.topografix.com/GPX/1/1 http://www.topografix.com/GPX/1/1/gpx.xsd" version="1.1" creator="VisuGPX - https://www.visugpx.com">
  <metadata>
    <name>Balade du 16 juin 2013</name>
    <desc><![CDATA[Beau temps, café et coca à St-Jean-de-Buègues]]></desc>
  </metadata>
  <trk>
    <name><![CDATA[2013-06-16 10:15]]></name>
    <trkseg>
      <trkpt lat="43.64197" lon="3.84551">
        <ele>72.24</ele>
        <time>2013-06-16T08:15:37Z</time>
      </trkpt>
      <trkpt lat="43.64193" lon="3.8454">
        <ele>62.14</ele>
        <time>2013-06-16T08:16:02Z</time>
      </trkpt>
      <trkpt lat="43.64198" lon="3.84545">
        <ele>67.91</ele>
        <time>2013-06-16T08:16:38Z</time>
      </trkpt>
      <trkpt lat="43.64198" lon="3.84546">
        <ele>68.87</ele>
        <time>2013-06-16T08:16:47Z</time>
      </trkpt>
      <trkpt lat="43.64202" lon="3.84564">
        <ele>66.47</ele>
        <time>2013-06-16T08:16:53Z</time>
      </trkpt>
      <trkpt lat="43.64206" lon="3.84577">
        <ele>65.51</ele>
        <time>2013-06-16T08:16:57Z</time>
      </trkpt>
      <trkpt lat="43.64202" lon="3.84583">
        <ele>65.03</ele>
        <time>2013-06-16T08:16:58Z</time>
      </trkpt>
      <trkpt lat="43.64195" lon="3.84588">
        <ele>65.03</ele>
        <time>2013-06-16T08:16:59Z</time>
      </trkpt>
      <trkpt lat="43.64187" lon="3.84593">
        <ele>65.03</ele>
        <time>2013-06-16T08:17:00Z</time>
      </trkpt>
      <trkpt lat="43.64112" lon="3.84644">
        <ele>63.58</ele>
        <time>2013-06-16T08:17:09Z</time>
      </trkpt>
      <trkpt lat="43.64104" lon="3.84644">
        <ele>63.58</ele>
        <time>2013-06-16T08:17:10Z</time>
      </trkpt>
      <trkpt lat="43.64097" lon="3.8464">
        <ele>63.58</ele>
        <time>2013-06-16T08:17:11Z</time>
      </trkpt>
      <trkpt lat="43.64092" lon="3.84635">
        <ele>63.58</ele>
        <time>2013-06-16T08:17:12Z</time>
      </trkpt>
      <trkpt lat="43.64087" lon="3.8463">
        <ele>63.58</ele>
        <time>2013-06-16T08:17:13Z</time>
      </trkpt>
      <trkpt lat="43.64083" lon="3.84626">
        <ele>63.58</ele>
        <time>2013-06-16T08:17:14Z</time>
      </trkpt>
      <trkpt lat="43.6408" lon="3.84623">
        <ele>63.58</ele>
        <time>2013-06-16T08:17:15Z</time>
      </trkpt>
      <trkpt lat="43.64078" lon="3.84622">
        <ele>63.58</ele>
        <time>2013-06-16T08:17:16Z</time>
      </trkpt>
      <trkpt lat="43.64076" lon="3.84622">
        <ele>63.1</ele>
        <time>2013-06-16T08:17:19Z</time>
      </trkpt>
      <trkpt lat="43.64074" lon="3.84624">
        <ele>63.1</ele>
        <time>2013-06-16T08:17:20Z</time>
      </trkpt>
      <trkpt lat="43.64071" lon="3.84631">
        <ele>63.1</ele>
        <time>2013-06-16T08:17:21Z</time>
      </trkpt>
      <trkpt lat="43.64069" lon="3.84639">
        <ele>63.1</ele>
        <time>2013-06-16T08:17:22Z</time>
      </trkpt>
      <trkpt lat="43.64067" lon="3.84649">
        <ele>63.1</ele>
        <time>2013-06-16T08:17:23Z</time>
      </trkpt>
      <trkpt lat="43.64064" lon="3.84658">
        <ele>63.1</ele>
        <time>2013-06-16T08:17:24Z</time>
      </trkpt>
      <trkpt lat="43.64058" lon="3.84666">
        <ele>63.1</ele>
        <time>2013-06-16T08:17:25Z</time>
      </trkpt>
      <trkpt lat="43.64049" lon="3.84673">
        <ele>63.1</ele>
        <time>2013-06-16T08:17:26Z</time>
      </trkpt>
      <trkpt lat="43.64039" lon="3.84676">
        <ele>63.1</ele>
        <time>2013-06-16T08:17:27Z</time>
      </trkpt>
      <trkpt lat="43.64027" lon="3.84676">
        <ele>62.62</ele>
        <time>2013-06-16T08:17:28Z</time>
      </trkpt>
      <trkpt lat="43.64014" lon="3.84673">
        <ele>62.14</ele>
        <time>2013-06-16T08:17:29Z</time>
      </trkpt>
      <trkpt lat="43.64" lon="3.84669">
        <ele>61.66</ele>
        <time>2013-06-16T08:17:30Z</time>
      </trkpt>
      <trkpt lat="43.63856" lon="3.84633">
        <ele>56.86</ele>
        <time>2013-06-16T08:17:39Z</time>
      </trkpt>
      <trkpt lat="43.6376" lon="3.84568">
        <ele>56.86</ele>
        <time>2013-06-16T08:17:46Z</time>
      </trkpt>
      <trkpt lat="43.63716" lon="3.84526">
        <ele>56.37</ele>
        <time>2013-06-16T08:17:52Z</time>
      </trkpt>
      <trkpt lat="43.6371" lon="3.84521">
        <ele>55.89</ele>
        <time>2013-06-16T08:17:59Z</time>
      </trkpt>
      <trkpt lat="43.6369" lon="3.84499">
        <ele>54.93</ele>
        <time>2013-06-16T08:18:06Z</time>
      </trkpt>
      <trkpt lat="43.6363" lon="3.84451">
        <ele>52.05</ele>
        <time>2013-06-16T08:18:12Z</time>
      </trkpt>
      <trkpt lat="43.63486" lon="3.8437">
        <ele>53.97</ele>
        <time>2013-06-16T08:18:23Z</time>
      </trkpt>
      <trkpt lat="43.63341" lon="3.8431">
        <ele>55.41</ele>
        <time>2013-06-16T08:18:33Z</time>
      </trkpt>
      <trkpt lat="43.63215" lon="3.84262">
        <ele>53.97</ele>
        <time>2013-06-16T08:18:42Z</time>
      </trkpt>
      <trkpt lat="43.6317" lon="3.84222">
        <ele>54.93</ele>
        <time>2013-06-16T08:18:48Z</time>
      </trkpt>
      <trkpt lat="43.63167" lon="3.84212">
        <ele>55.41</ele>
        <time>2013-06-16T08:18:49Z</time>
      </trkpt>
      <trkpt lat="43.63164" lon="3.84201">
        <ele>55.41</ele>
        <time>2013-06-16T08:18:50Z</time>
      </trkpt>
      <trkpt lat="43.63161" lon="3.84189">
        <ele>55.41</ele>
        <time>2013-06-16T08:18:51Z</time>
      </trkpt>
      <trkpt lat="43.63158" lon="3.84178">
        <ele>55.89</ele>
        <time>2013-06-16T08:18:52Z</time>
      </trkpt>
      <trkpt lat="43.63153" lon="3.84168">
        <ele>55.89</ele>
        <time>2013-06-16T08:18:53Z</time>
      </trkpt>
      <trkpt lat="43.63147" lon="3.84161">
        <ele>56.37</ele>
        <time>2013-06-16T08:18:54Z</time>
      </trkpt>
      <trkpt lat="43.63139" lon="3.84154">
        <ele>56.86</ele>
        <time>2013-06-16T08:18:55Z</time>
      </trkpt>
      <trkpt lat="43.63131" lon="3.84146">
        <ele>56.86</ele>
        <time>2013-06-16T08:18:56Z</time>
      </trkpt>
      <trkpt lat="43.63124" lon="3.84135">
        <ele>57.34</ele>
        <time>2013-06-16T08:18:57Z</time>
      </trkpt>
      <trkpt lat="43.63121" lon="3.84119">
        <ele>57.34</ele>
        <time>2013-06-16T08:18:58Z</time>
      </trkpt>
      <trkpt lat="43.6312" lon="3.84103">
        <ele>57.34</ele>
        <time>2013-06-16T08:18:59Z</time>
      </trkpt>
      <trkpt lat="43.63121" lon="3.84086">
        <ele>57.34</ele>
        <time>2013-06-16T08:19:00Z</time>
      </trkpt>
      <trkpt lat="43.63123" lon="3.84067">
        <ele>57.82</ele>
        <time>2013-06-16T08:19:01Z</time>
      </trkpt>
      <trkpt lat="43.63157" lon="3.83883">
        <ele>59.74</ele>
        <time>2013-06-16T08:19:10Z</time>
      </trkpt>
      <trkpt lat="43.63228" lon="3.83765">
        <ele>62.14</ele>
        <time>2013-06-16T08:19:17Z</time>
      </trkpt>
      <trkpt lat="43.63361" lon="3.83592">
        <ele>64.55</ele>
        <time>2013-06-16T08:19:28Z</time>
      </trkpt>
      <trkpt lat="43.63429" lon="3.83446">
        <ele>69.83</ele>
        <time>2013-06-16T08:19:37Z</time>
      </trkpt>
      <trkpt lat="43.63442" lon="3.83416">
        <ele>70.79</ele>
        <time>2013-06-16T08:19:43Z</time>
      </trkpt>
      <trkpt lat="43.6344" lon="3.83421">
        <ele>71.27</ele>
        <time>2013-06-16T08:20:08Z</time>
      </trkpt>
      <trkpt lat="43.63458" lon="3.83386">
        <ele>72.72</ele>
        <time>2013-06-16T08:20:20Z</time>
      </trkpt>
      <trkpt lat="43.63531" lon="3.83285">
        <ele>74.16</ele>
        <time>2013-06-16T08:20:28Z</time>
      </trkpt>
      <trkpt lat="43.63647" lon="3.83176">
        <ele>77.04</ele>
        <time>2013-06-16T08:20:38Z</time>
      </trkpt>
      <trkpt lat="43.63657" lon="3.83177">
        <ele>77.52</ele>
        <time>2013-06-16T08:20:39Z</time>
      </trkpt>
      <trkpt lat="43.63668" lon="3.83183">
        <ele>77.52</ele>
        <time>2013-06-16T08:20:40Z</time>
      </trkpt>
      <trkpt lat="43.63689" lon="3.83195">
        <ele>78</ele>
        <time>2013-06-16T08:20:42Z</time>
      </trkpt>
      <trkpt lat="43.63701" lon="3.83196">
        <ele>78.48</ele>
        <time>2013-06-16T08:20:43Z</time>
      </trkpt>
      <trkpt lat="43.63712" lon="3.83192">
        <ele>78.97</ele>
        <time>2013-06-16T08:20:44Z</time>
      </trkpt>
      <trkpt lat="43.63723" lon="3.83185">
        <ele>78.97</ele>
        <time>2013-06-16T08:20:45Z</time>
      </trkpt>
      <trkpt lat="43.63732" lon="3.83174">
        <ele>79.45</ele>
        <time>2013-06-16T08:20:46Z</time>
      </trkpt>
      <trkpt lat="43.63739" lon="3.83159">
        <ele>79.45</ele>
        <time>2013-06-16T08:20:47Z</time>
      </trkpt>
      <trkpt lat="43.63743" lon="3.83142">
        <ele>79.45</ele>
        <time>2013-06-16T08:20:48Z</time>
      </trkpt>
      <trkpt lat="43.63746" lon="3.83125">
        <ele>78.97</ele>
        <time>2013-06-16T08:20:49Z</time>
      </trkpt>
      <trkpt lat="43.63751" lon="3.83108">
        <ele>78.48</ele>
        <time>2013-06-16T08:20:50Z</time>
      </trkpt>
      <trkpt lat="43.63759" lon="3.83093">
        <ele>78.48</ele>
        <time>2013-06-16T08:20:51Z</time>
      </trkpt>
      <trkpt lat="43.63771" lon="3.83082">
        <ele>78</ele>
        <time>2013-06-16T08:20:52Z</time>
      </trkpt>
      <trkpt lat="43.63786" lon="3.83071">
        <ele>78.48</ele>
        <time>2013-06-16T08:20:53Z</time>
      </trkpt>
      <trkpt lat="43.638" lon="3.8306">
        <ele>78.48</ele>
        <time>2013-06-16T08:20:54Z</time>
      </trkpt>
      <trkpt lat="43.63908" lon="3.82922">
        <ele>80.89</ele>
        <time>2013-06-16T08:21:03Z</time>
      </trkpt>
      <trkpt lat="43.63974" lon="3.82814">
        <ele>83.77</ele>
        <time>2013-06-16T08:21:10Z</time>
      </trkpt>
      <trkpt lat="43.63985" lon="3.82806">
        <ele>84.25</ele>
        <time>2013-06-16T08:21:11Z</time>
      </trkpt>
      <trkpt lat="43.63996" lon="3.82805">
        <ele>84.73</ele>
        <time>2013-06-16T08:21:12Z</time>
      </trkpt>
      <trkpt lat="43.64009" lon="3.82804">
        <ele>85.21</ele>
        <time>2013-06-16T08:21:13Z</time>
      </trkpt>
      <trkpt lat="43.64022" lon="3.82802">
        <ele>86.18</ele>
        <time>2013-06-16T08:21:14Z</time>
      </trkpt>
      <trkpt lat="43.64036" lon="3.82796">
        <ele>86.66</ele>
        <time>2013-06-16T08:21:15Z</time>
      </trkpt>
      <trkpt lat="43.6405" lon="3.82787">
        <ele>87.14</ele>
        <time>2013-06-16T08:21:16Z</time>
      </trkpt>
      <trkpt lat="43.64064" lon="3.82776">
        <ele>88.1</ele>
        <time>2013-06-16T08:21:17Z</time>
      </trkpt>
      <trkpt lat="43.64078" lon="3.82763">
        <ele>88.58</ele>
        <time>2013-06-16T08:21:18Z</time>
      </trkpt>
      <trkpt lat="43.64222" lon="3.82596">
        <ele>95.79</ele>
        <time>2013-06-16T08:21:29Z</time>
      </trkpt>
      <trkpt lat="43.64291" lon="3.82444">
        <ele>99.63</ele>
        <time>2013-06-16T08:21:36Z</time>
      </trkpt>
      <trkpt lat="43.64314" lon="3.82403">
        <ele>100.11</ele>
        <time>2013-06-16T08:21:38Z</time>
      </trkpt>
      <trkpt lat="43.64326" lon="3.82387">
        <ele>100.6</ele>
        <time>2013-06-16T08:21:39Z</time>
      </trkpt>
      <trkpt lat="43.64339" lon="3.82373">
        <ele>100.6</ele>
        <time>2013-06-16T08:21:40Z</time>
      </trkpt>
      <trkpt lat="43.6435" lon="3.82362">
        <ele>101.08</ele>
        <time>2013-06-16T08:21:41Z</time>
      </trkpt>
      <trkpt lat="43.6436" lon="3.82354">
        <ele>101.08</ele>
        <time>2013-06-16T08:21:42Z</time>
      </trkpt>
      <trkpt lat="43.6437" lon="3.82349">
        <ele>101.08</ele>
        <time>2013-06-16T08:21:43Z</time>
      </trkpt>
      <trkpt lat="43.6438" lon="3.82354">
        <ele>101.56</ele>
        <time>2013-06-16T08:21:44Z</time>
      </trkpt>
      <trkpt lat="43.6439" lon="3.82362">
        <ele>101.56</ele>
        <time>2013-06-16T08:21:45Z</time>
      </trkpt>
      <trkpt lat="43.644" lon="3.8237">
        <ele>101.08</ele>
        <time>2013-06-16T08:21:46Z</time>
      </trkpt>
      <trkpt lat="43.64413" lon="3.82374">
        <ele>101.08</ele>
        <time>2013-06-16T08:21:47Z</time>
      </trkpt>
      <trkpt lat="43.64426" lon="3.82374">
        <ele>101.08</ele>
        <time>2013-06-16T08:21:48Z</time>
      </trkpt>
      <trkpt lat="43.64438" lon="3.82367">
        <ele>101.08</ele>
        <time>2013-06-16T08:21:49Z</time>
      </trkpt>
      <trkpt lat="43.64448" lon="3.82355">
        <ele>100.6</ele>
        <time>2013-06-16T08:21:50Z</time>
      </trkpt>
      <trkpt lat="43.64455" lon="3.8234">
        <ele>100.6</ele>
        <time>2013-06-16T08:21:51Z</time>
      </trkpt>
      <trkpt lat="43.6446" lon="3.82322">
        <ele>101.08</ele>
        <time>2013-06-16T08:21:52Z</time>
      </trkpt>
      <trkpt lat="43.64464" lon="3.82305">
        <ele>101.08</ele>
        <time>2013-06-16T08:21:53Z</time>
      </trkpt>
      <trkpt lat="43.64469" lon="3.82288">
        <ele>100.6</ele>
        <time>2013-06-16T08:21:54Z</time>
      </trkpt>
      <trkpt lat="43.64479" lon="3.82276">
        <ele>100.6</ele>
        <time>2013-06-16T08:21:55Z</time>
      </trkpt>
      <trkpt lat="43.64492" lon="3.82265">
        <ele>100.6</ele>
        <time>2013-06-16T08:21:56Z</time>
      </trkpt>
      <trkpt lat="43.64507" lon="3.82254">
        <ele>100.11</ele>
        <time>2013-06-16T08:21:57Z</time>
      </trkpt>
      <trkpt lat="43.64538" lon="3.82224">
        <ele>99.15</ele>
        <time>2013-06-16T08:21:59Z</time>
      </trkpt>
      <trkpt lat="43.64552" lon="3.82205">
        <ele>98.19</ele>
        <time>2013-06-16T08:22:00Z</time>
      </trkpt>
      <trkpt lat="43.64565" lon="3.82186">
        <ele>97.71</ele>
        <time>2013-06-16T08:22:01Z</time>
      </trkpt>
      <trkpt lat="43.64576" lon="3.82165">
        <ele>96.75</ele>
        <time>2013-06-16T08:22:02Z</time>
      </trkpt>
      <trkpt lat="43.64587" lon="3.82142">
        <ele>95.79</ele>
        <time>2013-06-16T08:22:03Z</time>
      </trkpt>
      <trkpt lat="43.64597" lon="3.82118">
        <ele>94.83</ele>
        <time>2013-06-16T08:22:04Z</time>
      </trkpt>
      <trkpt lat="43.64605" lon="3.82092">
        <ele>93.39</ele>
        <time>2013-06-16T08:22:05Z</time>
      </trkpt>
      <trkpt lat="43.64612" lon="3.82066">
        <ele>92.42</ele>
        <time>2013-06-16T08:22:06Z</time>
      </trkpt>
      <trkpt lat="43.64616" lon="3.82039">
        <ele>91.46</ele>
        <time>2013-06-16T08:22:07Z</time>
      </trkpt>
      <trkpt lat="43.64619" lon="3.82011">
        <ele>90.5</ele>
        <time>2013-06-16T08:22:08Z</time>
      </trkpt>
      <trkpt lat="43.6462" lon="3.81984">
        <ele>90.02</ele>
        <time>2013-06-16T08:22:09Z</time>
      </trkpt>
      <trkpt lat="43.6462" lon="3.81957">
        <ele>89.06</ele>
        <time>2013-06-16T08:22:10Z</time>
      </trkpt>
      <trkpt lat="43.64612" lon="3.81752">
        <ele>83.29</ele>
        <time>2013-06-16T08:22:19Z</time>
      </trkpt>
      <trkpt lat="43.64604" lon="3.8152">
        <ele>77.04</ele>
        <time>2013-06-16T08:22:32Z</time>
      </trkpt>
      <trkpt lat="43.64605" lon="3.81507">
        <ele>76.56</ele>
        <time>2013-06-16T08:22:33Z</time>
      </trkpt>
      <trkpt lat="43.64607" lon="3.81483">
        <ele>76.08</ele>
        <time>2013-06-16T08:22:35Z</time>
      </trkpt>
      <trkpt lat="43.64605" lon="3.8147">
        <ele>76.08</ele>
        <time>2013-06-16T08:22:36Z</time>
      </trkpt>
      <trkpt lat="43.64603" lon="3.81458">
        <ele>75.6</ele>
        <time>2013-06-16T08:22:37Z</time>
      </trkpt>
      <trkpt lat="43.646" lon="3.81444">
        <ele>75.12</ele>
        <time>2013-06-16T08:22:38Z</time>
      </trkpt>
      <trkpt lat="43.64599" lon="3.81429">
        <ele>75.12</ele>
        <time>2013-06-16T08:22:39Z</time>
      </trkpt>
      <trkpt lat="43.64599" lon="3.81413">
        <ele>74.64</ele>
        <time>2013-06-16T08:22:40Z</time>
      </trkpt>
      <trkpt lat="43.64594" lon="3.81131">
        <ele>68.87</ele>
        <time>2013-06-16T08:22:57Z</time>
      </trkpt>
      <trkpt lat="43.64604" lon="3.81086">
        <ele>67.91</ele>
        <time>2013-06-16T08:23:01Z</time>
      </trkpt>
      <trkpt lat="43.64607" lon="3.81078">
        <ele>67.43</ele>
        <time>2013-06-16T08:23:02Z</time>
      </trkpt>
      <trkpt lat="43.64608" lon="3.81069">
        <ele>67.43</ele>
        <time>2013-06-16T08:23:03Z</time>
      </trkpt>
      <trkpt lat="43.64608" lon="3.81059">
        <ele>67.43</ele>
        <time>2013-06-16T08:23:04Z</time>
      </trkpt>
      <trkpt lat="43.64607" lon="3.8105">
        <ele>66.95</ele>
        <time>2013-06-16T08:23:05Z</time>
      </trkpt>
      <trkpt lat="43.64606" lon="3.81039">
        <ele>67.43</ele>
        <time>2013-06-16T08:23:06Z</time>
      </trkpt>
      <trkpt lat="43.64605" lon="3.81027">
        <ele>67.43</ele>
        <time>2013-06-16T08:23:07Z</time>
      </trkpt>
      <trkpt lat="43.64606" lon="3.81014">
        <ele>67.43</ele>
        <time>2013-06-16T08:23:08Z</time>
      </trkpt>
      <trkpt lat="43.64607" lon="3.81">
        <ele>67.43</ele>
        <time>2013-06-16T08:23:09Z</time>
      </trkpt>
      <trkpt lat="43.64609" lon="3.80985">
        <ele>67.43</ele>
        <time>2013-06-16T08:23:10Z</time>
      </trkpt>
      <trkpt lat="43.64611" lon="3.8097">
        <ele>67.43</ele>
        <time>2013-06-16T08:23:11Z</time>
      </trkpt>
      <trkpt lat="43.64643" lon="3.80834">
        <ele>65.99</ele>
        <time>2013-06-16T08:23:21Z</time>
      </trkpt>
      <trkpt lat="43.64682" lon="3.80695">
        <ele>65.03</ele>
        <time>2013-06-16T08:23:32Z</time>
      </trkpt>
      <trkpt lat="43.64682" lon="3.8055">
        <ele>64.55</ele>
        <time>2013-06-16T08:23:42Z</time>
      </trkpt>
      <trkpt lat="43.64671" lon="3.80349">
        <ele>65.03</ele>
        <time>2013-06-16T08:23:55Z</time>
      </trkpt>
      <trkpt lat="43.64688" lon="3.80196">
        <ele>64.55</ele>
        <time>2013-06-16T08:24:07Z</time>
      </trkpt>
      <trkpt lat="43.64694" lon="3.80169">
        <ele>64.07</ele>
        <time>2013-06-16T08:24:13Z</time>
      </trkpt>
      <trkpt lat="43.64697" lon="3.80155">
        <ele>63.58</ele>
        <time>2013-06-16T08:24:24Z</time>
      </trkpt>
      <trkpt lat="43.64707" lon="3.80128">
        <ele>65.03</ele>
        <time>2013-06-16T08:24:43Z</time>
      </trkpt>
      <trkpt lat="43.64749" lon="3.80015">
        <ele>65.51</ele>
        <time>2013-06-16T08:24:54Z</time>
      </trkpt>
      <trkpt lat="43.64754" lon="3.7999">
        <ele>65.03</ele>
        <time>2013-06-16T08:24:56Z</time>
      </trkpt>
      <trkpt lat="43.64755" lon="3.79976">
        <ele>65.03</ele>
        <time>2013-06-16T08:24:57Z</time>
      </trkpt>
      <trkpt lat="43.64765" lon="3.7983">
        <ele>61.66</ele>
        <time>2013-06-16T08:25:09Z</time>
      </trkpt>
      <trkpt lat="43.64785" lon="3.79755">
        <ele>61.18</ele>
        <time>2013-06-16T08:25:19Z</time>
      </trkpt>
      <trkpt lat="43.64817" lon="3.79703">
        <ele>62.14</ele>
        <time>2013-06-16T08:25:26Z</time>
      </trkpt>
      <trkpt lat="43.6488" lon="3.79573">
        <ele>61.66</ele>
        <time>2013-06-16T08:25:39Z</time>
      </trkpt>
      <trkpt lat="43.64938" lon="3.79452">
        <ele>61.18</ele>
        <time>2013-06-16T08:25:49Z</time>
      </trkpt>
      <trkpt lat="43.64968" lon="3.79363">
        <ele>61.66</ele>
        <time>2013-06-16T08:25:56Z</time>
      </trkpt>
      <trkpt lat="43.65004" lon="3.79198">
        <ele>63.1</ele>
        <time>2013-06-16T08:26:07Z</time>
      </trkpt>
      <trkpt lat="43.6501" lon="3.79187">
        <ele>63.1</ele>
        <time>2013-06-16T08:26:08Z</time>
      </trkpt>
      <trkpt lat="43.65017" lon="3.79176">
        <ele>63.1</ele>
        <time>2013-06-16T08:26:09Z</time>
      </trkpt>
      <trkpt lat="43.65025" lon="3.79167">
        <ele>63.1</ele>
        <time>2013-06-16T08:26:10Z</time>
      </trkpt>
      <trkpt lat="43.65033" lon="3.79158">
        <ele>63.1</ele>
        <time>2013-06-16T08:26:11Z</time>
      </trkpt>
      <trkpt lat="43.6504" lon="3.79148">
        <ele>63.58</ele>
        <time>2013-06-16T08:26:12Z</time>
      </trkpt>
      <trkpt lat="43.65045" lon="3.79136">
        <ele>63.58</ele>
        <time>2013-06-16T08:26:13Z</time>
      </trkpt>
      <trkpt lat="43.65049" lon="3.79125">
        <ele>63.58</ele>
        <time>2013-06-16T08:26:14Z</time>
      </trkpt>
      <trkpt lat="43.65054" lon="3.79114">
        <ele>63.58</ele>
        <time>2013-06-16T08:26:15Z</time>
      </trkpt>
      <trkpt lat="43.6506" lon="3.79104">
        <ele>63.58</ele>
        <time>2013-06-16T08:26:16Z</time>
      </trkpt>
      <trkpt lat="43.65066" lon="3.79097">
        <ele>63.58</ele>
        <time>2013-06-16T08:26:17Z</time>
      </trkpt>
      <trkpt lat="43.6507" lon="3.79094">
        <ele>64.07</ele>
        <time>2013-06-16T08:26:18Z</time>
      </trkpt>
      <trkpt lat="43.65072" lon="3.79091">
        <ele>64.07</ele>
        <time>2013-06-16T08:26:19Z</time>
      </trkpt>
      <trkpt lat="43.65074" lon="3.79086">
        <ele>64.55</ele>
        <time>2013-06-16T08:26:20Z</time>
      </trkpt>
      <trkpt lat="43.65075" lon="3.79079">
        <ele>65.03</ele>
        <time>2013-06-16T08:26:21Z</time>
      </trkpt>
      <trkpt lat="43.65075" lon="3.79071">
        <ele>65.03</ele>
        <time>2013-06-16T08:26:22Z</time>
      </trkpt>
      <trkpt lat="43.65077" lon="3.79063">
        <ele>64.55</ele>
        <time>2013-06-16T08:26:23Z</time>
      </trkpt>
      <trkpt lat="43.65081" lon="3.79056">
        <ele>64.55</ele>
        <time>2013-06-16T08:26:24Z</time>
      </trkpt>
      <trkpt lat="43.65087" lon="3.79048">
        <ele>64.07</ele>
        <time>2013-06-16T08:26:25Z</time>
      </trkpt>
      <trkpt lat="43.65092" lon="3.79037">
        <ele>64.07</ele>
        <time>2013-06-16T08:26:26Z</time>
      </trkpt>
      <trkpt lat="43.65096" lon="3.79025">
        <ele>63.58</ele>
        <time>2013-06-16T08:26:27Z</time>
      </trkpt>
      <trkpt lat="43.65099" lon="3.79012">
        <ele>63.58</ele>
        <time>2013-06-16T08:26:28Z</time>
      </trkpt>
      <trkpt lat="43.651" lon="3.78999">
        <ele>63.1</ele>
        <time>2013-06-16T08:26:29Z</time>
      </trkpt>
      <trkpt lat="43.651" lon="3.78986">
        <ele>62.62</ele>
        <time>2013-06-16T08:26:30Z</time>
      </trkpt>
      <trkpt lat="43.65097" lon="3.78974">
        <ele>62.62</ele>
        <time>2013-06-16T08:26:31Z</time>
      </trkpt>
      <trkpt lat="43.65094" lon="3.78961">
        <ele>62.62</ele>
        <time>2013-06-16T08:26:32Z</time>
      </trkpt>
      <trkpt lat="43.6509" lon="3.78949">
        <ele>62.62</ele>
        <time>2013-06-16T08:26:33Z</time>
      </trkpt>
      <trkpt lat="43.65075" lon="3.78902">
        <ele>62.62</ele>
        <time>2013-06-16T08:26:37Z</time>
      </trkpt>
      <trkpt lat="43.65075" lon="3.78889">
        <ele>62.62</ele>
        <time>2013-06-16T08:26:38Z</time>
      </trkpt>
      <trkpt lat="43.65077" lon="3.78876">
        <ele>62.62</ele>
        <time>2013-06-16T08:26:39Z</time>
      </trkpt>
      <trkpt lat="43.6508" lon="3.78862">
        <ele>62.14</ele>
        <time>2013-06-16T08:26:40Z</time>
      </trkpt>
      <trkpt lat="43.65089" lon="3.78852">
        <ele>62.14</ele>
        <time>2013-06-16T08:26:41Z</time>
      </trkpt>
      <trkpt lat="43.65099" lon="3.78844">
        <ele>61.66</ele>
        <time>2013-06-16T08:26:42Z</time>
      </trkpt>
      <trkpt lat="43.65108" lon="3.78837">
        <ele>61.66</ele>
        <time>2013-06-16T08:26:43Z</time>
      </trkpt>
      <trkpt lat="43.65117" lon="3.7883">
        <ele>61.66</ele>
        <time>2013-06-16T08:26:44Z</time>
      </trkpt>
      <trkpt lat="43.65198" lon="3.78773">
        <ele>63.58</ele>
        <time>2013-06-16T08:26:53Z</time>
      </trkpt>
      <trkpt lat="43.65206" lon="3.78764">
        <ele>64.07</ele>
        <time>2013-06-16T08:26:54Z</time>
      </trkpt>
      <trkpt lat="43.65212" lon="3.78754">
        <ele>64.07</ele>
        <time>2013-06-16T08:26:55Z</time>
      </trkpt>
      <trkpt lat="43.65216" lon="3.78741">
        <ele>64.55</ele>
        <time>2013-06-16T08:26:56Z</time>
      </trkpt>
      <trkpt lat="43.65216" lon="3.78727">
        <ele>64.55</ele>
        <time>2013-06-16T08:26:57Z</time>
      </trkpt>
      <trkpt lat="43.65215" lon="3.7871">
        <ele>64.55</ele>
        <time>2013-06-16T08:26:58Z</time>
      </trkpt>
      <trkpt lat="43.65213" lon="3.78693">
        <ele>65.51</ele>
        <time>2013-06-16T08:26:59Z</time>
      </trkpt>
      <trkpt lat="43.65204" lon="3.78609">
        <ele>68.87</ele>
        <time>2013-06-16T08:27:06Z</time>
      </trkpt>
      <trkpt lat="43.65193" lon="3.78531">
        <ele>71.27</ele>
        <time>2013-06-16T08:27:12Z</time>
      </trkpt>
      <trkpt lat="43.65193" lon="3.78519">
        <ele>71.76</ele>
        <time>2013-06-16T08:27:13Z</time>
      </trkpt>
      <trkpt lat="43.65194" lon="3.78509">
        <ele>72.24</ele>
        <time>2013-06-16T08:27:14Z</time>
      </trkpt>
      <trkpt lat="43.65195" lon="3.785">
        <ele>72.72</ele>
        <time>2013-06-16T08:27:15Z</time>
      </trkpt>
      <trkpt lat="43.65196" lon="3.78491">
        <ele>73.2</ele>
        <time>2013-06-16T08:27:16Z</time>
      </trkpt>
      <trkpt lat="43.65199" lon="3.78458">
        <ele>74.16</ele>
        <time>2013-06-16T08:27:19Z</time>
      </trkpt>
      <trkpt lat="43.65198" lon="3.78445">
        <ele>74.64</ele>
        <time>2013-06-16T08:27:20Z</time>
      </trkpt>
      <trkpt lat="43.65196" lon="3.7843">
        <ele>75.6</ele>
        <time>2013-06-16T08:27:21Z</time>
      </trkpt>
      <trkpt lat="43.6517" lon="3.78277">
        <ele>81.85</ele>
        <time>2013-06-16T08:27:32Z</time>
      </trkpt>
      <trkpt lat="43.65168" lon="3.78205">
        <ele>84.73</ele>
        <time>2013-06-16T08:27:38Z</time>
      </trkpt>
      <trkpt lat="43.6517" lon="3.78188">
        <ele>84.73</ele>
        <time>2013-06-16T08:27:39Z</time>
      </trkpt>
      <trkpt lat="43.65181" lon="3.78122">
        <ele>86.66</ele>
        <time>2013-06-16T08:27:43Z</time>
      </trkpt>
      <trkpt lat="43.65181" lon="3.78107">
        <ele>86.66</ele>
        <time>2013-06-16T08:27:44Z</time>
      </trkpt>
      <trkpt lat="43.6518" lon="3.78092">
        <ele>87.14</ele>
        <time>2013-06-16T08:27:45Z</time>
      </trkpt>
      <trkpt lat="43.65177" lon="3.78077">
        <ele>87.62</ele>
        <time>2013-06-16T08:27:46Z</time>
      </trkpt>
      <trkpt lat="43.65174" lon="3.78063">
        <ele>88.1</ele>
        <time>2013-06-16T08:27:47Z</time>
      </trkpt>
      <trkpt lat="43.6517" lon="3.7805">
        <ele>88.58</ele>
        <time>2013-06-16T08:27:48Z</time>
      </trkpt>
      <trkpt lat="43.65165" lon="3.78039">
        <ele>89.06</ele>
        <time>2013-06-16T08:27:49Z</time>
      </trkpt>
      <trkpt lat="43.65158" lon="3.78034">
        <ele>89.06</ele>
        <time>2013-06-16T08:27:50Z</time>
      </trkpt>
      <trkpt lat="43.65149" lon="3.78036">
        <ele>90.02</ele>
        <time>2013-06-16T08:27:51Z</time>
      </trkpt>
      <trkpt lat="43.6514" lon="3.78037">
        <ele>90.5</ele>
        <time>2013-06-16T08:27:52Z</time>
      </trkpt>
      <trkpt lat="43.65131" lon="3.78036">
        <ele>90.5</ele>
        <time>2013-06-16T08:27:53Z</time>
      </trkpt>
      <trkpt lat="43.65124" lon="3.78029">
        <ele>90.98</ele>
        <time>2013-06-16T08:27:54Z</time>
      </trkpt>
      <trkpt lat="43.6512" lon="3.78018">
        <ele>91.46</ele>
        <time>2013-06-16T08:27:55Z</time>
      </trkpt>
      <trkpt lat="43.65117" lon="3.78002">
        <ele>91.46</ele>
        <time>2013-06-16T08:27:56Z</time>
      </trkpt>
      <trkpt lat="43.65114" lon="3.77984">
        <ele>91.94</ele>
        <time>2013-06-16T08:27:57Z</time>
      </trkpt>
      <trkpt lat="43.65085" lon="3.77839">
        <ele>96.27</ele>
        <time>2013-06-16T08:28:03Z</time>
      </trkpt>
      <trkpt lat="43.65076" lon="3.77816">
        <ele>97.23</ele>
        <time>2013-06-16T08:28:04Z</time>
      </trkpt>
      <trkpt lat="43.65049" lon="3.77762">
        <ele>99.63</ele>
        <time>2013-06-16T08:28:07Z</time>
      </trkpt>
      <trkpt lat="43.65039" lon="3.77751">
        <ele>100.11</ele>
        <time>2013-06-16T08:28:08Z</time>
      </trkpt>
      <trkpt lat="43.65026" lon="3.77746">
        <ele>100.11</ele>
        <time>2013-06-16T08:28:09Z</time>
      </trkpt>
      <trkpt lat="43.65009" lon="3.77744">
        <ele>100.6</ele>
        <time>2013-06-16T08:28:10Z</time>
      </trkpt>
      <trkpt lat="43.64989" lon="3.77742">
        <ele>101.56</ele>
        <time>2013-06-16T08:28:11Z</time>
      </trkpt>
      <trkpt lat="43.64859" lon="3.77729">
        <ele>107.32</ele>
        <time>2013-06-16T08:28:18Z</time>
      </trkpt>
      <trkpt lat="43.64843" lon="3.77733">
        <ele>108.29</ele>
        <time>2013-06-16T08:28:19Z</time>
      </trkpt>
      <trkpt lat="43.64827" lon="3.77736">
        <ele>108.77</ele>
        <time>2013-06-16T08:28:20Z</time>
      </trkpt>
      <trkpt lat="43.64811" lon="3.77735">
        <ele>109.73</ele>
        <time>2013-06-16T08:28:21Z</time>
      </trkpt>
      <trkpt lat="43.64793" lon="3.77733">
        <ele>110.21</ele>
        <time>2013-06-16T08:28:22Z</time>
      </trkpt>
      <trkpt lat="43.64748" lon="3.7772">
        <ele>112.61</ele>
        <time>2013-06-16T08:28:25Z</time>
      </trkpt>
      <trkpt lat="43.64736" lon="3.7771">
        <ele>113.09</ele>
        <time>2013-06-16T08:28:26Z</time>
      </trkpt>
      <trkpt lat="43.64725" lon="3.77693">
        <ele>113.57</ele>
        <time>2013-06-16T08:28:27Z</time>
      </trkpt>
      <trkpt lat="43.64715" lon="3.77673">
        <ele>114.05</ele>
        <time>2013-06-16T08:28:28Z</time>
      </trkpt>
      <trkpt lat="43.64705" lon="3.77653">
        <ele>115.01</ele>
        <time>2013-06-16T08:28:29Z</time>
      </trkpt>
      <trkpt lat="43.64695" lon="3.77634">
        <ele>115.5</ele>
        <time>2013-06-16T08:28:30Z</time>
      </trkpt>
      <trkpt lat="43.64682" lon="3.77619">
        <ele>115.98</ele>
        <time>2013-06-16T08:28:31Z</time>
      </trkpt>
      <trkpt lat="43.64668" lon="3.77607">
        <ele>116.46</ele>
        <time>2013-06-16T08:28:32Z</time>
      </trkpt>
      <trkpt lat="43.64653" lon="3.77602">
        <ele>117.42</ele>
        <time>2013-06-16T08:28:33Z</time>
      </trkpt>
      <trkpt lat="43.64639" lon="3.77599">
        <ele>118.38</ele>
        <time>2013-06-16T08:28:34Z</time>
      </trkpt>
      <trkpt lat="43.64627" lon="3.77595">
        <ele>118.86</ele>
        <time>2013-06-16T08:28:35Z</time>
      </trkpt>
      <trkpt lat="43.64617" lon="3.77587">
        <ele>118.86</ele>
        <time>2013-06-16T08:28:36Z</time>
      </trkpt>
      <trkpt lat="43.64612" lon="3.77574">
        <ele>119.34</ele>
        <time>2013-06-16T08:28:37Z</time>
      </trkpt>
      <trkpt lat="43.64611" lon="3.77556">
        <ele>120.3</ele>
        <time>2013-06-16T08:28:38Z</time>
      </trkpt>
      <trkpt lat="43.64613" lon="3.7754">
        <ele>120.78</ele>
        <time>2013-06-16T08:28:39Z</time>
      </trkpt>
      <trkpt lat="43.64614" lon="3.77522">
        <ele>121.26</ele>
        <time>2013-06-16T08:28:40Z</time>
      </trkpt>
      <trkpt lat="43.64617" lon="3.77504">
        <ele>122.22</ele>
        <time>2013-06-16T08:28:41Z</time>
      </trkpt>
      <trkpt lat="43.64623" lon="3.77488">
        <ele>122.71</ele>
        <time>2013-06-16T08:28:42Z</time>
      </trkpt>
      <trkpt lat="43.64631" lon="3.77472">
        <ele>123.19</ele>
        <time>2013-06-16T08:28:43Z</time>
      </trkpt>
      <trkpt lat="43.64638" lon="3.77456">
        <ele>124.15</ele>
        <time>2013-06-16T08:28:44Z</time>
      </trkpt>
      <trkpt lat="43.64643" lon="3.77436">
        <ele>125.11</ele>
        <time>2013-06-16T08:28:45Z</time>
      </trkpt>
      <trkpt lat="43.64645" lon="3.77411">
        <ele>126.07</ele>
        <time>2013-06-16T08:28:46Z</time>
      </trkpt>
      <trkpt lat="43.64644" lon="3.77384">
        <ele>126.55</ele>
        <time>2013-06-16T08:28:47Z</time>
      </trkpt>
      <trkpt lat="43.64642" lon="3.77357">
        <ele>127.03</ele>
        <time>2013-06-16T08:28:48Z</time>
      </trkpt>
      <trkpt lat="43.64632" lon="3.77255">
        <ele>129.43</ele>
        <time>2013-06-16T08:28:52Z</time>
      </trkpt>
      <trkpt lat="43.64626" lon="3.77235">
        <ele>130.4</ele>
        <time>2013-06-16T08:28:53Z</time>
      </trkpt>
      <trkpt lat="43.64616" lon="3.772">
        <ele>131.84</ele>
        <time>2013-06-16T08:28:55Z</time>
      </trkpt>
      <trkpt lat="43.64615" lon="3.77183">
        <ele>132.32</ele>
        <time>2013-06-16T08:28:56Z</time>
      </trkpt>
      <trkpt lat="43.64618" lon="3.77168">
        <ele>132.8</ele>
        <time>2013-06-16T08:28:57Z</time>
      </trkpt>
      <trkpt lat="43.64623" lon="3.77151">
        <ele>133.28</ele>
        <time>2013-06-16T08:28:58Z</time>
      </trkpt>
      <trkpt lat="43.64629" lon="3.77135">
        <ele>133.28</ele>
        <time>2013-06-16T08:28:59Z</time>
      </trkpt>
      <trkpt lat="43.64653" lon="3.77054">
        <ele>135.68</ele>
        <time>2013-06-16T08:29:04Z</time>
      </trkpt>
      <trkpt lat="43.64656" lon="3.77032">
        <ele>136.16</ele>
        <time>2013-06-16T08:29:05Z</time>
      </trkpt>
      <trkpt lat="43.64658" lon="3.77007">
        <ele>136.16</ele>
        <time>2013-06-16T08:29:06Z</time>
      </trkpt>
      <trkpt lat="43.64661" lon="3.7684">
        <ele>136.64</ele>
        <time>2013-06-16T08:29:13Z</time>
      </trkpt>
      <trkpt lat="43.64658" lon="3.76823">
        <ele>136.64</ele>
        <time>2013-06-16T08:29:14Z</time>
      </trkpt>
      <trkpt lat="43.64651" lon="3.76808">
        <ele>136.16</ele>
        <time>2013-06-16T08:29:15Z</time>
      </trkpt>
      <trkpt lat="43.64639" lon="3.76797">
        <ele>136.16</ele>
        <time>2013-06-16T08:29:16Z</time>
      </trkpt>
      <trkpt lat="43.64625" lon="3.7679">
        <ele>136.16</ele>
        <time>2013-06-16T08:29:17Z</time>
      </trkpt>
      <trkpt lat="43.6461" lon="3.76783">
        <ele>136.16</ele>
        <time>2013-06-16T08:29:18Z</time>
      </trkpt>
      <trkpt lat="43.64596" lon="3.76772">
        <ele>136.16</ele>
        <time>2013-06-16T08:29:19Z</time>
      </trkpt>
      <trkpt lat="43.64583" lon="3.76757">
        <ele>136.16</ele>
        <time>2013-06-16T08:29:20Z</time>
      </trkpt>
      <trkpt lat="43.64572" lon="3.7674">
        <ele>136.64</ele>
        <time>2013-06-16T08:29:21Z</time>
      </trkpt>
      <trkpt lat="43.64563" lon="3.7672">
        <ele>136.64</ele>
        <time>2013-06-16T08:29:22Z</time>
      </trkpt>
      <trkpt lat="43.64553" lon="3.767">
        <ele>137.13</ele>
        <time>2013-06-16T08:29:23Z</time>
      </trkpt>
      <trkpt lat="43.64541" lon="3.76682">
        <ele>137.13</ele>
        <time>2013-06-16T08:29:24Z</time>
      </trkpt>
      <trkpt lat="43.64528" lon="3.76665">
        <ele>137.13</ele>
        <time>2013-06-16T08:29:25Z</time>
      </trkpt>
      <trkpt lat="43.64505" lon="3.7663">
        <ele>136.16</ele>
        <time>2013-06-16T08:29:27Z</time>
      </trkpt>
      <trkpt lat="43.64498" lon="3.76609">
        <ele>135.68</ele>
        <time>2013-06-16T08:29:28Z</time>
      </trkpt>
      <trkpt lat="43.64491" lon="3.76584">
        <ele>135.2</ele>
        <time>2013-06-16T08:29:29Z</time>
      </trkpt>
      <trkpt lat="43.64486" lon="3.76558">
        <ele>135.2</ele>
        <time>2013-06-16T08:29:30Z</time>
      </trkpt>
      <trkpt lat="43.64483" lon="3.76531">
        <ele>134.72</ele>
        <time>2013-06-16T08:29:31Z</time>
      </trkpt>
      <trkpt lat="43.6448" lon="3.76504">
        <ele>134.72</ele>
        <time>2013-06-16T08:29:32Z</time>
      </trkpt>
      <trkpt lat="43.64478" lon="3.76476">
        <ele>135.2</ele>
        <time>2013-06-16T08:29:33Z</time>
      </trkpt>
      <trkpt lat="43.64436" lon="3.76264">
        <ele>137.61</ele>
        <time>2013-06-16T08:29:41Z</time>
      </trkpt>
      <trkpt lat="43.64414" lon="3.7617">
        <ele>140.49</ele>
        <time>2013-06-16T08:29:45Z</time>
      </trkpt>
      <trkpt lat="43.6437" lon="3.75988">
        <ele>141.93</ele>
        <time>2013-06-16T08:29:52Z</time>
      </trkpt>
      <trkpt lat="43.64299" lon="3.75668">
        <ele>140.49</ele>
        <time>2013-06-16T08:30:03Z</time>
      </trkpt>
      <trkpt lat="43.64237" lon="3.75468">
        <ele>141.93</ele>
        <time>2013-06-16T08:30:10Z</time>
      </trkpt>
      <trkpt lat="43.64157" lon="3.75247">
        <ele>149.14</ele>
        <time>2013-06-16T08:30:18Z</time>
      </trkpt>
      <trkpt lat="43.64049" lon="3.7503">
        <ele>155.39</ele>
        <time>2013-06-16T08:30:27Z</time>
      </trkpt>
      <trkpt lat="43.64039" lon="3.75013">
        <ele>156.35</ele>
        <time>2013-06-16T08:30:28Z</time>
      </trkpt>
      <trkpt lat="43.64026" lon="3.75001">
        <ele>156.35</ele>
        <time>2013-06-16T08:30:29Z</time>
      </trkpt>
      <trkpt lat="43.6401" lon="3.74988">
        <ele>157.31</ele>
        <time>2013-06-16T08:30:30Z</time>
      </trkpt>
      <trkpt lat="43.63993" lon="3.74977">
        <ele>157.79</ele>
        <time>2013-06-16T08:30:31Z</time>
      </trkpt>
      <trkpt lat="43.63977" lon="3.74967">
        <ele>158.27</ele>
        <time>2013-06-16T08:30:32Z</time>
      </trkpt>
      <trkpt lat="43.63949" lon="3.74953">
        <ele>159.24</ele>
        <time>2013-06-16T08:30:34Z</time>
      </trkpt>
      <trkpt lat="43.63936" lon="3.74951">
        <ele>159.24</ele>
        <time>2013-06-16T08:30:35Z</time>
      </trkpt>
      <trkpt lat="43.63926" lon="3.74952">
        <ele>159.72</ele>
        <time>2013-06-16T08:30:36Z</time>
      </trkpt>
      <trkpt lat="43.63902" lon="3.74951">
        <ele>160.68</ele>
        <time>2013-06-16T08:30:41Z</time>
      </trkpt>
      <trkpt lat="43.63903" lon="3.74946">
        <ele>160.68</ele>
        <time>2013-06-16T08:30:46Z</time>
      </trkpt>
      <trkpt lat="43.63907" lon="3.74938">
        <ele>160.2</ele>
        <time>2013-06-16T08:30:47Z</time>
      </trkpt>
      <trkpt lat="43.63915" lon="3.74926">
        <ele>159.72</ele>
        <time>2013-06-16T08:30:48Z</time>
      </trkpt>
      <trkpt lat="43.6396" lon="3.74843">
        <ele>157.31</ele>
        <time>2013-06-16T08:30:52Z</time>
      </trkpt>
      <trkpt lat="43.64023" lon="3.74652">
        <ele>153.95</ele>
        <time>2013-06-16T08:30:58Z</time>
      </trkpt>
      <trkpt lat="43.64075" lon="3.74494">
        <ele>154.43</ele>
        <time>2013-06-16T08:31:05Z</time>
      </trkpt>
      <trkpt lat="43.64126" lon="3.74335">
        <ele>154.43</ele>
        <time>2013-06-16T08:31:14Z</time>
      </trkpt>
      <trkpt lat="43.64147" lon="3.74249">
        <ele>154.43</ele>
        <time>2013-06-16T08:31:20Z</time>
      </trkpt>
      <trkpt lat="43.64152" lon="3.74238">
        <ele>154.43</ele>
        <time>2013-06-16T08:31:21Z</time>
      </trkpt>
      <trkpt lat="43.64162" lon="3.74218">
        <ele>154.43</ele>
        <time>2013-06-16T08:31:23Z</time>
      </trkpt>
      <trkpt lat="43.64164" lon="3.74207">
        <ele>154.43</ele>
        <time>2013-06-16T08:31:24Z</time>
      </trkpt>
      <trkpt lat="43.64164" lon="3.74194">
        <ele>154.43</ele>
        <time>2013-06-16T08:31:25Z</time>
      </trkpt>
      <trkpt lat="43.64164" lon="3.74178">
        <ele>154.43</ele>
        <time>2013-06-16T08:31:26Z</time>
      </trkpt>
      <trkpt lat="43.64166" lon="3.74161">
        <ele>154.43</ele>
        <time>2013-06-16T08:31:27Z</time>
      </trkpt>
      <trkpt lat="43.6417" lon="3.74142">
        <ele>154.43</ele>
        <time>2013-06-16T08:31:28Z</time>
      </trkpt>
      <trkpt lat="43.64207" lon="3.74016">
        <ele>155.39</ele>
        <time>2013-06-16T08:31:33Z</time>
      </trkpt>
      <trkpt lat="43.64291" lon="3.73756">
        <ele>151.54</ele>
        <time>2013-06-16T08:31:42Z</time>
      </trkpt>
      <trkpt lat="43.64306" lon="3.73729">
        <ele>151.06</ele>
        <time>2013-06-16T08:31:43Z</time>
      </trkpt>
      <trkpt lat="43.64442" lon="3.73486">
        <ele>158.27</ele>
        <time>2013-06-16T08:31:52Z</time>
      </trkpt>
      <trkpt lat="43.645" lon="3.73388">
        <ele>164.52</ele>
        <time>2013-06-16T08:31:56Z</time>
      </trkpt>
      <trkpt lat="43.64691" lon="3.7316">
        <ele>181.83</ele>
        <time>2013-06-16T08:32:06Z</time>
      </trkpt>
      <trkpt lat="43.6481" lon="3.72985">
        <ele>184.71</ele>
        <time>2013-06-16T08:32:13Z</time>
      </trkpt>
      <trkpt lat="43.64844" lon="3.72947">
        <ele>184.23</ele>
        <time>2013-06-16T08:32:15Z</time>
      </trkpt>
      <trkpt lat="43.64864" lon="3.72933">
        <ele>184.23</ele>
        <time>2013-06-16T08:32:16Z</time>
      </trkpt>
      <trkpt lat="43.64921" lon="3.7289">
        <ele>181.83</ele>
        <time>2013-06-16T08:32:19Z</time>
      </trkpt>
      <trkpt lat="43.6494" lon="3.7287">
        <ele>180.38</ele>
        <time>2013-06-16T08:32:20Z</time>
      </trkpt>
      <trkpt lat="43.64957" lon="3.72847">
        <ele>178.94</ele>
        <time>2013-06-16T08:32:21Z</time>
      </trkpt>
      <trkpt lat="43.65121" lon="3.72612">
        <ele>163.56</ele>
        <time>2013-06-16T08:32:31Z</time>
      </trkpt>
      <trkpt lat="43.65148" lon="3.72583">
        <ele>161.16</ele>
        <time>2013-06-16T08:32:33Z</time>
      </trkpt>
      <trkpt lat="43.65162" lon="3.72574">
        <ele>160.2</ele>
        <time>2013-06-16T08:32:34Z</time>
      </trkpt>
      <trkpt lat="43.65179" lon="3.72569">
        <ele>159.24</ele>
        <time>2013-06-16T08:32:35Z</time>
      </trkpt>
      <trkpt lat="43.65196" lon="3.72568">
        <ele>158.75</ele>
        <time>2013-06-16T08:32:36Z</time>
      </trkpt>
      <trkpt lat="43.65215" lon="3.72572">
        <ele>157.31</ele>
        <time>2013-06-16T08:32:37Z</time>
      </trkpt>
      <trkpt lat="43.65233" lon="3.72579">
        <ele>156.35</ele>
        <time>2013-06-16T08:32:38Z</time>
      </trkpt>
      <trkpt lat="43.65249" lon="3.72589">
        <ele>155.87</ele>
        <time>2013-06-16T08:32:39Z</time>
      </trkpt>
      <trkpt lat="43.65261" lon="3.72601">
        <ele>154.91</ele>
        <time>2013-06-16T08:32:40Z</time>
      </trkpt>
      <trkpt lat="43.6527" lon="3.72616">
        <ele>154.43</ele>
        <time>2013-06-16T08:32:41Z</time>
      </trkpt>
      <trkpt lat="43.65278" lon="3.72634">
        <ele>153.47</ele>
        <time>2013-06-16T08:32:42Z</time>
      </trkpt>
      <trkpt lat="43.65285" lon="3.7265">
        <ele>152.51</ele>
        <time>2013-06-16T08:32:43Z</time>
      </trkpt>
      <trkpt lat="43.65293" lon="3.72664">
        <ele>151.54</ele>
        <time>2013-06-16T08:32:44Z</time>
      </trkpt>
      <trkpt lat="43.65303" lon="3.72677">
        <ele>150.58</ele>
        <time>2013-06-16T08:32:45Z</time>
      </trkpt>
      <trkpt lat="43.65313" lon="3.72683">
        <ele>149.62</ele>
        <time>2013-06-16T08:32:46Z</time>
      </trkpt>
      <trkpt lat="43.65328" lon="3.72678">
        <ele>148.66</ele>
        <time>2013-06-16T08:32:47Z</time>
      </trkpt>
      <trkpt lat="43.65344" lon="3.72674">
        <ele>148.18</ele>
        <time>2013-06-16T08:32:48Z</time>
      </trkpt>
      <trkpt lat="43.6536" lon="3.72669">
        <ele>147.22</ele>
        <time>2013-06-16T08:32:49Z</time>
      </trkpt>
      <trkpt lat="43.65406" lon="3.72651">
        <ele>144.82</ele>
        <time>2013-06-16T08:32:52Z</time>
      </trkpt>
      <trkpt lat="43.65422" lon="3.7264">
        <ele>144.34</ele>
        <time>2013-06-16T08:32:53Z</time>
      </trkpt>
      <trkpt lat="43.65437" lon="3.72627">
        <ele>143.37</ele>
        <time>2013-06-16T08:32:54Z</time>
      </trkpt>
      <trkpt lat="43.65492" lon="3.72581">
        <ele>139.53</ele>
        <time>2013-06-16T08:32:58Z</time>
      </trkpt>
      <trkpt lat="43.65507" lon="3.72574">
        <ele>139.05</ele>
        <time>2013-06-16T08:32:59Z</time>
      </trkpt>
      <trkpt lat="43.65523" lon="3.72571">
        <ele>138.09</ele>
        <time>2013-06-16T08:33:00Z</time>
      </trkpt>
      <trkpt lat="43.65539" lon="3.72571">
        <ele>137.13</ele>
        <time>2013-06-16T08:33:01Z</time>
      </trkpt>
      <trkpt lat="43.65554" lon="3.72573">
        <ele>136.16</ele>
        <time>2013-06-16T08:33:02Z</time>
      </trkpt>
      <trkpt lat="43.65569" lon="3.72578">
        <ele>135.68</ele>
        <time>2013-06-16T08:33:03Z</time>
      </trkpt>
      <trkpt lat="43.65584" lon="3.72587">
        <ele>134.72</ele>
        <time>2013-06-16T08:33:04Z</time>
      </trkpt>
      <trkpt lat="43.65599" lon="3.72597">
        <ele>134.72</ele>
        <time>2013-06-16T08:33:05Z</time>
      </trkpt>
      <trkpt lat="43.65615" lon="3.72604">
        <ele>133.76</ele>
        <time>2013-06-16T08:33:06Z</time>
      </trkpt>
      <trkpt lat="43.65632" lon="3.72609">
        <ele>133.28</ele>
        <time>2013-06-16T08:33:07Z</time>
      </trkpt>
      <trkpt lat="43.6565" lon="3.72611">
        <ele>132.32</ele>
        <time>2013-06-16T08:33:08Z</time>
      </trkpt>
      <trkpt lat="43.65667" lon="3.72609">
        <ele>131.36</ele>
        <time>2013-06-16T08:33:09Z</time>
      </trkpt>
      <trkpt lat="43.65684" lon="3.72605">
        <ele>130.4</ele>
        <time>2013-06-16T08:33:10Z</time>
      </trkpt>
      <trkpt lat="43.65733" lon="3.72601">
        <ele>127.99</ele>
        <time>2013-06-16T08:33:13Z</time>
      </trkpt>
      <trkpt lat="43.65747" lon="3.72605">
        <ele>127.51</ele>
        <time>2013-06-16T08:33:14Z</time>
      </trkpt>
      <trkpt lat="43.65762" lon="3.72612">
        <ele>126.55</ele>
        <time>2013-06-16T08:33:15Z</time>
      </trkpt>
      <trkpt lat="43.65807" lon="3.72636">
        <ele>124.15</ele>
        <time>2013-06-16T08:33:18Z</time>
      </trkpt>
      <trkpt lat="43.65825" lon="3.72638">
        <ele>123.19</ele>
        <time>2013-06-16T08:33:19Z</time>
      </trkpt>
      <trkpt lat="43.65919" lon="3.72645">
        <ele>118.86</ele>
        <time>2013-06-16T08:33:25Z</time>
      </trkpt>
      <trkpt lat="43.6593" lon="3.72636">
        <ele>117.9</ele>
        <time>2013-06-16T08:33:26Z</time>
      </trkpt>
      <trkpt lat="43.65941" lon="3.72622">
        <ele>117.42</ele>
        <time>2013-06-16T08:33:27Z</time>
      </trkpt>
      <trkpt lat="43.65952" lon="3.72603">
        <ele>116.46</ele>
        <time>2013-06-16T08:33:28Z</time>
      </trkpt>
      <trkpt lat="43.65963" lon="3.72581">
        <ele>115.5</ele>
        <time>2013-06-16T08:33:29Z</time>
      </trkpt>
      <trkpt lat="43.65973" lon="3.72559">
        <ele>114.53</ele>
        <time>2013-06-16T08:33:30Z</time>
      </trkpt>
      <trkpt lat="43.66075" lon="3.72355">
        <ele>108.29</ele>
        <time>2013-06-16T08:33:41Z</time>
      </trkpt>
      <trkpt lat="43.66088" lon="3.7234">
        <ele>108.29</ele>
        <time>2013-06-16T08:33:42Z</time>
      </trkpt>
      <trkpt lat="43.66102" lon="3.72325">
        <ele>107.81</ele>
        <time>2013-06-16T08:33:43Z</time>
      </trkpt>
      <trkpt lat="43.66218" lon="3.72214">
        <ele>106.84</ele>
        <time>2013-06-16T08:33:51Z</time>
      </trkpt>
      <trkpt lat="43.6623" lon="3.72205">
        <ele>106.36</ele>
        <time>2013-06-16T08:33:52Z</time>
      </trkpt>
      <trkpt lat="43.66243" lon="3.72198">
        <ele>105.88</ele>
        <time>2013-06-16T08:33:53Z</time>
      </trkpt>
      <trkpt lat="43.66255" lon="3.72194">
        <ele>105.4</ele>
        <time>2013-06-16T08:33:54Z</time>
      </trkpt>
      <trkpt lat="43.66266" lon="3.72198">
        <ele>104.44</ele>
        <time>2013-06-16T08:33:55Z</time>
      </trkpt>
      <trkpt lat="43.66277" lon="3.72206">
        <ele>103.48</ele>
        <time>2013-06-16T08:33:56Z</time>
      </trkpt>
      <trkpt lat="43.66286" lon="3.72221">
        <ele>103.48</ele>
        <time>2013-06-16T08:33:57Z</time>
      </trkpt>
      <trkpt lat="43.66297" lon="3.72239">
        <ele>102.52</ele>
        <time>2013-06-16T08:33:58Z</time>
      </trkpt>
      <trkpt lat="43.66309" lon="3.72259">
        <ele>101.56</ele>
        <time>2013-06-16T08:33:59Z</time>
      </trkpt>
      <trkpt lat="43.66395" lon="3.72389">
        <ele>96.75</ele>
        <time>2013-06-16T08:34:06Z</time>
      </trkpt>
      <trkpt lat="43.66407" lon="3.72401">
        <ele>95.79</ele>
        <time>2013-06-16T08:34:07Z</time>
      </trkpt>
      <trkpt lat="43.66418" lon="3.72409">
        <ele>95.31</ele>
        <time>2013-06-16T08:34:08Z</time>
      </trkpt>
      <trkpt lat="43.66428" lon="3.72415">
        <ele>94.83</ele>
        <time>2013-06-16T08:34:09Z</time>
      </trkpt>
      <trkpt lat="43.66437" lon="3.72413">
        <ele>93.87</ele>
        <time>2013-06-16T08:34:10Z</time>
      </trkpt>
      <trkpt lat="43.66447" lon="3.72407">
        <ele>92.9</ele>
        <time>2013-06-16T08:34:11Z</time>
      </trkpt>
      <trkpt lat="43.66458" lon="3.724">
        <ele>92.9</ele>
        <time>2013-06-16T08:34:12Z</time>
      </trkpt>
      <trkpt lat="43.66469" lon="3.72391">
        <ele>92.9</ele>
        <time>2013-06-16T08:34:13Z</time>
      </trkpt>
      <trkpt lat="43.66481" lon="3.7238">
        <ele>92.9</ele>
        <time>2013-06-16T08:34:14Z</time>
      </trkpt>
      <trkpt lat="43.66494" lon="3.72367">
        <ele>92.42</ele>
        <time>2013-06-16T08:34:15Z</time>
      </trkpt>
      <trkpt lat="43.66507" lon="3.72352">
        <ele>92.42</ele>
        <time>2013-06-16T08:34:16Z</time>
      </trkpt>
      <trkpt lat="43.66564" lon="3.72272">
        <ele>93.39</ele>
        <time>2013-06-16T08:34:21Z</time>
      </trkpt>
      <trkpt lat="43.66571" lon="3.72253">
        <ele>93.39</ele>
        <time>2013-06-16T08:34:22Z</time>
      </trkpt>
      <trkpt lat="43.66575" lon="3.72235">
        <ele>93.87</ele>
        <time>2013-06-16T08:34:23Z</time>
      </trkpt>
      <trkpt lat="43.6658" lon="3.72217">
        <ele>94.35</ele>
        <time>2013-06-16T08:34:24Z</time>
      </trkpt>
      <trkpt lat="43.66586" lon="3.722">
        <ele>94.35</ele>
        <time>2013-06-16T08:34:25Z</time>
      </trkpt>
      <trkpt lat="43.66594" lon="3.72187">
        <ele>94.83</ele>
        <time>2013-06-16T08:34:26Z</time>
      </trkpt>
      <trkpt lat="43.66606" lon="3.72178">
        <ele>95.79</ele>
        <time>2013-06-16T08:34:27Z</time>
      </trkpt>
      <trkpt lat="43.66619" lon="3.72173">
        <ele>96.27</ele>
        <time>2013-06-16T08:34:28Z</time>
      </trkpt>
      <trkpt lat="43.66635" lon="3.72175">
        <ele>97.23</ele>
        <time>2013-06-16T08:34:29Z</time>
      </trkpt>
      <trkpt lat="43.66651" lon="3.72176">
        <ele>98.19</ele>
        <time>2013-06-16T08:34:30Z</time>
      </trkpt>
      <trkpt lat="43.66795" lon="3.72175">
        <ele>108.29</ele>
        <time>2013-06-16T08:34:39Z</time>
      </trkpt>
      <trkpt lat="43.66863" lon="3.72169">
        <ele>113.09</ele>
        <time>2013-06-16T08:34:44Z</time>
      </trkpt>
      <trkpt lat="43.66875" lon="3.72164">
        <ele>113.57</ele>
        <time>2013-06-16T08:34:45Z</time>
      </trkpt>
      <trkpt lat="43.66886" lon="3.72156">
        <ele>114.53</ele>
        <time>2013-06-16T08:34:46Z</time>
      </trkpt>
      <trkpt lat="43.66898" lon="3.72146">
        <ele>115.5</ele>
        <time>2013-06-16T08:34:47Z</time>
      </trkpt>
      <trkpt lat="43.66908" lon="3.72135">
        <ele>116.46</ele>
        <time>2013-06-16T08:34:48Z</time>
      </trkpt>
      <trkpt lat="43.66917" lon="3.72124">
        <ele>117.42</ele>
        <time>2013-06-16T08:34:49Z</time>
      </trkpt>
      <trkpt lat="43.66924" lon="3.72113">
        <ele>118.38</ele>
        <time>2013-06-16T08:34:50Z</time>
      </trkpt>
      <trkpt lat="43.6693" lon="3.72103">
        <ele>118.86</ele>
        <time>2013-06-16T08:34:51Z</time>
      </trkpt>
      <trkpt lat="43.66941" lon="3.72082">
        <ele>120.78</ele>
        <time>2013-06-16T08:34:56Z</time>
      </trkpt>
      <trkpt lat="43.66944" lon="3.72079">
        <ele>120.78</ele>
        <time>2013-06-16T08:34:57Z</time>
      </trkpt>
      <trkpt lat="43.66953" lon="3.72069">
        <ele>121.74</ele>
        <time>2013-06-16T08:34:59Z</time>
      </trkpt>
      <trkpt lat="43.66958" lon="3.72061">
        <ele>122.22</ele>
        <time>2013-06-16T08:35:00Z</time>
      </trkpt>
      <trkpt lat="43.67013" lon="3.71983">
        <ele>127.99</ele>
        <time>2013-06-16T08:35:09Z</time>
      </trkpt>
      <trkpt lat="43.6709" lon="3.71878">
        <ele>135.68</ele>
        <time>2013-06-16T08:35:19Z</time>
      </trkpt>
      <trkpt lat="43.67146" lon="3.718">
        <ele>140.97</ele>
        <time>2013-06-16T08:35:29Z</time>
      </trkpt>
      <trkpt lat="43.67183" lon="3.71745">
        <ele>144.34</ele>
        <time>2013-06-16T08:35:38Z</time>
      </trkpt>
      <trkpt lat="43.67182" lon="3.71742">
        <ele>144.34</ele>
        <time>2013-06-16T08:35:41Z</time>
      </trkpt>
      <trkpt lat="43.67181" lon="3.71739">
        <ele>143.85</ele>
        <time>2013-06-16T08:35:42Z</time>
      </trkpt>
      <trkpt lat="43.67177" lon="3.71735">
        <ele>144.34</ele>
        <time>2013-06-16T08:35:43Z</time>
      </trkpt>
      <trkpt lat="43.6717" lon="3.71729">
        <ele>144.82</ele>
        <time>2013-06-16T08:35:44Z</time>
      </trkpt>
      <trkpt lat="43.67162" lon="3.71725">
        <ele>143.85</ele>
        <time>2013-06-16T08:35:45Z</time>
      </trkpt>
      <trkpt lat="43.67074" lon="3.71668">
        <ele>137.13</ele>
        <time>2013-06-16T08:35:54Z</time>
      </trkpt>
      <trkpt lat="43.66913" lon="3.71567">
        <ele>128.95</ele>
        <time>2013-06-16T08:36:09Z</time>
      </trkpt>
      <trkpt lat="43.66906" lon="3.71559">
        <ele>129.43</ele>
        <time>2013-06-16T08:36:10Z</time>
      </trkpt>
      <trkpt lat="43.66901" lon="3.7155">
        <ele>128.95</ele>
        <time>2013-06-16T08:36:11Z</time>
      </trkpt>
      <trkpt lat="43.66896" lon="3.71542">
        <ele>128.95</ele>
        <time>2013-06-16T08:36:12Z</time>
      </trkpt>
      <trkpt lat="43.66888" lon="3.71537">
        <ele>128.95</ele>
        <time>2013-06-16T08:36:13Z</time>
      </trkpt>
      <trkpt lat="43.66879" lon="3.71535">
        <ele>128.47</ele>
        <time>2013-06-16T08:36:14Z</time>
      </trkpt>
      <trkpt lat="43.66868" lon="3.71532">
        <ele>128.47</ele>
        <time>2013-06-16T08:36:15Z</time>
      </trkpt>
      <trkpt lat="43.66855" lon="3.71526">
        <ele>127.99</ele>
        <time>2013-06-16T08:36:16Z</time>
      </trkpt>
      <trkpt lat="43.66842" lon="3.71517">
        <ele>127.99</ele>
        <time>2013-06-16T08:36:17Z</time>
      </trkpt>
      <trkpt lat="43.66827" lon="3.71508">
        <ele>127.99</ele>
        <time>2013-06-16T08:36:18Z</time>
      </trkpt>
      <trkpt lat="43.6676" lon="3.71465">
        <ele>125.59</ele>
        <time>2013-06-16T08:36:24Z</time>
      </trkpt>
      <trkpt lat="43.66694" lon="3.71436">
        <ele>123.67</ele>
        <time>2013-06-16T08:36:29Z</time>
      </trkpt>
      <trkpt lat="43.66639" lon="3.71392">
        <ele>125.11</ele>
        <time>2013-06-16T08:36:34Z</time>
      </trkpt>
      <trkpt lat="43.66575" lon="3.71339">
        <ele>127.51</ele>
        <time>2013-06-16T08:36:39Z</time>
      </trkpt>
      <trkpt lat="43.66494" lon="3.7127">
        <ele>131.84</ele>
        <time>2013-06-16T08:36:46Z</time>
      </trkpt>
      <trkpt lat="43.66468" lon="3.71239">
        <ele>132.8</ele>
        <time>2013-06-16T08:36:49Z</time>
      </trkpt>
      <trkpt lat="43.66457" lon="3.71223">
        <ele>133.28</ele>
        <time>2013-06-16T08:36:50Z</time>
      </trkpt>
      <trkpt lat="43.66448" lon="3.71203">
        <ele>133.76</ele>
        <time>2013-06-16T08:36:51Z</time>
      </trkpt>
      <trkpt lat="43.66409" lon="3.71111">
        <ele>135.2</ele>
        <time>2013-06-16T08:36:57Z</time>
      </trkpt>
      <trkpt lat="43.66354" lon="3.71009">
        <ele>133.76</ele>
        <time>2013-06-16T08:37:04Z</time>
      </trkpt>
      <trkpt lat="43.66339" lon="3.7099">
        <ele>132.8</ele>
        <time>2013-06-16T08:37:05Z</time>
      </trkpt>
      <trkpt lat="43.66322" lon="3.70972">
        <ele>132.32</ele>
        <time>2013-06-16T08:37:06Z</time>
      </trkpt>
      <trkpt lat="43.66302" lon="3.70956">
        <ele>131.84</ele>
        <time>2013-06-16T08:37:07Z</time>
      </trkpt>
      <trkpt lat="43.6628" lon="3.70942">
        <ele>131.36</ele>
        <time>2013-06-16T08:37:08Z</time>
      </trkpt>
      <trkpt lat="43.66256" lon="3.70929">
        <ele>131.36</ele>
        <time>2013-06-16T08:37:09Z</time>
      </trkpt>
      <trkpt lat="43.66231" lon="3.70916">
        <ele>131.36</ele>
        <time>2013-06-16T08:37:10Z</time>
      </trkpt>
      <trkpt lat="43.6604" lon="3.70816">
        <ele>133.28</ele>
        <time>2013-06-16T08:37:18Z</time>
      </trkpt>
      <trkpt lat="43.65983" lon="3.70774">
        <ele>133.28</ele>
        <time>2013-06-16T08:37:21Z</time>
      </trkpt>
      <trkpt lat="43.65969" lon="3.70757">
        <ele>132.8</ele>
        <time>2013-06-16T08:37:22Z</time>
      </trkpt>
      <trkpt lat="43.65958" lon="3.70733">
        <ele>132.8</ele>
        <time>2013-06-16T08:37:23Z</time>
      </trkpt>
      <trkpt lat="43.65948" lon="3.70711">
        <ele>132.8</ele>
        <time>2013-06-16T08:37:24Z</time>
      </trkpt>
      <trkpt lat="43.65938" lon="3.7069">
        <ele>132.32</ele>
        <time>2013-06-16T08:37:25Z</time>
      </trkpt>
      <trkpt lat="43.65923" lon="3.70673">
        <ele>132.32</ele>
        <time>2013-06-16T08:37:26Z</time>
      </trkpt>
      <trkpt lat="43.65905" lon="3.70658">
        <ele>131.84</ele>
        <time>2013-06-16T08:37:27Z</time>
      </trkpt>
      <trkpt lat="43.65884" lon="3.70642">
        <ele>130.88</ele>
        <time>2013-06-16T08:37:28Z</time>
      </trkpt>
      <trkpt lat="43.65826" lon="3.70594">
        <ele>127.03</ele>
        <time>2013-06-16T08:37:31Z</time>
      </trkpt>
      <trkpt lat="43.65809" lon="3.70571">
        <ele>125.59</ele>
        <time>2013-06-16T08:37:32Z</time>
      </trkpt>
      <trkpt lat="43.65793" lon="3.70547">
        <ele>124.63</ele>
        <time>2013-06-16T08:37:33Z</time>
      </trkpt>
      <trkpt lat="43.65758" lon="3.70497">
        <ele>122.22</ele>
        <time>2013-06-16T08:37:35Z</time>
      </trkpt>
      <trkpt lat="43.65737" lon="3.70475">
        <ele>120.78</ele>
        <time>2013-06-16T08:37:36Z</time>
      </trkpt>
      <trkpt lat="43.65715" lon="3.70455">
        <ele>119.34</ele>
        <time>2013-06-16T08:37:37Z</time>
      </trkpt>
      <trkpt lat="43.65649" lon="3.70397">
        <ele>115.98</ele>
        <time>2013-06-16T08:37:41Z</time>
      </trkpt>
      <trkpt lat="43.65636" lon="3.70378">
        <ele>115.01</ele>
        <time>2013-06-16T08:37:42Z</time>
      </trkpt>
      <trkpt lat="43.65625" lon="3.70355">
        <ele>114.53</ele>
        <time>2013-06-16T08:37:43Z</time>
      </trkpt>
      <trkpt lat="43.65615" lon="3.70329">
        <ele>113.57</ele>
        <time>2013-06-16T08:37:44Z</time>
      </trkpt>
      <trkpt lat="43.65605" lon="3.70303">
        <ele>112.61</ele>
        <time>2013-06-16T08:37:45Z</time>
      </trkpt>
      <trkpt lat="43.65593" lon="3.70278">
        <ele>111.65</ele>
        <time>2013-06-16T08:37:46Z</time>
      </trkpt>
      <trkpt lat="43.65579" lon="3.70255">
        <ele>111.17</ele>
        <time>2013-06-16T08:37:47Z</time>
      </trkpt>
      <trkpt lat="43.65565" lon="3.70237">
        <ele>110.21</ele>
        <time>2013-06-16T08:37:48Z</time>
      </trkpt>
      <trkpt lat="43.65549" lon="3.70222">
        <ele>109.73</ele>
        <time>2013-06-16T08:37:49Z</time>
      </trkpt>
      <trkpt lat="43.65534" lon="3.70209">
        <ele>109.25</ele>
        <time>2013-06-16T08:37:50Z</time>
      </trkpt>
      <trkpt lat="43.65519" lon="3.70196">
        <ele>109.25</ele>
        <time>2013-06-16T08:37:51Z</time>
      </trkpt>
      <trkpt lat="43.65504" lon="3.7018">
        <ele>108.77</ele>
        <time>2013-06-16T08:37:52Z</time>
      </trkpt>
      <trkpt lat="43.6549" lon="3.70161">
        <ele>109.25</ele>
        <time>2013-06-16T08:37:53Z</time>
      </trkpt>
      <trkpt lat="43.65476" lon="3.70141">
        <ele>109.73</ele>
        <time>2013-06-16T08:37:54Z</time>
      </trkpt>
      <trkpt lat="43.65438" lon="3.70078">
        <ele>111.65</ele>
        <time>2013-06-16T08:37:57Z</time>
      </trkpt>
      <trkpt lat="43.65428" lon="3.70053">
        <ele>112.13</ele>
        <time>2013-06-16T08:37:58Z</time>
      </trkpt>
      <trkpt lat="43.65417" lon="3.70028">
        <ele>112.61</ele>
        <time>2013-06-16T08:37:59Z</time>
      </trkpt>
      <trkpt lat="43.65404" lon="3.70006">
        <ele>113.57</ele>
        <time>2013-06-16T08:38:00Z</time>
      </trkpt>
      <trkpt lat="43.65392" lon="3.69986">
        <ele>114.05</ele>
        <time>2013-06-16T08:38:01Z</time>
      </trkpt>
      <trkpt lat="43.65382" lon="3.69967">
        <ele>115.01</ele>
        <time>2013-06-16T08:38:02Z</time>
      </trkpt>
      <trkpt lat="43.65375" lon="3.69948">
        <ele>115.5</ele>
        <time>2013-06-16T08:38:03Z</time>
      </trkpt>
      <trkpt lat="43.65371" lon="3.69928">
        <ele>115.98</ele>
        <time>2013-06-16T08:38:04Z</time>
      </trkpt>
      <trkpt lat="43.65372" lon="3.69908">
        <ele>116.94</ele>
        <time>2013-06-16T08:38:05Z</time>
      </trkpt>
      <trkpt lat="43.65374" lon="3.69892">
        <ele>117.42</ele>
        <time>2013-06-16T08:38:06Z</time>
      </trkpt>
      <trkpt lat="43.65377" lon="3.69881">
        <ele>117.9</ele>
        <time>2013-06-16T08:38:07Z</time>
      </trkpt>
      <trkpt lat="43.65381" lon="3.69875">
        <ele>117.9</ele>
        <time>2013-06-16T08:38:08Z</time>
      </trkpt>
      <trkpt lat="43.65383" lon="3.69871">
        <ele>117.42</ele>
        <time>2013-06-16T08:38:09Z</time>
      </trkpt>
      <trkpt lat="43.65385" lon="3.6987">
        <ele>117.42</ele>
        <time>2013-06-16T08:38:10Z</time>
      </trkpt>
      <trkpt lat="43.65386" lon="3.69869">
        <ele>117.42</ele>
        <time>2013-06-16T08:38:11Z</time>
      </trkpt>
      <trkpt lat="43.65388" lon="3.69868">
        <ele>117.9</ele>
        <time>2013-06-16T08:38:12Z</time>
      </trkpt>
      <trkpt lat="43.65393" lon="3.69868">
        <ele>117.9</ele>
        <time>2013-06-16T08:38:13Z</time>
      </trkpt>
      <trkpt lat="43.65399" lon="3.69869">
        <ele>117.9</ele>
        <time>2013-06-16T08:38:14Z</time>
      </trkpt>
      <trkpt lat="43.65407" lon="3.69869">
        <ele>117.9</ele>
        <time>2013-06-16T08:38:15Z</time>
      </trkpt>
      <trkpt lat="43.65418" lon="3.69866">
        <ele>118.38</ele>
        <time>2013-06-16T08:38:16Z</time>
      </trkpt>
      <trkpt lat="43.65429" lon="3.69859">
        <ele>118.86</ele>
        <time>2013-06-16T08:38:17Z</time>
      </trkpt>
      <trkpt lat="43.6544" lon="3.6985">
        <ele>119.34</ele>
        <time>2013-06-16T08:38:18Z</time>
      </trkpt>
      <trkpt lat="43.65453" lon="3.69839">
        <ele>119.34</ele>
        <time>2013-06-16T08:38:19Z</time>
      </trkpt>
      <trkpt lat="43.65557" lon="3.69742">
        <ele>122.22</ele>
        <time>2013-06-16T08:38:27Z</time>
      </trkpt>
      <trkpt lat="43.65588" lon="3.69706">
        <ele>122.71</ele>
        <time>2013-06-16T08:38:30Z</time>
      </trkpt>
      <trkpt lat="43.65597" lon="3.69699">
        <ele>122.71</ele>
        <time>2013-06-16T08:38:31Z</time>
      </trkpt>
      <trkpt lat="43.65606" lon="3.69693">
        <ele>122.71</ele>
        <time>2013-06-16T08:38:32Z</time>
      </trkpt>
      <trkpt lat="43.65616" lon="3.69688">
        <ele>122.22</ele>
        <time>2013-06-16T08:38:33Z</time>
      </trkpt>
      <trkpt lat="43.65626" lon="3.69685">
        <ele>122.22</ele>
        <time>2013-06-16T08:38:34Z</time>
      </trkpt>
      <trkpt lat="43.65637" lon="3.69683">
        <ele>122.22</ele>
        <time>2013-06-16T08:38:35Z</time>
      </trkpt>
      <trkpt lat="43.65651" lon="3.69682">
        <ele>121.74</ele>
        <time>2013-06-16T08:38:36Z</time>
      </trkpt>
      <trkpt lat="43.65667" lon="3.69682">
        <ele>121.74</ele>
        <time>2013-06-16T08:38:37Z</time>
      </trkpt>
      <trkpt lat="43.65764" lon="3.69674">
        <ele>121.26</ele>
        <time>2013-06-16T08:38:43Z</time>
      </trkpt>
      <trkpt lat="43.65781" lon="3.69679">
        <ele>121.26</ele>
        <time>2013-06-16T08:38:44Z</time>
      </trkpt>
      <trkpt lat="43.65813" lon="3.69686">
        <ele>120.78</ele>
        <time>2013-06-16T08:38:46Z</time>
      </trkpt>
      <trkpt lat="43.65829" lon="3.69684">
        <ele>120.78</ele>
        <time>2013-06-16T08:38:47Z</time>
      </trkpt>
      <trkpt lat="43.65846" lon="3.69675">
        <ele>120.78</ele>
        <time>2013-06-16T08:38:48Z</time>
      </trkpt>
      <trkpt lat="43.65862" lon="3.69662">
        <ele>121.74</ele>
        <time>2013-06-16T08:38:49Z</time>
      </trkpt>
      <trkpt lat="43.6588" lon="3.69647">
        <ele>122.71</ele>
        <time>2013-06-16T08:38:50Z</time>
      </trkpt>
      <trkpt lat="43.66" lon="3.69565">
        <ele>124.15</ele>
        <time>2013-06-16T08:38:56Z</time>
      </trkpt>
      <trkpt lat="43.66089" lon="3.69523">
        <ele>125.59</ele>
        <time>2013-06-16T08:39:01Z</time>
      </trkpt>
      <trkpt lat="43.66104" lon="3.69526">
        <ele>125.11</ele>
        <time>2013-06-16T08:39:02Z</time>
      </trkpt>
      <trkpt lat="43.66121" lon="3.69534">
        <ele>125.59</ele>
        <time>2013-06-16T08:39:03Z</time>
      </trkpt>
      <trkpt lat="43.66139" lon="3.69544">
        <ele>125.59</ele>
        <time>2013-06-16T08:39:04Z</time>
      </trkpt>
      <trkpt lat="43.66158" lon="3.69556">
        <ele>125.59</ele>
        <time>2013-06-16T08:39:05Z</time>
      </trkpt>
      <trkpt lat="43.66178" lon="3.69569">
        <ele>125.59</ele>
        <time>2013-06-16T08:39:06Z</time>
      </trkpt>
      <trkpt lat="43.66253" lon="3.69607">
        <ele>126.55</ele>
        <time>2013-06-16T08:39:10Z</time>
      </trkpt>
      <trkpt lat="43.66274" lon="3.69611">
        <ele>126.55</ele>
        <time>2013-06-16T08:39:11Z</time>
      </trkpt>
      <trkpt lat="43.66296" lon="3.69612">
        <ele>127.03</ele>
        <time>2013-06-16T08:39:12Z</time>
      </trkpt>
      <trkpt lat="43.66408" lon="3.69595">
        <ele>130.4</ele>
        <time>2013-06-16T08:39:17Z</time>
      </trkpt>
      <trkpt lat="43.66432" lon="3.69582">
        <ele>130.88</ele>
        <time>2013-06-16T08:39:18Z</time>
      </trkpt>
      <trkpt lat="43.66662" lon="3.69474">
        <ele>137.61</ele>
        <time>2013-06-16T08:39:28Z</time>
      </trkpt>
      <trkpt lat="43.66843" lon="3.69402">
        <ele>140.49</ele>
        <time>2013-06-16T08:39:36Z</time>
      </trkpt>
      <trkpt lat="43.66862" lon="3.69384">
        <ele>141.45</ele>
        <time>2013-06-16T08:39:37Z</time>
      </trkpt>
      <trkpt lat="43.66953" lon="3.69312">
        <ele>143.37</ele>
        <time>2013-06-16T08:39:42Z</time>
      </trkpt>
      <trkpt lat="43.66974" lon="3.69309">
        <ele>143.37</ele>
        <time>2013-06-16T08:39:43Z</time>
      </trkpt>
      <trkpt lat="43.66995" lon="3.69309">
        <ele>142.41</ele>
        <time>2013-06-16T08:39:44Z</time>
      </trkpt>
      <trkpt lat="43.67016" lon="3.6931">
        <ele>142.89</ele>
        <time>2013-06-16T08:39:45Z</time>
      </trkpt>
      <trkpt lat="43.67036" lon="3.69308">
        <ele>142.89</ele>
        <time>2013-06-16T08:39:46Z</time>
      </trkpt>
      <trkpt lat="43.67118" lon="3.6927">
        <ele>145.3</ele>
        <time>2013-06-16T08:39:50Z</time>
      </trkpt>
      <trkpt lat="43.6724" lon="3.69186">
        <ele>148.66</ele>
        <time>2013-06-16T08:39:56Z</time>
      </trkpt>
      <trkpt lat="43.67375" lon="3.69169">
        <ele>149.62</ele>
        <time>2013-06-16T08:40:02Z</time>
      </trkpt>
      <trkpt lat="43.67542" lon="3.69161">
        <ele>154.43</ele>
        <time>2013-06-16T08:40:09Z</time>
      </trkpt>
      <trkpt lat="43.67679" lon="3.69123">
        <ele>155.39</ele>
        <time>2013-06-16T08:40:15Z</time>
      </trkpt>
      <trkpt lat="43.67703" lon="3.69125">
        <ele>155.39</ele>
        <time>2013-06-16T08:40:16Z</time>
      </trkpt>
      <trkpt lat="43.67726" lon="3.69133">
        <ele>155.39</ele>
        <time>2013-06-16T08:40:17Z</time>
      </trkpt>
      <trkpt lat="43.67748" lon="3.69146">
        <ele>155.39</ele>
        <time>2013-06-16T08:40:18Z</time>
      </trkpt>
      <trkpt lat="43.67771" lon="3.6916">
        <ele>155.87</ele>
        <time>2013-06-16T08:40:19Z</time>
      </trkpt>
      <trkpt lat="43.67795" lon="3.69174">
        <ele>156.35</ele>
        <time>2013-06-16T08:40:20Z</time>
      </trkpt>
      <trkpt lat="43.67958" lon="3.69236">
        <ele>160.68</ele>
        <time>2013-06-16T08:40:26Z</time>
      </trkpt>
      <trkpt lat="43.67984" lon="3.69239">
        <ele>162.12</ele>
        <time>2013-06-16T08:40:27Z</time>
      </trkpt>
      <trkpt lat="43.68009" lon="3.6924">
        <ele>163.08</ele>
        <time>2013-06-16T08:40:28Z</time>
      </trkpt>
      <trkpt lat="43.68032" lon="3.69242">
        <ele>163.56</ele>
        <time>2013-06-16T08:40:29Z</time>
      </trkpt>
      <trkpt lat="43.68056" lon="3.69247">
        <ele>165</ele>
        <time>2013-06-16T08:40:30Z</time>
      </trkpt>
      <trkpt lat="43.6808" lon="3.69252">
        <ele>165.96</ele>
        <time>2013-06-16T08:40:31Z</time>
      </trkpt>
      <trkpt lat="43.6812" lon="3.69258">
        <ele>167.41</ele>
        <time>2013-06-16T08:40:33Z</time>
      </trkpt>
      <trkpt lat="43.68137" lon="3.69253">
        <ele>168.37</ele>
        <time>2013-06-16T08:40:34Z</time>
      </trkpt>
      <trkpt lat="43.68154" lon="3.69243">
        <ele>169.81</ele>
        <time>2013-06-16T08:40:35Z</time>
      </trkpt>
      <trkpt lat="43.68168" lon="3.69229">
        <ele>170.77</ele>
        <time>2013-06-16T08:40:36Z</time>
      </trkpt>
      <trkpt lat="43.68181" lon="3.6921">
        <ele>171.73</ele>
        <time>2013-06-16T08:40:37Z</time>
      </trkpt>
      <trkpt lat="43.68193" lon="3.69187">
        <ele>172.21</ele>
        <time>2013-06-16T08:40:38Z</time>
      </trkpt>
      <trkpt lat="43.68206" lon="3.6916">
        <ele>172.69</ele>
        <time>2013-06-16T08:40:39Z</time>
      </trkpt>
      <trkpt lat="43.68218" lon="3.69131">
        <ele>173.66</ele>
        <time>2013-06-16T08:40:40Z</time>
      </trkpt>
      <trkpt lat="43.68315" lon="3.68907">
        <ele>177.98</ele>
        <time>2013-06-16T08:40:47Z</time>
      </trkpt>
      <trkpt lat="43.68362" lon="3.68809">
        <ele>179.9</ele>
        <time>2013-06-16T08:40:51Z</time>
      </trkpt>
      <trkpt lat="43.68378" lon="3.68793">
        <ele>180.38</ele>
        <time>2013-06-16T08:40:52Z</time>
      </trkpt>
      <trkpt lat="43.68397" lon="3.68778">
        <ele>180.87</ele>
        <time>2013-06-16T08:40:53Z</time>
      </trkpt>
      <trkpt lat="43.68586" lon="3.68634">
        <ele>188.56</ele>
        <time>2013-06-16T08:41:02Z</time>
      </trkpt>
      <trkpt lat="43.68627" lon="3.68609">
        <ele>190</ele>
        <time>2013-06-16T08:41:04Z</time>
      </trkpt>
      <trkpt lat="43.6865" lon="3.686">
        <ele>190.48</ele>
        <time>2013-06-16T08:41:05Z</time>
      </trkpt>
      <trkpt lat="43.68675" lon="3.68593">
        <ele>191.44</ele>
        <time>2013-06-16T08:41:06Z</time>
      </trkpt>
      <trkpt lat="43.68699" lon="3.68589">
        <ele>192.4</ele>
        <time>2013-06-16T08:41:07Z</time>
      </trkpt>
      <trkpt lat="43.68723" lon="3.68586">
        <ele>193.36</ele>
        <time>2013-06-16T08:41:08Z</time>
      </trkpt>
      <trkpt lat="43.68787" lon="3.68575">
        <ele>196.25</ele>
        <time>2013-06-16T08:41:11Z</time>
      </trkpt>
      <trkpt lat="43.68807" lon="3.68567">
        <ele>196.73</ele>
        <time>2013-06-16T08:41:12Z</time>
      </trkpt>
      <trkpt lat="43.68826" lon="3.68555">
        <ele>197.69</ele>
        <time>2013-06-16T08:41:13Z</time>
      </trkpt>
      <trkpt lat="43.68845" lon="3.68537">
        <ele>198.65</ele>
        <time>2013-06-16T08:41:14Z</time>
      </trkpt>
      <trkpt lat="43.68863" lon="3.68516">
        <ele>199.61</ele>
        <time>2013-06-16T08:41:15Z</time>
      </trkpt>
      <trkpt lat="43.68881" lon="3.68494">
        <ele>200.57</ele>
        <time>2013-06-16T08:41:16Z</time>
      </trkpt>
      <trkpt lat="43.68938" lon="3.68435">
        <ele>202.98</ele>
        <time>2013-06-16T08:41:19Z</time>
      </trkpt>
      <trkpt lat="43.68958" lon="3.68421">
        <ele>203.94</ele>
        <time>2013-06-16T08:41:20Z</time>
      </trkpt>
      <trkpt lat="43.69" lon="3.68393">
        <ele>205.86</ele>
        <time>2013-06-16T08:41:22Z</time>
      </trkpt>
      <trkpt lat="43.69021" lon="3.68373">
        <ele>206.82</ele>
        <time>2013-06-16T08:41:23Z</time>
      </trkpt>
      <trkpt lat="43.69155" lon="3.68219">
        <ele>212.59</ele>
        <time>2013-06-16T08:41:30Z</time>
      </trkpt>
      <trkpt lat="43.69168" lon="3.68195">
        <ele>213.55</ele>
        <time>2013-06-16T08:41:31Z</time>
      </trkpt>
      <trkpt lat="43.69178" lon="3.68168">
        <ele>214.51</ele>
        <time>2013-06-16T08:41:32Z</time>
      </trkpt>
      <trkpt lat="43.69187" lon="3.68137">
        <ele>214.99</ele>
        <time>2013-06-16T08:41:33Z</time>
      </trkpt>
      <trkpt lat="43.69196" lon="3.68106">
        <ele>215.95</ele>
        <time>2013-06-16T08:41:34Z</time>
      </trkpt>
      <trkpt lat="43.69269" lon="3.67905">
        <ele>221.24</ele>
        <time>2013-06-16T08:41:41Z</time>
      </trkpt>
      <trkpt lat="43.69276" lon="3.67879">
        <ele>222.2</ele>
        <time>2013-06-16T08:41:42Z</time>
      </trkpt>
      <trkpt lat="43.69281" lon="3.67851">
        <ele>222.68</ele>
        <time>2013-06-16T08:41:43Z</time>
      </trkpt>
      <trkpt lat="43.69285" lon="3.67822">
        <ele>223.64</ele>
        <time>2013-06-16T08:41:44Z</time>
      </trkpt>
      <trkpt lat="43.69305" lon="3.6772">
        <ele>226.53</ele>
        <time>2013-06-16T08:41:48Z</time>
      </trkpt>
      <trkpt lat="43.69314" lon="3.67699">
        <ele>227.01</ele>
        <time>2013-06-16T08:41:49Z</time>
      </trkpt>
      <trkpt lat="43.69324" lon="3.67677">
        <ele>227.97</ele>
        <time>2013-06-16T08:41:50Z</time>
      </trkpt>
      <trkpt lat="43.69332" lon="3.67653">
        <ele>228.45</ele>
        <time>2013-06-16T08:41:51Z</time>
      </trkpt>
      <trkpt lat="43.69339" lon="3.67628">
        <ele>229.41</ele>
        <time>2013-06-16T08:41:52Z</time>
      </trkpt>
      <trkpt lat="43.69345" lon="3.67603">
        <ele>229.89</ele>
        <time>2013-06-16T08:41:53Z</time>
      </trkpt>
      <trkpt lat="43.6936" lon="3.67546">
        <ele>231.81</ele>
        <time>2013-06-16T08:41:56Z</time>
      </trkpt>
      <trkpt lat="43.69366" lon="3.67533">
        <ele>232.3</ele>
        <time>2013-06-16T08:41:57Z</time>
      </trkpt>
      <trkpt lat="43.69373" lon="3.67523">
        <ele>232.3</ele>
        <time>2013-06-16T08:41:58Z</time>
      </trkpt>
      <trkpt lat="43.69381" lon="3.67514">
        <ele>232.78</ele>
        <time>2013-06-16T08:41:59Z</time>
      </trkpt>
      <trkpt lat="43.6939" lon="3.67506">
        <ele>233.26</ele>
        <time>2013-06-16T08:42:00Z</time>
      </trkpt>
      <trkpt lat="43.694" lon="3.675">
        <ele>234.22</ele>
        <time>2013-06-16T08:42:01Z</time>
      </trkpt>
      <trkpt lat="43.6941" lon="3.67494">
        <ele>234.7</ele>
        <time>2013-06-16T08:42:02Z</time>
      </trkpt>
      <trkpt lat="43.69421" lon="3.6749">
        <ele>235.18</ele>
        <time>2013-06-16T08:42:03Z</time>
      </trkpt>
      <trkpt lat="43.69559" lon="3.67461">
        <ele>240.95</ele>
        <time>2013-06-16T08:42:15Z</time>
      </trkpt>
      <trkpt lat="43.69658" lon="3.67457">
        <ele>245.75</ele>
        <time>2013-06-16T08:42:25Z</time>
      </trkpt>
      <trkpt lat="43.69731" lon="3.67453">
        <ele>246.23</ele>
        <time>2013-06-16T08:42:35Z</time>
      </trkpt>
      <trkpt lat="43.69739" lon="3.67452">
        <ele>246.23</ele>
        <time>2013-06-16T08:42:36Z</time>
      </trkpt>
      <trkpt lat="43.69747" lon="3.67449">
        <ele>246.23</ele>
        <time>2013-06-16T08:42:37Z</time>
      </trkpt>
      <trkpt lat="43.69822" lon="3.6742">
        <ele>244.79</ele>
        <time>2013-06-16T08:42:47Z</time>
      </trkpt>
      <trkpt lat="43.6992" lon="3.67384">
        <ele>240.95</ele>
        <time>2013-06-16T08:43:00Z</time>
      </trkpt>
      <trkpt lat="43.69978" lon="3.67361">
        <ele>240.47</ele>
        <time>2013-06-16T08:43:08Z</time>
      </trkpt>
      <trkpt lat="43.7003" lon="3.67342">
        <ele>240.95</ele>
        <time>2013-06-16T08:43:14Z</time>
      </trkpt>
      <trkpt lat="43.70039" lon="3.67336">
        <ele>240.47</ele>
        <time>2013-06-16T08:43:15Z</time>
      </trkpt>
      <trkpt lat="43.70048" lon="3.67326">
        <ele>240.47</ele>
        <time>2013-06-16T08:43:16Z</time>
      </trkpt>
      <trkpt lat="43.70056" lon="3.67314">
        <ele>240.47</ele>
        <time>2013-06-16T08:43:17Z</time>
      </trkpt>
      <trkpt lat="43.70063" lon="3.673">
        <ele>240.47</ele>
        <time>2013-06-16T08:43:18Z</time>
      </trkpt>
      <trkpt lat="43.7007" lon="3.67285">
        <ele>240.47</ele>
        <time>2013-06-16T08:43:19Z</time>
      </trkpt>
      <trkpt lat="43.70119" lon="3.67153">
        <ele>239.51</ele>
        <time>2013-06-16T08:43:29Z</time>
      </trkpt>
      <trkpt lat="43.7013" lon="3.67072">
        <ele>239.51</ele>
        <time>2013-06-16T08:43:36Z</time>
      </trkpt>
      <trkpt lat="43.70141" lon="3.67005">
        <ele>240.47</ele>
        <time>2013-06-16T08:43:40Z</time>
      </trkpt>
      <trkpt lat="43.70147" lon="3.66988">
        <ele>240.47</ele>
        <time>2013-06-16T08:43:41Z</time>
      </trkpt>
      <trkpt lat="43.70155" lon="3.66971">
        <ele>240.95</ele>
        <time>2013-06-16T08:43:42Z</time>
      </trkpt>
      <trkpt lat="43.70164" lon="3.66956">
        <ele>240.95</ele>
        <time>2013-06-16T08:43:43Z</time>
      </trkpt>
      <trkpt lat="43.70174" lon="3.66944">
        <ele>241.43</ele>
        <time>2013-06-16T08:43:44Z</time>
      </trkpt>
      <trkpt lat="43.70185" lon="3.66934">
        <ele>241.43</ele>
        <time>2013-06-16T08:43:45Z</time>
      </trkpt>
      <trkpt lat="43.70195" lon="3.66925">
        <ele>241.91</ele>
        <time>2013-06-16T08:43:46Z</time>
      </trkpt>
      <trkpt lat="43.70228" lon="3.669">
        <ele>242.87</ele>
        <time>2013-06-16T08:43:51Z</time>
      </trkpt>
      <trkpt lat="43.7027" lon="3.66868">
        <ele>243.35</ele>
        <time>2013-06-16T08:43:56Z</time>
      </trkpt>
      <trkpt lat="43.70345" lon="3.66811">
        <ele>245.75</ele>
        <time>2013-06-16T08:44:06Z</time>
      </trkpt>
      <trkpt lat="43.70403" lon="3.66767">
        <ele>248.16</ele>
        <time>2013-06-16T08:44:13Z</time>
      </trkpt>
      <trkpt lat="43.70499" lon="3.66692">
        <ele>250.08</ele>
        <time>2013-06-16T08:44:21Z</time>
      </trkpt>
      <trkpt lat="43.70509" lon="3.66678">
        <ele>250.08</ele>
        <time>2013-06-16T08:44:22Z</time>
      </trkpt>
      <trkpt lat="43.70519" lon="3.66663">
        <ele>250.56</ele>
        <time>2013-06-16T08:44:23Z</time>
      </trkpt>
      <trkpt lat="43.70527" lon="3.66646">
        <ele>250.08</ele>
        <time>2013-06-16T08:44:24Z</time>
      </trkpt>
      <trkpt lat="43.70534" lon="3.66626">
        <ele>250.56</ele>
        <time>2013-06-16T08:44:25Z</time>
      </trkpt>
      <trkpt lat="43.70538" lon="3.66605">
        <ele>250.56</ele>
        <time>2013-06-16T08:44:26Z</time>
      </trkpt>
      <trkpt lat="43.7054" lon="3.66583">
        <ele>250.08</ele>
        <time>2013-06-16T08:44:27Z</time>
      </trkpt>
      <trkpt lat="43.70541" lon="3.66561">
        <ele>250.08</ele>
        <time>2013-06-16T08:44:28Z</time>
      </trkpt>
      <trkpt lat="43.70539" lon="3.66538">
        <ele>250.08</ele>
        <time>2013-06-16T08:44:29Z</time>
      </trkpt>
      <trkpt lat="43.70535" lon="3.66516">
        <ele>250.08</ele>
        <time>2013-06-16T08:44:30Z</time>
      </trkpt>
      <trkpt lat="43.70528" lon="3.66494">
        <ele>251.04</ele>
        <time>2013-06-16T08:44:31Z</time>
      </trkpt>
      <trkpt lat="43.70518" lon="3.66474">
        <ele>251.52</ele>
        <time>2013-06-16T08:44:32Z</time>
      </trkpt>
      <trkpt lat="43.70504" lon="3.66456">
        <ele>252.48</ele>
        <time>2013-06-16T08:44:33Z</time>
      </trkpt>
      <trkpt lat="43.70489" lon="3.66437">
        <ele>253.44</ele>
        <time>2013-06-16T08:44:34Z</time>
      </trkpt>
      <trkpt lat="43.70433" lon="3.66369">
        <ele>254.89</ele>
        <time>2013-06-16T08:44:38Z</time>
      </trkpt>
      <trkpt lat="43.70417" lon="3.66357">
        <ele>255.37</ele>
        <time>2013-06-16T08:44:39Z</time>
      </trkpt>
      <trkpt lat="43.70399" lon="3.66348">
        <ele>255.85</ele>
        <time>2013-06-16T08:44:40Z</time>
      </trkpt>
      <trkpt lat="43.70381" lon="3.66342">
        <ele>255.85</ele>
        <time>2013-06-16T08:44:41Z</time>
      </trkpt>
      <trkpt lat="43.70362" lon="3.66334">
        <ele>256.33</ele>
        <time>2013-06-16T08:44:42Z</time>
      </trkpt>
      <trkpt lat="43.70345" lon="3.66323">
        <ele>256.81</ele>
        <time>2013-06-16T08:44:43Z</time>
      </trkpt>
      <trkpt lat="43.70329" lon="3.66309">
        <ele>257.29</ele>
        <time>2013-06-16T08:44:44Z</time>
      </trkpt>
      <trkpt lat="43.70314" lon="3.66292">
        <ele>257.29</ele>
        <time>2013-06-16T08:44:45Z</time>
      </trkpt>
      <trkpt lat="43.70301" lon="3.66274">
        <ele>257.77</ele>
        <time>2013-06-16T08:44:46Z</time>
      </trkpt>
      <trkpt lat="43.70289" lon="3.66254">
        <ele>257.77</ele>
        <time>2013-06-16T08:44:47Z</time>
      </trkpt>
      <trkpt lat="43.70281" lon="3.66233">
        <ele>257.77</ele>
        <time>2013-06-16T08:44:48Z</time>
      </trkpt>
      <trkpt lat="43.70275" lon="3.6621">
        <ele>257.77</ele>
        <time>2013-06-16T08:44:49Z</time>
      </trkpt>
      <trkpt lat="43.70275" lon="3.66185">
        <ele>257.77</ele>
        <time>2013-06-16T08:44:50Z</time>
      </trkpt>
      <trkpt lat="43.70276" lon="3.6616">
        <ele>258.25</ele>
        <time>2013-06-16T08:44:51Z</time>
      </trkpt>
      <trkpt lat="43.7028" lon="3.66135">
        <ele>258.25</ele>
        <time>2013-06-16T08:44:52Z</time>
      </trkpt>
      <trkpt lat="43.70288" lon="3.6611">
        <ele>257.77</ele>
        <time>2013-06-16T08:44:53Z</time>
      </trkpt>
      <trkpt lat="43.70296" lon="3.66084">
        <ele>256.81</ele>
        <time>2013-06-16T08:44:54Z</time>
      </trkpt>
      <trkpt lat="43.7035" lon="3.65873">
        <ele>252.48</ele>
        <time>2013-06-16T08:45:02Z</time>
      </trkpt>
      <trkpt lat="43.70352" lon="3.65846">
        <ele>252</ele>
        <time>2013-06-16T08:45:03Z</time>
      </trkpt>
      <trkpt lat="43.70358" lon="3.65792">
        <ele>251.52</ele>
        <time>2013-06-16T08:45:05Z</time>
      </trkpt>
      <trkpt lat="43.70364" lon="3.65767">
        <ele>251.04</ele>
        <time>2013-06-16T08:45:06Z</time>
      </trkpt>
      <trkpt lat="43.70373" lon="3.65745">
        <ele>250.56</ele>
        <time>2013-06-16T08:45:07Z</time>
      </trkpt>
      <trkpt lat="43.70385" lon="3.65725">
        <ele>250.08</ele>
        <time>2013-06-16T08:45:08Z</time>
      </trkpt>
      <trkpt lat="43.70399" lon="3.65708">
        <ele>249.12</ele>
        <time>2013-06-16T08:45:09Z</time>
      </trkpt>
      <trkpt lat="43.70414" lon="3.65694">
        <ele>248.64</ele>
        <time>2013-06-16T08:45:10Z</time>
      </trkpt>
      <trkpt lat="43.70432" lon="3.65686">
        <ele>248.16</ele>
        <time>2013-06-16T08:45:11Z</time>
      </trkpt>
      <trkpt lat="43.70447" lon="3.6568">
        <ele>247.68</ele>
        <time>2013-06-16T08:45:12Z</time>
      </trkpt>
      <trkpt lat="43.70458" lon="3.65674">
        <ele>247.68</ele>
        <time>2013-06-16T08:45:13Z</time>
      </trkpt>
      <trkpt lat="43.70467" lon="3.65664">
        <ele>247.68</ele>
        <time>2013-06-16T08:45:14Z</time>
      </trkpt>
      <trkpt lat="43.70472" lon="3.65649">
        <ele>247.2</ele>
        <time>2013-06-16T08:45:15Z</time>
      </trkpt>
      <trkpt lat="43.70472" lon="3.65629">
        <ele>247.2</ele>
        <time>2013-06-16T08:45:16Z</time>
      </trkpt>
      <trkpt lat="43.70468" lon="3.65608">
        <ele>247.2</ele>
        <time>2013-06-16T08:45:17Z</time>
      </trkpt>
      <trkpt lat="43.7046" lon="3.65586">
        <ele>246.72</ele>
        <time>2013-06-16T08:45:18Z</time>
      </trkpt>
      <trkpt lat="43.70451" lon="3.65562">
        <ele>246.23</ele>
        <time>2013-06-16T08:45:19Z</time>
      </trkpt>
      <trkpt lat="43.70427" lon="3.65489">
        <ele>245.75</ele>
        <time>2013-06-16T08:45:22Z</time>
      </trkpt>
      <trkpt lat="43.70423" lon="3.65465">
        <ele>245.27</ele>
        <time>2013-06-16T08:45:23Z</time>
      </trkpt>
      <trkpt lat="43.70422" lon="3.65439">
        <ele>245.27</ele>
        <time>2013-06-16T08:45:24Z</time>
      </trkpt>
      <trkpt lat="43.70424" lon="3.65412">
        <ele>244.79</ele>
        <time>2013-06-16T08:45:25Z</time>
      </trkpt>
      <trkpt lat="43.70428" lon="3.65384">
        <ele>244.79</ele>
        <time>2013-06-16T08:45:26Z</time>
      </trkpt>
      <trkpt lat="43.70432" lon="3.65354">
        <ele>244.31</ele>
        <time>2013-06-16T08:45:27Z</time>
      </trkpt>
      <trkpt lat="43.70443" lon="3.65122">
        <ele>241.91</ele>
        <time>2013-06-16T08:45:35Z</time>
      </trkpt>
      <trkpt lat="43.70466" lon="3.64912">
        <ele>237.58</ele>
        <time>2013-06-16T08:45:42Z</time>
      </trkpt>
      <trkpt lat="43.70485" lon="3.64734">
        <ele>235.18</ele>
        <time>2013-06-16T08:45:48Z</time>
      </trkpt>
      <trkpt lat="43.70483" lon="3.64708">
        <ele>234.7</ele>
        <time>2013-06-16T08:45:49Z</time>
      </trkpt>
      <trkpt lat="43.70477" lon="3.64683">
        <ele>234.22</ele>
        <time>2013-06-16T08:45:50Z</time>
      </trkpt>
      <trkpt lat="43.70474" lon="3.64659">
        <ele>234.22</ele>
        <time>2013-06-16T08:45:51Z</time>
      </trkpt>
      <trkpt lat="43.70472" lon="3.64634">
        <ele>233.74</ele>
        <time>2013-06-16T08:45:52Z</time>
      </trkpt>
      <trkpt lat="43.70476" lon="3.64609">
        <ele>233.74</ele>
        <time>2013-06-16T08:45:53Z</time>
      </trkpt>
      <trkpt lat="43.70486" lon="3.64587">
        <ele>232.78</ele>
        <time>2013-06-16T08:45:54Z</time>
      </trkpt>
      <trkpt lat="43.70496" lon="3.64561">
        <ele>231.81</ele>
        <time>2013-06-16T08:45:55Z</time>
      </trkpt>
      <trkpt lat="43.70507" lon="3.64534">
        <ele>231.33</ele>
        <time>2013-06-16T08:45:56Z</time>
      </trkpt>
      <trkpt lat="43.7058" lon="3.644">
        <ele>228.93</ele>
        <time>2013-06-16T08:46:02Z</time>
      </trkpt>
      <trkpt lat="43.70653" lon="3.64318">
        <ele>227.49</ele>
        <time>2013-06-16T08:46:07Z</time>
      </trkpt>
      <trkpt lat="43.70662" lon="3.64303">
        <ele>227.01</ele>
        <time>2013-06-16T08:46:08Z</time>
      </trkpt>
      <trkpt lat="43.70665" lon="3.64284">
        <ele>226.53</ele>
        <time>2013-06-16T08:46:09Z</time>
      </trkpt>
      <trkpt lat="43.70663" lon="3.64262">
        <ele>226.53</ele>
        <time>2013-06-16T08:46:10Z</time>
      </trkpt>
      <trkpt lat="43.70658" lon="3.64237">
        <ele>226.53</ele>
        <time>2013-06-16T08:46:11Z</time>
      </trkpt>
      <trkpt lat="43.70651" lon="3.64211">
        <ele>226.05</ele>
        <time>2013-06-16T08:46:12Z</time>
      </trkpt>
      <trkpt lat="43.70599" lon="3.63996">
        <ele>224.61</ele>
        <time>2013-06-16T08:46:19Z</time>
      </trkpt>
      <trkpt lat="43.70586" lon="3.63914">
        <ele>224.12</ele>
        <time>2013-06-16T08:46:22Z</time>
      </trkpt>
      <trkpt lat="43.70587" lon="3.63885">
        <ele>223.64</ele>
        <time>2013-06-16T08:46:23Z</time>
      </trkpt>
      <trkpt lat="43.70591" lon="3.63855">
        <ele>222.68</ele>
        <time>2013-06-16T08:46:24Z</time>
      </trkpt>
      <trkpt lat="43.70643" lon="3.63646">
        <ele>220.76</ele>
        <time>2013-06-16T08:46:31Z</time>
      </trkpt>
      <trkpt lat="43.70767" lon="3.6331">
        <ele>206.82</ele>
        <time>2013-06-16T08:46:42Z</time>
      </trkpt>
      <trkpt lat="43.70964" lon="3.62774">
        <ele>202.01</ele>
        <time>2013-06-16T08:47:00Z</time>
      </trkpt>
      <trkpt lat="43.71084" lon="3.62435">
        <ele>193.36</ele>
        <time>2013-06-16T08:47:12Z</time>
      </trkpt>
      <trkpt lat="43.71108" lon="3.62373">
        <ele>190.48</ele>
        <time>2013-06-16T08:47:15Z</time>
      </trkpt>
      <trkpt lat="43.71119" lon="3.62357">
        <ele>189.04</ele>
        <time>2013-06-16T08:47:16Z</time>
      </trkpt>
      <trkpt lat="43.71132" lon="3.62346">
        <ele>188.08</ele>
        <time>2013-06-16T08:47:17Z</time>
      </trkpt>
      <trkpt lat="43.71147" lon="3.62337">
        <ele>187.11</ele>
        <time>2013-06-16T08:47:18Z</time>
      </trkpt>
      <trkpt lat="43.71164" lon="3.62333">
        <ele>186.15</ele>
        <time>2013-06-16T08:47:19Z</time>
      </trkpt>
      <trkpt lat="43.71181" lon="3.6233">
        <ele>185.67</ele>
        <time>2013-06-16T08:47:20Z</time>
      </trkpt>
      <trkpt lat="43.71199" lon="3.62329">
        <ele>185.19</ele>
        <time>2013-06-16T08:47:21Z</time>
      </trkpt>
      <trkpt lat="43.71217" lon="3.62329">
        <ele>184.71</ele>
        <time>2013-06-16T08:47:22Z</time>
      </trkpt>
      <trkpt lat="43.71293" lon="3.6233">
        <ele>181.35</ele>
        <time>2013-06-16T08:47:27Z</time>
      </trkpt>
      <trkpt lat="43.71303" lon="3.62323">
        <ele>180.38</ele>
        <time>2013-06-16T08:47:28Z</time>
      </trkpt>
      <trkpt lat="43.71312" lon="3.62311">
        <ele>179.9</ele>
        <time>2013-06-16T08:47:29Z</time>
      </trkpt>
      <trkpt lat="43.71319" lon="3.62295">
        <ele>178.94</ele>
        <time>2013-06-16T08:47:30Z</time>
      </trkpt>
      <trkpt lat="43.71326" lon="3.62277">
        <ele>178.46</ele>
        <time>2013-06-16T08:47:31Z</time>
      </trkpt>
      <trkpt lat="43.71332" lon="3.62258">
        <ele>177.5</ele>
        <time>2013-06-16T08:47:32Z</time>
      </trkpt>
      <trkpt lat="43.7139" lon="3.6211">
        <ele>167.41</ele>
        <time>2013-06-16T08:47:42Z</time>
      </trkpt>
      <trkpt lat="43.71391" lon="3.6211">
        <ele>167.41</ele>
        <time>2013-06-16T08:47:43Z</time>
      </trkpt>
      <trkpt lat="43.71395" lon="3.62104">
        <ele>166.45</ele>
        <time>2013-06-16T08:47:45Z</time>
      </trkpt>
      <trkpt lat="43.71397" lon="3.62096">
        <ele>166.45</ele>
        <time>2013-06-16T08:47:46Z</time>
      </trkpt>
      <trkpt lat="43.71428" lon="3.62007">
        <ele>161.64</ele>
        <time>2013-06-16T08:47:53Z</time>
      </trkpt>
      <trkpt lat="43.71489" lon="3.61848">
        <ele>160.68</ele>
        <time>2013-06-16T08:48:04Z</time>
      </trkpt>
      <trkpt lat="43.71501" lon="3.6181">
        <ele>161.16</ele>
        <time>2013-06-16T08:48:07Z</time>
      </trkpt>
      <trkpt lat="43.71501" lon="3.61796">
        <ele>161.64</ele>
        <time>2013-06-16T08:48:08Z</time>
      </trkpt>
      <trkpt lat="43.71498" lon="3.61784">
        <ele>161.64</ele>
        <time>2013-06-16T08:48:09Z</time>
      </trkpt>
      <trkpt lat="43.71496" lon="3.61771">
        <ele>162.12</ele>
        <time>2013-06-16T08:48:10Z</time>
      </trkpt>
      <trkpt lat="43.71493" lon="3.61758">
        <ele>162.6</ele>
        <time>2013-06-16T08:48:11Z</time>
      </trkpt>
      <trkpt lat="43.71467" lon="3.61666">
        <ele>167.41</ele>
        <time>2013-06-16T08:48:18Z</time>
      </trkpt>
      <trkpt lat="43.71462" lon="3.61655">
        <ele>167.89</ele>
        <time>2013-06-16T08:48:19Z</time>
      </trkpt>
      <trkpt lat="43.71454" lon="3.61647">
        <ele>167.89</ele>
        <time>2013-06-16T08:48:20Z</time>
      </trkpt>
      <trkpt lat="43.71445" lon="3.61643">
        <ele>168.37</ele>
        <time>2013-06-16T08:48:21Z</time>
      </trkpt>
      <trkpt lat="43.71435" lon="3.61641">
        <ele>168.37</ele>
        <time>2013-06-16T08:48:22Z</time>
      </trkpt>
      <trkpt lat="43.71426" lon="3.61638">
        <ele>168.85</ele>
        <time>2013-06-16T08:48:23Z</time>
      </trkpt>
      <trkpt lat="43.71417" lon="3.61637">
        <ele>168.37</ele>
        <time>2013-06-16T08:48:24Z</time>
      </trkpt>
      <trkpt lat="43.71409" lon="3.61637">
        <ele>168.37</ele>
        <time>2013-06-16T08:48:25Z</time>
      </trkpt>
      <trkpt lat="43.71401" lon="3.61637">
        <ele>168.37</ele>
        <time>2013-06-16T08:48:26Z</time>
      </trkpt>
      <trkpt lat="43.71338" lon="3.6164">
        <ele>168.37</ele>
        <time>2013-06-16T08:48:36Z</time>
      </trkpt>
      <trkpt lat="43.71292" lon="3.61635">
        <ele>169.33</ele>
        <time>2013-06-16T08:48:42Z</time>
      </trkpt>
      <trkpt lat="43.71285" lon="3.61632">
        <ele>169.33</ele>
        <time>2013-06-16T08:48:43Z</time>
      </trkpt>
      <trkpt lat="43.7122" lon="3.6159">
        <ele>169.33</ele>
        <time>2013-06-16T08:48:55Z</time>
      </trkpt>
      <trkpt lat="43.71205" lon="3.61576">
        <ele>169.81</ele>
        <time>2013-06-16T08:48:58Z</time>
      </trkpt>
      <trkpt lat="43.71202" lon="3.61569">
        <ele>169.81</ele>
        <time>2013-06-16T08:48:59Z</time>
      </trkpt>
      <trkpt lat="43.71198" lon="3.61563">
        <ele>169.81</ele>
        <time>2013-06-16T08:49:00Z</time>
      </trkpt>
      <trkpt lat="43.71195" lon="3.61555">
        <ele>169.81</ele>
        <time>2013-06-16T08:49:01Z</time>
      </trkpt>
      <trkpt lat="43.71193" lon="3.61546">
        <ele>169.81</ele>
        <time>2013-06-16T08:49:02Z</time>
      </trkpt>
      <trkpt lat="43.71192" lon="3.61536">
        <ele>169.81</ele>
        <time>2013-06-16T08:49:03Z</time>
      </trkpt>
      <trkpt lat="43.71192" lon="3.61525">
        <ele>169.33</ele>
        <time>2013-06-16T08:49:04Z</time>
      </trkpt>
      <trkpt lat="43.71194" lon="3.61514">
        <ele>169.33</ele>
        <time>2013-06-16T08:49:05Z</time>
      </trkpt>
      <trkpt lat="43.71197" lon="3.61502">
        <ele>168.85</ele>
        <time>2013-06-16T08:49:06Z</time>
      </trkpt>
      <trkpt lat="43.712" lon="3.6149">
        <ele>168.37</ele>
        <time>2013-06-16T08:49:07Z</time>
      </trkpt>
      <trkpt lat="43.71212" lon="3.61456">
        <ele>166.93</ele>
        <time>2013-06-16T08:49:10Z</time>
      </trkpt>
      <trkpt lat="43.71217" lon="3.61447">
        <ele>166.45</ele>
        <time>2013-06-16T08:49:11Z</time>
      </trkpt>
      <trkpt lat="43.71223" lon="3.61438">
        <ele>165.96</ele>
        <time>2013-06-16T08:49:12Z</time>
      </trkpt>
      <trkpt lat="43.71229" lon="3.61431">
        <ele>165.48</ele>
        <time>2013-06-16T08:49:13Z</time>
      </trkpt>
      <trkpt lat="43.71237" lon="3.61425">
        <ele>165</ele>
        <time>2013-06-16T08:49:14Z</time>
      </trkpt>
      <trkpt lat="43.71244" lon="3.6142">
        <ele>164.52</ele>
        <time>2013-06-16T08:49:15Z</time>
      </trkpt>
      <trkpt lat="43.71276" lon="3.61393">
        <ele>163.08</ele>
        <time>2013-06-16T08:49:19Z</time>
      </trkpt>
      <trkpt lat="43.71284" lon="3.61383">
        <ele>162.6</ele>
        <time>2013-06-16T08:49:20Z</time>
      </trkpt>
      <trkpt lat="43.71343" lon="3.61282">
        <ele>158.75</ele>
        <time>2013-06-16T08:49:29Z</time>
      </trkpt>
      <trkpt lat="43.71348" lon="3.61267">
        <ele>158.27</ele>
        <time>2013-06-16T08:49:30Z</time>
      </trkpt>
      <trkpt lat="43.71352" lon="3.61251">
        <ele>157.79</ele>
        <time>2013-06-16T08:49:31Z</time>
      </trkpt>
      <trkpt lat="43.71353" lon="3.61234">
        <ele>157.31</ele>
        <time>2013-06-16T08:49:32Z</time>
      </trkpt>
      <trkpt lat="43.71352" lon="3.61217">
        <ele>156.83</ele>
        <time>2013-06-16T08:49:33Z</time>
      </trkpt>
      <trkpt lat="43.71349" lon="3.61201">
        <ele>155.87</ele>
        <time>2013-06-16T08:49:34Z</time>
      </trkpt>
      <trkpt lat="43.71344" lon="3.61184">
        <ele>155.39</ele>
        <time>2013-06-16T08:49:35Z</time>
      </trkpt>
      <trkpt lat="43.71336" lon="3.61166">
        <ele>154.43</ele>
        <time>2013-06-16T08:49:36Z</time>
      </trkpt>
      <trkpt lat="43.71324" lon="3.6114">
        <ele>153.47</ele>
        <time>2013-06-16T08:49:37Z</time>
      </trkpt>
      <trkpt lat="43.7127" lon="3.61004">
        <ele>149.14</ele>
        <time>2013-06-16T08:49:43Z</time>
      </trkpt>
      <trkpt lat="43.71248" lon="3.60956">
        <ele>147.7</ele>
        <time>2013-06-16T08:49:46Z</time>
      </trkpt>
      <trkpt lat="43.71238" lon="3.60941">
        <ele>146.74</ele>
        <time>2013-06-16T08:49:47Z</time>
      </trkpt>
      <trkpt lat="43.71167" lon="3.60847">
        <ele>141.45</ele>
        <time>2013-06-16T08:49:53Z</time>
      </trkpt>
      <trkpt lat="43.71154" lon="3.60828">
        <ele>140.49</ele>
        <time>2013-06-16T08:49:54Z</time>
      </trkpt>
      <trkpt lat="43.71144" lon="3.60806">
        <ele>139.53</ele>
        <time>2013-06-16T08:49:55Z</time>
      </trkpt>
      <trkpt lat="43.71034" lon="3.60578">
        <ele>145.78</ele>
        <time>2013-06-16T08:50:05Z</time>
      </trkpt>
      <trkpt lat="43.70996" lon="3.60519">
        <ele>148.66</ele>
        <time>2013-06-16T08:50:08Z</time>
      </trkpt>
      <trkpt lat="43.7098" lon="3.60503">
        <ele>149.14</ele>
        <time>2013-06-16T08:50:09Z</time>
      </trkpt>
      <trkpt lat="43.70963" lon="3.60488">
        <ele>149.62</ele>
        <time>2013-06-16T08:50:10Z</time>
      </trkpt>
      <trkpt lat="43.70815" lon="3.60334">
        <ele>150.58</ele>
        <time>2013-06-16T08:50:19Z</time>
      </trkpt>
      <trkpt lat="43.70695" lon="3.60176">
        <ele>150.58</ele>
        <time>2013-06-16T08:50:27Z</time>
      </trkpt>
      <trkpt lat="43.70562" lon="3.59933">
        <ele>141.45</ele>
        <time>2013-06-16T08:50:36Z</time>
      </trkpt>
      <trkpt lat="43.70382" lon="3.59604">
        <ele>127.99</ele>
        <time>2013-06-16T08:50:48Z</time>
      </trkpt>
      <trkpt lat="43.70305" lon="3.59485">
        <ele>123.67</ele>
        <time>2013-06-16T08:50:53Z</time>
      </trkpt>
      <trkpt lat="43.70284" lon="3.59464">
        <ele>122.71</ele>
        <time>2013-06-16T08:50:54Z</time>
      </trkpt>
      <trkpt lat="43.70091" lon="3.59311">
        <ele>112.61</ele>
        <time>2013-06-16T08:51:02Z</time>
      </trkpt>
      <trkpt lat="43.69852" lon="3.59121">
        <ele>101.08</ele>
        <time>2013-06-16T08:51:11Z</time>
      </trkpt>
      <trkpt lat="43.69668" lon="3.59026">
        <ele>91.46</ele>
        <time>2013-06-16T08:51:18Z</time>
      </trkpt>
      <trkpt lat="43.69645" lon="3.59008">
        <ele>90.5</ele>
        <time>2013-06-16T08:51:19Z</time>
      </trkpt>
      <trkpt lat="43.69623" lon="3.58985">
        <ele>89.06</ele>
        <time>2013-06-16T08:51:20Z</time>
      </trkpt>
      <trkpt lat="43.6943" lon="3.58774">
        <ele>79.45</ele>
        <time>2013-06-16T08:51:29Z</time>
      </trkpt>
      <trkpt lat="43.69293" lon="3.58624">
        <ele>70.79</ele>
        <time>2013-06-16T08:51:37Z</time>
      </trkpt>
      <trkpt lat="43.69266" lon="3.58591">
        <ele>69.35</ele>
        <time>2013-06-16T08:51:39Z</time>
      </trkpt>
      <trkpt lat="43.69256" lon="3.58572">
        <ele>68.39</ele>
        <time>2013-06-16T08:51:40Z</time>
      </trkpt>
      <trkpt lat="43.69248" lon="3.58551">
        <ele>67.91</ele>
        <time>2013-06-16T08:51:41Z</time>
      </trkpt>
      <trkpt lat="43.69242" lon="3.58527">
        <ele>67.43</ele>
        <time>2013-06-16T08:51:42Z</time>
      </trkpt>
      <trkpt lat="43.69238" lon="3.58501">
        <ele>66.95</ele>
        <time>2013-06-16T08:51:43Z</time>
      </trkpt>
      <trkpt lat="43.69237" lon="3.58474">
        <ele>66.47</ele>
        <time>2013-06-16T08:51:44Z</time>
      </trkpt>
      <trkpt lat="43.69238" lon="3.58447">
        <ele>65.99</ele>
        <time>2013-06-16T08:51:45Z</time>
      </trkpt>
      <trkpt lat="43.69238" lon="3.58319">
        <ele>63.1</ele>
        <time>2013-06-16T08:51:50Z</time>
      </trkpt>
      <trkpt lat="43.69235" lon="3.58294">
        <ele>62.62</ele>
        <time>2013-06-16T08:51:51Z</time>
      </trkpt>
      <trkpt lat="43.6923" lon="3.5827">
        <ele>62.14</ele>
        <time>2013-06-16T08:51:52Z</time>
      </trkpt>
      <trkpt lat="43.69222" lon="3.58218">
        <ele>61.66</ele>
        <time>2013-06-16T08:51:55Z</time>
      </trkpt>
      <trkpt lat="43.69225" lon="3.58207">
        <ele>61.18</ele>
        <time>2013-06-16T08:51:56Z</time>
      </trkpt>
      <trkpt lat="43.6923" lon="3.58196">
        <ele>60.7</ele>
        <time>2013-06-16T08:51:57Z</time>
      </trkpt>
      <trkpt lat="43.69239" lon="3.58184">
        <ele>60.22</ele>
        <time>2013-06-16T08:51:58Z</time>
      </trkpt>
      <trkpt lat="43.69251" lon="3.5817">
        <ele>60.7</ele>
        <time>2013-06-16T08:51:59Z</time>
      </trkpt>
      <trkpt lat="43.69265" lon="3.58155">
        <ele>60.22</ele>
        <time>2013-06-16T08:52:00Z</time>
      </trkpt>
      <trkpt lat="43.69363" lon="3.58015">
        <ele>58.3</ele>
        <time>2013-06-16T08:52:07Z</time>
      </trkpt>
      <trkpt lat="43.69378" lon="3.57996">
        <ele>58.3</ele>
        <time>2013-06-16T08:52:08Z</time>
      </trkpt>
      <trkpt lat="43.69395" lon="3.57978">
        <ele>58.3</ele>
        <time>2013-06-16T08:52:09Z</time>
      </trkpt>
      <trkpt lat="43.69413" lon="3.57963">
        <ele>58.3</ele>
        <time>2013-06-16T08:52:10Z</time>
      </trkpt>
      <trkpt lat="43.69532" lon="3.57867">
        <ele>59.74</ele>
        <time>2013-06-16T08:52:17Z</time>
      </trkpt>
      <trkpt lat="43.69712" lon="3.5771">
        <ele>64.07</ele>
        <time>2013-06-16T08:52:26Z</time>
      </trkpt>
      <trkpt lat="43.6987" lon="3.57512">
        <ele>65.51</ele>
        <time>2013-06-16T08:52:35Z</time>
      </trkpt>
      <trkpt lat="43.69945" lon="3.57339">
        <ele>65.99</ele>
        <time>2013-06-16T08:52:41Z</time>
      </trkpt>
      <trkpt lat="43.70065" lon="3.57009">
        <ele>66.95</ele>
        <time>2013-06-16T08:52:51Z</time>
      </trkpt>
      <trkpt lat="43.70187" lon="3.56693">
        <ele>67.43</ele>
        <time>2013-06-16T08:53:01Z</time>
      </trkpt>
      <trkpt lat="43.70279" lon="3.5642">
        <ele>67.43</ele>
        <time>2013-06-16T08:53:10Z</time>
      </trkpt>
      <trkpt lat="43.70351" lon="3.56251">
        <ele>67.43</ele>
        <time>2013-06-16T08:53:18Z</time>
      </trkpt>
      <trkpt lat="43.70363" lon="3.56234">
        <ele>67.43</ele>
        <time>2013-06-16T08:53:19Z</time>
      </trkpt>
      <trkpt lat="43.70376" lon="3.56219">
        <ele>67.43</ele>
        <time>2013-06-16T08:53:20Z</time>
      </trkpt>
      <trkpt lat="43.70389" lon="3.56205">
        <ele>67.43</ele>
        <time>2013-06-16T08:53:21Z</time>
      </trkpt>
      <trkpt lat="43.70403" lon="3.56194">
        <ele>67.43</ele>
        <time>2013-06-16T08:53:22Z</time>
      </trkpt>
      <trkpt lat="43.70418" lon="3.56184">
        <ele>67.43</ele>
        <time>2013-06-16T08:53:23Z</time>
      </trkpt>
      <trkpt lat="43.70433" lon="3.56175">
        <ele>67.43</ele>
        <time>2013-06-16T08:53:24Z</time>
      </trkpt>
      <trkpt lat="43.7056" lon="3.56097">
        <ele>68.39</ele>
        <time>2013-06-16T08:53:34Z</time>
      </trkpt>
      <trkpt lat="43.70655" lon="3.56008">
        <ele>65.99</ele>
        <time>2013-06-16T08:53:43Z</time>
      </trkpt>
      <trkpt lat="43.70737" lon="3.55912">
        <ele>67.43</ele>
        <time>2013-06-16T08:53:52Z</time>
      </trkpt>
      <trkpt lat="43.70795" lon="3.55818">
        <ele>66.47</ele>
        <time>2013-06-16T08:54:02Z</time>
      </trkpt>
      <trkpt lat="43.70817" lon="3.55782">
        <ele>66.47</ele>
        <time>2013-06-16T08:54:10Z</time>
      </trkpt>
      <trkpt lat="43.70819" lon="3.55775">
        <ele>66.47</ele>
        <time>2013-06-16T08:54:11Z</time>
      </trkpt>
      <trkpt lat="43.7082" lon="3.55768">
        <ele>66.47</ele>
        <time>2013-06-16T08:54:12Z</time>
      </trkpt>
      <trkpt lat="43.70819" lon="3.55762">
        <ele>66.47</ele>
        <time>2013-06-16T08:54:13Z</time>
      </trkpt>
      <trkpt lat="43.70817" lon="3.55755">
        <ele>66.47</ele>
        <time>2013-06-16T08:54:14Z</time>
      </trkpt>
      <trkpt lat="43.70815" lon="3.5575">
        <ele>66.47</ele>
        <time>2013-06-16T08:54:15Z</time>
      </trkpt>
      <trkpt lat="43.70795" lon="3.55706">
        <ele>70.79</ele>
        <time>2013-06-16T08:54:28Z</time>
      </trkpt>
      <trkpt lat="43.70792" lon="3.55683">
        <ele>71.76</ele>
        <time>2013-06-16T08:54:35Z</time>
      </trkpt>
      <trkpt lat="43.70795" lon="3.55677">
        <ele>71.76</ele>
        <time>2013-06-16T08:54:36Z</time>
      </trkpt>
      <trkpt lat="43.708" lon="3.5567">
        <ele>71.27</ele>
        <time>2013-06-16T08:54:37Z</time>
      </trkpt>
      <trkpt lat="43.70805" lon="3.55663">
        <ele>70.79</ele>
        <time>2013-06-16T08:54:38Z</time>
      </trkpt>
      <trkpt lat="43.70812" lon="3.55657">
        <ele>70.31</ele>
        <time>2013-06-16T08:54:39Z</time>
      </trkpt>
      <trkpt lat="43.70877" lon="3.55575">
        <ele>66.95</ele>
        <time>2013-06-16T08:54:48Z</time>
      </trkpt>
      <trkpt lat="43.70913" lon="3.55471">
        <ele>65.03</ele>
        <time>2013-06-16T08:54:54Z</time>
      </trkpt>
      <trkpt lat="43.70988" lon="3.5532">
        <ele>69.83</ele>
        <time>2013-06-16T08:55:03Z</time>
      </trkpt>
      <trkpt lat="43.70998" lon="3.55308">
        <ele>70.31</ele>
        <time>2013-06-16T08:55:04Z</time>
      </trkpt>
      <trkpt lat="43.71008" lon="3.55299">
        <ele>70.79</ele>
        <time>2013-06-16T08:55:05Z</time>
      </trkpt>
      <trkpt lat="43.7102" lon="3.55293">
        <ele>71.27</ele>
        <time>2013-06-16T08:55:06Z</time>
      </trkpt>
      <trkpt lat="43.71033" lon="3.55286">
        <ele>71.76</ele>
        <time>2013-06-16T08:55:07Z</time>
      </trkpt>
      <trkpt lat="43.71161" lon="3.5523">
        <ele>73.68</ele>
        <time>2013-06-16T08:55:15Z</time>
      </trkpt>
      <trkpt lat="43.71178" lon="3.55228">
        <ele>74.16</ele>
        <time>2013-06-16T08:55:16Z</time>
      </trkpt>
      <trkpt lat="43.71292" lon="3.55243">
        <ele>72.72</ele>
        <time>2013-06-16T08:55:22Z</time>
      </trkpt>
      <trkpt lat="43.71329" lon="3.5526">
        <ele>71.76</ele>
        <time>2013-06-16T08:55:24Z</time>
      </trkpt>
      <trkpt lat="43.71349" lon="3.55264">
        <ele>70.79</ele>
        <time>2013-06-16T08:55:25Z</time>
      </trkpt>
      <trkpt lat="43.7137" lon="3.55265">
        <ele>70.79</ele>
        <time>2013-06-16T08:55:26Z</time>
      </trkpt>
      <trkpt lat="43.71393" lon="3.55261">
        <ele>70.79</ele>
        <time>2013-06-16T08:55:27Z</time>
      </trkpt>
      <trkpt lat="43.71418" lon="3.55256">
        <ele>70.79</ele>
        <time>2013-06-16T08:55:28Z</time>
      </trkpt>
      <trkpt lat="43.71442" lon="3.5525">
        <ele>70.79</ele>
        <time>2013-06-16T08:55:29Z</time>
      </trkpt>
      <trkpt lat="43.71634" lon="3.55245">
        <ele>71.76</ele>
        <time>2013-06-16T08:55:37Z</time>
      </trkpt>
      <trkpt lat="43.71675" lon="3.55253">
        <ele>73.2</ele>
        <time>2013-06-16T08:55:39Z</time>
      </trkpt>
      <trkpt lat="43.71695" lon="3.55261">
        <ele>73.2</ele>
        <time>2013-06-16T08:55:40Z</time>
      </trkpt>
      <trkpt lat="43.71715" lon="3.55272">
        <ele>73.2</ele>
        <time>2013-06-16T08:55:41Z</time>
      </trkpt>
      <trkpt lat="43.71734" lon="3.55285">
        <ele>73.2</ele>
        <time>2013-06-16T08:55:42Z</time>
      </trkpt>
      <trkpt lat="43.71753" lon="3.55298">
        <ele>72.72</ele>
        <time>2013-06-16T08:55:43Z</time>
      </trkpt>
      <trkpt lat="43.71773" lon="3.55309">
        <ele>72.24</ele>
        <time>2013-06-16T08:55:44Z</time>
      </trkpt>
      <trkpt lat="43.71849" lon="3.55339">
        <ele>70.31</ele>
        <time>2013-06-16T08:55:48Z</time>
      </trkpt>
      <trkpt lat="43.7187" lon="3.55343">
        <ele>70.31</ele>
        <time>2013-06-16T08:55:49Z</time>
      </trkpt>
      <trkpt lat="43.71892" lon="3.55344">
        <ele>70.31</ele>
        <time>2013-06-16T08:55:50Z</time>
      </trkpt>
      <trkpt lat="43.72119" lon="3.5533">
        <ele>72.24</ele>
        <time>2013-06-16T08:56:00Z</time>
      </trkpt>
      <trkpt lat="43.72228" lon="3.55293">
        <ele>70.79</ele>
        <time>2013-06-16T08:56:07Z</time>
      </trkpt>
      <trkpt lat="43.72302" lon="3.55266">
        <ele>69.83</ele>
        <time>2013-06-16T08:56:13Z</time>
      </trkpt>
      <trkpt lat="43.72313" lon="3.55255">
        <ele>69.83</ele>
        <time>2013-06-16T08:56:14Z</time>
      </trkpt>
      <trkpt lat="43.72324" lon="3.55243">
        <ele>69.83</ele>
        <time>2013-06-16T08:56:15Z</time>
      </trkpt>
      <trkpt lat="43.72366" lon="3.55177">
        <ele>69.35</ele>
        <time>2013-06-16T08:56:20Z</time>
      </trkpt>
      <trkpt lat="43.72433" lon="3.55061">
        <ele>68.87</ele>
        <time>2013-06-16T08:56:26Z</time>
      </trkpt>
      <trkpt lat="43.7245" lon="3.55047">
        <ele>68.87</ele>
        <time>2013-06-16T08:56:27Z</time>
      </trkpt>
      <trkpt lat="43.7247" lon="3.55035">
        <ele>68.87</ele>
        <time>2013-06-16T08:56:28Z</time>
      </trkpt>
      <trkpt lat="43.72491" lon="3.55027">
        <ele>69.35</ele>
        <time>2013-06-16T08:56:29Z</time>
      </trkpt>
      <trkpt lat="43.72513" lon="3.55019">
        <ele>69.35</ele>
        <time>2013-06-16T08:56:30Z</time>
      </trkpt>
      <trkpt lat="43.72632" lon="3.55001">
        <ele>71.76</ele>
        <time>2013-06-16T08:56:36Z</time>
      </trkpt>
      <trkpt lat="43.72732" lon="3.55026">
        <ele>74.16</ele>
        <time>2013-06-16T08:56:41Z</time>
      </trkpt>
      <trkpt lat="43.72751" lon="3.55036">
        <ele>74.64</ele>
        <time>2013-06-16T08:56:42Z</time>
      </trkpt>
      <trkpt lat="43.7277" lon="3.55051">
        <ele>75.12</ele>
        <time>2013-06-16T08:56:43Z</time>
      </trkpt>
      <trkpt lat="43.72927" lon="3.55191">
        <ele>73.68</ele>
        <time>2013-06-16T08:56:51Z</time>
      </trkpt>
      <trkpt lat="43.73027" lon="3.55268">
        <ele>72.24</ele>
        <time>2013-06-16T08:56:57Z</time>
      </trkpt>
      <trkpt lat="43.73117" lon="3.55312">
        <ele>71.76</ele>
        <time>2013-06-16T08:57:04Z</time>
      </trkpt>
      <trkpt lat="43.73183" lon="3.55334">
        <ele>72.24</ele>
        <time>2013-06-16T08:57:11Z</time>
      </trkpt>
      <trkpt lat="43.73255" lon="3.55367">
        <ele>74.16</ele>
        <time>2013-06-16T08:57:18Z</time>
      </trkpt>
      <trkpt lat="43.73322" lon="3.55384">
        <ele>77.52</ele>
        <time>2013-06-16T08:57:26Z</time>
      </trkpt>
      <trkpt lat="43.73329" lon="3.55387">
        <ele>77.52</ele>
        <time>2013-06-16T08:57:27Z</time>
      </trkpt>
      <trkpt lat="43.73348" lon="3.55399">
        <ele>78</ele>
        <time>2013-06-16T08:57:31Z</time>
      </trkpt>
      <trkpt lat="43.73354" lon="3.55403">
        <ele>77.52</ele>
        <time>2013-06-16T08:57:33Z</time>
      </trkpt>
      <trkpt lat="43.73359" lon="3.55407">
        <ele>77.04</ele>
        <time>2013-06-16T08:57:34Z</time>
      </trkpt>
      <trkpt lat="43.73365" lon="3.55412">
        <ele>76.56</ele>
        <time>2013-06-16T08:57:35Z</time>
      </trkpt>
      <trkpt lat="43.7343" lon="3.5546">
        <ele>76.56</ele>
        <time>2013-06-16T08:57:44Z</time>
      </trkpt>
      <trkpt lat="43.73518" lon="3.55527">
        <ele>74.64</ele>
        <time>2013-06-16T08:57:54Z</time>
      </trkpt>
      <trkpt lat="43.73626" lon="3.55634">
        <ele>75.12</ele>
        <time>2013-06-16T08:58:04Z</time>
      </trkpt>
      <trkpt lat="43.73746" lon="3.557">
        <ele>75.12</ele>
        <time>2013-06-16T08:58:10Z</time>
      </trkpt>
      <trkpt lat="43.73857" lon="3.55762">
        <ele>76.08</ele>
        <time>2013-06-16T08:58:16Z</time>
      </trkpt>
      <trkpt lat="43.73874" lon="3.55778">
        <ele>76.08</ele>
        <time>2013-06-16T08:58:17Z</time>
      </trkpt>
      <trkpt lat="43.7396" lon="3.55861">
        <ele>76.56</ele>
        <time>2013-06-16T08:58:22Z</time>
      </trkpt>
      <trkpt lat="43.74033" lon="3.55919">
        <ele>75.12</ele>
        <time>2013-06-16T08:58:27Z</time>
      </trkpt>
      <trkpt lat="43.74049" lon="3.55919">
        <ele>74.64</ele>
        <time>2013-06-16T08:58:28Z</time>
      </trkpt>
      <trkpt lat="43.74066" lon="3.55919">
        <ele>74.16</ele>
        <time>2013-06-16T08:58:29Z</time>
      </trkpt>
      <trkpt lat="43.74086" lon="3.55918">
        <ele>73.68</ele>
        <time>2013-06-16T08:58:30Z</time>
      </trkpt>
      <trkpt lat="43.74108" lon="3.55914">
        <ele>73.68</ele>
        <time>2013-06-16T08:58:31Z</time>
      </trkpt>
      <trkpt lat="43.7413" lon="3.55911">
        <ele>74.64</ele>
        <time>2013-06-16T08:58:32Z</time>
      </trkpt>
      <trkpt lat="43.74236" lon="3.55918">
        <ele>75.6</ele>
        <time>2013-06-16T08:58:37Z</time>
      </trkpt>
      <trkpt lat="43.74256" lon="3.55931">
        <ele>76.08</ele>
        <time>2013-06-16T08:58:38Z</time>
      </trkpt>
      <trkpt lat="43.74275" lon="3.55945">
        <ele>76.08</ele>
        <time>2013-06-16T08:58:39Z</time>
      </trkpt>
      <trkpt lat="43.74294" lon="3.55962">
        <ele>76.08</ele>
        <time>2013-06-16T08:58:40Z</time>
      </trkpt>
      <trkpt lat="43.74313" lon="3.55981">
        <ele>76.08</ele>
        <time>2013-06-16T08:58:41Z</time>
      </trkpt>
      <trkpt lat="43.7433" lon="3.56003">
        <ele>76.08</ele>
        <time>2013-06-16T08:58:42Z</time>
      </trkpt>
      <trkpt lat="43.74346" lon="3.56026">
        <ele>76.08</ele>
        <time>2013-06-16T08:58:43Z</time>
      </trkpt>
      <trkpt lat="43.74432" lon="3.56197">
        <ele>77.52</ele>
        <time>2013-06-16T08:58:50Z</time>
      </trkpt>
      <trkpt lat="43.74437" lon="3.56223">
        <ele>77.04</ele>
        <time>2013-06-16T08:58:51Z</time>
      </trkpt>
      <trkpt lat="43.74436" lon="3.5625">
        <ele>76.56</ele>
        <time>2013-06-16T08:58:52Z</time>
      </trkpt>
      <trkpt lat="43.74426" lon="3.56423">
        <ele>77.04</ele>
        <time>2013-06-16T08:58:59Z</time>
      </trkpt>
      <trkpt lat="43.74407" lon="3.56475">
        <ele>77.04</ele>
        <time>2013-06-16T08:59:02Z</time>
      </trkpt>
      <trkpt lat="43.74394" lon="3.56486">
        <ele>78</ele>
        <time>2013-06-16T08:59:03Z</time>
      </trkpt>
      <trkpt lat="43.74379" lon="3.56495">
        <ele>78</ele>
        <time>2013-06-16T08:59:04Z</time>
      </trkpt>
      <trkpt lat="43.74356" lon="3.56513">
        <ele>78</ele>
        <time>2013-06-16T08:59:06Z</time>
      </trkpt>
      <trkpt lat="43.74347" lon="3.56524">
        <ele>77.52</ele>
        <time>2013-06-16T08:59:07Z</time>
      </trkpt>
      <trkpt lat="43.74343" lon="3.56539">
        <ele>77.52</ele>
        <time>2013-06-16T08:59:08Z</time>
      </trkpt>
      <trkpt lat="43.74343" lon="3.56557">
        <ele>77.52</ele>
        <time>2013-06-16T08:59:09Z</time>
      </trkpt>
      <trkpt lat="43.74348" lon="3.56575">
        <ele>77.52</ele>
        <time>2013-06-16T08:59:10Z</time>
      </trkpt>
      <trkpt lat="43.74355" lon="3.56596">
        <ele>77.04</ele>
        <time>2013-06-16T08:59:11Z</time>
      </trkpt>
      <trkpt lat="43.74363" lon="3.56617">
        <ele>77.04</ele>
        <time>2013-06-16T08:59:12Z</time>
      </trkpt>
      <trkpt lat="43.74408" lon="3.56725">
        <ele>76.08</ele>
        <time>2013-06-16T08:59:17Z</time>
      </trkpt>
      <trkpt lat="43.74421" lon="3.56743">
        <ele>76.08</ele>
        <time>2013-06-16T08:59:18Z</time>
      </trkpt>
      <trkpt lat="43.74435" lon="3.56761">
        <ele>75.6</ele>
        <time>2013-06-16T08:59:19Z</time>
      </trkpt>
      <trkpt lat="43.74536" lon="3.56931">
        <ele>75.6</ele>
        <time>2013-06-16T08:59:27Z</time>
      </trkpt>
      <trkpt lat="43.74622" lon="3.57111">
        <ele>76.08</ele>
        <time>2013-06-16T08:59:35Z</time>
      </trkpt>
      <trkpt lat="43.74631" lon="3.57133">
        <ele>76.08</ele>
        <time>2013-06-16T08:59:36Z</time>
      </trkpt>
      <trkpt lat="43.74638" lon="3.57157">
        <ele>76.08</ele>
        <time>2013-06-16T08:59:37Z</time>
      </trkpt>
      <trkpt lat="43.74694" lon="3.57343">
        <ele>78.97</ele>
        <time>2013-06-16T08:59:45Z</time>
      </trkpt>
      <trkpt lat="43.74704" lon="3.5736">
        <ele>78.97</ele>
        <time>2013-06-16T08:59:46Z</time>
      </trkpt>
      <trkpt lat="43.74774" lon="3.57459">
        <ele>78</ele>
        <time>2013-06-16T08:59:53Z</time>
      </trkpt>
      <trkpt lat="43.74831" lon="3.5752">
        <ele>77.52</ele>
        <time>2013-06-16T09:00:01Z</time>
      </trkpt>
      <trkpt lat="43.74842" lon="3.5753">
        <ele>77.52</ele>
        <time>2013-06-16T09:00:03Z</time>
      </trkpt>
      <trkpt lat="43.7485" lon="3.57538">
        <ele>77.52</ele>
        <time>2013-06-16T09:00:04Z</time>
      </trkpt>
      <trkpt lat="43.74911" lon="3.5763">
        <ele>78</ele>
        <time>2013-06-16T09:00:11Z</time>
      </trkpt>
      <trkpt lat="43.74919" lon="3.57644">
        <ele>78.48</ele>
        <time>2013-06-16T09:00:12Z</time>
      </trkpt>
      <trkpt lat="43.74925" lon="3.5766">
        <ele>78</ele>
        <time>2013-06-16T09:00:13Z</time>
      </trkpt>
      <trkpt lat="43.7493" lon="3.5768">
        <ele>78</ele>
        <time>2013-06-16T09:00:14Z</time>
      </trkpt>
      <trkpt lat="43.74955" lon="3.57819">
        <ele>79.45</ele>
        <time>2013-06-16T09:00:21Z</time>
      </trkpt>
      <trkpt lat="43.74955" lon="3.57839">
        <ele>79.93</ele>
        <time>2013-06-16T09:00:22Z</time>
      </trkpt>
      <trkpt lat="43.74951" lon="3.57859">
        <ele>79.93</ele>
        <time>2013-06-16T09:00:23Z</time>
      </trkpt>
      <trkpt lat="43.74924" lon="3.57976">
        <ele>79.45</ele>
        <time>2013-06-16T09:00:28Z</time>
      </trkpt>
      <trkpt lat="43.74915" lon="3.58">
        <ele>79.45</ele>
        <time>2013-06-16T09:00:29Z</time>
      </trkpt>
      <trkpt lat="43.74859" lon="3.58153">
        <ele>79.45</ele>
        <time>2013-06-16T09:00:36Z</time>
      </trkpt>
      <trkpt lat="43.7485" lon="3.58165">
        <ele>79.45</ele>
        <time>2013-06-16T09:00:37Z</time>
      </trkpt>
      <trkpt lat="43.74839" lon="3.58176">
        <ele>79.45</ele>
        <time>2013-06-16T09:00:38Z</time>
      </trkpt>
      <trkpt lat="43.74792" lon="3.58243">
        <ele>78</ele>
        <time>2013-06-16T09:00:42Z</time>
      </trkpt>
      <trkpt lat="43.74783" lon="3.58266">
        <ele>78</ele>
        <time>2013-06-16T09:00:43Z</time>
      </trkpt>
      <trkpt lat="43.74721" lon="3.58467">
        <ele>78</ele>
        <time>2013-06-16T09:00:51Z</time>
      </trkpt>
      <trkpt lat="43.74657" lon="3.58704">
        <ele>81.37</ele>
        <time>2013-06-16T09:01:00Z</time>
      </trkpt>
      <trkpt lat="43.74622" lon="3.58808">
        <ele>82.33</ele>
        <time>2013-06-16T09:01:05Z</time>
      </trkpt>
      <trkpt lat="43.74617" lon="3.58828">
        <ele>82.33</ele>
        <time>2013-06-16T09:01:06Z</time>
      </trkpt>
      <trkpt lat="43.74614" lon="3.58848">
        <ele>81.85</ele>
        <time>2013-06-16T09:01:07Z</time>
      </trkpt>
      <trkpt lat="43.74613" lon="3.58867">
        <ele>81.37</ele>
        <time>2013-06-16T09:01:08Z</time>
      </trkpt>
      <trkpt lat="43.74615" lon="3.58885">
        <ele>80.89</ele>
        <time>2013-06-16T09:01:09Z</time>
      </trkpt>
      <trkpt lat="43.74621" lon="3.58902">
        <ele>80.89</ele>
        <time>2013-06-16T09:01:10Z</time>
      </trkpt>
      <trkpt lat="43.74628" lon="3.58917">
        <ele>80.41</ele>
        <time>2013-06-16T09:01:11Z</time>
      </trkpt>
      <trkpt lat="43.74637" lon="3.5893">
        <ele>80.41</ele>
        <time>2013-06-16T09:01:12Z</time>
      </trkpt>
      <trkpt lat="43.74654" lon="3.58939">
        <ele>79.93</ele>
        <time>2013-06-16T09:01:13Z</time>
      </trkpt>
      <trkpt lat="43.74679" lon="3.58945">
        <ele>79.45</ele>
        <time>2013-06-16T09:01:14Z</time>
      </trkpt>
      <trkpt lat="43.74703" lon="3.58954">
        <ele>79.93</ele>
        <time>2013-06-16T09:01:15Z</time>
      </trkpt>
      <trkpt lat="43.74911" lon="3.59064">
        <ele>81.37</ele>
        <time>2013-06-16T09:01:25Z</time>
      </trkpt>
      <trkpt lat="43.74964" lon="3.59107">
        <ele>81.37</ele>
        <time>2013-06-16T09:01:28Z</time>
      </trkpt>
      <trkpt lat="43.7498" lon="3.59125">
        <ele>81.37</ele>
        <time>2013-06-16T09:01:29Z</time>
      </trkpt>
      <trkpt lat="43.74995" lon="3.59146">
        <ele>81.85</ele>
        <time>2013-06-16T09:01:30Z</time>
      </trkpt>
      <trkpt lat="43.75009" lon="3.59169">
        <ele>82.33</ele>
        <time>2013-06-16T09:01:31Z</time>
      </trkpt>
      <trkpt lat="43.7502" lon="3.59194">
        <ele>82.33</ele>
        <time>2013-06-16T09:01:32Z</time>
      </trkpt>
      <trkpt lat="43.7503" lon="3.5922">
        <ele>82.33</ele>
        <time>2013-06-16T09:01:33Z</time>
      </trkpt>
      <trkpt lat="43.75038" lon="3.59247">
        <ele>82.33</ele>
        <time>2013-06-16T09:01:34Z</time>
      </trkpt>
      <trkpt lat="43.75045" lon="3.59274">
        <ele>82.33</ele>
        <time>2013-06-16T09:01:35Z</time>
      </trkpt>
      <trkpt lat="43.75049" lon="3.59302">
        <ele>82.33</ele>
        <time>2013-06-16T09:01:36Z</time>
      </trkpt>
      <trkpt lat="43.75051" lon="3.5933">
        <ele>82.33</ele>
        <time>2013-06-16T09:01:37Z</time>
      </trkpt>
      <trkpt lat="43.75051" lon="3.59358">
        <ele>82.33</ele>
        <time>2013-06-16T09:01:38Z</time>
      </trkpt>
      <trkpt lat="43.75049" lon="3.59386">
        <ele>82.81</ele>
        <time>2013-06-16T09:01:39Z</time>
      </trkpt>
      <trkpt lat="43.75046" lon="3.59415">
        <ele>82.33</ele>
        <time>2013-06-16T09:01:40Z</time>
      </trkpt>
      <trkpt lat="43.75011" lon="3.59686">
        <ele>85.21</ele>
        <time>2013-06-16T09:01:50Z</time>
      </trkpt>
      <trkpt lat="43.74968" lon="3.59892">
        <ele>87.62</ele>
        <time>2013-06-16T09:01:58Z</time>
      </trkpt>
      <trkpt lat="43.74963" lon="3.59925">
        <ele>88.1</ele>
        <time>2013-06-16T09:02:00Z</time>
      </trkpt>
      <trkpt lat="43.74963" lon="3.59938">
        <ele>88.1</ele>
        <time>2013-06-16T09:02:01Z</time>
      </trkpt>
      <trkpt lat="43.74968" lon="3.59948">
        <ele>87.62</ele>
        <time>2013-06-16T09:02:02Z</time>
      </trkpt>
      <trkpt lat="43.74976" lon="3.59956">
        <ele>87.62</ele>
        <time>2013-06-16T09:02:03Z</time>
      </trkpt>
      <trkpt lat="43.7499" lon="3.59961">
        <ele>87.62</ele>
        <time>2013-06-16T09:02:04Z</time>
      </trkpt>
      <trkpt lat="43.75006" lon="3.59968">
        <ele>87.62</ele>
        <time>2013-06-16T09:02:05Z</time>
      </trkpt>
      <trkpt lat="43.75092" lon="3.60041">
        <ele>89.06</ele>
        <time>2013-06-16T09:02:11Z</time>
      </trkpt>
      <trkpt lat="43.75103" lon="3.6005">
        <ele>89.06</ele>
        <time>2013-06-16T09:02:12Z</time>
      </trkpt>
      <trkpt lat="43.75116" lon="3.60056">
        <ele>89.54</ele>
        <time>2013-06-16T09:02:13Z</time>
      </trkpt>
      <trkpt lat="43.7513" lon="3.60059">
        <ele>90.02</ele>
        <time>2013-06-16T09:02:14Z</time>
      </trkpt>
      <trkpt lat="43.7515" lon="3.60058">
        <ele>90.5</ele>
        <time>2013-06-16T09:02:15Z</time>
      </trkpt>
      <trkpt lat="43.75169" lon="3.60058">
        <ele>90.98</ele>
        <time>2013-06-16T09:02:16Z</time>
      </trkpt>
      <trkpt lat="43.75188" lon="3.60055">
        <ele>91.46</ele>
        <time>2013-06-16T09:02:17Z</time>
      </trkpt>
      <trkpt lat="43.75206" lon="3.60049">
        <ele>91.94</ele>
        <time>2013-06-16T09:02:18Z</time>
      </trkpt>
      <trkpt lat="43.75224" lon="3.6004">
        <ele>91.94</ele>
        <time>2013-06-16T09:02:19Z</time>
      </trkpt>
      <trkpt lat="43.75241" lon="3.60026">
        <ele>91.46</ele>
        <time>2013-06-16T09:02:20Z</time>
      </trkpt>
      <trkpt lat="43.75258" lon="3.60011">
        <ele>91.46</ele>
        <time>2013-06-16T09:02:21Z</time>
      </trkpt>
      <trkpt lat="43.75273" lon="3.59993">
        <ele>91.94</ele>
        <time>2013-06-16T09:02:22Z</time>
      </trkpt>
      <trkpt lat="43.75287" lon="3.59973">
        <ele>92.9</ele>
        <time>2013-06-16T09:02:23Z</time>
      </trkpt>
      <trkpt lat="43.753" lon="3.59954">
        <ele>93.87</ele>
        <time>2013-06-16T09:02:24Z</time>
      </trkpt>
      <trkpt lat="43.75333" lon="3.59904">
        <ele>96.75</ele>
        <time>2013-06-16T09:02:27Z</time>
      </trkpt>
      <trkpt lat="43.75345" lon="3.59893">
        <ele>97.71</ele>
        <time>2013-06-16T09:02:28Z</time>
      </trkpt>
      <trkpt lat="43.75356" lon="3.59885">
        <ele>98.67</ele>
        <time>2013-06-16T09:02:29Z</time>
      </trkpt>
      <trkpt lat="43.75367" lon="3.59886">
        <ele>99.15</ele>
        <time>2013-06-16T09:02:30Z</time>
      </trkpt>
      <trkpt lat="43.75379" lon="3.59889">
        <ele>99.63</ele>
        <time>2013-06-16T09:02:31Z</time>
      </trkpt>
      <trkpt lat="43.75389" lon="3.59891">
        <ele>100.6</ele>
        <time>2013-06-16T09:02:32Z</time>
      </trkpt>
      <trkpt lat="43.75397" lon="3.5989">
        <ele>101.08</ele>
        <time>2013-06-16T09:02:33Z</time>
      </trkpt>
      <trkpt lat="43.75404" lon="3.59883">
        <ele>102.04</ele>
        <time>2013-06-16T09:02:34Z</time>
      </trkpt>
      <trkpt lat="43.75408" lon="3.59868">
        <ele>102.52</ele>
        <time>2013-06-16T09:02:35Z</time>
      </trkpt>
      <trkpt lat="43.75423" lon="3.59837">
        <ele>103.96</ele>
        <time>2013-06-16T09:02:37Z</time>
      </trkpt>
      <trkpt lat="43.75434" lon="3.59823">
        <ele>104.44</ele>
        <time>2013-06-16T09:02:38Z</time>
      </trkpt>
      <trkpt lat="43.75446" lon="3.59812">
        <ele>105.4</ele>
        <time>2013-06-16T09:02:39Z</time>
      </trkpt>
      <trkpt lat="43.75459" lon="3.59804">
        <ele>105.88</ele>
        <time>2013-06-16T09:02:40Z</time>
      </trkpt>
      <trkpt lat="43.75473" lon="3.59802">
        <ele>106.84</ele>
        <time>2013-06-16T09:02:41Z</time>
      </trkpt>
      <trkpt lat="43.75488" lon="3.59807">
        <ele>107.32</ele>
        <time>2013-06-16T09:02:42Z</time>
      </trkpt>
      <trkpt lat="43.75502" lon="3.59814">
        <ele>107.32</ele>
        <time>2013-06-16T09:02:43Z</time>
      </trkpt>
      <trkpt lat="43.75516" lon="3.59823">
        <ele>108.29</ele>
        <time>2013-06-16T09:02:44Z</time>
      </trkpt>
      <trkpt lat="43.75532" lon="3.59829">
        <ele>109.25</ele>
        <time>2013-06-16T09:02:45Z</time>
      </trkpt>
      <trkpt lat="43.75547" lon="3.59832">
        <ele>109.25</ele>
        <time>2013-06-16T09:02:46Z</time>
      </trkpt>
      <trkpt lat="43.75564" lon="3.59831">
        <ele>110.21</ele>
        <time>2013-06-16T09:02:47Z</time>
      </trkpt>
      <trkpt lat="43.75582" lon="3.59828">
        <ele>110.69</ele>
        <time>2013-06-16T09:02:48Z</time>
      </trkpt>
      <trkpt lat="43.75599" lon="3.59827">
        <ele>111.65</ele>
        <time>2013-06-16T09:02:49Z</time>
      </trkpt>
      <trkpt lat="43.75614" lon="3.59829">
        <ele>112.13</ele>
        <time>2013-06-16T09:02:50Z</time>
      </trkpt>
      <trkpt lat="43.75629" lon="3.59835">
        <ele>113.09</ele>
        <time>2013-06-16T09:02:51Z</time>
      </trkpt>
      <trkpt lat="43.75643" lon="3.59842">
        <ele>113.57</ele>
        <time>2013-06-16T09:02:52Z</time>
      </trkpt>
      <trkpt lat="43.75658" lon="3.59848">
        <ele>114.53</ele>
        <time>2013-06-16T09:02:53Z</time>
      </trkpt>
      <trkpt lat="43.75673" lon="3.59852">
        <ele>115.01</ele>
        <time>2013-06-16T09:02:54Z</time>
      </trkpt>
      <trkpt lat="43.75688" lon="3.59852">
        <ele>115.98</ele>
        <time>2013-06-16T09:02:55Z</time>
      </trkpt>
      <trkpt lat="43.75703" lon="3.59848">
        <ele>116.46</ele>
        <time>2013-06-16T09:02:56Z</time>
      </trkpt>
      <trkpt lat="43.75717" lon="3.59839">
        <ele>116.94</ele>
        <time>2013-06-16T09:02:57Z</time>
      </trkpt>
      <trkpt lat="43.75733" lon="3.59833">
        <ele>117.9</ele>
        <time>2013-06-16T09:02:58Z</time>
      </trkpt>
      <trkpt lat="43.7575" lon="3.5983">
        <ele>118.38</ele>
        <time>2013-06-16T09:02:59Z</time>
      </trkpt>
      <trkpt lat="43.75768" lon="3.5983">
        <ele>118.86</ele>
        <time>2013-06-16T09:03:00Z</time>
      </trkpt>
      <trkpt lat="43.75785" lon="3.5983">
        <ele>119.34</ele>
        <time>2013-06-16T09:03:01Z</time>
      </trkpt>
      <trkpt lat="43.75802" lon="3.59828">
        <ele>120.78</ele>
        <time>2013-06-16T09:03:02Z</time>
      </trkpt>
      <trkpt lat="43.75817" lon="3.59826">
        <ele>120.78</ele>
        <time>2013-06-16T09:03:03Z</time>
      </trkpt>
      <trkpt lat="43.75833" lon="3.59827">
        <ele>121.26</ele>
        <time>2013-06-16T09:03:04Z</time>
      </trkpt>
      <trkpt lat="43.75848" lon="3.59833">
        <ele>122.22</ele>
        <time>2013-06-16T09:03:05Z</time>
      </trkpt>
      <trkpt lat="43.75865" lon="3.5984">
        <ele>123.67</ele>
        <time>2013-06-16T09:03:06Z</time>
      </trkpt>
      <trkpt lat="43.7597" lon="3.59877">
        <ele>129.43</ele>
        <time>2013-06-16T09:03:13Z</time>
      </trkpt>
      <trkpt lat="43.76002" lon="3.59876">
        <ele>129.43</ele>
        <time>2013-06-16T09:03:16Z</time>
      </trkpt>
      <trkpt lat="43.76023" lon="3.59865">
        <ele>129.92</ele>
        <time>2013-06-16T09:03:18Z</time>
      </trkpt>
      <trkpt lat="43.76035" lon="3.59866">
        <ele>130.4</ele>
        <time>2013-06-16T09:03:19Z</time>
      </trkpt>
      <trkpt lat="43.76046" lon="3.59871">
        <ele>130.88</ele>
        <time>2013-06-16T09:03:20Z</time>
      </trkpt>
      <trkpt lat="43.76057" lon="3.59879">
        <ele>131.84</ele>
        <time>2013-06-16T09:03:21Z</time>
      </trkpt>
      <trkpt lat="43.76069" lon="3.59886">
        <ele>132.32</ele>
        <time>2013-06-16T09:03:22Z</time>
      </trkpt>
      <trkpt lat="43.76115" lon="3.59907">
        <ele>135.68</ele>
        <time>2013-06-16T09:03:26Z</time>
      </trkpt>
      <trkpt lat="43.76126" lon="3.59907">
        <ele>136.16</ele>
        <time>2013-06-16T09:03:27Z</time>
      </trkpt>
      <trkpt lat="43.76135" lon="3.59903">
        <ele>137.13</ele>
        <time>2013-06-16T09:03:28Z</time>
      </trkpt>
      <trkpt lat="43.76144" lon="3.59894">
        <ele>138.09</ele>
        <time>2013-06-16T09:03:29Z</time>
      </trkpt>
      <trkpt lat="43.76152" lon="3.59883">
        <ele>138.57</ele>
        <time>2013-06-16T09:03:30Z</time>
      </trkpt>
      <trkpt lat="43.76159" lon="3.59869">
        <ele>140.49</ele>
        <time>2013-06-16T09:03:31Z</time>
      </trkpt>
      <trkpt lat="43.76195" lon="3.59802">
        <ele>144.34</ele>
        <time>2013-06-16T09:03:36Z</time>
      </trkpt>
      <trkpt lat="43.76198" lon="3.59787">
        <ele>144.82</ele>
        <time>2013-06-16T09:03:37Z</time>
      </trkpt>
      <trkpt lat="43.762" lon="3.59771">
        <ele>145.3</ele>
        <time>2013-06-16T09:03:38Z</time>
      </trkpt>
      <trkpt lat="43.76203" lon="3.59741">
        <ele>146.74</ele>
        <time>2013-06-16T09:03:40Z</time>
      </trkpt>
      <trkpt lat="43.76208" lon="3.59728">
        <ele>148.66</ele>
        <time>2013-06-16T09:03:41Z</time>
      </trkpt>
      <trkpt lat="43.76217" lon="3.59718">
        <ele>150.1</ele>
        <time>2013-06-16T09:03:42Z</time>
      </trkpt>
      <trkpt lat="43.76237" lon="3.59697">
        <ele>151.54</ele>
        <time>2013-06-16T09:03:44Z</time>
      </trkpt>
      <trkpt lat="43.76246" lon="3.59683">
        <ele>152.51</ele>
        <time>2013-06-16T09:03:45Z</time>
      </trkpt>
      <trkpt lat="43.76314" lon="3.59565">
        <ele>161.16</ele>
        <time>2013-06-16T09:03:53Z</time>
      </trkpt>
      <trkpt lat="43.76323" lon="3.59557">
        <ele>162.12</ele>
        <time>2013-06-16T09:03:54Z</time>
      </trkpt>
      <trkpt lat="43.76333" lon="3.59553">
        <ele>163.08</ele>
        <time>2013-06-16T09:03:55Z</time>
      </trkpt>
      <trkpt lat="43.76345" lon="3.59552">
        <ele>164.04</ele>
        <time>2013-06-16T09:03:56Z</time>
      </trkpt>
      <trkpt lat="43.76356" lon="3.59552">
        <ele>165.48</ele>
        <time>2013-06-16T09:03:57Z</time>
      </trkpt>
      <trkpt lat="43.76368" lon="3.59551">
        <ele>166.45</ele>
        <time>2013-06-16T09:03:58Z</time>
      </trkpt>
      <trkpt lat="43.76379" lon="3.59548">
        <ele>167.89</ele>
        <time>2013-06-16T09:03:59Z</time>
      </trkpt>
      <trkpt lat="43.76391" lon="3.59544">
        <ele>168.85</ele>
        <time>2013-06-16T09:04:00Z</time>
      </trkpt>
      <trkpt lat="43.76403" lon="3.59542">
        <ele>169.81</ele>
        <time>2013-06-16T09:04:01Z</time>
      </trkpt>
      <trkpt lat="43.76415" lon="3.59544">
        <ele>170.77</ele>
        <time>2013-06-16T09:04:02Z</time>
      </trkpt>
      <trkpt lat="43.76426" lon="3.5955">
        <ele>171.73</ele>
        <time>2013-06-16T09:04:03Z</time>
      </trkpt>
      <trkpt lat="43.76437" lon="3.59555">
        <ele>173.17</ele>
        <time>2013-06-16T09:04:04Z</time>
      </trkpt>
      <trkpt lat="43.76447" lon="3.59557">
        <ele>174.14</ele>
        <time>2013-06-16T09:04:05Z</time>
      </trkpt>
      <trkpt lat="43.76457" lon="3.59554">
        <ele>174.62</ele>
        <time>2013-06-16T09:04:06Z</time>
      </trkpt>
      <trkpt lat="43.76466" lon="3.59544">
        <ele>176.06</ele>
        <time>2013-06-16T09:04:07Z</time>
      </trkpt>
      <trkpt lat="43.76476" lon="3.59529">
        <ele>177.5</ele>
        <time>2013-06-16T09:04:08Z</time>
      </trkpt>
      <trkpt lat="43.76486" lon="3.59511">
        <ele>178.46</ele>
        <time>2013-06-16T09:04:09Z</time>
      </trkpt>
      <trkpt lat="43.76496" lon="3.59495">
        <ele>179.9</ele>
        <time>2013-06-16T09:04:10Z</time>
      </trkpt>
      <trkpt lat="43.76517" lon="3.59466">
        <ele>181.83</ele>
        <time>2013-06-16T09:04:12Z</time>
      </trkpt>
      <trkpt lat="43.76529" lon="3.59456">
        <ele>182.79</ele>
        <time>2013-06-16T09:04:13Z</time>
      </trkpt>
      <trkpt lat="43.76544" lon="3.59448">
        <ele>183.75</ele>
        <time>2013-06-16T09:04:14Z</time>
      </trkpt>
      <trkpt lat="43.76559" lon="3.59443">
        <ele>185.19</ele>
        <time>2013-06-16T09:04:15Z</time>
      </trkpt>
      <trkpt lat="43.76575" lon="3.5944">
        <ele>186.63</ele>
        <time>2013-06-16T09:04:16Z</time>
      </trkpt>
      <trkpt lat="43.76716" lon="3.59416">
        <ele>193.84</ele>
        <time>2013-06-16T09:04:25Z</time>
      </trkpt>
      <trkpt lat="43.76727" lon="3.59416">
        <ele>194.8</ele>
        <time>2013-06-16T09:04:26Z</time>
      </trkpt>
      <trkpt lat="43.76737" lon="3.59419">
        <ele>195.77</ele>
        <time>2013-06-16T09:04:27Z</time>
      </trkpt>
      <trkpt lat="43.76746" lon="3.59426">
        <ele>195.28</ele>
        <time>2013-06-16T09:04:28Z</time>
      </trkpt>
      <trkpt lat="43.76751" lon="3.5944">
        <ele>195.28</ele>
        <time>2013-06-16T09:04:29Z</time>
      </trkpt>
      <trkpt lat="43.76749" lon="3.59451">
        <ele>198.17</ele>
        <time>2013-06-16T09:04:30Z</time>
      </trkpt>
      <trkpt lat="43.76752" lon="3.59465">
        <ele>199.13</ele>
        <time>2013-06-16T09:04:31Z</time>
      </trkpt>
      <trkpt lat="43.76751" lon="3.59478">
        <ele>199.61</ele>
        <time>2013-06-16T09:04:32Z</time>
      </trkpt>
      <trkpt lat="43.76751" lon="3.59486">
        <ele>200.09</ele>
        <time>2013-06-16T09:04:33Z</time>
      </trkpt>
      <trkpt lat="43.76756" lon="3.59493">
        <ele>201.05</ele>
        <time>2013-06-16T09:04:34Z</time>
      </trkpt>
      <trkpt lat="43.76764" lon="3.59498">
        <ele>202.49</ele>
        <time>2013-06-16T09:04:35Z</time>
      </trkpt>
      <trkpt lat="43.76776" lon="3.59502">
        <ele>204.42</ele>
        <time>2013-06-16T09:04:36Z</time>
      </trkpt>
      <trkpt lat="43.76788" lon="3.59501">
        <ele>205.38</ele>
        <time>2013-06-16T09:04:37Z</time>
      </trkpt>
      <trkpt lat="43.768" lon="3.59497">
        <ele>207.3</ele>
        <time>2013-06-16T09:04:38Z</time>
      </trkpt>
      <trkpt lat="43.76809" lon="3.59489">
        <ele>207.78</ele>
        <time>2013-06-16T09:04:39Z</time>
      </trkpt>
      <trkpt lat="43.76817" lon="3.59479">
        <ele>208.26</ele>
        <time>2013-06-16T09:04:40Z</time>
      </trkpt>
      <trkpt lat="43.76825" lon="3.59472">
        <ele>208.74</ele>
        <time>2013-06-16T09:04:41Z</time>
      </trkpt>
      <trkpt lat="43.76834" lon="3.59469">
        <ele>209.7</ele>
        <time>2013-06-16T09:04:42Z</time>
      </trkpt>
      <trkpt lat="43.76846" lon="3.59473">
        <ele>210.19</ele>
        <time>2013-06-16T09:04:43Z</time>
      </trkpt>
      <trkpt lat="43.76857" lon="3.5948">
        <ele>211.63</ele>
        <time>2013-06-16T09:04:44Z</time>
      </trkpt>
      <trkpt lat="43.76869" lon="3.59488">
        <ele>209.7</ele>
        <time>2013-06-16T09:04:45Z</time>
      </trkpt>
      <trkpt lat="43.76886" lon="3.59503">
        <ele>209.22</ele>
        <time>2013-06-16T09:04:47Z</time>
      </trkpt>
      <trkpt lat="43.76892" lon="3.59514">
        <ele>209.22</ele>
        <time>2013-06-16T09:04:48Z</time>
      </trkpt>
      <trkpt lat="43.76894" lon="3.59527">
        <ele>210.19</ele>
        <time>2013-06-16T09:04:49Z</time>
      </trkpt>
      <trkpt lat="43.76897" lon="3.59556">
        <ele>209.7</ele>
        <time>2013-06-16T09:04:51Z</time>
      </trkpt>
      <trkpt lat="43.76903" lon="3.5957">
        <ele>209.7</ele>
        <time>2013-06-16T09:04:52Z</time>
      </trkpt>
      <trkpt lat="43.76911" lon="3.59582">
        <ele>209.7</ele>
        <time>2013-06-16T09:04:53Z</time>
      </trkpt>
      <trkpt lat="43.76921" lon="3.59593">
        <ele>210.67</ele>
        <time>2013-06-16T09:04:54Z</time>
      </trkpt>
      <trkpt lat="43.76933" lon="3.59603">
        <ele>211.15</ele>
        <time>2013-06-16T09:04:55Z</time>
      </trkpt>
      <trkpt lat="43.76947" lon="3.59612">
        <ele>211.63</ele>
        <time>2013-06-16T09:04:56Z</time>
      </trkpt>
      <trkpt lat="43.7696" lon="3.59615">
        <ele>213.07</ele>
        <time>2013-06-16T09:04:57Z</time>
      </trkpt>
      <trkpt lat="43.76973" lon="3.59614">
        <ele>214.03</ele>
        <time>2013-06-16T09:04:58Z</time>
      </trkpt>
      <trkpt lat="43.76985" lon="3.59609">
        <ele>214.51</ele>
        <time>2013-06-16T09:04:59Z</time>
      </trkpt>
      <trkpt lat="43.76997" lon="3.59604">
        <ele>214.99</ele>
        <time>2013-06-16T09:05:00Z</time>
      </trkpt>
      <trkpt lat="43.77008" lon="3.59603">
        <ele>214.99</ele>
        <time>2013-06-16T09:05:01Z</time>
      </trkpt>
      <trkpt lat="43.77017" lon="3.5961">
        <ele>215.95</ele>
        <time>2013-06-16T09:05:02Z</time>
      </trkpt>
      <trkpt lat="43.77025" lon="3.5962">
        <ele>216.91</ele>
        <time>2013-06-16T09:05:03Z</time>
      </trkpt>
      <trkpt lat="43.77032" lon="3.59631">
        <ele>217.4</ele>
        <time>2013-06-16T09:05:04Z</time>
      </trkpt>
      <trkpt lat="43.7704" lon="3.59639">
        <ele>217.88</ele>
        <time>2013-06-16T09:05:05Z</time>
      </trkpt>
      <trkpt lat="43.7705" lon="3.5964">
        <ele>218.84</ele>
        <time>2013-06-16T09:05:06Z</time>
      </trkpt>
      <trkpt lat="43.77059" lon="3.59638">
        <ele>219.8</ele>
        <time>2013-06-16T09:05:07Z</time>
      </trkpt>
      <trkpt lat="43.77071" lon="3.59634">
        <ele>220.76</ele>
        <time>2013-06-16T09:05:08Z</time>
      </trkpt>
      <trkpt lat="43.77085" lon="3.59628">
        <ele>221.24</ele>
        <time>2013-06-16T09:05:09Z</time>
      </trkpt>
      <trkpt lat="43.771" lon="3.59627">
        <ele>222.2</ele>
        <time>2013-06-16T09:05:10Z</time>
      </trkpt>
      <trkpt lat="43.77114" lon="3.59627">
        <ele>222.68</ele>
        <time>2013-06-16T09:05:11Z</time>
      </trkpt>
      <trkpt lat="43.77129" lon="3.59628">
        <ele>223.64</ele>
        <time>2013-06-16T09:05:12Z</time>
      </trkpt>
      <trkpt lat="43.77167" lon="3.59638">
        <ele>225.09</ele>
        <time>2013-06-16T09:05:15Z</time>
      </trkpt>
      <trkpt lat="43.77176" lon="3.59646">
        <ele>225.57</ele>
        <time>2013-06-16T09:05:16Z</time>
      </trkpt>
      <trkpt lat="43.77183" lon="3.59657">
        <ele>226.05</ele>
        <time>2013-06-16T09:05:17Z</time>
      </trkpt>
      <trkpt lat="43.77186" lon="3.59674">
        <ele>227.97</ele>
        <time>2013-06-16T09:05:18Z</time>
      </trkpt>
      <trkpt lat="43.77187" lon="3.59691">
        <ele>228.93</ele>
        <time>2013-06-16T09:05:19Z</time>
      </trkpt>
      <trkpt lat="43.77187" lon="3.59707">
        <ele>229.41</ele>
        <time>2013-06-16T09:05:20Z</time>
      </trkpt>
      <trkpt lat="43.77185" lon="3.59722">
        <ele>230.37</ele>
        <time>2013-06-16T09:05:21Z</time>
      </trkpt>
      <trkpt lat="43.77177" lon="3.59735">
        <ele>230.85</ele>
        <time>2013-06-16T09:05:22Z</time>
      </trkpt>
      <trkpt lat="43.77168" lon="3.59746">
        <ele>231.81</ele>
        <time>2013-06-16T09:05:23Z</time>
      </trkpt>
      <trkpt lat="43.7716" lon="3.59757">
        <ele>232.3</ele>
        <time>2013-06-16T09:05:24Z</time>
      </trkpt>
      <trkpt lat="43.77154" lon="3.59771">
        <ele>232.78</ele>
        <time>2013-06-16T09:05:25Z</time>
      </trkpt>
      <trkpt lat="43.77151" lon="3.59787">
        <ele>233.74</ele>
        <time>2013-06-16T09:05:26Z</time>
      </trkpt>
      <trkpt lat="43.77151" lon="3.59805">
        <ele>233.74</ele>
        <time>2013-06-16T09:05:27Z</time>
      </trkpt>
      <trkpt lat="43.77153" lon="3.5982">
        <ele>234.22</ele>
        <time>2013-06-16T09:05:28Z</time>
      </trkpt>
      <trkpt lat="43.77158" lon="3.5983">
        <ele>234.7</ele>
        <time>2013-06-16T09:05:29Z</time>
      </trkpt>
      <trkpt lat="43.77164" lon="3.59833">
        <ele>235.18</ele>
        <time>2013-06-16T09:05:30Z</time>
      </trkpt>
      <trkpt lat="43.77178" lon="3.59833">
        <ele>236.62</ele>
        <time>2013-06-16T09:05:31Z</time>
      </trkpt>
      <trkpt lat="43.77191" lon="3.59832">
        <ele>237.1</ele>
        <time>2013-06-16T09:05:32Z</time>
      </trkpt>
      <trkpt lat="43.77206" lon="3.59826">
        <ele>238.06</ele>
        <time>2013-06-16T09:05:33Z</time>
      </trkpt>
      <trkpt lat="43.77223" lon="3.59818">
        <ele>239.02</ele>
        <time>2013-06-16T09:05:34Z</time>
      </trkpt>
      <trkpt lat="43.77238" lon="3.5981">
        <ele>239.51</ele>
        <time>2013-06-16T09:05:35Z</time>
      </trkpt>
      <trkpt lat="43.77292" lon="3.59791">
        <ele>242.87</ele>
        <time>2013-06-16T09:05:39Z</time>
      </trkpt>
      <trkpt lat="43.77303" lon="3.59792">
        <ele>241.91</ele>
        <time>2013-06-16T09:05:40Z</time>
      </trkpt>
      <trkpt lat="43.77312" lon="3.598">
        <ele>241.43</ele>
        <time>2013-06-16T09:05:41Z</time>
      </trkpt>
      <trkpt lat="43.77317" lon="3.59813">
        <ele>243.35</ele>
        <time>2013-06-16T09:05:42Z</time>
      </trkpt>
      <trkpt lat="43.77321" lon="3.59827">
        <ele>244.31</ele>
        <time>2013-06-16T09:05:43Z</time>
      </trkpt>
      <trkpt lat="43.77321" lon="3.59842">
        <ele>245.27</ele>
        <time>2013-06-16T09:05:44Z</time>
      </trkpt>
      <trkpt lat="43.77318" lon="3.59856">
        <ele>245.27</ele>
        <time>2013-06-16T09:05:45Z</time>
      </trkpt>
      <trkpt lat="43.77318" lon="3.59869">
        <ele>245.75</ele>
        <time>2013-06-16T09:05:46Z</time>
      </trkpt>
      <trkpt lat="43.77319" lon="3.5988">
        <ele>246.23</ele>
        <time>2013-06-16T09:05:47Z</time>
      </trkpt>
      <trkpt lat="43.77323" lon="3.59885">
        <ele>245.75</ele>
        <time>2013-06-16T09:05:48Z</time>
      </trkpt>
      <trkpt lat="43.77329" lon="3.59887">
        <ele>246.72</ele>
        <time>2013-06-16T09:05:49Z</time>
      </trkpt>
      <trkpt lat="43.77338" lon="3.59888">
        <ele>247.68</ele>
        <time>2013-06-16T09:05:50Z</time>
      </trkpt>
      <trkpt lat="43.77351" lon="3.59888">
        <ele>248.16</ele>
        <time>2013-06-16T09:05:51Z</time>
      </trkpt>
      <trkpt lat="43.77363" lon="3.59894">
        <ele>249.12</ele>
        <time>2013-06-16T09:05:52Z</time>
      </trkpt>
      <trkpt lat="43.77374" lon="3.59903">
        <ele>249.6</ele>
        <time>2013-06-16T09:05:53Z</time>
      </trkpt>
      <trkpt lat="43.77413" lon="3.59928">
        <ele>252</ele>
        <time>2013-06-16T09:05:56Z</time>
      </trkpt>
      <trkpt lat="43.77441" lon="3.59936">
        <ele>253.44</ele>
        <time>2013-06-16T09:05:58Z</time>
      </trkpt>
      <trkpt lat="43.77458" lon="3.59934">
        <ele>253.93</ele>
        <time>2013-06-16T09:05:59Z</time>
      </trkpt>
      <trkpt lat="43.77475" lon="3.59929">
        <ele>254.89</ele>
        <time>2013-06-16T09:06:00Z</time>
      </trkpt>
      <trkpt lat="43.77535" lon="3.59921">
        <ele>255.85</ele>
        <time>2013-06-16T09:06:04Z</time>
      </trkpt>
      <trkpt lat="43.77547" lon="3.59925">
        <ele>256.33</ele>
        <time>2013-06-16T09:06:05Z</time>
      </trkpt>
      <trkpt lat="43.7756" lon="3.59932">
        <ele>256.33</ele>
        <time>2013-06-16T09:06:06Z</time>
      </trkpt>
      <trkpt lat="43.77606" lon="3.59975">
        <ele>257.29</ele>
        <time>2013-06-16T09:06:10Z</time>
      </trkpt>
      <trkpt lat="43.77611" lon="3.59992">
        <ele>258.25</ele>
        <time>2013-06-16T09:06:11Z</time>
      </trkpt>
      <trkpt lat="43.77614" lon="3.6001">
        <ele>258.73</ele>
        <time>2013-06-16T09:06:12Z</time>
      </trkpt>
      <trkpt lat="43.77616" lon="3.60028">
        <ele>259.21</ele>
        <time>2013-06-16T09:06:13Z</time>
      </trkpt>
      <trkpt lat="43.77612" lon="3.60044">
        <ele>259.69</ele>
        <time>2013-06-16T09:06:14Z</time>
      </trkpt>
      <trkpt lat="43.77605" lon="3.60058">
        <ele>260.17</ele>
        <time>2013-06-16T09:06:15Z</time>
      </trkpt>
      <trkpt lat="43.77599" lon="3.60071">
        <ele>260.17</ele>
        <time>2013-06-16T09:06:16Z</time>
      </trkpt>
      <trkpt lat="43.77596" lon="3.60083">
        <ele>260.65</ele>
        <time>2013-06-16T09:06:17Z</time>
      </trkpt>
      <trkpt lat="43.77593" lon="3.60093">
        <ele>260.17</ele>
        <time>2013-06-16T09:06:18Z</time>
      </trkpt>
      <trkpt lat="43.77594" lon="3.60102">
        <ele>260.17</ele>
        <time>2013-06-16T09:06:19Z</time>
      </trkpt>
      <trkpt lat="43.77599" lon="3.60107">
        <ele>260.65</ele>
        <time>2013-06-16T09:06:20Z</time>
      </trkpt>
      <trkpt lat="43.77608" lon="3.60109">
        <ele>261.14</ele>
        <time>2013-06-16T09:06:21Z</time>
      </trkpt>
      <trkpt lat="43.77622" lon="3.60106">
        <ele>261.62</ele>
        <time>2013-06-16T09:06:22Z</time>
      </trkpt>
      <trkpt lat="43.77637" lon="3.60105">
        <ele>262.1</ele>
        <time>2013-06-16T09:06:23Z</time>
      </trkpt>
      <trkpt lat="43.77653" lon="3.60105">
        <ele>263.54</ele>
        <time>2013-06-16T09:06:24Z</time>
      </trkpt>
      <trkpt lat="43.77668" lon="3.60109">
        <ele>264.02</ele>
        <time>2013-06-16T09:06:25Z</time>
      </trkpt>
      <trkpt lat="43.7768" lon="3.60115">
        <ele>264.5</ele>
        <time>2013-06-16T09:06:26Z</time>
      </trkpt>
      <trkpt lat="43.77691" lon="3.60123">
        <ele>264.98</ele>
        <time>2013-06-16T09:06:27Z</time>
      </trkpt>
      <trkpt lat="43.77699" lon="3.60134">
        <ele>265.46</ele>
        <time>2013-06-16T09:06:28Z</time>
      </trkpt>
      <trkpt lat="43.77701" lon="3.60149">
        <ele>265.94</ele>
        <time>2013-06-16T09:06:29Z</time>
      </trkpt>
      <trkpt lat="43.77703" lon="3.60164">
        <ele>265.94</ele>
        <time>2013-06-16T09:06:30Z</time>
      </trkpt>
      <trkpt lat="43.77706" lon="3.60179">
        <ele>266.42</ele>
        <time>2013-06-16T09:06:31Z</time>
      </trkpt>
      <trkpt lat="43.77712" lon="3.60191">
        <ele>266.9</ele>
        <time>2013-06-16T09:06:32Z</time>
      </trkpt>
      <trkpt lat="43.77718" lon="3.60199">
        <ele>266.9</ele>
        <time>2013-06-16T09:06:33Z</time>
      </trkpt>
      <trkpt lat="43.77728" lon="3.60204">
        <ele>267.38</ele>
        <time>2013-06-16T09:06:34Z</time>
      </trkpt>
      <trkpt lat="43.77742" lon="3.60204">
        <ele>267.38</ele>
        <time>2013-06-16T09:06:35Z</time>
      </trkpt>
      <trkpt lat="43.77757" lon="3.60203">
        <ele>268.35</ele>
        <time>2013-06-16T09:06:36Z</time>
      </trkpt>
      <trkpt lat="43.77772" lon="3.60202">
        <ele>268.35</ele>
        <time>2013-06-16T09:06:37Z</time>
      </trkpt>
      <trkpt lat="43.77786" lon="3.60203">
        <ele>268.83</ele>
        <time>2013-06-16T09:06:38Z</time>
      </trkpt>
      <trkpt lat="43.77798" lon="3.60208">
        <ele>268.83</ele>
        <time>2013-06-16T09:06:39Z</time>
      </trkpt>
      <trkpt lat="43.7781" lon="3.60216">
        <ele>268.83</ele>
        <time>2013-06-16T09:06:40Z</time>
      </trkpt>
      <trkpt lat="43.7782" lon="3.60228">
        <ele>269.31</ele>
        <time>2013-06-16T09:06:41Z</time>
      </trkpt>
      <trkpt lat="43.77828" lon="3.60244">
        <ele>269.79</ele>
        <time>2013-06-16T09:06:42Z</time>
      </trkpt>
      <trkpt lat="43.77838" lon="3.60259">
        <ele>270.27</ele>
        <time>2013-06-16T09:06:43Z</time>
      </trkpt>
      <trkpt lat="43.7785" lon="3.60274">
        <ele>270.75</ele>
        <time>2013-06-16T09:06:44Z</time>
      </trkpt>
      <trkpt lat="43.77864" lon="3.60291">
        <ele>271.23</ele>
        <time>2013-06-16T09:06:45Z</time>
      </trkpt>
      <trkpt lat="43.77913" lon="3.60363">
        <ele>273.15</ele>
        <time>2013-06-16T09:06:49Z</time>
      </trkpt>
      <trkpt lat="43.77926" lon="3.60377">
        <ele>273.63</ele>
        <time>2013-06-16T09:06:50Z</time>
      </trkpt>
      <trkpt lat="43.7794" lon="3.60387">
        <ele>274.11</ele>
        <time>2013-06-16T09:06:51Z</time>
      </trkpt>
      <trkpt lat="43.77955" lon="3.60395">
        <ele>274.59</ele>
        <time>2013-06-16T09:06:52Z</time>
      </trkpt>
      <trkpt lat="43.77971" lon="3.604">
        <ele>275.56</ele>
        <time>2013-06-16T09:06:53Z</time>
      </trkpt>
      <trkpt lat="43.77989" lon="3.604">
        <ele>276.52</ele>
        <time>2013-06-16T09:06:54Z</time>
      </trkpt>
      <trkpt lat="43.78007" lon="3.60399">
        <ele>277</ele>
        <time>2013-06-16T09:06:55Z</time>
      </trkpt>
      <trkpt lat="43.78023" lon="3.60397">
        <ele>277.48</ele>
        <time>2013-06-16T09:06:56Z</time>
      </trkpt>
      <trkpt lat="43.7805" lon="3.60399">
        <ele>277.96</ele>
        <time>2013-06-16T09:06:58Z</time>
      </trkpt>
      <trkpt lat="43.7806" lon="3.60406">
        <ele>277.96</ele>
        <time>2013-06-16T09:06:59Z</time>
      </trkpt>
      <trkpt lat="43.78068" lon="3.60416">
        <ele>278.92</ele>
        <time>2013-06-16T09:07:00Z</time>
      </trkpt>
      <trkpt lat="43.78068" lon="3.60433">
        <ele>279.88</ele>
        <time>2013-06-16T09:07:01Z</time>
      </trkpt>
      <trkpt lat="43.7807" lon="3.60448">
        <ele>279.88</ele>
        <time>2013-06-16T09:07:02Z</time>
      </trkpt>
      <trkpt lat="43.78072" lon="3.60461">
        <ele>280.36</ele>
        <time>2013-06-16T09:07:03Z</time>
      </trkpt>
      <trkpt lat="43.78076" lon="3.60468">
        <ele>280.36</ele>
        <time>2013-06-16T09:07:04Z</time>
      </trkpt>
      <trkpt lat="43.78086" lon="3.60472">
        <ele>280.84</ele>
        <time>2013-06-16T09:07:05Z</time>
      </trkpt>
      <trkpt lat="43.78097" lon="3.60471">
        <ele>281.8</ele>
        <time>2013-06-16T09:07:06Z</time>
      </trkpt>
      <trkpt lat="43.78109" lon="3.60473">
        <ele>282.28</ele>
        <time>2013-06-16T09:07:07Z</time>
      </trkpt>
      <trkpt lat="43.78119" lon="3.60478">
        <ele>282.28</ele>
        <time>2013-06-16T09:07:08Z</time>
      </trkpt>
      <trkpt lat="43.78127" lon="3.60488">
        <ele>283.25</ele>
        <time>2013-06-16T09:07:09Z</time>
      </trkpt>
      <trkpt lat="43.78132" lon="3.60503">
        <ele>283.73</ele>
        <time>2013-06-16T09:07:10Z</time>
      </trkpt>
      <trkpt lat="43.78169" lon="3.60602">
        <ele>288.53</ele>
        <time>2013-06-16T09:07:16Z</time>
      </trkpt>
      <trkpt lat="43.78177" lon="3.60614">
        <ele>289.49</ele>
        <time>2013-06-16T09:07:17Z</time>
      </trkpt>
      <trkpt lat="43.78189" lon="3.60637">
        <ele>290.94</ele>
        <time>2013-06-16T09:07:19Z</time>
      </trkpt>
      <trkpt lat="43.78187" lon="3.60652">
        <ele>291.42</ele>
        <time>2013-06-16T09:07:20Z</time>
      </trkpt>
      <trkpt lat="43.78184" lon="3.60666">
        <ele>291.9</ele>
        <time>2013-06-16T09:07:21Z</time>
      </trkpt>
      <trkpt lat="43.78177" lon="3.60696">
        <ele>292.86</ele>
        <time>2013-06-16T09:07:23Z</time>
      </trkpt>
      <trkpt lat="43.78178" lon="3.60714">
        <ele>293.34</ele>
        <time>2013-06-16T09:07:24Z</time>
      </trkpt>
      <trkpt lat="43.78185" lon="3.60732">
        <ele>293.82</ele>
        <time>2013-06-16T09:07:25Z</time>
      </trkpt>
      <trkpt lat="43.78194" lon="3.60751">
        <ele>294.78</ele>
        <time>2013-06-16T09:07:26Z</time>
      </trkpt>
      <trkpt lat="43.78205" lon="3.60768">
        <ele>295.74</ele>
        <time>2013-06-16T09:07:27Z</time>
      </trkpt>
      <trkpt lat="43.78218" lon="3.60784">
        <ele>296.22</ele>
        <time>2013-06-16T09:07:28Z</time>
      </trkpt>
      <trkpt lat="43.78232" lon="3.60798">
        <ele>296.7</ele>
        <time>2013-06-16T09:07:29Z</time>
      </trkpt>
      <trkpt lat="43.7825" lon="3.60808">
        <ele>297.18</ele>
        <time>2013-06-16T09:07:30Z</time>
      </trkpt>
      <trkpt lat="43.7827" lon="3.60817">
        <ele>298.15</ele>
        <time>2013-06-16T09:07:31Z</time>
      </trkpt>
      <trkpt lat="43.78291" lon="3.60825">
        <ele>299.11</ele>
        <time>2013-06-16T09:07:32Z</time>
      </trkpt>
      <trkpt lat="43.78382" lon="3.6087">
        <ele>301.99</ele>
        <time>2013-06-16T09:07:37Z</time>
      </trkpt>
      <trkpt lat="43.78397" lon="3.60882">
        <ele>302.47</ele>
        <time>2013-06-16T09:07:38Z</time>
      </trkpt>
      <trkpt lat="43.78411" lon="3.60895">
        <ele>302.95</ele>
        <time>2013-06-16T09:07:39Z</time>
      </trkpt>
      <trkpt lat="43.78423" lon="3.60909">
        <ele>303.43</ele>
        <time>2013-06-16T09:07:40Z</time>
      </trkpt>
      <trkpt lat="43.78434" lon="3.60923">
        <ele>304.39</ele>
        <time>2013-06-16T09:07:41Z</time>
      </trkpt>
      <trkpt lat="43.78445" lon="3.6094">
        <ele>304.88</ele>
        <time>2013-06-16T09:07:42Z</time>
      </trkpt>
      <trkpt lat="43.78532" lon="3.61062">
        <ele>307.76</ele>
        <time>2013-06-16T09:07:48Z</time>
      </trkpt>
      <trkpt lat="43.78702" lon="3.61297">
        <ele>309.68</ele>
        <time>2013-06-16T09:07:58Z</time>
      </trkpt>
      <trkpt lat="43.78847" lon="3.61493">
        <ele>302.47</ele>
        <time>2013-06-16T09:08:06Z</time>
      </trkpt>
      <trkpt lat="43.7899" lon="3.61674">
        <ele>292.86</ele>
        <time>2013-06-16T09:08:14Z</time>
      </trkpt>
      <trkpt lat="43.79004" lon="3.61701">
        <ele>291.42</ele>
        <time>2013-06-16T09:08:15Z</time>
      </trkpt>
      <trkpt lat="43.79016" lon="3.61731">
        <ele>290.46</ele>
        <time>2013-06-16T09:08:16Z</time>
      </trkpt>
      <trkpt lat="43.79026" lon="3.61762">
        <ele>288.53</ele>
        <time>2013-06-16T09:08:17Z</time>
      </trkpt>
      <trkpt lat="43.79036" lon="3.61794">
        <ele>287.09</ele>
        <time>2013-06-16T09:08:18Z</time>
      </trkpt>
      <trkpt lat="43.79092" lon="3.61906">
        <ele>282.28</ele>
        <time>2013-06-16T09:08:22Z</time>
      </trkpt>
      <trkpt lat="43.79111" lon="3.61929">
        <ele>281.32</ele>
        <time>2013-06-16T09:08:23Z</time>
      </trkpt>
      <trkpt lat="43.7925" lon="3.6207">
        <ele>279.4</ele>
        <time>2013-06-16T09:08:29Z</time>
      </trkpt>
      <trkpt lat="43.7945" lon="3.62281">
        <ele>278.92</ele>
        <time>2013-06-16T09:08:38Z</time>
      </trkpt>
      <trkpt lat="43.79686" lon="3.62668">
        <ele>277</ele>
        <time>2013-06-16T09:08:51Z</time>
      </trkpt>
      <trkpt lat="43.79914" lon="3.63059">
        <ele>285.17</ele>
        <time>2013-06-16T09:09:04Z</time>
      </trkpt>
      <trkpt lat="43.8009" lon="3.63429">
        <ele>273.63</ele>
        <time>2013-06-16T09:09:16Z</time>
      </trkpt>
      <trkpt lat="43.80116" lon="3.63548">
        <ele>268.35</ele>
        <time>2013-06-16T09:09:20Z</time>
      </trkpt>
      <trkpt lat="43.80117" lon="3.63576">
        <ele>266.9</ele>
        <time>2013-06-16T09:09:21Z</time>
      </trkpt>
      <trkpt lat="43.80115" lon="3.63606">
        <ele>265.94</ele>
        <time>2013-06-16T09:09:22Z</time>
      </trkpt>
      <trkpt lat="43.80111" lon="3.63635">
        <ele>264.5</ele>
        <time>2013-06-16T09:09:23Z</time>
      </trkpt>
      <trkpt lat="43.80108" lon="3.63663">
        <ele>263.54</ele>
        <time>2013-06-16T09:09:24Z</time>
      </trkpt>
      <trkpt lat="43.80108" lon="3.63691">
        <ele>262.1</ele>
        <time>2013-06-16T09:09:25Z</time>
      </trkpt>
      <trkpt lat="43.8011" lon="3.63718">
        <ele>261.14</ele>
        <time>2013-06-16T09:09:26Z</time>
      </trkpt>
      <trkpt lat="43.80116" lon="3.63748">
        <ele>260.17</ele>
        <time>2013-06-16T09:09:27Z</time>
      </trkpt>
      <trkpt lat="43.80122" lon="3.6378">
        <ele>259.21</ele>
        <time>2013-06-16T09:09:28Z</time>
      </trkpt>
      <trkpt lat="43.80137" lon="3.63876">
        <ele>256.33</ele>
        <time>2013-06-16T09:09:31Z</time>
      </trkpt>
      <trkpt lat="43.80145" lon="3.63905">
        <ele>255.37</ele>
        <time>2013-06-16T09:09:32Z</time>
      </trkpt>
      <trkpt lat="43.80155" lon="3.63932">
        <ele>254.41</ele>
        <time>2013-06-16T09:09:33Z</time>
      </trkpt>
      <trkpt lat="43.80169" lon="3.63957">
        <ele>253.44</ele>
        <time>2013-06-16T09:09:34Z</time>
      </trkpt>
      <trkpt lat="43.80185" lon="3.63978">
        <ele>252</ele>
        <time>2013-06-16T09:09:35Z</time>
      </trkpt>
      <trkpt lat="43.80204" lon="3.63995">
        <ele>250.56</ele>
        <time>2013-06-16T09:09:36Z</time>
      </trkpt>
      <trkpt lat="43.80223" lon="3.6401">
        <ele>249.6</ele>
        <time>2013-06-16T09:09:37Z</time>
      </trkpt>
      <trkpt lat="43.80269" lon="3.64052">
        <ele>245.75</ele>
        <time>2013-06-16T09:09:40Z</time>
      </trkpt>
      <trkpt lat="43.80281" lon="3.64071">
        <ele>244.79</ele>
        <time>2013-06-16T09:09:41Z</time>
      </trkpt>
      <trkpt lat="43.80291" lon="3.64093">
        <ele>243.83</ele>
        <time>2013-06-16T09:09:42Z</time>
      </trkpt>
      <trkpt lat="43.80296" lon="3.64118">
        <ele>242.87</ele>
        <time>2013-06-16T09:09:43Z</time>
      </trkpt>
      <trkpt lat="43.80295" lon="3.6415">
        <ele>242.87</ele>
        <time>2013-06-16T09:09:44Z</time>
      </trkpt>
      <trkpt lat="43.80296" lon="3.64179">
        <ele>242.87</ele>
        <time>2013-06-16T09:09:45Z</time>
      </trkpt>
      <trkpt lat="43.803" lon="3.64229">
        <ele>242.39</ele>
        <time>2013-06-16T09:09:47Z</time>
      </trkpt>
      <trkpt lat="43.80305" lon="3.64252">
        <ele>242.39</ele>
        <time>2013-06-16T09:09:48Z</time>
      </trkpt>
      <trkpt lat="43.80315" lon="3.64272">
        <ele>241.91</ele>
        <time>2013-06-16T09:09:49Z</time>
      </trkpt>
      <trkpt lat="43.80327" lon="3.6429">
        <ele>241.91</ele>
        <time>2013-06-16T09:09:50Z</time>
      </trkpt>
      <trkpt lat="43.80342" lon="3.64305">
        <ele>241.91</ele>
        <time>2013-06-16T09:09:51Z</time>
      </trkpt>
      <trkpt lat="43.80358" lon="3.6432">
        <ele>241.91</ele>
        <time>2013-06-16T09:09:52Z</time>
      </trkpt>
      <trkpt lat="43.80399" lon="3.64372">
        <ele>243.83</ele>
        <time>2013-06-16T09:09:55Z</time>
      </trkpt>
      <trkpt lat="43.80407" lon="3.64393">
        <ele>244.31</ele>
        <time>2013-06-16T09:09:56Z</time>
      </trkpt>
      <trkpt lat="43.80414" lon="3.64415">
        <ele>244.79</ele>
        <time>2013-06-16T09:09:57Z</time>
      </trkpt>
      <trkpt lat="43.80419" lon="3.64438">
        <ele>245.27</ele>
        <time>2013-06-16T09:09:58Z</time>
      </trkpt>
      <trkpt lat="43.80424" lon="3.64462">
        <ele>245.75</ele>
        <time>2013-06-16T09:09:59Z</time>
      </trkpt>
      <trkpt lat="43.80454" lon="3.64602">
        <ele>246.72</ele>
        <time>2013-06-16T09:10:07Z</time>
      </trkpt>
      <trkpt lat="43.80472" lon="3.64682">
        <ele>245.75</ele>
        <time>2013-06-16T09:10:13Z</time>
      </trkpt>
      <trkpt lat="43.80474" lon="3.64692">
        <ele>245.27</ele>
        <time>2013-06-16T09:10:14Z</time>
      </trkpt>
      <trkpt lat="43.80478" lon="3.64697">
        <ele>245.27</ele>
        <time>2013-06-16T09:10:15Z</time>
      </trkpt>
      <trkpt lat="43.80482" lon="3.64696">
        <ele>245.27</ele>
        <time>2013-06-16T09:10:16Z</time>
      </trkpt>
      <trkpt lat="43.80488" lon="3.64695">
        <ele>245.27</ele>
        <time>2013-06-16T09:10:17Z</time>
      </trkpt>
      <trkpt lat="43.80494" lon="3.64693">
        <ele>245.27</ele>
        <time>2013-06-16T09:10:18Z</time>
      </trkpt>
      <trkpt lat="43.80502" lon="3.64692">
        <ele>245.27</ele>
        <time>2013-06-16T09:10:19Z</time>
      </trkpt>
      <trkpt lat="43.80514" lon="3.64693">
        <ele>245.75</ele>
        <time>2013-06-16T09:10:20Z</time>
      </trkpt>
      <trkpt lat="43.80561" lon="3.64698">
        <ele>244.79</ele>
        <time>2013-06-16T09:10:24Z</time>
      </trkpt>
      <trkpt lat="43.80571" lon="3.64695">
        <ele>244.79</ele>
        <time>2013-06-16T09:10:25Z</time>
      </trkpt>
      <trkpt lat="43.80582" lon="3.6469">
        <ele>244.79</ele>
        <time>2013-06-16T09:10:26Z</time>
      </trkpt>
      <trkpt lat="43.80592" lon="3.64682">
        <ele>244.79</ele>
        <time>2013-06-16T09:10:27Z</time>
      </trkpt>
      <trkpt lat="43.80602" lon="3.64671">
        <ele>245.27</ele>
        <time>2013-06-16T09:10:28Z</time>
      </trkpt>
      <trkpt lat="43.80611" lon="3.64659">
        <ele>245.75</ele>
        <time>2013-06-16T09:10:29Z</time>
      </trkpt>
      <trkpt lat="43.8062" lon="3.64648">
        <ele>246.23</ele>
        <time>2013-06-16T09:10:30Z</time>
      </trkpt>
      <trkpt lat="43.80629" lon="3.64639">
        <ele>246.72</ele>
        <time>2013-06-16T09:10:31Z</time>
      </trkpt>
      <trkpt lat="43.80639" lon="3.64634">
        <ele>246.72</ele>
        <time>2013-06-16T09:10:32Z</time>
      </trkpt>
      <trkpt lat="43.80648" lon="3.6463">
        <ele>247.2</ele>
        <time>2013-06-16T09:10:33Z</time>
      </trkpt>
      <trkpt lat="43.80659" lon="3.64629">
        <ele>247.68</ele>
        <time>2013-06-16T09:10:34Z</time>
      </trkpt>
      <trkpt lat="43.8067" lon="3.64628">
        <ele>248.16</ele>
        <time>2013-06-16T09:10:35Z</time>
      </trkpt>
      <trkpt lat="43.80681" lon="3.64628">
        <ele>248.16</ele>
        <time>2013-06-16T09:10:36Z</time>
      </trkpt>
      <trkpt lat="43.80752" lon="3.64627">
        <ele>250.56</ele>
        <time>2013-06-16T09:10:44Z</time>
      </trkpt>
      <trkpt lat="43.80765" lon="3.64626">
        <ele>251.04</ele>
        <time>2013-06-16T09:10:47Z</time>
      </trkpt>
      <trkpt lat="43.80771" lon="3.64625">
        <ele>251.52</ele>
        <time>2013-06-16T09:10:48Z</time>
      </trkpt>
      <trkpt lat="43.80779" lon="3.64622">
        <ele>252</ele>
        <time>2013-06-16T09:10:49Z</time>
      </trkpt>
      <trkpt lat="43.80848" lon="3.64588">
        <ele>253.93</ele>
        <time>2013-06-16T09:10:54Z</time>
      </trkpt>
      <trkpt lat="43.80932" lon="3.64543">
        <ele>258.73</ele>
        <time>2013-06-16T09:11:01Z</time>
      </trkpt>
      <trkpt lat="43.80954" lon="3.64526">
        <ele>260.17</ele>
        <time>2013-06-16T09:11:03Z</time>
      </trkpt>
      <trkpt lat="43.80966" lon="3.6451">
        <ele>261.62</ele>
        <time>2013-06-16T09:11:04Z</time>
      </trkpt>
      <trkpt lat="43.80978" lon="3.64493">
        <ele>262.58</ele>
        <time>2013-06-16T09:11:05Z</time>
      </trkpt>
      <trkpt lat="43.81038" lon="3.64407">
        <ele>267.38</ele>
        <time>2013-06-16T09:11:11Z</time>
      </trkpt>
      <trkpt lat="43.81049" lon="3.64398">
        <ele>268.35</ele>
        <time>2013-06-16T09:11:12Z</time>
      </trkpt>
      <trkpt lat="43.81062" lon="3.64391">
        <ele>269.31</ele>
        <time>2013-06-16T09:11:13Z</time>
      </trkpt>
      <trkpt lat="43.81084" lon="3.64378">
        <ele>270.75</ele>
        <time>2013-06-16T09:11:15Z</time>
      </trkpt>
      <trkpt lat="43.81093" lon="3.64368">
        <ele>271.23</ele>
        <time>2013-06-16T09:11:16Z</time>
      </trkpt>
      <trkpt lat="43.81101" lon="3.64355">
        <ele>272.19</ele>
        <time>2013-06-16T09:11:17Z</time>
      </trkpt>
      <trkpt lat="43.81109" lon="3.64339">
        <ele>272.67</ele>
        <time>2013-06-16T09:11:18Z</time>
      </trkpt>
      <trkpt lat="43.81116" lon="3.64323">
        <ele>273.63</ele>
        <time>2013-06-16T09:11:19Z</time>
      </trkpt>
      <trkpt lat="43.81125" lon="3.64308">
        <ele>273.15</ele>
        <time>2013-06-16T09:11:20Z</time>
      </trkpt>
      <trkpt lat="43.81135" lon="3.64294">
        <ele>273.15</ele>
        <time>2013-06-16T09:11:21Z</time>
      </trkpt>
      <trkpt lat="43.81147" lon="3.64283">
        <ele>273.15</ele>
        <time>2013-06-16T09:11:22Z</time>
      </trkpt>
      <trkpt lat="43.8116" lon="3.64274">
        <ele>273.63</ele>
        <time>2013-06-16T09:11:23Z</time>
      </trkpt>
      <trkpt lat="43.81172" lon="3.64268">
        <ele>274.11</ele>
        <time>2013-06-16T09:11:24Z</time>
      </trkpt>
      <trkpt lat="43.81184" lon="3.64264">
        <ele>275.07</ele>
        <time>2013-06-16T09:11:25Z</time>
      </trkpt>
      <trkpt lat="43.8128" lon="3.6424">
        <ele>277.48</ele>
        <time>2013-06-16T09:11:31Z</time>
      </trkpt>
      <trkpt lat="43.81314" lon="3.64235">
        <ele>279.4</ele>
        <time>2013-06-16T09:11:33Z</time>
      </trkpt>
      <trkpt lat="43.81331" lon="3.64235">
        <ele>279.4</ele>
        <time>2013-06-16T09:11:34Z</time>
      </trkpt>
      <trkpt lat="43.81348" lon="3.64237">
        <ele>279.88</ele>
        <time>2013-06-16T09:11:35Z</time>
      </trkpt>
      <trkpt lat="43.8142" lon="3.64244">
        <ele>281.8</ele>
        <time>2013-06-16T09:11:39Z</time>
      </trkpt>
      <trkpt lat="43.81438" lon="3.64237">
        <ele>282.28</ele>
        <time>2013-06-16T09:11:40Z</time>
      </trkpt>
      <trkpt lat="43.81455" lon="3.64228">
        <ele>283.25</ele>
        <time>2013-06-16T09:11:41Z</time>
      </trkpt>
      <trkpt lat="43.81472" lon="3.64217">
        <ele>284.21</ele>
        <time>2013-06-16T09:11:42Z</time>
      </trkpt>
      <trkpt lat="43.8149" lon="3.64206">
        <ele>285.17</ele>
        <time>2013-06-16T09:11:43Z</time>
      </trkpt>
      <trkpt lat="43.81628" lon="3.64111">
        <ele>289.97</ele>
        <time>2013-06-16T09:11:51Z</time>
      </trkpt>
      <trkpt lat="43.8164" lon="3.64096">
        <ele>290.46</ele>
        <time>2013-06-16T09:11:52Z</time>
      </trkpt>
      <trkpt lat="43.8165" lon="3.64078">
        <ele>290.46</ele>
        <time>2013-06-16T09:11:53Z</time>
      </trkpt>
      <trkpt lat="43.81658" lon="3.64055">
        <ele>290.46</ele>
        <time>2013-06-16T09:11:54Z</time>
      </trkpt>
      <trkpt lat="43.81665" lon="3.64031">
        <ele>290.46</ele>
        <time>2013-06-16T09:11:55Z</time>
      </trkpt>
      <trkpt lat="43.81672" lon="3.64006">
        <ele>290.46</ele>
        <time>2013-06-16T09:11:56Z</time>
      </trkpt>
      <trkpt lat="43.81738" lon="3.63733">
        <ele>291.9</ele>
        <time>2013-06-16T09:12:06Z</time>
      </trkpt>
      <trkpt lat="43.81764" lon="3.63571">
        <ele>293.82</ele>
        <time>2013-06-16T09:12:12Z</time>
      </trkpt>
      <trkpt lat="43.81763" lon="3.63545">
        <ele>294.3</ele>
        <time>2013-06-16T09:12:13Z</time>
      </trkpt>
      <trkpt lat="43.8176" lon="3.63516">
        <ele>294.3</ele>
        <time>2013-06-16T09:12:14Z</time>
      </trkpt>
      <trkpt lat="43.81718" lon="3.63292">
        <ele>296.22</ele>
        <time>2013-06-16T09:12:21Z</time>
      </trkpt>
      <trkpt lat="43.81645" lon="3.62969">
        <ele>301.99</ele>
        <time>2013-06-16T09:12:30Z</time>
      </trkpt>
      <trkpt lat="43.81569" lon="3.62594">
        <ele>313.05</ele>
        <time>2013-06-16T09:12:40Z</time>
      </trkpt>
      <trkpt lat="43.81544" lon="3.62442">
        <ele>316.89</ele>
        <time>2013-06-16T09:12:45Z</time>
      </trkpt>
      <trkpt lat="43.81546" lon="3.62411">
        <ele>317.85</ele>
        <time>2013-06-16T09:12:46Z</time>
      </trkpt>
      <trkpt lat="43.81562" lon="3.62206">
        <ele>323.62</ele>
        <time>2013-06-16T09:12:53Z</time>
      </trkpt>
      <trkpt lat="43.81566" lon="3.62186">
        <ele>324.58</ele>
        <time>2013-06-16T09:12:54Z</time>
      </trkpt>
      <trkpt lat="43.81571" lon="3.6217">
        <ele>323.62</ele>
        <time>2013-06-16T09:12:55Z</time>
      </trkpt>
      <trkpt lat="43.81578" lon="3.62154">
        <ele>323.62</ele>
        <time>2013-06-16T09:12:56Z</time>
      </trkpt>
      <trkpt lat="43.81585" lon="3.62139">
        <ele>323.62</ele>
        <time>2013-06-16T09:12:57Z</time>
      </trkpt>
      <trkpt lat="43.81594" lon="3.62123">
        <ele>323.62</ele>
        <time>2013-06-16T09:12:58Z</time>
      </trkpt>
      <trkpt lat="43.8161" lon="3.62086">
        <ele>323.14</ele>
        <time>2013-06-16T09:13:00Z</time>
      </trkpt>
      <trkpt lat="43.81616" lon="3.62066">
        <ele>322.66</ele>
        <time>2013-06-16T09:13:01Z</time>
      </trkpt>
      <trkpt lat="43.81645" lon="3.6194">
        <ele>314.97</ele>
        <time>2013-06-16T09:13:09Z</time>
      </trkpt>
      <trkpt lat="43.81645" lon="3.61931">
        <ele>313.53</ele>
        <time>2013-06-16T09:13:15Z</time>
      </trkpt>
      <trkpt lat="43.81642" lon="3.61936">
        <ele>312.57</ele>
        <time>2013-06-16T09:13:35Z</time>
      </trkpt>
      <trkpt lat="43.8164" lon="3.61938">
        <ele>312.57</ele>
        <time>2013-06-16T09:13:47Z</time>
      </trkpt>
      <trkpt lat="43.81642" lon="3.61938">
        <ele>312.09</ele>
        <time>2013-06-16T09:16:24Z</time>
      </trkpt>
      <trkpt lat="43.81641" lon="3.61937">
        <ele>314.01</ele>
        <time>2013-06-16T09:16:32Z</time>
      </trkpt>
      <trkpt lat="43.81619" lon="3.61913">
        <ele>309.68</ele>
        <time>2013-06-16T09:16:41Z</time>
      </trkpt>
      <trkpt lat="43.81615" lon="3.61907">
        <ele>309.2</ele>
        <time>2013-06-16T09:16:42Z</time>
      </trkpt>
      <trkpt lat="43.81613" lon="3.61899">
        <ele>308.72</ele>
        <time>2013-06-16T09:16:43Z</time>
      </trkpt>
      <trkpt lat="43.81611" lon="3.6189">
        <ele>308.24</ele>
        <time>2013-06-16T09:16:44Z</time>
      </trkpt>
      <trkpt lat="43.81611" lon="3.61879">
        <ele>307.28</ele>
        <time>2013-06-16T09:16:45Z</time>
      </trkpt>
      <trkpt lat="43.81612" lon="3.61868">
        <ele>306.8</ele>
        <time>2013-06-16T09:16:46Z</time>
      </trkpt>
      <trkpt lat="43.81615" lon="3.61855">
        <ele>305.84</ele>
        <time>2013-06-16T09:16:47Z</time>
      </trkpt>
      <trkpt lat="43.81618" lon="3.61843">
        <ele>305.36</ele>
        <time>2013-06-16T09:16:48Z</time>
      </trkpt>
      <trkpt lat="43.81625" lon="3.61808">
        <ele>302.95</ele>
        <time>2013-06-16T09:16:51Z</time>
      </trkpt>
      <trkpt lat="43.81626" lon="3.61797">
        <ele>301.99</ele>
        <time>2013-06-16T09:16:52Z</time>
      </trkpt>
      <trkpt lat="43.81627" lon="3.61786">
        <ele>301.03</ele>
        <time>2013-06-16T09:16:53Z</time>
      </trkpt>
      <trkpt lat="43.81625" lon="3.61775">
        <ele>300.55</ele>
        <time>2013-06-16T09:16:54Z</time>
      </trkpt>
      <trkpt lat="43.81624" lon="3.61765">
        <ele>300.07</ele>
        <time>2013-06-16T09:16:55Z</time>
      </trkpt>
      <trkpt lat="43.81622" lon="3.61732">
        <ele>297.18</ele>
        <time>2013-06-16T09:16:58Z</time>
      </trkpt>
      <trkpt lat="43.81624" lon="3.61721">
        <ele>295.74</ele>
        <time>2013-06-16T09:16:59Z</time>
      </trkpt>
      <trkpt lat="43.81628" lon="3.61712">
        <ele>294.78</ele>
        <time>2013-06-16T09:17:00Z</time>
      </trkpt>
      <trkpt lat="43.81639" lon="3.61691">
        <ele>292.38</ele>
        <time>2013-06-16T09:17:02Z</time>
      </trkpt>
      <trkpt lat="43.81642" lon="3.61678">
        <ele>291.9</ele>
        <time>2013-06-16T09:17:03Z</time>
      </trkpt>
      <trkpt lat="43.81644" lon="3.61664">
        <ele>290.46</ele>
        <time>2013-06-16T09:17:04Z</time>
      </trkpt>
      <trkpt lat="43.81644" lon="3.6165">
        <ele>289.01</ele>
        <time>2013-06-16T09:17:05Z</time>
      </trkpt>
      <trkpt lat="43.81642" lon="3.61637">
        <ele>287.57</ele>
        <time>2013-06-16T09:17:06Z</time>
      </trkpt>
      <trkpt lat="43.81635" lon="3.61625">
        <ele>285.65</ele>
        <time>2013-06-16T09:17:07Z</time>
      </trkpt>
      <trkpt lat="43.81624" lon="3.61616">
        <ele>285.17</ele>
        <time>2013-06-16T09:17:08Z</time>
      </trkpt>
      <trkpt lat="43.81616" lon="3.61606">
        <ele>284.21</ele>
        <time>2013-06-16T09:17:09Z</time>
      </trkpt>
      <trkpt lat="43.81608" lon="3.61595">
        <ele>283.25</ele>
        <time>2013-06-16T09:17:10Z</time>
      </trkpt>
      <trkpt lat="43.81602" lon="3.61582">
        <ele>282.77</ele>
        <time>2013-06-16T09:17:11Z</time>
      </trkpt>
      <trkpt lat="43.81601" lon="3.61567">
        <ele>282.28</ele>
        <time>2013-06-16T09:17:12Z</time>
      </trkpt>
      <trkpt lat="43.816" lon="3.61551">
        <ele>281.32</ele>
        <time>2013-06-16T09:17:13Z</time>
      </trkpt>
      <trkpt lat="43.816" lon="3.61536">
        <ele>280.84</ele>
        <time>2013-06-16T09:17:14Z</time>
      </trkpt>
      <trkpt lat="43.81599" lon="3.61522">
        <ele>279.4</ele>
        <time>2013-06-16T09:17:15Z</time>
      </trkpt>
      <trkpt lat="43.81594" lon="3.6151">
        <ele>277.96</ele>
        <time>2013-06-16T09:17:16Z</time>
      </trkpt>
      <trkpt lat="43.81587" lon="3.615">
        <ele>277.48</ele>
        <time>2013-06-16T09:17:17Z</time>
      </trkpt>
      <trkpt lat="43.81572" lon="3.61482">
        <ele>276.04</ele>
        <time>2013-06-16T09:17:19Z</time>
      </trkpt>
      <trkpt lat="43.81568" lon="3.61471">
        <ele>275.07</ele>
        <time>2013-06-16T09:17:20Z</time>
      </trkpt>
      <trkpt lat="43.81564" lon="3.61457">
        <ele>274.59</ele>
        <time>2013-06-16T09:17:21Z</time>
      </trkpt>
      <trkpt lat="43.81563" lon="3.61444">
        <ele>273.15</ele>
        <time>2013-06-16T09:17:22Z</time>
      </trkpt>
      <trkpt lat="43.81564" lon="3.61429">
        <ele>271.71</ele>
        <time>2013-06-16T09:17:23Z</time>
      </trkpt>
      <trkpt lat="43.81565" lon="3.61415">
        <ele>270.75</ele>
        <time>2013-06-16T09:17:24Z</time>
      </trkpt>
      <trkpt lat="43.81565" lon="3.61401">
        <ele>270.27</ele>
        <time>2013-06-16T09:17:25Z</time>
      </trkpt>
      <trkpt lat="43.81564" lon="3.61388">
        <ele>269.31</ele>
        <time>2013-06-16T09:17:26Z</time>
      </trkpt>
      <trkpt lat="43.81562" lon="3.61377">
        <ele>268.35</ele>
        <time>2013-06-16T09:17:27Z</time>
      </trkpt>
      <trkpt lat="43.81557" lon="3.61371">
        <ele>267.38</ele>
        <time>2013-06-16T09:17:28Z</time>
      </trkpt>
      <trkpt lat="43.81553" lon="3.61366">
        <ele>266.9</ele>
        <time>2013-06-16T09:17:29Z</time>
      </trkpt>
      <trkpt lat="43.81551" lon="3.61361">
        <ele>266.42</ele>
        <time>2013-06-16T09:17:30Z</time>
      </trkpt>
      <trkpt lat="43.81552" lon="3.61358">
        <ele>265.94</ele>
        <time>2013-06-16T09:17:31Z</time>
      </trkpt>
      <trkpt lat="43.81555" lon="3.61363">
        <ele>265.94</ele>
        <time>2013-06-16T09:17:32Z</time>
      </trkpt>
      <trkpt lat="43.81559" lon="3.61367">
        <ele>264.98</ele>
        <time>2013-06-16T09:17:33Z</time>
      </trkpt>
      <trkpt lat="43.81566" lon="3.61373">
        <ele>263.54</ele>
        <time>2013-06-16T09:17:34Z</time>
      </trkpt>
      <trkpt lat="43.81572" lon="3.61382">
        <ele>262.1</ele>
        <time>2013-06-16T09:17:35Z</time>
      </trkpt>
      <trkpt lat="43.81578" lon="3.61391">
        <ele>261.62</ele>
        <time>2013-06-16T09:17:36Z</time>
      </trkpt>
      <trkpt lat="43.8158" lon="3.61403">
        <ele>261.14</ele>
        <time>2013-06-16T09:17:37Z</time>
      </trkpt>
      <trkpt lat="43.81581" lon="3.61417">
        <ele>259.69</ele>
        <time>2013-06-16T09:17:38Z</time>
      </trkpt>
      <trkpt lat="43.81585" lon="3.61431">
        <ele>259.21</ele>
        <time>2013-06-16T09:17:39Z</time>
      </trkpt>
      <trkpt lat="43.81586" lon="3.61445">
        <ele>258.73</ele>
        <time>2013-06-16T09:17:40Z</time>
      </trkpt>
      <trkpt lat="43.81588" lon="3.61458">
        <ele>258.25</ele>
        <time>2013-06-16T09:17:41Z</time>
      </trkpt>
      <trkpt lat="43.81593" lon="3.6147">
        <ele>257.29</ele>
        <time>2013-06-16T09:17:42Z</time>
      </trkpt>
      <trkpt lat="43.81599" lon="3.61479">
        <ele>256.33</ele>
        <time>2013-06-16T09:17:43Z</time>
      </trkpt>
      <trkpt lat="43.81608" lon="3.61487">
        <ele>255.85</ele>
        <time>2013-06-16T09:17:44Z</time>
      </trkpt>
      <trkpt lat="43.81617" lon="3.61496">
        <ele>254.89</ele>
        <time>2013-06-16T09:17:45Z</time>
      </trkpt>
      <trkpt lat="43.81625" lon="3.61505">
        <ele>254.41</ele>
        <time>2013-06-16T09:17:46Z</time>
      </trkpt>
      <trkpt lat="43.81632" lon="3.61515">
        <ele>253.44</ele>
        <time>2013-06-16T09:17:47Z</time>
      </trkpt>
      <trkpt lat="43.81639" lon="3.61527">
        <ele>252.48</ele>
        <time>2013-06-16T09:17:48Z</time>
      </trkpt>
      <trkpt lat="43.8165" lon="3.61553">
        <ele>251.04</ele>
        <time>2013-06-16T09:17:50Z</time>
      </trkpt>
      <trkpt lat="43.81658" lon="3.61562">
        <ele>250.08</ele>
        <time>2013-06-16T09:17:51Z</time>
      </trkpt>
      <trkpt lat="43.81667" lon="3.61569">
        <ele>249.6</ele>
        <time>2013-06-16T09:17:52Z</time>
      </trkpt>
      <trkpt lat="43.81677" lon="3.61575">
        <ele>249.12</ele>
        <time>2013-06-16T09:17:53Z</time>
      </trkpt>
      <trkpt lat="43.81687" lon="3.61582">
        <ele>248.16</ele>
        <time>2013-06-16T09:17:54Z</time>
      </trkpt>
      <trkpt lat="43.81697" lon="3.6159">
        <ele>247.2</ele>
        <time>2013-06-16T09:17:55Z</time>
      </trkpt>
      <trkpt lat="43.81706" lon="3.61601">
        <ele>246.23</ele>
        <time>2013-06-16T09:17:56Z</time>
      </trkpt>
      <trkpt lat="43.81713" lon="3.61613">
        <ele>245.27</ele>
        <time>2013-06-16T09:17:57Z</time>
      </trkpt>
      <trkpt lat="43.81719" lon="3.61627">
        <ele>243.83</ele>
        <time>2013-06-16T09:17:58Z</time>
      </trkpt>
      <trkpt lat="43.81723" lon="3.61642">
        <ele>242.87</ele>
        <time>2013-06-16T09:17:59Z</time>
      </trkpt>
      <trkpt lat="43.81725" lon="3.61657">
        <ele>241.91</ele>
        <time>2013-06-16T09:18:00Z</time>
      </trkpt>
      <trkpt lat="43.81725" lon="3.61671">
        <ele>241.43</ele>
        <time>2013-06-16T09:18:01Z</time>
      </trkpt>
      <trkpt lat="43.81722" lon="3.61685">
        <ele>240.47</ele>
        <time>2013-06-16T09:18:02Z</time>
      </trkpt>
      <trkpt lat="43.81719" lon="3.61698">
        <ele>239.99</ele>
        <time>2013-06-16T09:18:03Z</time>
      </trkpt>
      <trkpt lat="43.81715" lon="3.61711">
        <ele>238.54</ele>
        <time>2013-06-16T09:18:04Z</time>
      </trkpt>
      <trkpt lat="43.81712" lon="3.61723">
        <ele>237.1</ele>
        <time>2013-06-16T09:18:05Z</time>
      </trkpt>
      <trkpt lat="43.81712" lon="3.61736">
        <ele>235.66</ele>
        <time>2013-06-16T09:18:06Z</time>
      </trkpt>
      <trkpt lat="43.81714" lon="3.61746">
        <ele>234.7</ele>
        <time>2013-06-16T09:18:07Z</time>
      </trkpt>
      <trkpt lat="43.8172" lon="3.61755">
        <ele>234.22</ele>
        <time>2013-06-16T09:18:08Z</time>
      </trkpt>
      <trkpt lat="43.81728" lon="3.61762">
        <ele>233.26</ele>
        <time>2013-06-16T09:18:09Z</time>
      </trkpt>
      <trkpt lat="43.81739" lon="3.61768">
        <ele>232.3</ele>
        <time>2013-06-16T09:18:10Z</time>
      </trkpt>
      <trkpt lat="43.81751" lon="3.61773">
        <ele>231.81</ele>
        <time>2013-06-16T09:18:11Z</time>
      </trkpt>
      <trkpt lat="43.81762" lon="3.61777">
        <ele>230.85</ele>
        <time>2013-06-16T09:18:12Z</time>
      </trkpt>
      <trkpt lat="43.81772" lon="3.61782">
        <ele>229.89</ele>
        <time>2013-06-16T09:18:13Z</time>
      </trkpt>
      <trkpt lat="43.81781" lon="3.61788">
        <ele>228.93</ele>
        <time>2013-06-16T09:18:14Z</time>
      </trkpt>
      <trkpt lat="43.81788" lon="3.61797">
        <ele>228.45</ele>
        <time>2013-06-16T09:18:15Z</time>
      </trkpt>
      <trkpt lat="43.81792" lon="3.61809">
        <ele>227.49</ele>
        <time>2013-06-16T09:18:16Z</time>
      </trkpt>
      <trkpt lat="43.81794" lon="3.61822">
        <ele>226.53</ele>
        <time>2013-06-16T09:18:17Z</time>
      </trkpt>
      <trkpt lat="43.81796" lon="3.61835">
        <ele>225.57</ele>
        <time>2013-06-16T09:18:18Z</time>
      </trkpt>
      <trkpt lat="43.81799" lon="3.61848">
        <ele>224.61</ele>
        <time>2013-06-16T09:18:19Z</time>
      </trkpt>
      <trkpt lat="43.81804" lon="3.61858">
        <ele>224.12</ele>
        <time>2013-06-16T09:18:20Z</time>
      </trkpt>
      <trkpt lat="43.81812" lon="3.61863">
        <ele>223.16</ele>
        <time>2013-06-16T09:18:21Z</time>
      </trkpt>
      <trkpt lat="43.81823" lon="3.61865">
        <ele>222.68</ele>
        <time>2013-06-16T09:18:22Z</time>
      </trkpt>
      <trkpt lat="43.81834" lon="3.61864">
        <ele>222.2</ele>
        <time>2013-06-16T09:18:23Z</time>
      </trkpt>
      <trkpt lat="43.81843" lon="3.61862">
        <ele>221.72</ele>
        <time>2013-06-16T09:18:24Z</time>
      </trkpt>
      <trkpt lat="43.81851" lon="3.61862">
        <ele>221.24</ele>
        <time>2013-06-16T09:18:25Z</time>
      </trkpt>
      <trkpt lat="43.81859" lon="3.61864">
        <ele>220.28</ele>
        <time>2013-06-16T09:18:26Z</time>
      </trkpt>
      <trkpt lat="43.81865" lon="3.61869">
        <ele>219.8</ele>
        <time>2013-06-16T09:18:27Z</time>
      </trkpt>
      <trkpt lat="43.81868" lon="3.61878">
        <ele>218.84</ele>
        <time>2013-06-16T09:18:28Z</time>
      </trkpt>
      <trkpt lat="43.81868" lon="3.61889">
        <ele>217.88</ele>
        <time>2013-06-16T09:18:29Z</time>
      </trkpt>
      <trkpt lat="43.81865" lon="3.619">
        <ele>217.88</ele>
        <time>2013-06-16T09:18:30Z</time>
      </trkpt>
      <trkpt lat="43.81859" lon="3.61913">
        <ele>217.4</ele>
        <time>2013-06-16T09:18:31Z</time>
      </trkpt>
      <trkpt lat="43.81853" lon="3.61924">
        <ele>216.91</ele>
        <time>2013-06-16T09:18:32Z</time>
      </trkpt>
      <trkpt lat="43.81847" lon="3.61935">
        <ele>217.88</ele>
        <time>2013-06-16T09:18:33Z</time>
      </trkpt>
      <trkpt lat="43.81844" lon="3.61946">
        <ele>218.36</ele>
        <time>2013-06-16T09:18:34Z</time>
      </trkpt>
      <trkpt lat="43.8184" lon="3.6196">
        <ele>219.8</ele>
        <time>2013-06-16T09:18:35Z</time>
      </trkpt>
      <trkpt lat="43.81838" lon="3.6197">
        <ele>220.28</ele>
        <time>2013-06-16T09:18:36Z</time>
      </trkpt>
      <trkpt lat="43.81837" lon="3.61977">
        <ele>219.32</ele>
        <time>2013-06-16T09:18:37Z</time>
      </trkpt>
      <trkpt lat="43.8184" lon="3.61984">
        <ele>218.36</ele>
        <time>2013-06-16T09:18:38Z</time>
      </trkpt>
      <trkpt lat="43.81853" lon="3.61988">
        <ele>217.88</ele>
        <time>2013-06-16T09:18:39Z</time>
      </trkpt>
      <trkpt lat="43.81865" lon="3.61991">
        <ele>216.91</ele>
        <time>2013-06-16T09:18:40Z</time>
      </trkpt>
      <trkpt lat="43.81878" lon="3.61988">
        <ele>216.43</ele>
        <time>2013-06-16T09:18:41Z</time>
      </trkpt>
      <trkpt lat="43.8189" lon="3.61983">
        <ele>215.47</ele>
        <time>2013-06-16T09:18:42Z</time>
      </trkpt>
      <trkpt lat="43.81901" lon="3.61977">
        <ele>214.03</ele>
        <time>2013-06-16T09:18:43Z</time>
      </trkpt>
      <trkpt lat="43.81913" lon="3.61973">
        <ele>213.07</ele>
        <time>2013-06-16T09:18:44Z</time>
      </trkpt>
      <trkpt lat="43.81935" lon="3.61965">
        <ele>210.67</ele>
        <time>2013-06-16T09:18:46Z</time>
      </trkpt>
      <trkpt lat="43.81945" lon="3.61957">
        <ele>209.7</ele>
        <time>2013-06-16T09:18:47Z</time>
      </trkpt>
      <trkpt lat="43.81963" lon="3.61941">
        <ele>208.26</ele>
        <time>2013-06-16T09:18:49Z</time>
      </trkpt>
      <trkpt lat="43.81972" lon="3.61936">
        <ele>207.3</ele>
        <time>2013-06-16T09:18:50Z</time>
      </trkpt>
      <trkpt lat="43.81982" lon="3.61933">
        <ele>206.34</ele>
        <time>2013-06-16T09:18:51Z</time>
      </trkpt>
      <trkpt lat="43.81993" lon="3.61933">
        <ele>204.9</ele>
        <time>2013-06-16T09:18:52Z</time>
      </trkpt>
      <trkpt lat="43.82005" lon="3.61934">
        <ele>203.46</ele>
        <time>2013-06-16T09:18:53Z</time>
      </trkpt>
      <trkpt lat="43.8203" lon="3.61935">
        <ele>201.05</ele>
        <time>2013-06-16T09:18:55Z</time>
      </trkpt>
      <trkpt lat="43.82042" lon="3.61933">
        <ele>200.09</ele>
        <time>2013-06-16T09:18:56Z</time>
      </trkpt>
      <trkpt lat="43.82053" lon="3.61929">
        <ele>199.61</ele>
        <time>2013-06-16T09:18:57Z</time>
      </trkpt>
      <trkpt lat="43.82116" lon="3.61898">
        <ele>194.8</ele>
        <time>2013-06-16T09:19:03Z</time>
      </trkpt>
      <trkpt lat="43.82128" lon="3.61899">
        <ele>193.84</ele>
        <time>2013-06-16T09:19:04Z</time>
      </trkpt>
      <trkpt lat="43.82139" lon="3.61902">
        <ele>193.36</ele>
        <time>2013-06-16T09:19:05Z</time>
      </trkpt>
      <trkpt lat="43.82151" lon="3.61908">
        <ele>192.4</ele>
        <time>2013-06-16T09:19:06Z</time>
      </trkpt>
      <trkpt lat="43.82159" lon="3.61916">
        <ele>190.96</ele>
        <time>2013-06-16T09:19:07Z</time>
      </trkpt>
      <trkpt lat="43.82166" lon="3.61928">
        <ele>190.48</ele>
        <time>2013-06-16T09:19:08Z</time>
      </trkpt>
      <trkpt lat="43.82172" lon="3.61942">
        <ele>189.04</ele>
        <time>2013-06-16T09:19:09Z</time>
      </trkpt>
      <trkpt lat="43.82178" lon="3.61954">
        <ele>188.56</ele>
        <time>2013-06-16T09:19:10Z</time>
      </trkpt>
      <trkpt lat="43.82186" lon="3.61965">
        <ele>187.59</ele>
        <time>2013-06-16T09:19:11Z</time>
      </trkpt>
      <trkpt lat="43.82194" lon="3.61973">
        <ele>187.11</ele>
        <time>2013-06-16T09:19:12Z</time>
      </trkpt>
      <trkpt lat="43.82205" lon="3.61975">
        <ele>186.63</ele>
        <time>2013-06-16T09:19:13Z</time>
      </trkpt>
      <trkpt lat="43.82214" lon="3.61969">
        <ele>186.15</ele>
        <time>2013-06-16T09:19:14Z</time>
      </trkpt>
      <trkpt lat="43.82225" lon="3.61962">
        <ele>186.63</ele>
        <time>2013-06-16T09:19:15Z</time>
      </trkpt>
      <trkpt lat="43.82237" lon="3.61955">
        <ele>187.11</ele>
        <time>2013-06-16T09:19:16Z</time>
      </trkpt>
      <trkpt lat="43.8225" lon="3.61948">
        <ele>186.63</ele>
        <time>2013-06-16T09:19:17Z</time>
      </trkpt>
      <trkpt lat="43.82374" lon="3.61909">
        <ele>176.06</ele>
        <time>2013-06-16T09:19:26Z</time>
      </trkpt>
      <trkpt lat="43.82454" lon="3.61871">
        <ele>171.73</ele>
        <time>2013-06-16T09:19:32Z</time>
      </trkpt>
      <trkpt lat="43.82464" lon="3.61862">
        <ele>171.25</ele>
        <time>2013-06-16T09:19:33Z</time>
      </trkpt>
      <trkpt lat="43.82484" lon="3.61839">
        <ele>168.85</ele>
        <time>2013-06-16T09:19:38Z</time>
      </trkpt>
      <trkpt lat="43.8249" lon="3.61834">
        <ele>168.85</ele>
        <time>2013-06-16T09:19:40Z</time>
      </trkpt>
      <trkpt lat="43.82495" lon="3.61832">
        <ele>168.37</ele>
        <time>2013-06-16T09:19:41Z</time>
      </trkpt>
      <trkpt lat="43.82501" lon="3.6183">
        <ele>168.37</ele>
        <time>2013-06-16T09:19:42Z</time>
      </trkpt>
      <trkpt lat="43.8257" lon="3.61813">
        <ele>166.93</ele>
        <time>2013-06-16T09:19:53Z</time>
      </trkpt>
      <trkpt lat="43.82574" lon="3.61809">
        <ele>166.93</ele>
        <time>2013-06-16T09:19:54Z</time>
      </trkpt>
      <trkpt lat="43.82577" lon="3.61802">
        <ele>166.93</ele>
        <time>2013-06-16T09:19:55Z</time>
      </trkpt>
      <trkpt lat="43.82579" lon="3.61795">
        <ele>166.45</ele>
        <time>2013-06-16T09:19:56Z</time>
      </trkpt>
      <trkpt lat="43.82581" lon="3.61786">
        <ele>165.96</ele>
        <time>2013-06-16T09:19:57Z</time>
      </trkpt>
      <trkpt lat="43.82587" lon="3.61763">
        <ele>164.52</ele>
        <time>2013-06-16T09:20:00Z</time>
      </trkpt>
      <trkpt lat="43.82591" lon="3.61759">
        <ele>163.56</ele>
        <time>2013-06-16T09:20:01Z</time>
      </trkpt>
      <trkpt lat="43.82596" lon="3.61757">
        <ele>163.56</ele>
        <time>2013-06-16T09:20:02Z</time>
      </trkpt>
      <trkpt lat="43.82602" lon="3.61757">
        <ele>163.56</ele>
        <time>2013-06-16T09:20:03Z</time>
      </trkpt>
      <trkpt lat="43.82608" lon="3.61759">
        <ele>163.56</ele>
        <time>2013-06-16T09:20:04Z</time>
      </trkpt>
      <trkpt lat="43.82614" lon="3.61763">
        <ele>162.6</ele>
        <time>2013-06-16T09:20:05Z</time>
      </trkpt>
      <trkpt lat="43.8262" lon="3.61767">
        <ele>162.12</ele>
        <time>2013-06-16T09:20:06Z</time>
      </trkpt>
      <trkpt lat="43.82626" lon="3.61772">
        <ele>161.64</ele>
        <time>2013-06-16T09:20:07Z</time>
      </trkpt>
      <trkpt lat="43.82655" lon="3.61795">
        <ele>161.16</ele>
        <time>2013-06-16T09:20:12Z</time>
      </trkpt>
      <trkpt lat="43.82662" lon="3.61798">
        <ele>160.68</ele>
        <time>2013-06-16T09:20:13Z</time>
      </trkpt>
      <trkpt lat="43.82669" lon="3.61801">
        <ele>160.68</ele>
        <time>2013-06-16T09:20:14Z</time>
      </trkpt>
      <trkpt lat="43.82677" lon="3.61802">
        <ele>160.68</ele>
        <time>2013-06-16T09:20:15Z</time>
      </trkpt>
      <trkpt lat="43.82684" lon="3.61801">
        <ele>160.68</ele>
        <time>2013-06-16T09:20:16Z</time>
      </trkpt>
      <trkpt lat="43.82692" lon="3.61801">
        <ele>160.68</ele>
        <time>2013-06-16T09:20:17Z</time>
      </trkpt>
      <trkpt lat="43.82699" lon="3.61799">
        <ele>160.68</ele>
        <time>2013-06-16T09:20:18Z</time>
      </trkpt>
      <trkpt lat="43.82706" lon="3.61796">
        <ele>160.68</ele>
        <time>2013-06-16T09:20:19Z</time>
      </trkpt>
      <trkpt lat="43.82712" lon="3.61793">
        <ele>160.68</ele>
        <time>2013-06-16T09:20:20Z</time>
      </trkpt>
      <trkpt lat="43.82718" lon="3.61789">
        <ele>160.68</ele>
        <time>2013-06-16T09:20:21Z</time>
      </trkpt>
      <trkpt lat="43.82724" lon="3.61785">
        <ele>161.16</ele>
        <time>2013-06-16T09:20:22Z</time>
      </trkpt>
      <trkpt lat="43.8273" lon="3.6178">
        <ele>161.16</ele>
        <time>2013-06-16T09:20:23Z</time>
      </trkpt>
      <trkpt lat="43.82735" lon="3.61775">
        <ele>161.16</ele>
        <time>2013-06-16T09:20:24Z</time>
      </trkpt>
      <trkpt lat="43.82753" lon="3.61759">
        <ele>162.12</ele>
        <time>2013-06-16T09:20:28Z</time>
      </trkpt>
      <trkpt lat="43.82758" lon="3.61757">
        <ele>162.6</ele>
        <time>2013-06-16T09:20:29Z</time>
      </trkpt>
      <trkpt lat="43.82764" lon="3.61754">
        <ele>163.08</ele>
        <time>2013-06-16T09:20:30Z</time>
      </trkpt>
      <trkpt lat="43.82775" lon="3.61747">
        <ele>164.52</ele>
        <time>2013-06-16T09:20:32Z</time>
      </trkpt>
      <trkpt lat="43.82785" lon="3.6174">
        <ele>164.52</ele>
        <time>2013-06-16T09:20:37Z</time>
      </trkpt>
      <trkpt lat="43.82786" lon="3.6174">
        <ele>165.48</ele>
        <time>2013-06-16T09:20:38Z</time>
      </trkpt>
      <trkpt lat="43.82794" lon="3.61741">
        <ele>165.48</ele>
        <time>2013-06-16T09:20:40Z</time>
      </trkpt>
      <trkpt lat="43.82813" lon="3.6174">
        <ele>168.37</ele>
        <time>2013-06-16T09:20:44Z</time>
      </trkpt>
      <trkpt lat="43.82819" lon="3.6174">
        <ele>168.37</ele>
        <time>2013-06-16T09:20:45Z</time>
      </trkpt>
      <trkpt lat="43.82835" lon="3.61741">
        <ele>168.37</ele>
        <time>2013-06-16T09:20:49Z</time>
      </trkpt>
      <trkpt lat="43.8284" lon="3.61743">
        <ele>167.89</ele>
        <time>2013-06-16T09:20:50Z</time>
      </trkpt>
      <trkpt lat="43.82842" lon="3.61747">
        <ele>167.41</ele>
        <time>2013-06-16T09:20:51Z</time>
      </trkpt>
      <trkpt lat="43.82842" lon="3.61752">
        <ele>167.41</ele>
        <time>2013-06-16T09:20:52Z</time>
      </trkpt>
      <trkpt lat="43.82842" lon="3.61757">
        <ele>167.89</ele>
        <time>2013-06-16T09:20:53Z</time>
      </trkpt>
      <trkpt lat="43.82842" lon="3.61762">
        <ele>167.41</ele>
        <time>2013-06-16T09:20:54Z</time>
      </trkpt>
      <trkpt lat="43.82843" lon="3.61766">
        <ele>167.41</ele>
        <time>2013-06-16T09:20:55Z</time>
      </trkpt>
      <trkpt lat="43.82845" lon="3.61769">
        <ele>167.41</ele>
        <time>2013-06-16T09:20:56Z</time>
      </trkpt>
      <trkpt lat="43.82848" lon="3.61771">
        <ele>167.89</ele>
        <time>2013-06-16T09:20:57Z</time>
      </trkpt>
      <trkpt lat="43.8285" lon="3.61772">
        <ele>168.37</ele>
        <time>2013-06-16T09:20:58Z</time>
      </trkpt>
      <trkpt lat="43.82853" lon="3.61773">
        <ele>168.85</ele>
        <time>2013-06-16T09:20:59Z</time>
      </trkpt>
      <trkpt lat="43.82856" lon="3.61773">
        <ele>169.81</ele>
        <time>2013-06-16T09:21:00Z</time>
      </trkpt>
      <trkpt lat="43.82873" lon="3.61773">
        <ele>172.69</ele>
        <time>2013-06-16T09:21:08Z</time>
      </trkpt>
      <trkpt lat="43.82876" lon="3.61772">
        <ele>173.17</ele>
        <time>2013-06-16T09:21:09Z</time>
      </trkpt>
      <trkpt lat="43.82879" lon="3.6177">
        <ele>172.69</ele>
        <time>2013-06-16T09:21:10Z</time>
      </trkpt>
      <trkpt lat="43.82889" lon="3.61766">
        <ele>174.62</ele>
        <time>2013-06-16T09:21:14Z</time>
      </trkpt>
      <trkpt lat="43.82891" lon="3.61768">
        <ele>174.62</ele>
        <time>2013-06-16T09:21:15Z</time>
      </trkpt>
      <trkpt lat="43.82892" lon="3.6177">
        <ele>174.14</ele>
        <time>2013-06-16T09:21:16Z</time>
      </trkpt>
      <trkpt lat="43.82892" lon="3.61772">
        <ele>175.1</ele>
        <time>2013-06-16T09:21:17Z</time>
      </trkpt>
      <trkpt lat="43.82892" lon="3.61775">
        <ele>175.1</ele>
        <time>2013-06-16T09:21:18Z</time>
      </trkpt>
      <trkpt lat="43.82894" lon="3.6179">
        <ele>174.62</ele>
        <time>2013-06-16T09:21:23Z</time>
      </trkpt>
      <trkpt lat="43.82893" lon="3.61793">
        <ele>173.66</ele>
        <time>2013-06-16T09:21:24Z</time>
      </trkpt>
      <trkpt lat="43.82891" lon="3.61795">
        <ele>173.17</ele>
        <time>2013-06-16T09:21:25Z</time>
      </trkpt>
      <trkpt lat="43.8289" lon="3.61796">
        <ele>172.21</ele>
        <time>2013-06-16T09:21:26Z</time>
      </trkpt>
      <trkpt lat="43.82889" lon="3.61796">
        <ele>171.73</ele>
        <time>2013-06-16T09:21:27Z</time>
      </trkpt>
      <trkpt lat="43.8287" lon="3.61789">
        <ele>167.89</ele>
        <time>2013-06-16T09:21:38Z</time>
      </trkpt>
      <trkpt lat="43.82872" lon="3.61789">
        <ele>154.91</ele>
        <time>2013-06-16T09:21:51Z</time>
      </trkpt>
      <trkpt lat="43.82877" lon="3.61792">
        <ele>140.01</ele>
        <time>2013-06-16T09:22:12Z</time>
      </trkpt>
      <trkpt lat="43.82875" lon="3.61792">
        <ele>141.93</ele>
        <time>2013-06-16T09:22:21Z</time>
      </trkpt>
      <trkpt lat="43.82869" lon="3.61782">
        <ele>163.56</ele>
        <time>2013-06-16T10:05:35Z</time>
      </trkpt>
      <trkpt lat="43.82869" lon="3.61781">
        <ele>164.04</ele>
        <time>2013-06-16T10:05:42Z</time>
      </trkpt>
      <trkpt lat="43.82888" lon="3.61767">
        <ele>163.56</ele>
        <time>2013-06-16T10:05:51Z</time>
      </trkpt>
      <trkpt lat="43.82891" lon="3.61764">
        <ele>164.04</ele>
        <time>2013-06-16T10:05:52Z</time>
      </trkpt>
      <trkpt lat="43.82912" lon="3.61742">
        <ele>162.6</ele>
        <time>2013-06-16T10:05:58Z</time>
      </trkpt>
      <trkpt lat="43.82929" lon="3.61726">
        <ele>163.08</ele>
        <time>2013-06-16T10:06:02Z</time>
      </trkpt>
      <trkpt lat="43.82933" lon="3.61723">
        <ele>163.08</ele>
        <time>2013-06-16T10:06:03Z</time>
      </trkpt>
      <trkpt lat="43.82991" lon="3.61676">
        <ele>169.33</ele>
        <time>2013-06-16T10:06:13Z</time>
      </trkpt>
      <trkpt lat="43.83044" lon="3.61633">
        <ele>171.73</ele>
        <time>2013-06-16T10:06:20Z</time>
      </trkpt>
      <trkpt lat="43.83053" lon="3.61631">
        <ele>171.73</ele>
        <time>2013-06-16T10:06:21Z</time>
      </trkpt>
      <trkpt lat="43.83062" lon="3.61632">
        <ele>172.69</ele>
        <time>2013-06-16T10:06:22Z</time>
      </trkpt>
      <trkpt lat="43.83071" lon="3.61635">
        <ele>172.69</ele>
        <time>2013-06-16T10:06:23Z</time>
      </trkpt>
      <trkpt lat="43.83081" lon="3.61639">
        <ele>173.17</ele>
        <time>2013-06-16T10:06:24Z</time>
      </trkpt>
      <trkpt lat="43.83092" lon="3.61644">
        <ele>173.17</ele>
        <time>2013-06-16T10:06:25Z</time>
      </trkpt>
      <trkpt lat="43.83141" lon="3.6166">
        <ele>174.62</ele>
        <time>2013-06-16T10:06:29Z</time>
      </trkpt>
      <trkpt lat="43.83153" lon="3.61662">
        <ele>175.58</ele>
        <time>2013-06-16T10:06:30Z</time>
      </trkpt>
      <trkpt lat="43.83166" lon="3.61661">
        <ele>176.54</ele>
        <time>2013-06-16T10:06:31Z</time>
      </trkpt>
      <trkpt lat="43.83197" lon="3.61659">
        <ele>178.46</ele>
        <time>2013-06-16T10:06:34Z</time>
      </trkpt>
      <trkpt lat="43.83201" lon="3.61661">
        <ele>179.42</ele>
        <time>2013-06-16T10:06:35Z</time>
      </trkpt>
      <trkpt lat="43.83203" lon="3.61662">
        <ele>179.9</ele>
        <time>2013-06-16T10:06:36Z</time>
      </trkpt>
      <trkpt lat="43.83201" lon="3.61663">
        <ele>179.9</ele>
        <time>2013-06-16T10:06:48Z</time>
      </trkpt>
      <trkpt lat="43.83202" lon="3.61664">
        <ele>181.35</ele>
        <time>2013-06-16T10:07:08Z</time>
      </trkpt>
      <trkpt lat="43.83203" lon="3.61664">
        <ele>181.35</ele>
        <time>2013-06-16T10:07:13Z</time>
      </trkpt>
      <trkpt lat="43.83204" lon="3.61662">
        <ele>181.83</ele>
        <time>2013-06-16T10:07:14Z</time>
      </trkpt>
      <trkpt lat="43.83202" lon="3.61662">
        <ele>181.35</ele>
        <time>2013-06-16T10:07:23Z</time>
      </trkpt>
      <trkpt lat="43.832" lon="3.6166">
        <ele>181.35</ele>
        <time>2013-06-16T10:07:24Z</time>
      </trkpt>
      <trkpt lat="43.83195" lon="3.61659">
        <ele>181.35</ele>
        <time>2013-06-16T10:07:25Z</time>
      </trkpt>
      <trkpt lat="43.8318" lon="3.61659">
        <ele>180.38</ele>
        <time>2013-06-16T10:07:28Z</time>
      </trkpt>
      <trkpt lat="43.83176" lon="3.61659">
        <ele>180.38</ele>
        <time>2013-06-16T10:07:29Z</time>
      </trkpt>
      <trkpt lat="43.83148" lon="3.61664">
        <ele>178.94</ele>
        <time>2013-06-16T10:07:37Z</time>
      </trkpt>
      <trkpt lat="43.83096" lon="3.61647">
        <ele>177.02</ele>
        <time>2013-06-16T10:07:48Z</time>
      </trkpt>
      <trkpt lat="43.83061" lon="3.61632">
        <ele>176.06</ele>
        <time>2013-06-16T10:07:57Z</time>
      </trkpt>
      <trkpt lat="43.83054" lon="3.61632">
        <ele>175.58</ele>
        <time>2013-06-16T10:08:06Z</time>
      </trkpt>
      <trkpt lat="43.83048" lon="3.61633">
        <ele>175.58</ele>
        <time>2013-06-16T10:08:07Z</time>
      </trkpt>
      <trkpt lat="43.83042" lon="3.61635">
        <ele>175.1</ele>
        <time>2013-06-16T10:08:08Z</time>
      </trkpt>
      <trkpt lat="43.83036" lon="3.61639">
        <ele>174.62</ele>
        <time>2013-06-16T10:08:09Z</time>
      </trkpt>
      <trkpt lat="43.83031" lon="3.61644">
        <ele>174.14</ele>
        <time>2013-06-16T10:08:10Z</time>
      </trkpt>
      <trkpt lat="43.82988" lon="3.61674">
        <ele>171.73</ele>
        <time>2013-06-16T10:08:20Z</time>
      </trkpt>
      <trkpt lat="43.82987" lon="3.61673">
        <ele>171.25</ele>
        <time>2013-06-16T10:08:31Z</time>
      </trkpt>
      <trkpt lat="43.82982" lon="3.61674">
        <ele>171.25</ele>
        <time>2013-06-16T10:09:01Z</time>
      </trkpt>
      <trkpt lat="43.82979" lon="3.61677">
        <ele>171.25</ele>
        <time>2013-06-16T10:09:02Z</time>
      </trkpt>
      <trkpt lat="43.82976" lon="3.61681">
        <ele>171.73</ele>
        <time>2013-06-16T10:09:03Z</time>
      </trkpt>
      <trkpt lat="43.82973" lon="3.61684">
        <ele>171.73</ele>
        <time>2013-06-16T10:09:04Z</time>
      </trkpt>
      <trkpt lat="43.82971" lon="3.61687">
        <ele>171.25</ele>
        <time>2013-06-16T10:09:05Z</time>
      </trkpt>
      <trkpt lat="43.8297" lon="3.61691">
        <ele>171.25</ele>
        <time>2013-06-16T10:09:06Z</time>
      </trkpt>
      <trkpt lat="43.82971" lon="3.61693">
        <ele>170.77</ele>
        <time>2013-06-16T10:09:07Z</time>
      </trkpt>
      <trkpt lat="43.82974" lon="3.61696">
        <ele>168.85</ele>
        <time>2013-06-16T10:09:12Z</time>
      </trkpt>
      <trkpt lat="43.82976" lon="3.61697">
        <ele>168.37</ele>
        <time>2013-06-16T10:09:13Z</time>
      </trkpt>
      <trkpt lat="43.82978" lon="3.61695">
        <ele>168.37</ele>
        <time>2013-06-16T10:09:14Z</time>
      </trkpt>
      <trkpt lat="43.83016" lon="3.6166">
        <ele>171.73</ele>
        <time>2013-06-16T10:09:21Z</time>
      </trkpt>
      <trkpt lat="43.83042" lon="3.61638">
        <ele>173.17</ele>
        <time>2013-06-16T10:09:25Z</time>
      </trkpt>
      <trkpt lat="43.83049" lon="3.61635">
        <ele>173.17</ele>
        <time>2013-06-16T10:09:26Z</time>
      </trkpt>
      <trkpt lat="43.83056" lon="3.61634">
        <ele>173.66</ele>
        <time>2013-06-16T10:09:27Z</time>
      </trkpt>
      <trkpt lat="43.83063" lon="3.61635">
        <ele>174.14</ele>
        <time>2013-06-16T10:09:28Z</time>
      </trkpt>
      <trkpt lat="43.8307" lon="3.61637">
        <ele>174.62</ele>
        <time>2013-06-16T10:09:29Z</time>
      </trkpt>
      <trkpt lat="43.83077" lon="3.61639">
        <ele>175.1</ele>
        <time>2013-06-16T10:09:30Z</time>
      </trkpt>
      <trkpt lat="43.83155" lon="3.61666">
        <ele>177.98</ele>
        <time>2013-06-16T10:09:41Z</time>
      </trkpt>
      <trkpt lat="43.83161" lon="3.61666">
        <ele>178.46</ele>
        <time>2013-06-16T10:09:42Z</time>
      </trkpt>
      <trkpt lat="43.83165" lon="3.61665">
        <ele>178.46</ele>
        <time>2013-06-16T10:09:43Z</time>
      </trkpt>
      <trkpt lat="43.83213" lon="3.61667">
        <ele>182.31</ele>
        <time>2013-06-16T10:09:54Z</time>
      </trkpt>
      <trkpt lat="43.83249" lon="3.61686">
        <ele>184.71</ele>
        <time>2013-06-16T10:09:58Z</time>
      </trkpt>
      <trkpt lat="43.83259" lon="3.61687">
        <ele>185.19</ele>
        <time>2013-06-16T10:09:59Z</time>
      </trkpt>
      <trkpt lat="43.83268" lon="3.61686">
        <ele>185.67</ele>
        <time>2013-06-16T10:10:00Z</time>
      </trkpt>
      <trkpt lat="43.83278" lon="3.61681">
        <ele>186.63</ele>
        <time>2013-06-16T10:10:01Z</time>
      </trkpt>
      <trkpt lat="43.83288" lon="3.61673">
        <ele>187.11</ele>
        <time>2013-06-16T10:10:02Z</time>
      </trkpt>
      <trkpt lat="43.83297" lon="3.61663">
        <ele>187.59</ele>
        <time>2013-06-16T10:10:03Z</time>
      </trkpt>
      <trkpt lat="43.83306" lon="3.61653">
        <ele>188.08</ele>
        <time>2013-06-16T10:10:04Z</time>
      </trkpt>
      <trkpt lat="43.83343" lon="3.61609">
        <ele>190.96</ele>
        <time>2013-06-16T10:10:08Z</time>
      </trkpt>
      <trkpt lat="43.83354" lon="3.61601">
        <ele>191.44</ele>
        <time>2013-06-16T10:10:09Z</time>
      </trkpt>
      <trkpt lat="43.83367" lon="3.61598">
        <ele>191.92</ele>
        <time>2013-06-16T10:10:10Z</time>
      </trkpt>
      <trkpt lat="43.8338" lon="3.61599">
        <ele>192.88</ele>
        <time>2013-06-16T10:10:11Z</time>
      </trkpt>
      <trkpt lat="43.83393" lon="3.61603">
        <ele>193.36</ele>
        <time>2013-06-16T10:10:12Z</time>
      </trkpt>
      <trkpt lat="43.83406" lon="3.61611">
        <ele>194.32</ele>
        <time>2013-06-16T10:10:13Z</time>
      </trkpt>
      <trkpt lat="43.83419" lon="3.61621">
        <ele>194.8</ele>
        <time>2013-06-16T10:10:14Z</time>
      </trkpt>
      <trkpt lat="43.83429" lon="3.61635">
        <ele>195.77</ele>
        <time>2013-06-16T10:10:15Z</time>
      </trkpt>
      <trkpt lat="43.83437" lon="3.61652">
        <ele>196.73</ele>
        <time>2013-06-16T10:10:16Z</time>
      </trkpt>
      <trkpt lat="43.83442" lon="3.61673">
        <ele>197.21</ele>
        <time>2013-06-16T10:10:17Z</time>
      </trkpt>
      <trkpt lat="43.83444" lon="3.61692">
        <ele>198.17</ele>
        <time>2013-06-16T10:10:18Z</time>
      </trkpt>
      <trkpt lat="43.83447" lon="3.61709">
        <ele>199.13</ele>
        <time>2013-06-16T10:10:19Z</time>
      </trkpt>
      <trkpt lat="43.83452" lon="3.61725">
        <ele>199.61</ele>
        <time>2013-06-16T10:10:20Z</time>
      </trkpt>
      <trkpt lat="43.83461" lon="3.61739">
        <ele>200.57</ele>
        <time>2013-06-16T10:10:21Z</time>
      </trkpt>
      <trkpt lat="43.83472" lon="3.61753">
        <ele>201.05</ele>
        <time>2013-06-16T10:10:22Z</time>
      </trkpt>
      <trkpt lat="43.83485" lon="3.61766">
        <ele>201.53</ele>
        <time>2013-06-16T10:10:23Z</time>
      </trkpt>
      <trkpt lat="43.83498" lon="3.61779">
        <ele>202.01</ele>
        <time>2013-06-16T10:10:24Z</time>
      </trkpt>
      <trkpt lat="43.83512" lon="3.61791">
        <ele>202.98</ele>
        <time>2013-06-16T10:10:25Z</time>
      </trkpt>
      <trkpt lat="43.83525" lon="3.61802">
        <ele>203.46</ele>
        <time>2013-06-16T10:10:26Z</time>
      </trkpt>
      <trkpt lat="43.83537" lon="3.61815">
        <ele>203.94</ele>
        <time>2013-06-16T10:10:27Z</time>
      </trkpt>
      <trkpt lat="43.83547" lon="3.61831">
        <ele>204.9</ele>
        <time>2013-06-16T10:10:28Z</time>
      </trkpt>
      <trkpt lat="43.83572" lon="3.61887">
        <ele>207.3</ele>
        <time>2013-06-16T10:10:31Z</time>
      </trkpt>
      <trkpt lat="43.83578" lon="3.61908">
        <ele>208.26</ele>
        <time>2013-06-16T10:10:32Z</time>
      </trkpt>
      <trkpt lat="43.83582" lon="3.61929">
        <ele>209.22</ele>
        <time>2013-06-16T10:10:33Z</time>
      </trkpt>
      <trkpt lat="43.83599" lon="3.62035">
        <ele>213.55</ele>
        <time>2013-06-16T10:10:38Z</time>
      </trkpt>
      <trkpt lat="43.83606" lon="3.62052">
        <ele>214.03</ele>
        <time>2013-06-16T10:10:39Z</time>
      </trkpt>
      <trkpt lat="43.83617" lon="3.62068">
        <ele>214.99</ele>
        <time>2013-06-16T10:10:40Z</time>
      </trkpt>
      <trkpt lat="43.8363" lon="3.62084">
        <ele>215.95</ele>
        <time>2013-06-16T10:10:41Z</time>
      </trkpt>
      <trkpt lat="43.83644" lon="3.621">
        <ele>216.91</ele>
        <time>2013-06-16T10:10:42Z</time>
      </trkpt>
      <trkpt lat="43.83764" lon="3.62256">
        <ele>226.53</ele>
        <time>2013-06-16T10:10:50Z</time>
      </trkpt>
      <trkpt lat="43.83831" lon="3.62322">
        <ele>231.33</ele>
        <time>2013-06-16T10:10:54Z</time>
      </trkpt>
      <trkpt lat="43.83849" lon="3.62332">
        <ele>232.3</ele>
        <time>2013-06-16T10:10:55Z</time>
      </trkpt>
      <trkpt lat="43.83868" lon="3.62339">
        <ele>233.74</ele>
        <time>2013-06-16T10:10:56Z</time>
      </trkpt>
      <trkpt lat="43.83924" lon="3.62367">
        <ele>237.1</ele>
        <time>2013-06-16T10:10:59Z</time>
      </trkpt>
      <trkpt lat="43.8398" lon="3.6242">
        <ele>240.95</ele>
        <time>2013-06-16T10:11:03Z</time>
      </trkpt>
      <trkpt lat="43.83985" lon="3.62437">
        <ele>242.39</ele>
        <time>2013-06-16T10:11:04Z</time>
      </trkpt>
      <trkpt lat="43.83986" lon="3.62458">
        <ele>243.35</ele>
        <time>2013-06-16T10:11:05Z</time>
      </trkpt>
      <trkpt lat="43.83984" lon="3.62481">
        <ele>245.27</ele>
        <time>2013-06-16T10:11:06Z</time>
      </trkpt>
      <trkpt lat="43.83982" lon="3.62505">
        <ele>246.23</ele>
        <time>2013-06-16T10:11:07Z</time>
      </trkpt>
      <trkpt lat="43.83981" lon="3.62555">
        <ele>249.12</ele>
        <time>2013-06-16T10:11:09Z</time>
      </trkpt>
      <trkpt lat="43.83983" lon="3.6258">
        <ele>250.08</ele>
        <time>2013-06-16T10:11:10Z</time>
      </trkpt>
      <trkpt lat="43.84027" lon="3.62747">
        <ele>257.29</ele>
        <time>2013-06-16T10:11:17Z</time>
      </trkpt>
      <trkpt lat="43.84044" lon="3.62765">
        <ele>257.77</ele>
        <time>2013-06-16T10:11:18Z</time>
      </trkpt>
      <trkpt lat="43.84063" lon="3.62782">
        <ele>257.29</ele>
        <time>2013-06-16T10:11:19Z</time>
      </trkpt>
      <trkpt lat="43.84156" lon="3.62919">
        <ele>252</ele>
        <time>2013-06-16T10:11:25Z</time>
      </trkpt>
      <trkpt lat="43.84166" lon="3.62947">
        <ele>251.52</ele>
        <time>2013-06-16T10:11:26Z</time>
      </trkpt>
      <trkpt lat="43.84174" lon="3.62976">
        <ele>251.04</ele>
        <time>2013-06-16T10:11:27Z</time>
      </trkpt>
      <trkpt lat="43.84222" lon="3.63165">
        <ele>245.27</ele>
        <time>2013-06-16T10:11:34Z</time>
      </trkpt>
      <trkpt lat="43.84233" lon="3.63182">
        <ele>244.79</ele>
        <time>2013-06-16T10:11:35Z</time>
      </trkpt>
      <trkpt lat="43.84247" lon="3.63197">
        <ele>243.83</ele>
        <time>2013-06-16T10:11:36Z</time>
      </trkpt>
      <trkpt lat="43.84265" lon="3.63208">
        <ele>242.39</ele>
        <time>2013-06-16T10:11:37Z</time>
      </trkpt>
      <trkpt lat="43.84284" lon="3.63218">
        <ele>241.43</ele>
        <time>2013-06-16T10:11:38Z</time>
      </trkpt>
      <trkpt lat="43.84304" lon="3.63229">
        <ele>240.47</ele>
        <time>2013-06-16T10:11:39Z</time>
      </trkpt>
      <trkpt lat="43.84322" lon="3.63242">
        <ele>239.51</ele>
        <time>2013-06-16T10:11:40Z</time>
      </trkpt>
      <trkpt lat="43.8434" lon="3.63259">
        <ele>238.54</ele>
        <time>2013-06-16T10:11:41Z</time>
      </trkpt>
      <trkpt lat="43.84458" lon="3.63396">
        <ele>230.37</ele>
        <time>2013-06-16T10:11:48Z</time>
      </trkpt>
      <trkpt lat="43.8447" lon="3.63424">
        <ele>228.93</ele>
        <time>2013-06-16T10:11:49Z</time>
      </trkpt>
      <trkpt lat="43.84481" lon="3.63452">
        <ele>227.97</ele>
        <time>2013-06-16T10:11:50Z</time>
      </trkpt>
      <trkpt lat="43.84519" lon="3.63561">
        <ele>223.64</ele>
        <time>2013-06-16T10:11:54Z</time>
      </trkpt>
      <trkpt lat="43.84522" lon="3.63589">
        <ele>222.68</ele>
        <time>2013-06-16T10:11:55Z</time>
      </trkpt>
      <trkpt lat="43.84523" lon="3.63617">
        <ele>221.72</ele>
        <time>2013-06-16T10:11:56Z</time>
      </trkpt>
      <trkpt lat="43.84527" lon="3.63674">
        <ele>219.8</ele>
        <time>2013-06-16T10:11:58Z</time>
      </trkpt>
      <trkpt lat="43.84534" lon="3.63703">
        <ele>218.84</ele>
        <time>2013-06-16T10:11:59Z</time>
      </trkpt>
      <trkpt lat="43.84596" lon="3.63914">
        <ele>211.15</ele>
        <time>2013-06-16T10:12:06Z</time>
      </trkpt>
      <trkpt lat="43.84602" lon="3.63942">
        <ele>210.19</ele>
        <time>2013-06-16T10:12:07Z</time>
      </trkpt>
      <trkpt lat="43.84606" lon="3.63971">
        <ele>209.22</ele>
        <time>2013-06-16T10:12:08Z</time>
      </trkpt>
      <trkpt lat="43.84616" lon="3.64086">
        <ele>205.38</ele>
        <time>2013-06-16T10:12:12Z</time>
      </trkpt>
      <trkpt lat="43.84622" lon="3.64111">
        <ele>204.42</ele>
        <time>2013-06-16T10:12:13Z</time>
      </trkpt>
      <trkpt lat="43.84633" lon="3.64137">
        <ele>203.46</ele>
        <time>2013-06-16T10:12:14Z</time>
      </trkpt>
      <trkpt lat="43.84646" lon="3.64164">
        <ele>202.01</ele>
        <time>2013-06-16T10:12:15Z</time>
      </trkpt>
      <trkpt lat="43.8466" lon="3.64192">
        <ele>200.57</ele>
        <time>2013-06-16T10:12:16Z</time>
      </trkpt>
      <trkpt lat="43.84748" lon="3.64384">
        <ele>191.44</ele>
        <time>2013-06-16T10:12:23Z</time>
      </trkpt>
      <trkpt lat="43.84751" lon="3.64415">
        <ele>190</ele>
        <time>2013-06-16T10:12:24Z</time>
      </trkpt>
      <trkpt lat="43.84784" lon="3.64627">
        <ele>180.87</ele>
        <time>2013-06-16T10:12:31Z</time>
      </trkpt>
      <trkpt lat="43.84794" lon="3.64651">
        <ele>179.42</ele>
        <time>2013-06-16T10:12:32Z</time>
      </trkpt>
      <trkpt lat="43.84808" lon="3.64675">
        <ele>177.98</ele>
        <time>2013-06-16T10:12:33Z</time>
      </trkpt>
      <trkpt lat="43.84851" lon="3.64746">
        <ele>174.62</ele>
        <time>2013-06-16T10:12:36Z</time>
      </trkpt>
      <trkpt lat="43.84862" lon="3.64773">
        <ele>173.66</ele>
        <time>2013-06-16T10:12:37Z</time>
      </trkpt>
      <trkpt lat="43.84872" lon="3.64802">
        <ele>172.21</ele>
        <time>2013-06-16T10:12:38Z</time>
      </trkpt>
      <trkpt lat="43.84879" lon="3.64833">
        <ele>171.73</ele>
        <time>2013-06-16T10:12:39Z</time>
      </trkpt>
      <trkpt lat="43.84885" lon="3.64864">
        <ele>170.77</ele>
        <time>2013-06-16T10:12:40Z</time>
      </trkpt>
      <trkpt lat="43.84902" lon="3.64944">
        <ele>168.85</ele>
        <time>2013-06-16T10:12:43Z</time>
      </trkpt>
      <trkpt lat="43.8491" lon="3.64966">
        <ele>167.89</ele>
        <time>2013-06-16T10:12:44Z</time>
      </trkpt>
      <trkpt lat="43.84921" lon="3.64988">
        <ele>166.93</ele>
        <time>2013-06-16T10:12:45Z</time>
      </trkpt>
      <trkpt lat="43.84934" lon="3.65009">
        <ele>165.96</ele>
        <time>2013-06-16T10:12:46Z</time>
      </trkpt>
      <trkpt lat="43.84951" lon="3.65029">
        <ele>165</ele>
        <time>2013-06-16T10:12:47Z</time>
      </trkpt>
      <trkpt lat="43.84967" lon="3.65047">
        <ele>164.52</ele>
        <time>2013-06-16T10:12:48Z</time>
      </trkpt>
      <trkpt lat="43.84994" lon="3.65084">
        <ele>163.56</ele>
        <time>2013-06-16T10:12:50Z</time>
      </trkpt>
      <trkpt lat="43.85005" lon="3.65105">
        <ele>163.08</ele>
        <time>2013-06-16T10:12:51Z</time>
      </trkpt>
      <trkpt lat="43.85013" lon="3.6513">
        <ele>162.6</ele>
        <time>2013-06-16T10:12:52Z</time>
      </trkpt>
      <trkpt lat="43.85017" lon="3.65158">
        <ele>163.08</ele>
        <time>2013-06-16T10:12:53Z</time>
      </trkpt>
      <trkpt lat="43.85019" lon="3.65188">
        <ele>163.08</ele>
        <time>2013-06-16T10:12:54Z</time>
      </trkpt>
      <trkpt lat="43.85021" lon="3.65218">
        <ele>162.6</ele>
        <time>2013-06-16T10:12:55Z</time>
      </trkpt>
      <trkpt lat="43.85048" lon="3.65359">
        <ele>160.2</ele>
        <time>2013-06-16T10:13:00Z</time>
      </trkpt>
      <trkpt lat="43.85059" lon="3.65384">
        <ele>159.72</ele>
        <time>2013-06-16T10:13:01Z</time>
      </trkpt>
      <trkpt lat="43.85071" lon="3.65408">
        <ele>159.72</ele>
        <time>2013-06-16T10:13:02Z</time>
      </trkpt>
      <trkpt lat="43.85093" lon="3.65453">
        <ele>160.2</ele>
        <time>2013-06-16T10:13:04Z</time>
      </trkpt>
      <trkpt lat="43.85101" lon="3.65476">
        <ele>160.2</ele>
        <time>2013-06-16T10:13:05Z</time>
      </trkpt>
      <trkpt lat="43.85106" lon="3.65504">
        <ele>160.68</ele>
        <time>2013-06-16T10:13:06Z</time>
      </trkpt>
      <trkpt lat="43.8511" lon="3.65533">
        <ele>160.68</ele>
        <time>2013-06-16T10:13:07Z</time>
      </trkpt>
      <trkpt lat="43.85113" lon="3.65564">
        <ele>161.16</ele>
        <time>2013-06-16T10:13:08Z</time>
      </trkpt>
      <trkpt lat="43.85162" lon="3.65854">
        <ele>154.43</ele>
        <time>2013-06-16T10:13:18Z</time>
      </trkpt>
      <trkpt lat="43.8517" lon="3.65881">
        <ele>153.47</ele>
        <time>2013-06-16T10:13:19Z</time>
      </trkpt>
      <trkpt lat="43.85198" lon="3.65993">
        <ele>150.58</ele>
        <time>2013-06-16T10:13:23Z</time>
      </trkpt>
      <trkpt lat="43.85201" lon="3.66022">
        <ele>150.1</ele>
        <time>2013-06-16T10:13:24Z</time>
      </trkpt>
      <trkpt lat="43.85202" lon="3.66051">
        <ele>149.62</ele>
        <time>2013-06-16T10:13:25Z</time>
      </trkpt>
      <trkpt lat="43.85195" lon="3.66152">
        <ele>148.18</ele>
        <time>2013-06-16T10:13:29Z</time>
      </trkpt>
      <trkpt lat="43.85187" lon="3.66173">
        <ele>148.18</ele>
        <time>2013-06-16T10:13:30Z</time>
      </trkpt>
      <trkpt lat="43.85178" lon="3.66191">
        <ele>147.7</ele>
        <time>2013-06-16T10:13:31Z</time>
      </trkpt>
      <trkpt lat="43.85166" lon="3.66203">
        <ele>147.7</ele>
        <time>2013-06-16T10:13:32Z</time>
      </trkpt>
      <trkpt lat="43.85152" lon="3.66209">
        <ele>147.7</ele>
        <time>2013-06-16T10:13:33Z</time>
      </trkpt>
      <trkpt lat="43.85138" lon="3.66218">
        <ele>147.22</ele>
        <time>2013-06-16T10:13:34Z</time>
      </trkpt>
      <trkpt lat="43.85121" lon="3.66226">
        <ele>146.26</ele>
        <time>2013-06-16T10:13:35Z</time>
      </trkpt>
      <trkpt lat="43.85102" lon="3.66233">
        <ele>145.78</ele>
        <time>2013-06-16T10:13:36Z</time>
      </trkpt>
      <trkpt lat="43.85084" lon="3.6624">
        <ele>145.3</ele>
        <time>2013-06-16T10:13:37Z</time>
      </trkpt>
      <trkpt lat="43.85051" lon="3.6626">
        <ele>144.34</ele>
        <time>2013-06-16T10:13:39Z</time>
      </trkpt>
      <trkpt lat="43.85036" lon="3.66275">
        <ele>143.37</ele>
        <time>2013-06-16T10:13:40Z</time>
      </trkpt>
      <trkpt lat="43.84941" lon="3.66412">
        <ele>144.34</ele>
        <time>2013-06-16T10:13:47Z</time>
      </trkpt>
      <trkpt lat="43.84933" lon="3.66438">
        <ele>144.34</ele>
        <time>2013-06-16T10:13:48Z</time>
      </trkpt>
      <trkpt lat="43.84927" lon="3.66467">
        <ele>145.78</ele>
        <time>2013-06-16T10:13:49Z</time>
      </trkpt>
      <trkpt lat="43.84905" lon="3.66602">
        <ele>154.91</ele>
        <time>2013-06-16T10:13:54Z</time>
      </trkpt>
      <trkpt lat="43.84905" lon="3.6663">
        <ele>156.83</ele>
        <time>2013-06-16T10:13:55Z</time>
      </trkpt>
      <trkpt lat="43.84906" lon="3.66659">
        <ele>158.27</ele>
        <time>2013-06-16T10:13:56Z</time>
      </trkpt>
      <trkpt lat="43.8491" lon="3.66687">
        <ele>159.24</ele>
        <time>2013-06-16T10:13:57Z</time>
      </trkpt>
      <trkpt lat="43.84914" lon="3.66714">
        <ele>160.68</ele>
        <time>2013-06-16T10:13:58Z</time>
      </trkpt>
      <trkpt lat="43.8492" lon="3.66739">
        <ele>161.64</ele>
        <time>2013-06-16T10:13:59Z</time>
      </trkpt>
      <trkpt lat="43.8493" lon="3.66758">
        <ele>162.6</ele>
        <time>2013-06-16T10:14:00Z</time>
      </trkpt>
      <trkpt lat="43.8494" lon="3.66773">
        <ele>163.56</ele>
        <time>2013-06-16T10:14:01Z</time>
      </trkpt>
      <trkpt lat="43.84949" lon="3.66786">
        <ele>164.52</ele>
        <time>2013-06-16T10:14:02Z</time>
      </trkpt>
      <trkpt lat="43.84958" lon="3.66797">
        <ele>165.48</ele>
        <time>2013-06-16T10:14:03Z</time>
      </trkpt>
      <trkpt lat="43.84968" lon="3.66805">
        <ele>166.45</ele>
        <time>2013-06-16T10:14:04Z</time>
      </trkpt>
      <trkpt lat="43.84977" lon="3.66811">
        <ele>166.93</ele>
        <time>2013-06-16T10:14:05Z</time>
      </trkpt>
      <trkpt lat="43.84987" lon="3.66817">
        <ele>167.89</ele>
        <time>2013-06-16T10:14:06Z</time>
      </trkpt>
      <trkpt lat="43.85071" lon="3.66885">
        <ele>173.17</ele>
        <time>2013-06-16T10:14:13Z</time>
      </trkpt>
      <trkpt lat="43.85178" lon="3.66975">
        <ele>180.38</ele>
        <time>2013-06-16T10:14:20Z</time>
      </trkpt>
      <trkpt lat="43.85188" lon="3.66992">
        <ele>181.83</ele>
        <time>2013-06-16T10:14:21Z</time>
      </trkpt>
      <trkpt lat="43.85198" lon="3.67011">
        <ele>182.79</ele>
        <time>2013-06-16T10:14:22Z</time>
      </trkpt>
      <trkpt lat="43.85242" lon="3.67092">
        <ele>186.63</ele>
        <time>2013-06-16T10:14:26Z</time>
      </trkpt>
      <trkpt lat="43.85257" lon="3.67108">
        <ele>187.59</ele>
        <time>2013-06-16T10:14:27Z</time>
      </trkpt>
      <trkpt lat="43.85273" lon="3.67122">
        <ele>189.04</ele>
        <time>2013-06-16T10:14:28Z</time>
      </trkpt>
      <trkpt lat="43.8534" lon="3.67172">
        <ele>193.36</ele>
        <time>2013-06-16T10:14:32Z</time>
      </trkpt>
      <trkpt lat="43.85353" lon="3.67189">
        <ele>194.32</ele>
        <time>2013-06-16T10:14:33Z</time>
      </trkpt>
      <trkpt lat="43.85365" lon="3.67211">
        <ele>195.28</ele>
        <time>2013-06-16T10:14:34Z</time>
      </trkpt>
      <trkpt lat="43.85373" lon="3.67237">
        <ele>196.25</ele>
        <time>2013-06-16T10:14:35Z</time>
      </trkpt>
      <trkpt lat="43.85381" lon="3.67264">
        <ele>197.69</ele>
        <time>2013-06-16T10:14:36Z</time>
      </trkpt>
      <trkpt lat="43.85388" lon="3.67294">
        <ele>198.65</ele>
        <time>2013-06-16T10:14:37Z</time>
      </trkpt>
      <trkpt lat="43.85395" lon="3.67324">
        <ele>200.09</ele>
        <time>2013-06-16T10:14:38Z</time>
      </trkpt>
      <trkpt lat="43.8547" lon="3.67569">
        <ele>211.15</ele>
        <time>2013-06-16T10:14:47Z</time>
      </trkpt>
      <trkpt lat="43.8548" lon="3.67591">
        <ele>212.11</ele>
        <time>2013-06-16T10:14:48Z</time>
      </trkpt>
      <trkpt lat="43.85491" lon="3.67612">
        <ele>212.59</ele>
        <time>2013-06-16T10:14:49Z</time>
      </trkpt>
      <trkpt lat="43.85504" lon="3.67632">
        <ele>213.07</ele>
        <time>2013-06-16T10:14:50Z</time>
      </trkpt>
      <trkpt lat="43.8552" lon="3.67653">
        <ele>213.55</ele>
        <time>2013-06-16T10:14:51Z</time>
      </trkpt>
      <trkpt lat="43.85537" lon="3.67673">
        <ele>213.55</ele>
        <time>2013-06-16T10:14:52Z</time>
      </trkpt>
      <trkpt lat="43.85657" lon="3.67791">
        <ele>210.19</ele>
        <time>2013-06-16T10:14:58Z</time>
      </trkpt>
      <trkpt lat="43.85675" lon="3.67814">
        <ele>209.7</ele>
        <time>2013-06-16T10:14:59Z</time>
      </trkpt>
      <trkpt lat="43.85692" lon="3.67839">
        <ele>209.22</ele>
        <time>2013-06-16T10:15:00Z</time>
      </trkpt>
      <trkpt lat="43.85706" lon="3.67864">
        <ele>208.74</ele>
        <time>2013-06-16T10:15:01Z</time>
      </trkpt>
      <trkpt lat="43.85717" lon="3.67895">
        <ele>207.78</ele>
        <time>2013-06-16T10:15:02Z</time>
      </trkpt>
      <trkpt lat="43.85726" lon="3.67928">
        <ele>206.82</ele>
        <time>2013-06-16T10:15:03Z</time>
      </trkpt>
      <trkpt lat="43.85736" lon="3.6796">
        <ele>205.86</ele>
        <time>2013-06-16T10:15:04Z</time>
      </trkpt>
      <trkpt lat="43.85749" lon="3.67992">
        <ele>205.38</ele>
        <time>2013-06-16T10:15:05Z</time>
      </trkpt>
      <trkpt lat="43.85765" lon="3.68023">
        <ele>204.42</ele>
        <time>2013-06-16T10:15:06Z</time>
      </trkpt>
      <trkpt lat="43.85783" lon="3.68054">
        <ele>203.46</ele>
        <time>2013-06-16T10:15:07Z</time>
      </trkpt>
      <trkpt lat="43.85869" lon="3.6823">
        <ele>199.13</ele>
        <time>2013-06-16T10:15:13Z</time>
      </trkpt>
      <trkpt lat="43.85883" lon="3.68296">
        <ele>196.73</ele>
        <time>2013-06-16T10:15:16Z</time>
      </trkpt>
      <trkpt lat="43.8588" lon="3.6832">
        <ele>196.25</ele>
        <time>2013-06-16T10:15:17Z</time>
      </trkpt>
      <trkpt lat="43.85874" lon="3.68345">
        <ele>195.77</ele>
        <time>2013-06-16T10:15:18Z</time>
      </trkpt>
      <trkpt lat="43.8587" lon="3.68374">
        <ele>195.77</ele>
        <time>2013-06-16T10:15:19Z</time>
      </trkpt>
      <trkpt lat="43.85869" lon="3.68405">
        <ele>195.77</ele>
        <time>2013-06-16T10:15:20Z</time>
      </trkpt>
      <trkpt lat="43.85871" lon="3.68436">
        <ele>195.28</ele>
        <time>2013-06-16T10:15:21Z</time>
      </trkpt>
      <trkpt lat="43.85875" lon="3.68466">
        <ele>195.77</ele>
        <time>2013-06-16T10:15:22Z</time>
      </trkpt>
      <trkpt lat="43.8588" lon="3.68494">
        <ele>195.77</ele>
        <time>2013-06-16T10:15:23Z</time>
      </trkpt>
      <trkpt lat="43.8589" lon="3.68518">
        <ele>195.77</ele>
        <time>2013-06-16T10:15:24Z</time>
      </trkpt>
      <trkpt lat="43.85901" lon="3.68538">
        <ele>195.77</ele>
        <time>2013-06-16T10:15:25Z</time>
      </trkpt>
      <trkpt lat="43.85911" lon="3.68559">
        <ele>195.77</ele>
        <time>2013-06-16T10:15:26Z</time>
      </trkpt>
      <trkpt lat="43.85918" lon="3.68582">
        <ele>195.28</ele>
        <time>2013-06-16T10:15:27Z</time>
      </trkpt>
      <trkpt lat="43.85923" lon="3.68608">
        <ele>195.28</ele>
        <time>2013-06-16T10:15:28Z</time>
      </trkpt>
      <trkpt lat="43.85927" lon="3.68635">
        <ele>194.32</ele>
        <time>2013-06-16T10:15:29Z</time>
      </trkpt>
      <trkpt lat="43.85946" lon="3.68729">
        <ele>191.92</ele>
        <time>2013-06-16T10:15:33Z</time>
      </trkpt>
      <trkpt lat="43.85957" lon="3.68748">
        <ele>191.44</ele>
        <time>2013-06-16T10:15:34Z</time>
      </trkpt>
      <trkpt lat="43.85971" lon="3.68765">
        <ele>190.96</ele>
        <time>2013-06-16T10:15:35Z</time>
      </trkpt>
      <trkpt lat="43.85989" lon="3.68782">
        <ele>190.48</ele>
        <time>2013-06-16T10:15:36Z</time>
      </trkpt>
      <trkpt lat="43.8601" lon="3.68797">
        <ele>190</ele>
        <time>2013-06-16T10:15:37Z</time>
      </trkpt>
      <trkpt lat="43.86033" lon="3.6881">
        <ele>189.52</ele>
        <time>2013-06-16T10:15:38Z</time>
      </trkpt>
      <trkpt lat="43.86056" lon="3.68821">
        <ele>189.04</ele>
        <time>2013-06-16T10:15:39Z</time>
      </trkpt>
      <trkpt lat="43.86118" lon="3.68841">
        <ele>187.59</ele>
        <time>2013-06-16T10:15:42Z</time>
      </trkpt>
      <trkpt lat="43.86139" lon="3.6884">
        <ele>187.11</ele>
        <time>2013-06-16T10:15:43Z</time>
      </trkpt>
      <trkpt lat="43.86162" lon="3.68837">
        <ele>187.11</ele>
        <time>2013-06-16T10:15:44Z</time>
      </trkpt>
      <trkpt lat="43.86205" lon="3.68835">
        <ele>186.15</ele>
        <time>2013-06-16T10:15:46Z</time>
      </trkpt>
      <trkpt lat="43.86225" lon="3.68841">
        <ele>185.67</ele>
        <time>2013-06-16T10:15:47Z</time>
      </trkpt>
      <trkpt lat="43.86245" lon="3.6885">
        <ele>185.19</ele>
        <time>2013-06-16T10:15:48Z</time>
      </trkpt>
      <trkpt lat="43.86266" lon="3.68863">
        <ele>184.23</ele>
        <time>2013-06-16T10:15:49Z</time>
      </trkpt>
      <trkpt lat="43.86287" lon="3.68876">
        <ele>183.75</ele>
        <time>2013-06-16T10:15:50Z</time>
      </trkpt>
      <trkpt lat="43.86496" lon="3.69008">
        <ele>180.87</ele>
        <time>2013-06-16T10:15:59Z</time>
      </trkpt>
      <trkpt lat="43.86551" lon="3.69042">
        <ele>180.38</ele>
        <time>2013-06-16T10:16:02Z</time>
      </trkpt>
      <trkpt lat="43.86564" lon="3.69056">
        <ele>179.9</ele>
        <time>2013-06-16T10:16:03Z</time>
      </trkpt>
      <trkpt lat="43.86575" lon="3.69074">
        <ele>179.9</ele>
        <time>2013-06-16T10:16:04Z</time>
      </trkpt>
      <trkpt lat="43.86583" lon="3.69098">
        <ele>179.9</ele>
        <time>2013-06-16T10:16:05Z</time>
      </trkpt>
      <trkpt lat="43.86592" lon="3.69123">
        <ele>179.42</ele>
        <time>2013-06-16T10:16:06Z</time>
      </trkpt>
      <trkpt lat="43.86666" lon="3.69304">
        <ele>178.46</ele>
        <time>2013-06-16T10:16:13Z</time>
      </trkpt>
      <trkpt lat="43.86688" lon="3.69342">
        <ele>178.46</ele>
        <time>2013-06-16T10:16:15Z</time>
      </trkpt>
      <trkpt lat="43.86703" lon="3.69358">
        <ele>178.46</ele>
        <time>2013-06-16T10:16:16Z</time>
      </trkpt>
      <trkpt lat="43.86751" lon="3.69413">
        <ele>177.02</ele>
        <time>2013-06-16T10:16:19Z</time>
      </trkpt>
      <trkpt lat="43.86763" lon="3.69437">
        <ele>177.5</ele>
        <time>2013-06-16T10:16:20Z</time>
      </trkpt>
      <trkpt lat="43.86808" lon="3.69537">
        <ele>179.9</ele>
        <time>2013-06-16T10:16:24Z</time>
      </trkpt>
      <trkpt lat="43.86822" lon="3.69558">
        <ele>179.9</ele>
        <time>2013-06-16T10:16:25Z</time>
      </trkpt>
      <trkpt lat="43.8685" lon="3.69596">
        <ele>179.42</ele>
        <time>2013-06-16T10:16:27Z</time>
      </trkpt>
      <trkpt lat="43.86861" lon="3.69619">
        <ele>178.94</ele>
        <time>2013-06-16T10:16:28Z</time>
      </trkpt>
      <trkpt lat="43.86869" lon="3.69646">
        <ele>178.94</ele>
        <time>2013-06-16T10:16:29Z</time>
      </trkpt>
      <trkpt lat="43.86874" lon="3.69675">
        <ele>178.46</ele>
        <time>2013-06-16T10:16:30Z</time>
      </trkpt>
      <trkpt lat="43.86878" lon="3.69707">
        <ele>177.98</ele>
        <time>2013-06-16T10:16:31Z</time>
      </trkpt>
      <trkpt lat="43.86878" lon="3.69741">
        <ele>178.46</ele>
        <time>2013-06-16T10:16:32Z</time>
      </trkpt>
      <trkpt lat="43.86878" lon="3.69776">
        <ele>178.94</ele>
        <time>2013-06-16T10:16:33Z</time>
      </trkpt>
      <trkpt lat="43.86878" lon="3.69811">
        <ele>179.9</ele>
        <time>2013-06-16T10:16:34Z</time>
      </trkpt>
      <trkpt lat="43.86883" lon="3.6993">
        <ele>180.87</ele>
        <time>2013-06-16T10:16:38Z</time>
      </trkpt>
      <trkpt lat="43.86889" lon="3.69956">
        <ele>180.38</ele>
        <time>2013-06-16T10:16:39Z</time>
      </trkpt>
      <trkpt lat="43.86898" lon="3.69982">
        <ele>180.38</ele>
        <time>2013-06-16T10:16:40Z</time>
      </trkpt>
      <trkpt lat="43.8691" lon="3.70007">
        <ele>179.9</ele>
        <time>2013-06-16T10:16:41Z</time>
      </trkpt>
      <trkpt lat="43.86926" lon="3.70031">
        <ele>178.94</ele>
        <time>2013-06-16T10:16:42Z</time>
      </trkpt>
      <trkpt lat="43.87023" lon="3.70203">
        <ele>171.73</ele>
        <time>2013-06-16T10:16:49Z</time>
      </trkpt>
      <trkpt lat="43.87076" lon="3.70267">
        <ele>167.89</ele>
        <time>2013-06-16T10:16:53Z</time>
      </trkpt>
      <trkpt lat="43.87092" lon="3.70272">
        <ele>167.41</ele>
        <time>2013-06-16T10:16:54Z</time>
      </trkpt>
      <trkpt lat="43.87109" lon="3.70277">
        <ele>166.45</ele>
        <time>2013-06-16T10:16:55Z</time>
      </trkpt>
      <trkpt lat="43.87143" lon="3.70289">
        <ele>164.52</ele>
        <time>2013-06-16T10:16:57Z</time>
      </trkpt>
      <trkpt lat="43.87158" lon="3.703">
        <ele>164.04</ele>
        <time>2013-06-16T10:16:58Z</time>
      </trkpt>
      <trkpt lat="43.8717" lon="3.70313">
        <ele>163.08</ele>
        <time>2013-06-16T10:16:59Z</time>
      </trkpt>
      <trkpt lat="43.87181" lon="3.70327">
        <ele>162.6</ele>
        <time>2013-06-16T10:17:00Z</time>
      </trkpt>
      <trkpt lat="43.87191" lon="3.70341">
        <ele>162.12</ele>
        <time>2013-06-16T10:17:01Z</time>
      </trkpt>
      <trkpt lat="43.87247" lon="3.7039">
        <ele>160.68</ele>
        <time>2013-06-16T10:17:07Z</time>
      </trkpt>
      <trkpt lat="43.87301" lon="3.70427">
        <ele>160.2</ele>
        <time>2013-06-16T10:17:15Z</time>
      </trkpt>
      <trkpt lat="43.87352" lon="3.70454">
        <ele>157.79</ele>
        <time>2013-06-16T10:17:19Z</time>
      </trkpt>
      <trkpt lat="43.87366" lon="3.70458">
        <ele>157.31</ele>
        <time>2013-06-16T10:17:20Z</time>
      </trkpt>
      <trkpt lat="43.87381" lon="3.7046">
        <ele>156.83</ele>
        <time>2013-06-16T10:17:21Z</time>
      </trkpt>
      <trkpt lat="43.87397" lon="3.70459">
        <ele>155.87</ele>
        <time>2013-06-16T10:17:22Z</time>
      </trkpt>
      <trkpt lat="43.87413" lon="3.70458">
        <ele>155.39</ele>
        <time>2013-06-16T10:17:23Z</time>
      </trkpt>
      <trkpt lat="43.87513" lon="3.70439">
        <ele>149.14</ele>
        <time>2013-06-16T10:17:31Z</time>
      </trkpt>
      <trkpt lat="43.87523" lon="3.70433">
        <ele>148.66</ele>
        <time>2013-06-16T10:17:32Z</time>
      </trkpt>
      <trkpt lat="43.87533" lon="3.70425">
        <ele>148.18</ele>
        <time>2013-06-16T10:17:33Z</time>
      </trkpt>
      <trkpt lat="43.87541" lon="3.70414">
        <ele>147.22</ele>
        <time>2013-06-16T10:17:34Z</time>
      </trkpt>
      <trkpt lat="43.87549" lon="3.70403">
        <ele>146.74</ele>
        <time>2013-06-16T10:17:35Z</time>
      </trkpt>
      <trkpt lat="43.87608" lon="3.70317">
        <ele>140.49</ele>
        <time>2013-06-16T10:17:44Z</time>
      </trkpt>
      <trkpt lat="43.87615" lon="3.70311">
        <ele>140.01</ele>
        <time>2013-06-16T10:17:45Z</time>
      </trkpt>
      <trkpt lat="43.87624" lon="3.70309">
        <ele>139.53</ele>
        <time>2013-06-16T10:17:46Z</time>
      </trkpt>
      <trkpt lat="43.87633" lon="3.70308">
        <ele>139.53</ele>
        <time>2013-06-16T10:17:47Z</time>
      </trkpt>
      <trkpt lat="43.87643" lon="3.70309">
        <ele>139.05</ele>
        <time>2013-06-16T10:17:48Z</time>
      </trkpt>
      <trkpt lat="43.87746" lon="3.70319">
        <ele>138.09</ele>
        <time>2013-06-16T10:18:01Z</time>
      </trkpt>
      <trkpt lat="43.87754" lon="3.70319">
        <ele>138.57</ele>
        <time>2013-06-16T10:18:09Z</time>
      </trkpt>
      <trkpt lat="43.87755" lon="3.70317">
        <ele>138.57</ele>
        <time>2013-06-16T10:18:10Z</time>
      </trkpt>
      <trkpt lat="43.87756" lon="3.70312">
        <ele>138.57</ele>
        <time>2013-06-16T10:18:11Z</time>
      </trkpt>
      <trkpt lat="43.87759" lon="3.70295">
        <ele>139.05</ele>
        <time>2013-06-16T10:18:13Z</time>
      </trkpt>
      <trkpt lat="43.87768" lon="3.7025">
        <ele>138.57</ele>
        <time>2013-06-16T10:18:18Z</time>
      </trkpt>
      <trkpt lat="43.87771" lon="3.70242">
        <ele>138.57</ele>
        <time>2013-06-16T10:18:19Z</time>
      </trkpt>
      <trkpt lat="43.87774" lon="3.70234">
        <ele>138.09</ele>
        <time>2013-06-16T10:18:20Z</time>
      </trkpt>
      <trkpt lat="43.87779" lon="3.70227">
        <ele>138.57</ele>
        <time>2013-06-16T10:18:21Z</time>
      </trkpt>
      <trkpt lat="43.87783" lon="3.7022">
        <ele>138.57</ele>
        <time>2013-06-16T10:18:22Z</time>
      </trkpt>
      <trkpt lat="43.87803" lon="3.70196">
        <ele>138.57</ele>
        <time>2013-06-16T10:18:26Z</time>
      </trkpt>
      <trkpt lat="43.87813" lon="3.70187">
        <ele>139.53</ele>
        <time>2013-06-16T10:18:28Z</time>
      </trkpt>
      <trkpt lat="43.87818" lon="3.70183">
        <ele>139.53</ele>
        <time>2013-06-16T10:18:29Z</time>
      </trkpt>
      <trkpt lat="43.87832" lon="3.70181">
        <ele>139.53</ele>
        <time>2013-06-16T10:18:31Z</time>
      </trkpt>
      <trkpt lat="43.87882" lon="3.70179">
        <ele>141.93</ele>
        <time>2013-06-16T10:18:39Z</time>
      </trkpt>
      <trkpt lat="43.87887" lon="3.7018">
        <ele>141.93</ele>
        <time>2013-06-16T10:18:40Z</time>
      </trkpt>
      <trkpt lat="43.87892" lon="3.70183">
        <ele>141.93</ele>
        <time>2013-06-16T10:18:41Z</time>
      </trkpt>
      <trkpt lat="43.87923" lon="3.70205">
        <ele>141.93</ele>
        <time>2013-06-16T10:18:51Z</time>
      </trkpt>
      <trkpt lat="43.87969" lon="3.70235">
        <ele>142.89</ele>
        <time>2013-06-16T10:19:00Z</time>
      </trkpt>
      <trkpt lat="43.87977" lon="3.70237">
        <ele>142.89</ele>
        <time>2013-06-16T10:19:01Z</time>
      </trkpt>
      <trkpt lat="43.88076" lon="3.70268">
        <ele>143.85</ele>
        <time>2013-06-16T10:19:10Z</time>
      </trkpt>
      <trkpt lat="43.88178" lon="3.70287">
        <ele>144.82</ele>
        <time>2013-06-16T10:19:18Z</time>
      </trkpt>
      <trkpt lat="43.88337" lon="3.70316">
        <ele>147.7</ele>
        <time>2013-06-16T10:19:28Z</time>
      </trkpt>
      <trkpt lat="43.88503" lon="3.70345">
        <ele>150.58</ele>
        <time>2013-06-16T10:19:37Z</time>
      </trkpt>
      <trkpt lat="43.88754" lon="3.70387">
        <ele>156.83</ele>
        <time>2013-06-16T10:19:52Z</time>
      </trkpt>
      <trkpt lat="43.88965" lon="3.70366">
        <ele>165</ele>
        <time>2013-06-16T10:20:04Z</time>
      </trkpt>
      <trkpt lat="43.89129" lon="3.70301">
        <ele>171.73</ele>
        <time>2013-06-16T10:20:14Z</time>
      </trkpt>
      <trkpt lat="43.89305" lon="3.70231">
        <ele>172.21</ele>
        <time>2013-06-16T10:20:24Z</time>
      </trkpt>
      <trkpt lat="43.89468" lon="3.70186">
        <ele>172.21</ele>
        <time>2013-06-16T10:20:30Z</time>
      </trkpt>
      <trkpt lat="43.89669" lon="3.70125">
        <ele>170.29</ele>
        <time>2013-06-16T10:20:38Z</time>
      </trkpt>
      <trkpt lat="43.8994" lon="3.70045">
        <ele>167.41</ele>
        <time>2013-06-16T10:20:48Z</time>
      </trkpt>
      <trkpt lat="43.90306" lon="3.69937">
        <ele>175.58</ele>
        <time>2013-06-16T10:21:02Z</time>
      </trkpt>
      <trkpt lat="43.9052" lon="3.69873">
        <ele>183.27</ele>
        <time>2013-06-16T10:21:11Z</time>
      </trkpt>
      <trkpt lat="43.90667" lon="3.69831">
        <ele>190</ele>
        <time>2013-06-16T10:21:19Z</time>
      </trkpt>
      <trkpt lat="43.90854" lon="3.69772">
        <ele>197.21</ele>
        <time>2013-06-16T10:21:32Z</time>
      </trkpt>
      <trkpt lat="43.91028" lon="3.69725">
        <ele>203.46</ele>
        <time>2013-06-16T10:21:45Z</time>
      </trkpt>
      <trkpt lat="43.9105" lon="3.69723">
        <ele>202.98</ele>
        <time>2013-06-16T10:21:47Z</time>
      </trkpt>
      <trkpt lat="43.91061" lon="3.69725">
        <ele>202.98</ele>
        <time>2013-06-16T10:21:48Z</time>
      </trkpt>
      <trkpt lat="43.91072" lon="3.69733">
        <ele>202.49</ele>
        <time>2013-06-16T10:21:49Z</time>
      </trkpt>
      <trkpt lat="43.91084" lon="3.69741">
        <ele>202.49</ele>
        <time>2013-06-16T10:21:50Z</time>
      </trkpt>
      <trkpt lat="43.91095" lon="3.69751">
        <ele>201.53</ele>
        <time>2013-06-16T10:21:51Z</time>
      </trkpt>
      <trkpt lat="43.91125" lon="3.69781">
        <ele>198.65</ele>
        <time>2013-06-16T10:21:54Z</time>
      </trkpt>
      <trkpt lat="43.91133" lon="3.69793">
        <ele>197.69</ele>
        <time>2013-06-16T10:21:55Z</time>
      </trkpt>
      <trkpt lat="43.91141" lon="3.69807">
        <ele>196.73</ele>
        <time>2013-06-16T10:21:56Z</time>
      </trkpt>
      <trkpt lat="43.91175" lon="3.69868">
        <ele>192.4</ele>
        <time>2013-06-16T10:22:00Z</time>
      </trkpt>
      <trkpt lat="43.91187" lon="3.69882">
        <ele>191.92</ele>
        <time>2013-06-16T10:22:01Z</time>
      </trkpt>
      <trkpt lat="43.91268" lon="3.69972">
        <ele>186.63</ele>
        <time>2013-06-16T10:22:06Z</time>
      </trkpt>
      <trkpt lat="43.91383" lon="3.70129">
        <ele>175.58</ele>
        <time>2013-06-16T10:22:14Z</time>
      </trkpt>
      <trkpt lat="43.91433" lon="3.70197">
        <ele>170.77</ele>
        <time>2013-06-16T10:22:18Z</time>
      </trkpt>
      <trkpt lat="43.9145" lon="3.70206">
        <ele>169.81</ele>
        <time>2013-06-16T10:22:19Z</time>
      </trkpt>
      <trkpt lat="43.91469" lon="3.7021">
        <ele>168.37</ele>
        <time>2013-06-16T10:22:20Z</time>
      </trkpt>
      <trkpt lat="43.91489" lon="3.70211">
        <ele>166.93</ele>
        <time>2013-06-16T10:22:21Z</time>
      </trkpt>
      <trkpt lat="43.91511" lon="3.7021">
        <ele>165.48</ele>
        <time>2013-06-16T10:22:22Z</time>
      </trkpt>
      <trkpt lat="43.91747" lon="3.70202">
        <ele>161.64</ele>
        <time>2013-06-16T10:22:34Z</time>
      </trkpt>
      <trkpt lat="43.91864" lon="3.70204">
        <ele>165.48</ele>
        <time>2013-06-16T10:22:43Z</time>
      </trkpt>
      <trkpt lat="43.91874" lon="3.70204">
        <ele>165.96</ele>
        <time>2013-06-16T10:22:44Z</time>
      </trkpt>
      <trkpt lat="43.91895" lon="3.70202">
        <ele>166.93</ele>
        <time>2013-06-16T10:22:46Z</time>
      </trkpt>
      <trkpt lat="43.91907" lon="3.70205">
        <ele>167.41</ele>
        <time>2013-06-16T10:22:47Z</time>
      </trkpt>
      <trkpt lat="43.92004" lon="3.70235">
        <ele>169.33</ele>
        <time>2013-06-16T10:22:55Z</time>
      </trkpt>
      <trkpt lat="43.92125" lon="3.7029">
        <ele>171.25</ele>
        <time>2013-06-16T10:23:06Z</time>
      </trkpt>
      <trkpt lat="43.9222" lon="3.70324">
        <ele>174.14</ele>
        <time>2013-06-16T10:23:15Z</time>
      </trkpt>
      <trkpt lat="43.92333" lon="3.70352">
        <ele>173.66</ele>
        <time>2013-06-16T10:23:25Z</time>
      </trkpt>
      <trkpt lat="43.92449" lon="3.70355">
        <ele>167.89</ele>
        <time>2013-06-16T10:23:34Z</time>
      </trkpt>
      <trkpt lat="43.92598" lon="3.70348">
        <ele>160.68</ele>
        <time>2013-06-16T10:23:47Z</time>
      </trkpt>
      <trkpt lat="43.92727" lon="3.70342">
        <ele>159.24</ele>
        <time>2013-06-16T10:23:59Z</time>
      </trkpt>
      <trkpt lat="43.92823" lon="3.70338">
        <ele>159.24</ele>
        <time>2013-06-16T10:24:10Z</time>
      </trkpt>
      <trkpt lat="43.92936" lon="3.70323">
        <ele>156.83</ele>
        <time>2013-06-16T10:24:21Z</time>
      </trkpt>
      <trkpt lat="43.92946" lon="3.70317">
        <ele>156.35</ele>
        <time>2013-06-16T10:24:22Z</time>
      </trkpt>
      <trkpt lat="43.92956" lon="3.7031">
        <ele>156.35</ele>
        <time>2013-06-16T10:24:23Z</time>
      </trkpt>
      <trkpt lat="43.92965" lon="3.70302">
        <ele>156.35</ele>
        <time>2013-06-16T10:24:24Z</time>
      </trkpt>
      <trkpt lat="43.9303" lon="3.70246">
        <ele>157.31</ele>
        <time>2013-06-16T10:24:32Z</time>
      </trkpt>
      <trkpt lat="43.93037" lon="3.70244">
        <ele>157.31</ele>
        <time>2013-06-16T10:24:33Z</time>
      </trkpt>
      <trkpt lat="43.93043" lon="3.70245">
        <ele>157.31</ele>
        <time>2013-06-16T10:24:34Z</time>
      </trkpt>
      <trkpt lat="43.93048" lon="3.70249">
        <ele>157.79</ele>
        <time>2013-06-16T10:24:35Z</time>
      </trkpt>
      <trkpt lat="43.93053" lon="3.70256">
        <ele>157.79</ele>
        <time>2013-06-16T10:24:36Z</time>
      </trkpt>
      <trkpt lat="43.93058" lon="3.70264">
        <ele>158.27</ele>
        <time>2013-06-16T10:24:37Z</time>
      </trkpt>
      <trkpt lat="43.93129" lon="3.70381">
        <ele>158.75</ele>
        <time>2013-06-16T10:24:49Z</time>
      </trkpt>
      <trkpt lat="43.93144" lon="3.70407">
        <ele>159.24</ele>
        <time>2013-06-16T10:24:52Z</time>
      </trkpt>
      <trkpt lat="43.93146" lon="3.70416">
        <ele>159.24</ele>
        <time>2013-06-16T10:24:53Z</time>
      </trkpt>
      <trkpt lat="43.93146" lon="3.70425">
        <ele>159.24</ele>
        <time>2013-06-16T10:24:54Z</time>
      </trkpt>
      <trkpt lat="43.93144" lon="3.70434">
        <ele>158.75</ele>
        <time>2013-06-16T10:24:55Z</time>
      </trkpt>
      <trkpt lat="43.9314" lon="3.70442">
        <ele>158.27</ele>
        <time>2013-06-16T10:24:56Z</time>
      </trkpt>
      <trkpt lat="43.93135" lon="3.70451">
        <ele>158.27</ele>
        <time>2013-06-16T10:24:57Z</time>
      </trkpt>
      <trkpt lat="43.93126" lon="3.70458">
        <ele>157.79</ele>
        <time>2013-06-16T10:24:58Z</time>
      </trkpt>
      <trkpt lat="43.93118" lon="3.70466">
        <ele>157.79</ele>
        <time>2013-06-16T10:24:59Z</time>
      </trkpt>
      <trkpt lat="43.93067" lon="3.70521">
        <ele>157.79</ele>
        <time>2013-06-16T10:25:06Z</time>
      </trkpt>
      <trkpt lat="43.93059" lon="3.70524">
        <ele>157.31</ele>
        <time>2013-06-16T10:25:07Z</time>
      </trkpt>
      <trkpt lat="43.93051" lon="3.70524">
        <ele>156.83</ele>
        <time>2013-06-16T10:25:08Z</time>
      </trkpt>
      <trkpt lat="43.93044" lon="3.70523">
        <ele>156.83</ele>
        <time>2013-06-16T10:25:09Z</time>
      </trkpt>
      <trkpt lat="43.93036" lon="3.70525">
        <ele>156.35</ele>
        <time>2013-06-16T10:25:10Z</time>
      </trkpt>
      <trkpt lat="43.93029" lon="3.70532">
        <ele>156.35</ele>
        <time>2013-06-16T10:25:11Z</time>
      </trkpt>
      <trkpt lat="43.93024" lon="3.70542">
        <ele>155.87</ele>
        <time>2013-06-16T10:25:12Z</time>
      </trkpt>
      <trkpt lat="43.93022" lon="3.70553">
        <ele>155.39</ele>
        <time>2013-06-16T10:25:13Z</time>
      </trkpt>
      <trkpt lat="43.93024" lon="3.70565">
        <ele>155.39</ele>
        <time>2013-06-16T10:25:14Z</time>
      </trkpt>
      <trkpt lat="43.93029" lon="3.70575">
        <ele>155.39</ele>
        <time>2013-06-16T10:25:15Z</time>
      </trkpt>
      <trkpt lat="43.93034" lon="3.70584">
        <ele>155.39</ele>
        <time>2013-06-16T10:25:16Z</time>
      </trkpt>
      <trkpt lat="43.93038" lon="3.70593">
        <ele>155.87</ele>
        <time>2013-06-16T10:25:17Z</time>
      </trkpt>
      <trkpt lat="43.93039" lon="3.70603">
        <ele>155.39</ele>
        <time>2013-06-16T10:25:18Z</time>
      </trkpt>
      <trkpt lat="43.93039" lon="3.70615">
        <ele>155.39</ele>
        <time>2013-06-16T10:25:19Z</time>
      </trkpt>
      <trkpt lat="43.93037" lon="3.70627">
        <ele>154.91</ele>
        <time>2013-06-16T10:25:20Z</time>
      </trkpt>
      <trkpt lat="43.93035" lon="3.70641">
        <ele>154.91</ele>
        <time>2013-06-16T10:25:21Z</time>
      </trkpt>
      <trkpt lat="43.93034" lon="3.70656">
        <ele>154.91</ele>
        <time>2013-06-16T10:25:22Z</time>
      </trkpt>
      <trkpt lat="43.93035" lon="3.70705">
        <ele>154.91</ele>
        <time>2013-06-16T10:25:25Z</time>
      </trkpt>
      <trkpt lat="43.93038" lon="3.70723">
        <ele>154.91</ele>
        <time>2013-06-16T10:25:26Z</time>
      </trkpt>
      <trkpt lat="43.93041" lon="3.70741">
        <ele>154.91</ele>
        <time>2013-06-16T10:25:27Z</time>
      </trkpt>
      <trkpt lat="43.93046" lon="3.70759">
        <ele>154.43</ele>
        <time>2013-06-16T10:25:28Z</time>
      </trkpt>
      <trkpt lat="43.93051" lon="3.70777">
        <ele>154.43</ele>
        <time>2013-06-16T10:25:29Z</time>
      </trkpt>
      <trkpt lat="43.93059" lon="3.70794">
        <ele>153.95</ele>
        <time>2013-06-16T10:25:30Z</time>
      </trkpt>
      <trkpt lat="43.93068" lon="3.70812">
        <ele>153.47</ele>
        <time>2013-06-16T10:25:31Z</time>
      </trkpt>
      <trkpt lat="43.93078" lon="3.70829">
        <ele>153.47</ele>
        <time>2013-06-16T10:25:32Z</time>
      </trkpt>
      <trkpt lat="43.93191" lon="3.71014">
        <ele>153.47</ele>
        <time>2013-06-16T10:25:44Z</time>
      </trkpt>
      <trkpt lat="43.93214" lon="3.71063">
        <ele>155.87</ele>
        <time>2013-06-16T10:25:48Z</time>
      </trkpt>
      <trkpt lat="43.93215" lon="3.71073">
        <ele>155.39</ele>
        <time>2013-06-16T10:25:49Z</time>
      </trkpt>
      <trkpt lat="43.93215" lon="3.71084">
        <ele>155.39</ele>
        <time>2013-06-16T10:25:50Z</time>
      </trkpt>
      <trkpt lat="43.93209" lon="3.71117">
        <ele>155.87</ele>
        <time>2013-06-16T10:25:53Z</time>
      </trkpt>
      <trkpt lat="43.93205" lon="3.71125">
        <ele>155.87</ele>
        <time>2013-06-16T10:25:54Z</time>
      </trkpt>
      <trkpt lat="43.93198" lon="3.71132">
        <ele>155.87</ele>
        <time>2013-06-16T10:25:55Z</time>
      </trkpt>
      <trkpt lat="43.93189" lon="3.71139">
        <ele>155.87</ele>
        <time>2013-06-16T10:25:56Z</time>
      </trkpt>
      <trkpt lat="43.93179" lon="3.71145">
        <ele>155.87</ele>
        <time>2013-06-16T10:25:57Z</time>
      </trkpt>
      <trkpt lat="43.93068" lon="3.71228">
        <ele>154.43</ele>
        <time>2013-06-16T10:26:09Z</time>
      </trkpt>
      <trkpt lat="43.92949" lon="3.71323">
        <ele>153.95</ele>
        <time>2013-06-16T10:26:21Z</time>
      </trkpt>
      <trkpt lat="43.92867" lon="3.71388">
        <ele>153.95</ele>
        <time>2013-06-16T10:26:29Z</time>
      </trkpt>
      <trkpt lat="43.92772" lon="3.71465">
        <ele>152.99</ele>
        <time>2013-06-16T10:26:38Z</time>
      </trkpt>
      <trkpt lat="43.92671" lon="3.71546">
        <ele>153.95</ele>
        <time>2013-06-16T10:26:48Z</time>
      </trkpt>
      <trkpt lat="43.92662" lon="3.7155">
        <ele>153.95</ele>
        <time>2013-06-16T10:26:49Z</time>
      </trkpt>
      <trkpt lat="43.92647" lon="3.7156">
        <ele>153.95</ele>
        <time>2013-06-16T10:26:51Z</time>
      </trkpt>
      <trkpt lat="43.9264" lon="3.71571">
        <ele>153.47</ele>
        <time>2013-06-16T10:26:52Z</time>
      </trkpt>
      <trkpt lat="43.92576" lon="3.71695">
        <ele>152.03</ele>
        <time>2013-06-16T10:27:00Z</time>
      </trkpt>
      <trkpt lat="43.92521" lon="3.71884">
        <ele>150.1</ele>
        <time>2013-06-16T10:27:11Z</time>
      </trkpt>
      <trkpt lat="43.92467" lon="3.72039">
        <ele>149.14</ele>
        <time>2013-06-16T10:27:22Z</time>
      </trkpt>
      <trkpt lat="43.92461" lon="3.72042">
        <ele>149.62</ele>
        <time>2013-06-16T10:27:28Z</time>
      </trkpt>
      <trkpt lat="43.92443" lon="3.72075">
        <ele>152.99</ele>
        <time>2013-06-16T10:27:42Z</time>
      </trkpt>
      <trkpt lat="43.92395" lon="3.7216">
        <ele>152.99</ele>
        <time>2013-06-16T10:27:50Z</time>
      </trkpt>
      <trkpt lat="43.92323" lon="3.72269">
        <ele>150.58</ele>
        <time>2013-06-16T10:27:59Z</time>
      </trkpt>
      <trkpt lat="43.92313" lon="3.72274">
        <ele>150.1</ele>
        <time>2013-06-16T10:28:00Z</time>
      </trkpt>
      <trkpt lat="43.92302" lon="3.72278">
        <ele>149.62</ele>
        <time>2013-06-16T10:28:01Z</time>
      </trkpt>
      <trkpt lat="43.92292" lon="3.72281">
        <ele>149.14</ele>
        <time>2013-06-16T10:28:02Z</time>
      </trkpt>
      <trkpt lat="43.92283" lon="3.72283">
        <ele>148.66</ele>
        <time>2013-06-16T10:28:03Z</time>
      </trkpt>
      <trkpt lat="43.92247" lon="3.72291">
        <ele>147.7</ele>
        <time>2013-06-16T10:28:08Z</time>
      </trkpt>
      <trkpt lat="43.92239" lon="3.72295">
        <ele>148.18</ele>
        <time>2013-06-16T10:28:09Z</time>
      </trkpt>
      <trkpt lat="43.92233" lon="3.72301">
        <ele>147.7</ele>
        <time>2013-06-16T10:28:10Z</time>
      </trkpt>
      <trkpt lat="43.92229" lon="3.7231">
        <ele>148.18</ele>
        <time>2013-06-16T10:28:11Z</time>
      </trkpt>
      <trkpt lat="43.92225" lon="3.72316">
        <ele>148.18</ele>
        <time>2013-06-16T10:28:12Z</time>
      </trkpt>
      <trkpt lat="43.92206" lon="3.72355">
        <ele>147.22</ele>
        <time>2013-06-16T10:28:17Z</time>
      </trkpt>
      <trkpt lat="43.92204" lon="3.72362">
        <ele>146.74</ele>
        <time>2013-06-16T10:28:18Z</time>
      </trkpt>
      <trkpt lat="43.92199" lon="3.72395">
        <ele>145.3</ele>
        <time>2013-06-16T10:28:27Z</time>
      </trkpt>
      <trkpt lat="43.92197" lon="3.72428">
        <ele>145.3</ele>
        <time>2013-06-16T10:28:37Z</time>
      </trkpt>
      <trkpt lat="43.92185" lon="3.72486">
        <ele>145.78</ele>
        <time>2013-06-16T10:28:48Z</time>
      </trkpt>
      <trkpt lat="43.92172" lon="3.72512">
        <ele>146.26</ele>
        <time>2013-06-16T10:28:52Z</time>
      </trkpt>
      <trkpt lat="43.92168" lon="3.72519">
        <ele>146.26</ele>
        <time>2013-06-16T10:28:53Z</time>
      </trkpt>
      <trkpt lat="43.92112" lon="3.72569">
        <ele>148.66</ele>
        <time>2013-06-16T10:29:00Z</time>
      </trkpt>
      <trkpt lat="43.92097" lon="3.72568">
        <ele>148.18</ele>
        <time>2013-06-16T10:29:01Z</time>
      </trkpt>
      <trkpt lat="43.92084" lon="3.72565">
        <ele>148.18</ele>
        <time>2013-06-16T10:29:02Z</time>
      </trkpt>
      <trkpt lat="43.92072" lon="3.7256">
        <ele>148.18</ele>
        <time>2013-06-16T10:29:03Z</time>
      </trkpt>
      <trkpt lat="43.92061" lon="3.72556">
        <ele>147.7</ele>
        <time>2013-06-16T10:29:04Z</time>
      </trkpt>
      <trkpt lat="43.92049" lon="3.72555">
        <ele>147.7</ele>
        <time>2013-06-16T10:29:05Z</time>
      </trkpt>
      <trkpt lat="43.92037" lon="3.72558">
        <ele>147.7</ele>
        <time>2013-06-16T10:29:06Z</time>
      </trkpt>
      <trkpt lat="43.92024" lon="3.72565">
        <ele>147.7</ele>
        <time>2013-06-16T10:29:07Z</time>
      </trkpt>
      <trkpt lat="43.9201" lon="3.72574">
        <ele>147.22</ele>
        <time>2013-06-16T10:29:08Z</time>
      </trkpt>
      <trkpt lat="43.91881" lon="3.7267">
        <ele>146.26</ele>
        <time>2013-06-16T10:29:17Z</time>
      </trkpt>
      <trkpt lat="43.91871" lon="3.72686">
        <ele>146.26</ele>
        <time>2013-06-16T10:29:18Z</time>
      </trkpt>
      <trkpt lat="43.91861" lon="3.72706">
        <ele>145.78</ele>
        <time>2013-06-16T10:29:19Z</time>
      </trkpt>
      <trkpt lat="43.91851" lon="3.72726">
        <ele>145.78</ele>
        <time>2013-06-16T10:29:20Z</time>
      </trkpt>
      <trkpt lat="43.9178" lon="3.72803">
        <ele>145.78</ele>
        <time>2013-06-16T10:29:25Z</time>
      </trkpt>
      <trkpt lat="43.91762" lon="3.72806">
        <ele>145.78</ele>
        <time>2013-06-16T10:29:26Z</time>
      </trkpt>
      <trkpt lat="43.91741" lon="3.72802">
        <ele>145.3</ele>
        <time>2013-06-16T10:29:27Z</time>
      </trkpt>
      <trkpt lat="43.91721" lon="3.72796">
        <ele>145.3</ele>
        <time>2013-06-16T10:29:28Z</time>
      </trkpt>
      <trkpt lat="43.91703" lon="3.7279">
        <ele>145.3</ele>
        <time>2013-06-16T10:29:29Z</time>
      </trkpt>
      <trkpt lat="43.916" lon="3.72768">
        <ele>144.34</ele>
        <time>2013-06-16T10:29:36Z</time>
      </trkpt>
      <trkpt lat="43.91587" lon="3.72772">
        <ele>144.34</ele>
        <time>2013-06-16T10:29:37Z</time>
      </trkpt>
      <trkpt lat="43.91575" lon="3.72781">
        <ele>143.85</ele>
        <time>2013-06-16T10:29:38Z</time>
      </trkpt>
      <trkpt lat="43.91564" lon="3.72796">
        <ele>142.89</ele>
        <time>2013-06-16T10:29:39Z</time>
      </trkpt>
      <trkpt lat="43.9156" lon="3.72812">
        <ele>142.41</ele>
        <time>2013-06-16T10:29:40Z</time>
      </trkpt>
      <trkpt lat="43.91559" lon="3.72829">
        <ele>141.45</ele>
        <time>2013-06-16T10:29:41Z</time>
      </trkpt>
      <trkpt lat="43.91563" lon="3.72847">
        <ele>140.49</ele>
        <time>2013-06-16T10:29:42Z</time>
      </trkpt>
      <trkpt lat="43.91578" lon="3.72867">
        <ele>141.93</ele>
        <time>2013-06-16T10:29:43Z</time>
      </trkpt>
      <trkpt lat="43.91589" lon="3.72886">
        <ele>142.41</ele>
        <time>2013-06-16T10:29:44Z</time>
      </trkpt>
      <trkpt lat="43.91598" lon="3.72903">
        <ele>141.93</ele>
        <time>2013-06-16T10:29:45Z</time>
      </trkpt>
      <trkpt lat="43.91648" lon="3.73041">
        <ele>143.37</ele>
        <time>2013-06-16T10:29:50Z</time>
      </trkpt>
      <trkpt lat="43.91683" lon="3.73237">
        <ele>142.89</ele>
        <time>2013-06-16T10:29:56Z</time>
      </trkpt>
      <trkpt lat="43.91682" lon="3.7327">
        <ele>142.89</ele>
        <time>2013-06-16T10:29:57Z</time>
      </trkpt>
      <trkpt lat="43.91666" lon="3.73396">
        <ele>142.89</ele>
        <time>2013-06-16T10:30:01Z</time>
      </trkpt>
      <trkpt lat="43.91658" lon="3.73425">
        <ele>142.89</ele>
        <time>2013-06-16T10:30:02Z</time>
      </trkpt>
      <trkpt lat="43.91648" lon="3.73454">
        <ele>142.89</ele>
        <time>2013-06-16T10:30:03Z</time>
      </trkpt>
      <trkpt lat="43.91543" lon="3.73701">
        <ele>144.34</ele>
        <time>2013-06-16T10:30:12Z</time>
      </trkpt>
      <trkpt lat="43.91526" lon="3.7372">
        <ele>144.34</ele>
        <time>2013-06-16T10:30:13Z</time>
      </trkpt>
      <trkpt lat="43.91457" lon="3.73784">
        <ele>141.93</ele>
        <time>2013-06-16T10:30:17Z</time>
      </trkpt>
      <trkpt lat="43.91435" lon="3.73795">
        <ele>141.93</ele>
        <time>2013-06-16T10:30:18Z</time>
      </trkpt>
      <trkpt lat="43.91413" lon="3.73805">
        <ele>141.93</ele>
        <time>2013-06-16T10:30:19Z</time>
      </trkpt>
      <trkpt lat="43.91392" lon="3.73812">
        <ele>141.93</ele>
        <time>2013-06-16T10:30:20Z</time>
      </trkpt>
      <trkpt lat="43.91372" lon="3.73817">
        <ele>141.45</ele>
        <time>2013-06-16T10:30:21Z</time>
      </trkpt>
      <trkpt lat="43.91352" lon="3.7382">
        <ele>140.97</ele>
        <time>2013-06-16T10:30:22Z</time>
      </trkpt>
      <trkpt lat="43.91333" lon="3.73817">
        <ele>140.49</ele>
        <time>2013-06-16T10:30:23Z</time>
      </trkpt>
      <trkpt lat="43.91315" lon="3.73809">
        <ele>139.53</ele>
        <time>2013-06-16T10:30:24Z</time>
      </trkpt>
      <trkpt lat="43.91296" lon="3.73798">
        <ele>138.57</ele>
        <time>2013-06-16T10:30:25Z</time>
      </trkpt>
      <trkpt lat="43.91277" lon="3.73784">
        <ele>137.13</ele>
        <time>2013-06-16T10:30:26Z</time>
      </trkpt>
      <trkpt lat="43.91258" lon="3.73766">
        <ele>136.16</ele>
        <time>2013-06-16T10:30:27Z</time>
      </trkpt>
      <trkpt lat="43.9124" lon="3.73748">
        <ele>134.72</ele>
        <time>2013-06-16T10:30:28Z</time>
      </trkpt>
      <trkpt lat="43.91141" lon="3.73682">
        <ele>135.2</ele>
        <time>2013-06-16T10:30:33Z</time>
      </trkpt>
      <trkpt lat="43.91062" lon="3.73653">
        <ele>140.49</ele>
        <time>2013-06-16T10:30:37Z</time>
      </trkpt>
      <trkpt lat="43.91043" lon="3.73654">
        <ele>140.01</ele>
        <time>2013-06-16T10:30:38Z</time>
      </trkpt>
      <trkpt lat="43.91024" lon="3.73657">
        <ele>140.01</ele>
        <time>2013-06-16T10:30:39Z</time>
      </trkpt>
      <trkpt lat="43.91005" lon="3.73662">
        <ele>140.01</ele>
        <time>2013-06-16T10:30:40Z</time>
      </trkpt>
      <trkpt lat="43.90987" lon="3.73669">
        <ele>140.01</ele>
        <time>2013-06-16T10:30:41Z</time>
      </trkpt>
      <trkpt lat="43.90971" lon="3.73681">
        <ele>139.53</ele>
        <time>2013-06-16T10:30:42Z</time>
      </trkpt>
      <trkpt lat="43.90955" lon="3.73698">
        <ele>139.53</ele>
        <time>2013-06-16T10:30:43Z</time>
      </trkpt>
      <trkpt lat="43.90935" lon="3.73715">
        <ele>139.53</ele>
        <time>2013-06-16T10:30:44Z</time>
      </trkpt>
      <trkpt lat="43.90815" lon="3.73784">
        <ele>138.57</ele>
        <time>2013-06-16T10:30:50Z</time>
      </trkpt>
      <trkpt lat="43.90794" lon="3.73783">
        <ele>138.57</ele>
        <time>2013-06-16T10:30:51Z</time>
      </trkpt>
      <trkpt lat="43.90772" lon="3.73778">
        <ele>139.53</ele>
        <time>2013-06-16T10:30:52Z</time>
      </trkpt>
      <trkpt lat="43.90752" lon="3.73774">
        <ele>140.01</ele>
        <time>2013-06-16T10:30:53Z</time>
      </trkpt>
      <trkpt lat="43.90734" lon="3.73768">
        <ele>140.97</ele>
        <time>2013-06-16T10:30:54Z</time>
      </trkpt>
      <trkpt lat="43.90719" lon="3.73763">
        <ele>141.45</ele>
        <time>2013-06-16T10:30:55Z</time>
      </trkpt>
      <trkpt lat="43.90682" lon="3.73752">
        <ele>142.89</ele>
        <time>2013-06-16T10:30:59Z</time>
      </trkpt>
      <trkpt lat="43.90575" lon="3.73754">
        <ele>145.78</ele>
        <time>2013-06-16T10:31:09Z</time>
      </trkpt>
      <trkpt lat="43.90417" lon="3.738">
        <ele>148.18</ele>
        <time>2013-06-16T10:31:23Z</time>
      </trkpt>
      <trkpt lat="43.90338" lon="3.73794">
        <ele>147.22</ele>
        <time>2013-06-16T10:31:31Z</time>
      </trkpt>
      <trkpt lat="43.90234" lon="3.73766">
        <ele>145.3</ele>
        <time>2013-06-16T10:31:40Z</time>
      </trkpt>
      <trkpt lat="43.90135" lon="3.73739">
        <ele>143.37</ele>
        <time>2013-06-16T10:31:49Z</time>
      </trkpt>
      <trkpt lat="43.90035" lon="3.73712">
        <ele>141.45</ele>
        <time>2013-06-16T10:31:58Z</time>
      </trkpt>
      <trkpt lat="43.89946" lon="3.73688">
        <ele>140.97</ele>
        <time>2013-06-16T10:32:07Z</time>
      </trkpt>
      <trkpt lat="43.89919" lon="3.73681">
        <ele>140.01</ele>
        <time>2013-06-16T10:32:13Z</time>
      </trkpt>
      <trkpt lat="43.89869" lon="3.7367">
        <ele>140.01</ele>
        <time>2013-06-16T10:32:20Z</time>
      </trkpt>
      <trkpt lat="43.89859" lon="3.73671">
        <ele>140.01</ele>
        <time>2013-06-16T10:32:21Z</time>
      </trkpt>
      <trkpt lat="43.89757" lon="3.73705">
        <ele>140.97</ele>
        <time>2013-06-16T10:32:31Z</time>
      </trkpt>
      <trkpt lat="43.89609" lon="3.7375">
        <ele>143.37</ele>
        <time>2013-06-16T10:32:46Z</time>
      </trkpt>
      <trkpt lat="43.89503" lon="3.73783">
        <ele>145.78</ele>
        <time>2013-06-16T10:32:57Z</time>
      </trkpt>
      <trkpt lat="43.89472" lon="3.73792">
        <ele>145.3</ele>
        <time>2013-06-16T10:33:04Z</time>
      </trkpt>
      <trkpt lat="43.89463" lon="3.73797">
        <ele>145.78</ele>
        <time>2013-06-16T10:33:07Z</time>
      </trkpt>
      <trkpt lat="43.89444" lon="3.73804">
        <ele>145.3</ele>
        <time>2013-06-16T10:33:09Z</time>
      </trkpt>
      <trkpt lat="43.893" lon="3.73849">
        <ele>140.97</ele>
        <time>2013-06-16T10:33:21Z</time>
      </trkpt>
      <trkpt lat="43.89193" lon="3.73883">
        <ele>140.01</ele>
        <time>2013-06-16T10:33:31Z</time>
      </trkpt>
      <trkpt lat="43.89066" lon="3.73923">
        <ele>139.53</ele>
        <time>2013-06-16T10:33:40Z</time>
      </trkpt>
      <trkpt lat="43.88956" lon="3.73955">
        <ele>138.57</ele>
        <time>2013-06-16T10:33:50Z</time>
      </trkpt>
      <trkpt lat="43.88949" lon="3.73954">
        <ele>138.57</ele>
        <time>2013-06-16T10:33:51Z</time>
      </trkpt>
      <trkpt lat="43.88944" lon="3.7395">
        <ele>138.57</ele>
        <time>2013-06-16T10:33:52Z</time>
      </trkpt>
      <trkpt lat="43.88938" lon="3.73947">
        <ele>138.57</ele>
        <time>2013-06-16T10:33:53Z</time>
      </trkpt>
      <trkpt lat="43.88933" lon="3.73945">
        <ele>138.57</ele>
        <time>2013-06-16T10:33:54Z</time>
      </trkpt>
      <trkpt lat="43.88928" lon="3.73947">
        <ele>138.57</ele>
        <time>2013-06-16T10:33:55Z</time>
      </trkpt>
      <trkpt lat="43.88924" lon="3.73953">
        <ele>138.57</ele>
        <time>2013-06-16T10:33:56Z</time>
      </trkpt>
      <trkpt lat="43.88921" lon="3.7396">
        <ele>138.57</ele>
        <time>2013-06-16T10:33:57Z</time>
      </trkpt>
      <trkpt lat="43.88916" lon="3.73969">
        <ele>138.09</ele>
        <time>2013-06-16T10:33:58Z</time>
      </trkpt>
      <trkpt lat="43.88908" lon="3.73977">
        <ele>138.09</ele>
        <time>2013-06-16T10:33:59Z</time>
      </trkpt>
      <trkpt lat="43.88898" lon="3.73986">
        <ele>138.57</ele>
        <time>2013-06-16T10:34:00Z</time>
      </trkpt>
      <trkpt lat="43.88886" lon="3.73993">
        <ele>138.57</ele>
        <time>2013-06-16T10:34:01Z</time>
      </trkpt>
      <trkpt lat="43.88874" lon="3.73999">
        <ele>138.57</ele>
        <time>2013-06-16T10:34:02Z</time>
      </trkpt>
      <trkpt lat="43.88725" lon="3.74058">
        <ele>142.89</ele>
        <time>2013-06-16T10:34:13Z</time>
      </trkpt>
      <trkpt lat="43.88588" lon="3.74045">
        <ele>147.22</ele>
        <time>2013-06-16T10:34:21Z</time>
      </trkpt>
      <trkpt lat="43.88423" lon="3.74068">
        <ele>153.95</ele>
        <time>2013-06-16T10:34:30Z</time>
      </trkpt>
      <trkpt lat="43.88333" lon="3.7415">
        <ele>158.75</ele>
        <time>2013-06-16T10:34:36Z</time>
      </trkpt>
      <trkpt lat="43.88265" lon="3.74267">
        <ele>161.64</ele>
        <time>2013-06-16T10:34:42Z</time>
      </trkpt>
      <trkpt lat="43.88173" lon="3.74393">
        <ele>165.96</ele>
        <time>2013-06-16T10:34:49Z</time>
      </trkpt>
      <trkpt lat="43.88036" lon="3.74476">
        <ele>169.81</ele>
        <time>2013-06-16T10:34:57Z</time>
      </trkpt>
      <trkpt lat="43.87905" lon="3.74495">
        <ele>173.66</ele>
        <time>2013-06-16T10:35:04Z</time>
      </trkpt>
      <trkpt lat="43.87887" lon="3.7449">
        <ele>174.14</ele>
        <time>2013-06-16T10:35:05Z</time>
      </trkpt>
      <trkpt lat="43.8787" lon="3.74482">
        <ele>174.62</ele>
        <time>2013-06-16T10:35:06Z</time>
      </trkpt>
      <trkpt lat="43.87853" lon="3.74472">
        <ele>175.1</ele>
        <time>2013-06-16T10:35:07Z</time>
      </trkpt>
      <trkpt lat="43.87838" lon="3.7446">
        <ele>175.58</ele>
        <time>2013-06-16T10:35:08Z</time>
      </trkpt>
      <trkpt lat="43.87822" lon="3.74445">
        <ele>176.06</ele>
        <time>2013-06-16T10:35:09Z</time>
      </trkpt>
      <trkpt lat="43.87808" lon="3.74428">
        <ele>176.54</ele>
        <time>2013-06-16T10:35:10Z</time>
      </trkpt>
      <trkpt lat="43.87794" lon="3.74409">
        <ele>177.02</ele>
        <time>2013-06-16T10:35:11Z</time>
      </trkpt>
      <trkpt lat="43.87782" lon="3.74387">
        <ele>177.5</ele>
        <time>2013-06-16T10:35:12Z</time>
      </trkpt>
      <trkpt lat="43.87772" lon="3.74364">
        <ele>177.98</ele>
        <time>2013-06-16T10:35:13Z</time>
      </trkpt>
      <trkpt lat="43.87727" lon="3.74279">
        <ele>179.42</ele>
        <time>2013-06-16T10:35:17Z</time>
      </trkpt>
      <trkpt lat="43.87714" lon="3.74261">
        <ele>179.9</ele>
        <time>2013-06-16T10:35:18Z</time>
      </trkpt>
      <trkpt lat="43.87699" lon="3.74244">
        <ele>180.38</ele>
        <time>2013-06-16T10:35:19Z</time>
      </trkpt>
      <trkpt lat="43.87683" lon="3.74229">
        <ele>180.87</ele>
        <time>2013-06-16T10:35:20Z</time>
      </trkpt>
      <trkpt lat="43.87666" lon="3.74216">
        <ele>181.35</ele>
        <time>2013-06-16T10:35:21Z</time>
      </trkpt>
      <trkpt lat="43.87648" lon="3.74205">
        <ele>181.83</ele>
        <time>2013-06-16T10:35:22Z</time>
      </trkpt>
      <trkpt lat="43.8763" lon="3.74196">
        <ele>182.31</ele>
        <time>2013-06-16T10:35:23Z</time>
      </trkpt>
      <trkpt lat="43.87612" lon="3.74189">
        <ele>183.27</ele>
        <time>2013-06-16T10:35:24Z</time>
      </trkpt>
      <trkpt lat="43.87593" lon="3.74185">
        <ele>183.75</ele>
        <time>2013-06-16T10:35:25Z</time>
      </trkpt>
      <trkpt lat="43.87574" lon="3.74183">
        <ele>184.23</ele>
        <time>2013-06-16T10:35:26Z</time>
      </trkpt>
      <trkpt lat="43.87555" lon="3.74184">
        <ele>184.71</ele>
        <time>2013-06-16T10:35:27Z</time>
      </trkpt>
      <trkpt lat="43.87535" lon="3.74186">
        <ele>185.67</ele>
        <time>2013-06-16T10:35:28Z</time>
      </trkpt>
      <trkpt lat="43.87517" lon="3.7419">
        <ele>185.67</ele>
        <time>2013-06-16T10:35:29Z</time>
      </trkpt>
      <trkpt lat="43.87499" lon="3.74195">
        <ele>186.15</ele>
        <time>2013-06-16T10:35:30Z</time>
      </trkpt>
      <trkpt lat="43.87271" lon="3.74244">
        <ele>191.92</ele>
        <time>2013-06-16T10:35:42Z</time>
      </trkpt>
      <trkpt lat="43.87101" lon="3.74225">
        <ele>197.21</ele>
        <time>2013-06-16T10:35:50Z</time>
      </trkpt>
      <trkpt lat="43.86961" lon="3.74175">
        <ele>202.01</ele>
        <time>2013-06-16T10:35:57Z</time>
      </trkpt>
      <trkpt lat="43.86806" lon="3.74078">
        <ele>209.22</ele>
        <time>2013-06-16T10:36:05Z</time>
      </trkpt>
      <trkpt lat="43.8669" lon="3.74028">
        <ele>214.03</ele>
        <time>2013-06-16T10:36:11Z</time>
      </trkpt>
      <trkpt lat="43.8657" lon="3.74052">
        <ele>217.4</ele>
        <time>2013-06-16T10:36:17Z</time>
      </trkpt>
      <trkpt lat="43.86404" lon="3.74167">
        <ele>222.68</ele>
        <time>2013-06-16T10:36:26Z</time>
      </trkpt>
      <trkpt lat="43.8626" lon="3.74279">
        <ele>227.49</ele>
        <time>2013-06-16T10:36:33Z</time>
      </trkpt>
      <trkpt lat="43.86205" lon="3.74305">
        <ele>230.37</ele>
        <time>2013-06-16T10:36:35Z</time>
      </trkpt>
      <trkpt lat="43.86176" lon="3.74311">
        <ele>232.78</ele>
        <time>2013-06-16T10:36:36Z</time>
      </trkpt>
      <trkpt lat="43.86146" lon="3.74312">
        <ele>235.66</ele>
        <time>2013-06-16T10:36:37Z</time>
      </trkpt>
      <trkpt lat="43.86116" lon="3.74308">
        <ele>238.54</ele>
        <time>2013-06-16T10:36:38Z</time>
      </trkpt>
      <trkpt lat="43.86086" lon="3.74301">
        <ele>241.43</ele>
        <time>2013-06-16T10:36:39Z</time>
      </trkpt>
      <trkpt lat="43.86056" lon="3.74288">
        <ele>243.83</ele>
        <time>2013-06-16T10:36:40Z</time>
      </trkpt>
      <trkpt lat="43.86027" lon="3.7427">
        <ele>247.2</ele>
        <time>2013-06-16T10:36:41Z</time>
      </trkpt>
      <trkpt lat="43.85999" lon="3.7425">
        <ele>250.08</ele>
        <time>2013-06-16T10:36:42Z</time>
      </trkpt>
      <trkpt lat="43.85971" lon="3.7423">
        <ele>252.96</ele>
        <time>2013-06-16T10:36:43Z</time>
      </trkpt>
      <trkpt lat="43.85819" lon="3.74177">
        <ele>266.42</ele>
        <time>2013-06-16T10:36:48Z</time>
      </trkpt>
      <trkpt lat="43.85786" lon="3.74177">
        <ele>269.31</ele>
        <time>2013-06-16T10:36:49Z</time>
      </trkpt>
      <trkpt lat="43.85752" lon="3.74179">
        <ele>272.19</ele>
        <time>2013-06-16T10:36:50Z</time>
      </trkpt>
      <trkpt lat="43.85485" lon="3.74211">
        <ele>295.74</ele>
        <time>2013-06-16T10:36:58Z</time>
      </trkpt>
      <trkpt lat="43.85294" lon="3.7417">
        <ele>312.09</ele>
        <time>2013-06-16T10:37:04Z</time>
      </trkpt>
      <trkpt lat="43.85033" lon="3.74035">
        <ele>332.27</ele>
        <time>2013-06-16T10:37:13Z</time>
      </trkpt>
      <trkpt lat="43.84914" lon="3.73988">
        <ele>335.16</ele>
        <time>2013-06-16T10:37:17Z</time>
      </trkpt>
      <trkpt lat="43.84885" lon="3.73986">
        <ele>334.2</ele>
        <time>2013-06-16T10:37:18Z</time>
      </trkpt>
      <trkpt lat="43.84855" lon="3.73989">
        <ele>332.75</ele>
        <time>2013-06-16T10:37:19Z</time>
      </trkpt>
      <trkpt lat="43.84824" lon="3.73995">
        <ele>331.31</ele>
        <time>2013-06-16T10:37:20Z</time>
      </trkpt>
      <trkpt lat="43.84791" lon="3.74005">
        <ele>329.39</ele>
        <time>2013-06-16T10:37:21Z</time>
      </trkpt>
      <trkpt lat="43.84759" lon="3.74017">
        <ele>326.99</ele>
        <time>2013-06-16T10:37:22Z</time>
      </trkpt>
      <trkpt lat="43.84726" lon="3.74031">
        <ele>324.1</ele>
        <time>2013-06-16T10:37:23Z</time>
      </trkpt>
      <trkpt lat="43.84472" lon="3.74168">
        <ele>309.2</ele>
        <time>2013-06-16T10:37:31Z</time>
      </trkpt>
      <trkpt lat="43.84123" lon="3.74357">
        <ele>277</ele>
        <time>2013-06-16T10:37:43Z</time>
      </trkpt>
      <trkpt lat="43.83905" lon="3.74429">
        <ele>260.65</ele>
        <time>2013-06-16T10:37:51Z</time>
      </trkpt>
      <trkpt lat="43.8376" lon="3.74397">
        <ele>252.96</ele>
        <time>2013-06-16T10:37:56Z</time>
      </trkpt>
      <trkpt lat="43.8357" lon="3.74278">
        <ele>245.27</ele>
        <time>2013-06-16T10:38:03Z</time>
      </trkpt>
      <trkpt lat="43.8343" lon="3.74231">
        <ele>239.99</ele>
        <time>2013-06-16T10:38:08Z</time>
      </trkpt>
      <trkpt lat="43.83402" lon="3.74235">
        <ele>238.54</ele>
        <time>2013-06-16T10:38:09Z</time>
      </trkpt>
      <trkpt lat="43.83374" lon="3.74244">
        <ele>237.1</ele>
        <time>2013-06-16T10:38:10Z</time>
      </trkpt>
      <trkpt lat="43.83346" lon="3.74258">
        <ele>235.18</ele>
        <time>2013-06-16T10:38:11Z</time>
      </trkpt>
      <trkpt lat="43.8332" lon="3.74278">
        <ele>234.22</ele>
        <time>2013-06-16T10:38:12Z</time>
      </trkpt>
      <trkpt lat="43.83294" lon="3.74301">
        <ele>232.3</ele>
        <time>2013-06-16T10:38:13Z</time>
      </trkpt>
      <trkpt lat="43.83268" lon="3.74325">
        <ele>230.85</ele>
        <time>2013-06-16T10:38:14Z</time>
      </trkpt>
      <trkpt lat="43.83081" lon="3.74495">
        <ele>220.76</ele>
        <time>2013-06-16T10:38:22Z</time>
      </trkpt>
      <trkpt lat="43.83055" lon="3.74505">
        <ele>219.8</ele>
        <time>2013-06-16T10:38:23Z</time>
      </trkpt>
      <trkpt lat="43.83028" lon="3.74509">
        <ele>219.8</ele>
        <time>2013-06-16T10:38:24Z</time>
      </trkpt>
      <trkpt lat="43.82999" lon="3.74509">
        <ele>219.32</ele>
        <time>2013-06-16T10:38:25Z</time>
      </trkpt>
      <trkpt lat="43.82968" lon="3.74508">
        <ele>219.32</ele>
        <time>2013-06-16T10:38:26Z</time>
      </trkpt>
      <trkpt lat="43.82938" lon="3.74505">
        <ele>218.36</ele>
        <time>2013-06-16T10:38:27Z</time>
      </trkpt>
      <trkpt lat="43.82557" lon="3.74471">
        <ele>215.95</ele>
        <time>2013-06-16T10:38:39Z</time>
      </trkpt>
      <trkpt lat="43.82152" lon="3.74455">
        <ele>216.43</ele>
        <time>2013-06-16T10:38:52Z</time>
      </trkpt>
      <trkpt lat="43.81941" lon="3.74444">
        <ele>208.26</ele>
        <time>2013-06-16T10:38:59Z</time>
      </trkpt>
      <trkpt lat="43.81913" lon="3.74444">
        <ele>206.82</ele>
        <time>2013-06-16T10:39:00Z</time>
      </trkpt>
      <trkpt lat="43.81884" lon="3.74448">
        <ele>205.38</ele>
        <time>2013-06-16T10:39:01Z</time>
      </trkpt>
      <trkpt lat="43.81801" lon="3.74452">
        <ele>201.53</ele>
        <time>2013-06-16T10:39:04Z</time>
      </trkpt>
      <trkpt lat="43.81774" lon="3.74443">
        <ele>200.09</ele>
        <time>2013-06-16T10:39:05Z</time>
      </trkpt>
      <trkpt lat="43.81746" lon="3.7443">
        <ele>199.13</ele>
        <time>2013-06-16T10:39:06Z</time>
      </trkpt>
      <trkpt lat="43.81589" lon="3.74346">
        <ele>191.92</ele>
        <time>2013-06-16T10:39:12Z</time>
      </trkpt>
      <trkpt lat="43.81566" lon="3.7434">
        <ele>190.96</ele>
        <time>2013-06-16T10:39:13Z</time>
      </trkpt>
      <trkpt lat="43.81541" lon="3.7434">
        <ele>190</ele>
        <time>2013-06-16T10:39:14Z</time>
      </trkpt>
      <trkpt lat="43.81514" lon="3.74343">
        <ele>188.56</ele>
        <time>2013-06-16T10:39:15Z</time>
      </trkpt>
      <trkpt lat="43.81486" lon="3.74349">
        <ele>187.59</ele>
        <time>2013-06-16T10:39:16Z</time>
      </trkpt>
      <trkpt lat="43.81457" lon="3.74357">
        <ele>186.15</ele>
        <time>2013-06-16T10:39:17Z</time>
      </trkpt>
      <trkpt lat="43.81318" lon="3.74386">
        <ele>180.38</ele>
        <time>2013-06-16T10:39:23Z</time>
      </trkpt>
      <trkpt lat="43.813" lon="3.7438">
        <ele>179.42</ele>
        <time>2013-06-16T10:39:24Z</time>
      </trkpt>
      <trkpt lat="43.81282" lon="3.74368">
        <ele>178.94</ele>
        <time>2013-06-16T10:39:25Z</time>
      </trkpt>
      <trkpt lat="43.81265" lon="3.74352">
        <ele>178.46</ele>
        <time>2013-06-16T10:39:26Z</time>
      </trkpt>
      <trkpt lat="43.8125" lon="3.74332">
        <ele>177.98</ele>
        <time>2013-06-16T10:39:27Z</time>
      </trkpt>
      <trkpt lat="43.81237" lon="3.74311">
        <ele>177.5</ele>
        <time>2013-06-16T10:39:28Z</time>
      </trkpt>
      <trkpt lat="43.81224" lon="3.74286">
        <ele>177.5</ele>
        <time>2013-06-16T10:39:29Z</time>
      </trkpt>
      <trkpt lat="43.81212" lon="3.74261">
        <ele>177.02</ele>
        <time>2013-06-16T10:39:30Z</time>
      </trkpt>
      <trkpt lat="43.81163" lon="3.74169">
        <ele>177.02</ele>
        <time>2013-06-16T10:39:34Z</time>
      </trkpt>
      <trkpt lat="43.81145" lon="3.74153">
        <ele>177.98</ele>
        <time>2013-06-16T10:39:35Z</time>
      </trkpt>
      <trkpt lat="43.81123" lon="3.74139">
        <ele>178.46</ele>
        <time>2013-06-16T10:39:36Z</time>
      </trkpt>
      <trkpt lat="43.81101" lon="3.74129">
        <ele>178.46</ele>
        <time>2013-06-16T10:39:37Z</time>
      </trkpt>
      <trkpt lat="43.81077" lon="3.74124">
        <ele>178.94</ele>
        <time>2013-06-16T10:39:38Z</time>
      </trkpt>
      <trkpt lat="43.81052" lon="3.74123">
        <ele>179.42</ele>
        <time>2013-06-16T10:39:39Z</time>
      </trkpt>
      <trkpt lat="43.81027" lon="3.74127">
        <ele>179.42</ele>
        <time>2013-06-16T10:39:40Z</time>
      </trkpt>
      <trkpt lat="43.81002" lon="3.74134">
        <ele>179.42</ele>
        <time>2013-06-16T10:39:41Z</time>
      </trkpt>
      <trkpt lat="43.80978" lon="3.74143">
        <ele>180.87</ele>
        <time>2013-06-16T10:39:42Z</time>
      </trkpt>
      <trkpt lat="43.80903" lon="3.74161">
        <ele>183.75</ele>
        <time>2013-06-16T10:39:45Z</time>
      </trkpt>
      <trkpt lat="43.80877" lon="3.74157">
        <ele>184.23</ele>
        <time>2013-06-16T10:39:46Z</time>
      </trkpt>
      <trkpt lat="43.80851" lon="3.74148">
        <ele>184.71</ele>
        <time>2013-06-16T10:39:47Z</time>
      </trkpt>
      <trkpt lat="43.80825" lon="3.74135">
        <ele>185.19</ele>
        <time>2013-06-16T10:39:48Z</time>
      </trkpt>
      <trkpt lat="43.80797" lon="3.74113">
        <ele>186.15</ele>
        <time>2013-06-16T10:39:49Z</time>
      </trkpt>
      <trkpt lat="43.8077" lon="3.74089">
        <ele>187.11</ele>
        <time>2013-06-16T10:39:50Z</time>
      </trkpt>
      <trkpt lat="43.80744" lon="3.74063">
        <ele>188.08</ele>
        <time>2013-06-16T10:39:51Z</time>
      </trkpt>
      <trkpt lat="43.80717" lon="3.74037">
        <ele>189.04</ele>
        <time>2013-06-16T10:39:52Z</time>
      </trkpt>
      <trkpt lat="43.80496" lon="3.73845">
        <ele>196.73</ele>
        <time>2013-06-16T10:40:00Z</time>
      </trkpt>
      <trkpt lat="43.80466" lon="3.73832">
        <ele>197.69</ele>
        <time>2013-06-16T10:40:01Z</time>
      </trkpt>
      <trkpt lat="43.80434" lon="3.73823">
        <ele>198.17</ele>
        <time>2013-06-16T10:40:02Z</time>
      </trkpt>
      <trkpt lat="43.804" lon="3.73817">
        <ele>199.61</ele>
        <time>2013-06-16T10:40:03Z</time>
      </trkpt>
      <trkpt lat="43.80367" lon="3.7381">
        <ele>200.09</ele>
        <time>2013-06-16T10:40:04Z</time>
      </trkpt>
      <trkpt lat="43.80187" lon="3.73786">
        <ele>204.9</ele>
        <time>2013-06-16T10:40:10Z</time>
      </trkpt>
      <trkpt lat="43.80008" lon="3.73833">
        <ele>205.86</ele>
        <time>2013-06-16T10:40:16Z</time>
      </trkpt>
      <trkpt lat="43.79788" lon="3.73964">
        <ele>198.17</ele>
        <time>2013-06-16T10:40:24Z</time>
      </trkpt>
      <trkpt lat="43.79653" lon="3.73995">
        <ele>190</ele>
        <time>2013-06-16T10:40:29Z</time>
      </trkpt>
      <trkpt lat="43.7957" lon="3.7398">
        <ele>187.59</ele>
        <time>2013-06-16T10:40:32Z</time>
      </trkpt>
      <trkpt lat="43.79543" lon="3.73968">
        <ele>188.08</ele>
        <time>2013-06-16T10:40:33Z</time>
      </trkpt>
      <trkpt lat="43.79516" lon="3.73953">
        <ele>188.56</ele>
        <time>2013-06-16T10:40:34Z</time>
      </trkpt>
      <trkpt lat="43.7949" lon="3.73936">
        <ele>189.52</ele>
        <time>2013-06-16T10:40:35Z</time>
      </trkpt>
      <trkpt lat="43.79464" lon="3.73916">
        <ele>190.48</ele>
        <time>2013-06-16T10:40:36Z</time>
      </trkpt>
      <trkpt lat="43.7944" lon="3.73893">
        <ele>191.44</ele>
        <time>2013-06-16T10:40:37Z</time>
      </trkpt>
      <trkpt lat="43.79416" lon="3.73869">
        <ele>191.92</ele>
        <time>2013-06-16T10:40:38Z</time>
      </trkpt>
      <trkpt lat="43.79223" lon="3.737">
        <ele>196.73</ele>
        <time>2013-06-16T10:40:46Z</time>
      </trkpt>
      <trkpt lat="43.79096" lon="3.73666">
        <ele>197.69</ele>
        <time>2013-06-16T10:40:51Z</time>
      </trkpt>
      <trkpt lat="43.78986" lon="3.73664">
        <ele>197.69</ele>
        <time>2013-06-16T10:40:57Z</time>
      </trkpt>
      <trkpt lat="43.78974" lon="3.73662">
        <ele>197.69</ele>
        <time>2013-06-16T10:40:58Z</time>
      </trkpt>
      <trkpt lat="43.78963" lon="3.73659">
        <ele>197.69</ele>
        <time>2013-06-16T10:40:59Z</time>
      </trkpt>
      <trkpt lat="43.78954" lon="3.73653">
        <ele>197.69</ele>
        <time>2013-06-16T10:41:00Z</time>
      </trkpt>
      <trkpt lat="43.78944" lon="3.73646">
        <ele>197.69</ele>
        <time>2013-06-16T10:41:01Z</time>
      </trkpt>
      <trkpt lat="43.78936" lon="3.73643">
        <ele>197.69</ele>
        <time>2013-06-16T10:41:02Z</time>
      </trkpt>
      <trkpt lat="43.78928" lon="3.73647">
        <ele>197.69</ele>
        <time>2013-06-16T10:41:03Z</time>
      </trkpt>
      <trkpt lat="43.78917" lon="3.73653">
        <ele>197.69</ele>
        <time>2013-06-16T10:41:04Z</time>
      </trkpt>
      <trkpt lat="43.78903" lon="3.73657">
        <ele>197.21</ele>
        <time>2013-06-16T10:41:05Z</time>
      </trkpt>
      <trkpt lat="43.78887" lon="3.73658">
        <ele>197.21</ele>
        <time>2013-06-16T10:41:06Z</time>
      </trkpt>
      <trkpt lat="43.78869" lon="3.73656">
        <ele>197.21</ele>
        <time>2013-06-16T10:41:07Z</time>
      </trkpt>
      <trkpt lat="43.78849" lon="3.73652">
        <ele>197.21</ele>
        <time>2013-06-16T10:41:08Z</time>
      </trkpt>
      <trkpt lat="43.7883" lon="3.73647">
        <ele>197.21</ele>
        <time>2013-06-16T10:41:09Z</time>
      </trkpt>
      <trkpt lat="43.78652" lon="3.73613">
        <ele>200.57</ele>
        <time>2013-06-16T10:41:17Z</time>
      </trkpt>
      <trkpt lat="43.78508" lon="3.73653">
        <ele>203.46</ele>
        <time>2013-06-16T10:41:23Z</time>
      </trkpt>
      <trkpt lat="43.78448" lon="3.73677">
        <ele>204.9</ele>
        <time>2013-06-16T10:41:26Z</time>
      </trkpt>
      <trkpt lat="43.7843" lon="3.7368">
        <ele>204.9</ele>
        <time>2013-06-16T10:41:27Z</time>
      </trkpt>
      <trkpt lat="43.78414" lon="3.7368">
        <ele>205.38</ele>
        <time>2013-06-16T10:41:28Z</time>
      </trkpt>
      <trkpt lat="43.78398" lon="3.73676">
        <ele>205.38</ele>
        <time>2013-06-16T10:41:29Z</time>
      </trkpt>
      <trkpt lat="43.78383" lon="3.7367">
        <ele>205.38</ele>
        <time>2013-06-16T10:41:30Z</time>
      </trkpt>
      <trkpt lat="43.7837" lon="3.73661">
        <ele>205.38</ele>
        <time>2013-06-16T10:41:31Z</time>
      </trkpt>
      <trkpt lat="43.78358" lon="3.73652">
        <ele>205.86</ele>
        <time>2013-06-16T10:41:32Z</time>
      </trkpt>
      <trkpt lat="43.7835" lon="3.73643">
        <ele>206.34</ele>
        <time>2013-06-16T10:41:33Z</time>
      </trkpt>
      <trkpt lat="43.78345" lon="3.73633">
        <ele>206.34</ele>
        <time>2013-06-16T10:41:34Z</time>
      </trkpt>
      <trkpt lat="43.78342" lon="3.73621">
        <ele>206.34</ele>
        <time>2013-06-16T10:41:35Z</time>
      </trkpt>
      <trkpt lat="43.78339" lon="3.73607">
        <ele>206.34</ele>
        <time>2013-06-16T10:41:36Z</time>
      </trkpt>
      <trkpt lat="43.78335" lon="3.73595">
        <ele>206.34</ele>
        <time>2013-06-16T10:41:37Z</time>
      </trkpt>
      <trkpt lat="43.78329" lon="3.73583">
        <ele>206.34</ele>
        <time>2013-06-16T10:41:38Z</time>
      </trkpt>
      <trkpt lat="43.7832" lon="3.7358">
        <ele>206.34</ele>
        <time>2013-06-16T10:41:39Z</time>
      </trkpt>
      <trkpt lat="43.78311" lon="3.73584">
        <ele>206.34</ele>
        <time>2013-06-16T10:41:40Z</time>
      </trkpt>
      <trkpt lat="43.78302" lon="3.73594">
        <ele>206.34</ele>
        <time>2013-06-16T10:41:41Z</time>
      </trkpt>
      <trkpt lat="43.7829" lon="3.73604">
        <ele>205.86</ele>
        <time>2013-06-16T10:41:42Z</time>
      </trkpt>
      <trkpt lat="43.78276" lon="3.73614">
        <ele>205.86</ele>
        <time>2013-06-16T10:41:43Z</time>
      </trkpt>
      <trkpt lat="43.78259" lon="3.7362">
        <ele>205.86</ele>
        <time>2013-06-16T10:41:44Z</time>
      </trkpt>
      <trkpt lat="43.78239" lon="3.73626">
        <ele>206.34</ele>
        <time>2013-06-16T10:41:45Z</time>
      </trkpt>
      <trkpt lat="43.78105" lon="3.73693">
        <ele>210.67</ele>
        <time>2013-06-16T10:41:52Z</time>
      </trkpt>
      <trkpt lat="43.77946" lon="3.73799">
        <ele>216.43</ele>
        <time>2013-06-16T10:42:00Z</time>
      </trkpt>
      <trkpt lat="43.77925" lon="3.73823">
        <ele>218.36</ele>
        <time>2013-06-16T10:42:01Z</time>
      </trkpt>
      <trkpt lat="43.77904" lon="3.7385">
        <ele>219.8</ele>
        <time>2013-06-16T10:42:02Z</time>
      </trkpt>
      <trkpt lat="43.77885" lon="3.73879">
        <ele>221.72</ele>
        <time>2013-06-16T10:42:03Z</time>
      </trkpt>
      <trkpt lat="43.77865" lon="3.73909">
        <ele>223.16</ele>
        <time>2013-06-16T10:42:04Z</time>
      </trkpt>
      <trkpt lat="43.77758" lon="3.74051">
        <ele>230.37</ele>
        <time>2013-06-16T10:42:09Z</time>
      </trkpt>
      <trkpt lat="43.77696" lon="3.74124">
        <ele>235.18</ele>
        <time>2013-06-16T10:42:12Z</time>
      </trkpt>
      <trkpt lat="43.77672" lon="3.74141">
        <ele>236.62</ele>
        <time>2013-06-16T10:42:13Z</time>
      </trkpt>
      <trkpt lat="43.77645" lon="3.74158">
        <ele>238.54</ele>
        <time>2013-06-16T10:42:14Z</time>
      </trkpt>
      <trkpt lat="43.77493" lon="3.74288">
        <ele>249.12</ele>
        <time>2013-06-16T10:42:20Z</time>
      </trkpt>
      <trkpt lat="43.77474" lon="3.74317">
        <ele>250.56</ele>
        <time>2013-06-16T10:42:21Z</time>
      </trkpt>
      <trkpt lat="43.77455" lon="3.74348">
        <ele>252.48</ele>
        <time>2013-06-16T10:42:22Z</time>
      </trkpt>
      <trkpt lat="43.77368" lon="3.74459">
        <ele>259.69</ele>
        <time>2013-06-16T10:42:26Z</time>
      </trkpt>
      <trkpt lat="43.77341" lon="3.74482">
        <ele>261.62</ele>
        <time>2013-06-16T10:42:27Z</time>
      </trkpt>
      <trkpt lat="43.77148" lon="3.74608">
        <ele>273.15</ele>
        <time>2013-06-16T10:42:34Z</time>
      </trkpt>
      <trkpt lat="43.76994" lon="3.74619">
        <ele>275.56</ele>
        <time>2013-06-16T10:42:39Z</time>
      </trkpt>
      <trkpt lat="43.76756" lon="3.74559">
        <ele>270.27</ele>
        <time>2013-06-16T10:42:47Z</time>
      </trkpt>
      <trkpt lat="43.76582" lon="3.74568">
        <ele>265.46</ele>
        <time>2013-06-16T10:42:53Z</time>
      </trkpt>
      <trkpt lat="43.76414" lon="3.74645">
        <ele>261.14</ele>
        <time>2013-06-16T10:42:59Z</time>
      </trkpt>
      <trkpt lat="43.76135" lon="3.74792">
        <ele>253.44</ele>
        <time>2013-06-16T10:43:10Z</time>
      </trkpt>
      <trkpt lat="43.76005" lon="3.74905">
        <ele>249.12</ele>
        <time>2013-06-16T10:43:17Z</time>
      </trkpt>
      <trkpt lat="43.75897" lon="3.75011">
        <ele>244.31</ele>
        <time>2013-06-16T10:43:25Z</time>
      </trkpt>
      <trkpt lat="43.75809" lon="3.75086">
        <ele>240.95</ele>
        <time>2013-06-16T10:43:32Z</time>
      </trkpt>
      <trkpt lat="43.75801" lon="3.75089">
        <ele>240.95</ele>
        <time>2013-06-16T10:43:33Z</time>
      </trkpt>
      <trkpt lat="43.75793" lon="3.7509">
        <ele>240.95</ele>
        <time>2013-06-16T10:43:34Z</time>
      </trkpt>
      <trkpt lat="43.75784" lon="3.75091">
        <ele>240.47</ele>
        <time>2013-06-16T10:43:35Z</time>
      </trkpt>
      <trkpt lat="43.75777" lon="3.75096">
        <ele>240.47</ele>
        <time>2013-06-16T10:43:36Z</time>
      </trkpt>
      <trkpt lat="43.7577" lon="3.75108">
        <ele>240.47</ele>
        <time>2013-06-16T10:43:37Z</time>
      </trkpt>
      <trkpt lat="43.75764" lon="3.75124">
        <ele>240.47</ele>
        <time>2013-06-16T10:43:38Z</time>
      </trkpt>
      <trkpt lat="43.75753" lon="3.75142">
        <ele>239.99</ele>
        <time>2013-06-16T10:43:39Z</time>
      </trkpt>
      <trkpt lat="43.75738" lon="3.75161">
        <ele>239.99</ele>
        <time>2013-06-16T10:43:40Z</time>
      </trkpt>
      <trkpt lat="43.75721" lon="3.75179">
        <ele>239.51</ele>
        <time>2013-06-16T10:43:41Z</time>
      </trkpt>
      <trkpt lat="43.75702" lon="3.75198">
        <ele>239.02</ele>
        <time>2013-06-16T10:43:42Z</time>
      </trkpt>
      <trkpt lat="43.75553" lon="3.75343">
        <ele>236.14</ele>
        <time>2013-06-16T10:43:49Z</time>
      </trkpt>
      <trkpt lat="43.75303" lon="3.7559">
        <ele>234.7</ele>
        <time>2013-06-16T10:43:59Z</time>
      </trkpt>
      <trkpt lat="43.74875" lon="3.76017">
        <ele>230.85</ele>
        <time>2013-06-16T10:44:16Z</time>
      </trkpt>
      <trkpt lat="43.74671" lon="3.76219">
        <ele>227.01</ele>
        <time>2013-06-16T10:44:25Z</time>
      </trkpt>
      <trkpt lat="43.74524" lon="3.7642">
        <ele>228.45</ele>
        <time>2013-06-16T10:44:33Z</time>
      </trkpt>
      <trkpt lat="43.74343" lon="3.76747">
        <ele>230.85</ele>
        <time>2013-06-16T10:44:45Z</time>
      </trkpt>
      <trkpt lat="43.74196" lon="3.77057">
        <ele>233.74</ele>
        <time>2013-06-16T10:44:56Z</time>
      </trkpt>
      <trkpt lat="43.74017" lon="3.7756">
        <ele>237.1</ele>
        <time>2013-06-16T10:45:13Z</time>
      </trkpt>
      <trkpt lat="43.73984" lon="3.77672">
        <ele>236.14</ele>
        <time>2013-06-16T10:45:17Z</time>
      </trkpt>
      <trkpt lat="43.7398" lon="3.777">
        <ele>235.18</ele>
        <time>2013-06-16T10:45:18Z</time>
      </trkpt>
      <trkpt lat="43.73977" lon="3.7773">
        <ele>234.7</ele>
        <time>2013-06-16T10:45:19Z</time>
      </trkpt>
      <trkpt lat="43.73977" lon="3.77759">
        <ele>233.74</ele>
        <time>2013-06-16T10:45:20Z</time>
      </trkpt>
      <trkpt lat="43.73978" lon="3.77789">
        <ele>232.78</ele>
        <time>2013-06-16T10:45:21Z</time>
      </trkpt>
      <trkpt lat="43.73993" lon="3.78238">
        <ele>220.28</ele>
        <time>2013-06-16T10:45:35Z</time>
      </trkpt>
      <trkpt lat="43.73992" lon="3.78393">
        <ele>215.95</ele>
        <time>2013-06-16T10:45:40Z</time>
      </trkpt>
      <trkpt lat="43.73986" lon="3.78423">
        <ele>214.99</ele>
        <time>2013-06-16T10:45:41Z</time>
      </trkpt>
      <trkpt lat="43.73976" lon="3.78451">
        <ele>214.51</ele>
        <time>2013-06-16T10:45:42Z</time>
      </trkpt>
      <trkpt lat="43.73964" lon="3.78479">
        <ele>213.55</ele>
        <time>2013-06-16T10:45:43Z</time>
      </trkpt>
      <trkpt lat="43.7395" lon="3.78504">
        <ele>212.59</ele>
        <time>2013-06-16T10:45:44Z</time>
      </trkpt>
      <trkpt lat="43.73935" lon="3.78527">
        <ele>212.11</ele>
        <time>2013-06-16T10:45:45Z</time>
      </trkpt>
      <trkpt lat="43.73919" lon="3.7855">
        <ele>211.15</ele>
        <time>2013-06-16T10:45:46Z</time>
      </trkpt>
      <trkpt lat="43.73757" lon="3.78747">
        <ele>206.82</ele>
        <time>2013-06-16T10:45:55Z</time>
      </trkpt>
      <trkpt lat="43.73529" lon="3.79007">
        <ele>204.42</ele>
        <time>2013-06-16T10:46:06Z</time>
      </trkpt>
      <trkpt lat="43.73252" lon="3.79351">
        <ele>196.25</ele>
        <time>2013-06-16T10:46:20Z</time>
      </trkpt>
      <trkpt lat="43.7311" lon="3.79482">
        <ele>196.25</ele>
        <time>2013-06-16T10:46:27Z</time>
      </trkpt>
      <trkpt lat="43.72951" lon="3.79573">
        <ele>196.25</ele>
        <time>2013-06-16T10:46:35Z</time>
      </trkpt>
      <trkpt lat="43.72931" lon="3.79574">
        <ele>196.25</ele>
        <time>2013-06-16T10:46:36Z</time>
      </trkpt>
      <trkpt lat="43.72909" lon="3.79574">
        <ele>195.77</ele>
        <time>2013-06-16T10:46:37Z</time>
      </trkpt>
      <trkpt lat="43.72887" lon="3.79571">
        <ele>195.28</ele>
        <time>2013-06-16T10:46:38Z</time>
      </trkpt>
      <trkpt lat="43.72864" lon="3.79566">
        <ele>194.8</ele>
        <time>2013-06-16T10:46:39Z</time>
      </trkpt>
      <trkpt lat="43.7284" lon="3.7956">
        <ele>193.84</ele>
        <time>2013-06-16T10:46:40Z</time>
      </trkpt>
      <trkpt lat="43.72722" lon="3.79518">
        <ele>188.56</ele>
        <time>2013-06-16T10:46:45Z</time>
      </trkpt>
      <trkpt lat="43.727" lon="3.79504">
        <ele>187.59</ele>
        <time>2013-06-16T10:46:46Z</time>
      </trkpt>
      <trkpt lat="43.72637" lon="3.79463">
        <ele>185.19</ele>
        <time>2013-06-16T10:46:49Z</time>
      </trkpt>
      <trkpt lat="43.72615" lon="3.79455">
        <ele>184.23</ele>
        <time>2013-06-16T10:46:50Z</time>
      </trkpt>
      <trkpt lat="43.72592" lon="3.79452">
        <ele>183.27</ele>
        <time>2013-06-16T10:46:51Z</time>
      </trkpt>
      <trkpt lat="43.72569" lon="3.79453">
        <ele>182.31</ele>
        <time>2013-06-16T10:46:52Z</time>
      </trkpt>
      <trkpt lat="43.72544" lon="3.79458">
        <ele>181.35</ele>
        <time>2013-06-16T10:46:53Z</time>
      </trkpt>
      <trkpt lat="43.72519" lon="3.79464">
        <ele>179.9</ele>
        <time>2013-06-16T10:46:54Z</time>
      </trkpt>
      <trkpt lat="43.72258" lon="3.79505">
        <ele>166.93</ele>
        <time>2013-06-16T10:47:05Z</time>
      </trkpt>
      <trkpt lat="43.72048" lon="3.79475">
        <ele>160.2</ele>
        <time>2013-06-16T10:47:13Z</time>
      </trkpt>
      <trkpt lat="43.71764" lon="3.79437">
        <ele>154.91</ele>
        <time>2013-06-16T10:47:23Z</time>
      </trkpt>
      <trkpt lat="43.71591" lon="3.79421">
        <ele>152.03</ele>
        <time>2013-06-16T10:47:29Z</time>
      </trkpt>
      <trkpt lat="43.71416" lon="3.79487">
        <ele>147.22</ele>
        <time>2013-06-16T10:47:35Z</time>
      </trkpt>
      <trkpt lat="43.71389" lon="3.79507">
        <ele>147.22</ele>
        <time>2013-06-16T10:47:36Z</time>
      </trkpt>
      <trkpt lat="43.71363" lon="3.79531">
        <ele>147.7</ele>
        <time>2013-06-16T10:47:37Z</time>
      </trkpt>
      <trkpt lat="43.71338" lon="3.79555">
        <ele>148.66</ele>
        <time>2013-06-16T10:47:38Z</time>
      </trkpt>
      <trkpt lat="43.71097" lon="3.79804">
        <ele>162.12</ele>
        <time>2013-06-16T10:47:48Z</time>
      </trkpt>
      <trkpt lat="43.70977" lon="3.79987">
        <ele>165.96</ele>
        <time>2013-06-16T10:47:54Z</time>
      </trkpt>
      <trkpt lat="43.70896" lon="3.80221">
        <ele>161.16</ele>
        <time>2013-06-16T10:48:00Z</time>
      </trkpt>
      <trkpt lat="43.7087" lon="3.80487">
        <ele>151.54</ele>
        <time>2013-06-16T10:48:06Z</time>
      </trkpt>
      <trkpt lat="43.70833" lon="3.80802">
        <ele>147.22</ele>
        <time>2013-06-16T10:48:13Z</time>
      </trkpt>
      <trkpt lat="43.70719" lon="3.81277">
        <ele>144.82</ele>
        <time>2013-06-16T10:48:24Z</time>
      </trkpt>
      <trkpt lat="43.70712" lon="3.81358">
        <ele>143.85</ele>
        <time>2013-06-16T10:48:26Z</time>
      </trkpt>
      <trkpt lat="43.70715" lon="3.81396">
        <ele>143.37</ele>
        <time>2013-06-16T10:48:27Z</time>
      </trkpt>
      <trkpt lat="43.70723" lon="3.81434">
        <ele>142.89</ele>
        <time>2013-06-16T10:48:28Z</time>
      </trkpt>
      <trkpt lat="43.70733" lon="3.81473">
        <ele>141.93</ele>
        <time>2013-06-16T10:48:29Z</time>
      </trkpt>
      <trkpt lat="43.70747" lon="3.8151">
        <ele>140.49</ele>
        <time>2013-06-16T10:48:30Z</time>
      </trkpt>
      <trkpt lat="43.70762" lon="3.81547">
        <ele>139.05</ele>
        <time>2013-06-16T10:48:31Z</time>
      </trkpt>
      <trkpt lat="43.70778" lon="3.81582">
        <ele>137.61</ele>
        <time>2013-06-16T10:48:32Z</time>
      </trkpt>
      <trkpt lat="43.70839" lon="3.81713">
        <ele>130.88</ele>
        <time>2013-06-16T10:48:37Z</time>
      </trkpt>
      <trkpt lat="43.70843" lon="3.81731">
        <ele>129.92</ele>
        <time>2013-06-16T10:48:38Z</time>
      </trkpt>
      <trkpt lat="43.70846" lon="3.81748">
        <ele>129.43</ele>
        <time>2013-06-16T10:48:39Z</time>
      </trkpt>
      <trkpt lat="43.70846" lon="3.81761">
        <ele>128.47</ele>
        <time>2013-06-16T10:48:40Z</time>
      </trkpt>
      <trkpt lat="43.70846" lon="3.81772">
        <ele>127.51</ele>
        <time>2013-06-16T10:48:41Z</time>
      </trkpt>
      <trkpt lat="43.70845" lon="3.81781">
        <ele>127.03</ele>
        <time>2013-06-16T10:48:42Z</time>
      </trkpt>
      <trkpt lat="43.70842" lon="3.8179">
        <ele>127.03</ele>
        <time>2013-06-16T10:48:43Z</time>
      </trkpt>
      <trkpt lat="43.70837" lon="3.81799">
        <ele>126.55</ele>
        <time>2013-06-16T10:48:44Z</time>
      </trkpt>
      <trkpt lat="43.70831" lon="3.8181">
        <ele>126.07</ele>
        <time>2013-06-16T10:48:45Z</time>
      </trkpt>
      <trkpt lat="43.70825" lon="3.81822">
        <ele>125.59</ele>
        <time>2013-06-16T10:48:46Z</time>
      </trkpt>
      <trkpt lat="43.70818" lon="3.81835">
        <ele>125.11</ele>
        <time>2013-06-16T10:48:47Z</time>
      </trkpt>
      <trkpt lat="43.70808" lon="3.81847">
        <ele>125.11</ele>
        <time>2013-06-16T10:48:48Z</time>
      </trkpt>
      <trkpt lat="43.70796" lon="3.81859">
        <ele>125.11</ele>
        <time>2013-06-16T10:48:49Z</time>
      </trkpt>
      <trkpt lat="43.70781" lon="3.81869">
        <ele>124.63</ele>
        <time>2013-06-16T10:48:50Z</time>
      </trkpt>
      <trkpt lat="43.7076" lon="3.81874">
        <ele>124.15</ele>
        <time>2013-06-16T10:48:51Z</time>
      </trkpt>
      <trkpt lat="43.7074" lon="3.81877">
        <ele>123.67</ele>
        <time>2013-06-16T10:48:52Z</time>
      </trkpt>
      <trkpt lat="43.70719" lon="3.81879">
        <ele>123.19</ele>
        <time>2013-06-16T10:48:53Z</time>
      </trkpt>
      <trkpt lat="43.70699" lon="3.8188">
        <ele>123.19</ele>
        <time>2013-06-16T10:48:54Z</time>
      </trkpt>
      <trkpt lat="43.70553" lon="3.81886">
        <ele>124.15</ele>
        <time>2013-06-16T10:49:00Z</time>
      </trkpt>
      <trkpt lat="43.7033" lon="3.81939">
        <ele>121.26</ele>
        <time>2013-06-16T10:49:08Z</time>
      </trkpt>
      <trkpt lat="43.70166" lon="3.82046">
        <ele>115.01</ele>
        <time>2013-06-16T10:49:14Z</time>
      </trkpt>
      <trkpt lat="43.70054" lon="3.82192">
        <ele>114.53</ele>
        <time>2013-06-16T10:49:19Z</time>
      </trkpt>
      <trkpt lat="43.69967" lon="3.82371">
        <ele>114.53</ele>
        <time>2013-06-16T10:49:25Z</time>
      </trkpt>
      <trkpt lat="43.6987" lon="3.8252">
        <ele>115.01</ele>
        <time>2013-06-16T10:49:31Z</time>
      </trkpt>
      <trkpt lat="43.69755" lon="3.82603">
        <ele>115.5</ele>
        <time>2013-06-16T10:49:37Z</time>
      </trkpt>
      <trkpt lat="43.69573" lon="3.82654">
        <ele>114.05</ele>
        <time>2013-06-16T10:49:45Z</time>
      </trkpt>
      <trkpt lat="43.69397" lon="3.82651">
        <ele>112.13</ele>
        <time>2013-06-16T10:49:52Z</time>
      </trkpt>
      <trkpt lat="43.69237" lon="3.8259">
        <ele>111.17</ele>
        <time>2013-06-16T10:49:58Z</time>
      </trkpt>
      <trkpt lat="43.6902" lon="3.8246">
        <ele>110.69</ele>
        <time>2013-06-16T10:50:07Z</time>
      </trkpt>
      <trkpt lat="43.68844" lon="3.82347">
        <ele>110.21</ele>
        <time>2013-06-16T10:50:16Z</time>
      </trkpt>
      <trkpt lat="43.68669" lon="3.8226">
        <ele>107.32</ele>
        <time>2013-06-16T10:50:24Z</time>
      </trkpt>
      <trkpt lat="43.68464" lon="3.82193">
        <ele>103.48</ele>
        <time>2013-06-16T10:50:33Z</time>
      </trkpt>
      <trkpt lat="43.68299" lon="3.82166">
        <ele>103</ele>
        <time>2013-06-16T10:50:40Z</time>
      </trkpt>
      <trkpt lat="43.68071" lon="3.82134">
        <ele>106.84</ele>
        <time>2013-06-16T10:50:48Z</time>
      </trkpt>
      <trkpt lat="43.67699" lon="3.82077">
        <ele>121.74</ele>
        <time>2013-06-16T10:51:01Z</time>
      </trkpt>
      <trkpt lat="43.67492" lon="3.81999">
        <ele>130.4</ele>
        <time>2013-06-16T10:51:09Z</time>
      </trkpt>
      <trkpt lat="43.67381" lon="3.81917">
        <ele>133.28</ele>
        <time>2013-06-16T10:51:15Z</time>
      </trkpt>
      <trkpt lat="43.67355" lon="3.81892">
        <ele>133.28</ele>
        <time>2013-06-16T10:51:17Z</time>
      </trkpt>
      <trkpt lat="43.67346" lon="3.81878">
        <ele>132.8</ele>
        <time>2013-06-16T10:51:18Z</time>
      </trkpt>
      <trkpt lat="43.67342" lon="3.81859">
        <ele>132.8</ele>
        <time>2013-06-16T10:51:19Z</time>
      </trkpt>
      <trkpt lat="43.6734" lon="3.81839">
        <ele>132.32</ele>
        <time>2013-06-16T10:51:20Z</time>
      </trkpt>
      <trkpt lat="43.67342" lon="3.81819">
        <ele>131.84</ele>
        <time>2013-06-16T10:51:21Z</time>
      </trkpt>
      <trkpt lat="43.67349" lon="3.818">
        <ele>131.36</ele>
        <time>2013-06-16T10:51:22Z</time>
      </trkpt>
      <trkpt lat="43.67358" lon="3.81785">
        <ele>130.88</ele>
        <time>2013-06-16T10:51:23Z</time>
      </trkpt>
      <trkpt lat="43.67371" lon="3.81775">
        <ele>129.43</ele>
        <time>2013-06-16T10:51:24Z</time>
      </trkpt>
      <trkpt lat="43.67385" lon="3.8177">
        <ele>128.47</ele>
        <time>2013-06-16T10:51:25Z</time>
      </trkpt>
      <trkpt lat="43.674" lon="3.81771">
        <ele>127.99</ele>
        <time>2013-06-16T10:51:26Z</time>
      </trkpt>
      <trkpt lat="43.67414" lon="3.81779">
        <ele>127.03</ele>
        <time>2013-06-16T10:51:27Z</time>
      </trkpt>
      <trkpt lat="43.67428" lon="3.81793">
        <ele>125.59</ele>
        <time>2013-06-16T10:51:28Z</time>
      </trkpt>
      <trkpt lat="43.67436" lon="3.81812">
        <ele>124.63</ele>
        <time>2013-06-16T10:51:29Z</time>
      </trkpt>
      <trkpt lat="43.67439" lon="3.81835">
        <ele>124.15</ele>
        <time>2013-06-16T10:51:30Z</time>
      </trkpt>
      <trkpt lat="43.67438" lon="3.81855">
        <ele>123.67</ele>
        <time>2013-06-16T10:51:31Z</time>
      </trkpt>
      <trkpt lat="43.67432" lon="3.81875">
        <ele>123.67</ele>
        <time>2013-06-16T10:51:32Z</time>
      </trkpt>
      <trkpt lat="43.67418" lon="3.81893">
        <ele>123.67</ele>
        <time>2013-06-16T10:51:33Z</time>
      </trkpt>
      <trkpt lat="43.67402" lon="3.8191">
        <ele>124.15</ele>
        <time>2013-06-16T10:51:34Z</time>
      </trkpt>
      <trkpt lat="43.67385" lon="3.81927">
        <ele>124.15</ele>
        <time>2013-06-16T10:51:35Z</time>
      </trkpt>
      <trkpt lat="43.67363" lon="3.81942">
        <ele>125.11</ele>
        <time>2013-06-16T10:51:36Z</time>
      </trkpt>
      <trkpt lat="43.67342" lon="3.81958">
        <ele>125.11</ele>
        <time>2013-06-16T10:51:37Z</time>
      </trkpt>
      <trkpt lat="43.67203" lon="3.82109">
        <ele>128.47</ele>
        <time>2013-06-16T10:51:44Z</time>
      </trkpt>
      <trkpt lat="43.6706" lon="3.82355">
        <ele>121.74</ele>
        <time>2013-06-16T10:51:52Z</time>
      </trkpt>
      <trkpt lat="43.66938" lon="3.82532">
        <ele>113.57</ele>
        <time>2013-06-16T10:51:58Z</time>
      </trkpt>
      <trkpt lat="43.66728" lon="3.82703">
        <ele>113.57</ele>
        <time>2013-06-16T10:52:06Z</time>
      </trkpt>
      <trkpt lat="43.66311" lon="3.83019">
        <ele>117.42</ele>
        <time>2013-06-16T10:52:22Z</time>
      </trkpt>
      <trkpt lat="43.66257" lon="3.83049">
        <ele>114.53</ele>
        <time>2013-06-16T10:52:24Z</time>
      </trkpt>
      <trkpt lat="43.66227" lon="3.83054">
        <ele>113.09</ele>
        <time>2013-06-16T10:52:25Z</time>
      </trkpt>
      <trkpt lat="43.66196" lon="3.83059">
        <ele>111.65</ele>
        <time>2013-06-16T10:52:26Z</time>
      </trkpt>
      <trkpt lat="43.65772" lon="3.8315">
        <ele>91.46</ele>
        <time>2013-06-16T10:52:40Z</time>
      </trkpt>
      <trkpt lat="43.65639" lon="3.83248">
        <ele>91.94</ele>
        <time>2013-06-16T10:52:45Z</time>
      </trkpt>
      <trkpt lat="43.65501" lon="3.83434">
        <ele>89.54</ele>
        <time>2013-06-16T10:52:51Z</time>
      </trkpt>
      <trkpt lat="43.65341" lon="3.83576">
        <ele>91.46</ele>
        <time>2013-06-16T10:52:57Z</time>
      </trkpt>
      <trkpt lat="43.65134" lon="3.83761">
        <ele>92.9</ele>
        <time>2013-06-16T10:53:05Z</time>
      </trkpt>
      <trkpt lat="43.64938" lon="3.83978">
        <ele>90.98</ele>
        <time>2013-06-16T10:53:13Z</time>
      </trkpt>
      <trkpt lat="43.64649" lon="3.84205">
        <ele>80.41</ele>
        <time>2013-06-16T10:53:24Z</time>
      </trkpt>
      <trkpt lat="43.64429" lon="3.84363">
        <ele>72.24</ele>
        <time>2013-06-16T10:53:33Z</time>
      </trkpt>
      <trkpt lat="43.64306" lon="3.84497">
        <ele>67.91</ele>
        <time>2013-06-16T10:53:39Z</time>
      </trkpt>
      <trkpt lat="43.64189" lon="3.84612">
        <ele>64.07</ele>
        <time>2013-06-16T10:53:46Z</time>
      </trkpt>
      <trkpt lat="43.63968" lon="3.84677">
        <ele>55.41</ele>
        <time>2013-06-16T10:53:59Z</time>
      </trkpt>
      <trkpt lat="43.6384" lon="3.8463">
        <ele>55.89</ele>
        <time>2013-06-16T10:54:06Z</time>
      </trkpt>
      <trkpt lat="43.63721" lon="3.84532">
        <ele>57.82</ele>
        <time>2013-06-16T10:54:13Z</time>
      </trkpt>
      <trkpt lat="43.63639" lon="3.84457">
        <ele>55.41</ele>
        <time>2013-06-16T10:54:18Z</time>
      </trkpt>
      <trkpt lat="43.6362" lon="3.84446">
        <ele>54.93</ele>
        <time>2013-06-16T10:54:19Z</time>
      </trkpt>
      <trkpt lat="43.63464" lon="3.84358">
        <ele>57.34</ele>
        <time>2013-06-16T10:54:28Z</time>
      </trkpt>
      <trkpt lat="43.63411" lon="3.84332">
        <ele>58.3</ele>
        <time>2013-06-16T10:54:34Z</time>
      </trkpt>
      <trkpt lat="43.63406" lon="3.84331">
        <ele>58.3</ele>
        <time>2013-06-16T10:54:35Z</time>
      </trkpt>
      <trkpt lat="43.63397" lon="3.84329">
        <ele>58.78</ele>
        <time>2013-06-16T10:54:37Z</time>
      </trkpt>
      <trkpt lat="43.63394" lon="3.84327">
        <ele>58.78</ele>
        <time>2013-06-16T10:54:38Z</time>
      </trkpt>
      <trkpt lat="43.63391" lon="3.84325">
        <ele>58.78</ele>
        <time>2013-06-16T10:54:39Z</time>
      </trkpt>
      <trkpt lat="43.63388" lon="3.84324">
        <ele>59.74</ele>
        <time>2013-06-16T10:54:48Z</time>
      </trkpt>
      <trkpt lat="43.63348" lon="3.84313">
        <ele>60.22</ele>
        <time>2013-06-16T10:54:52Z</time>
      </trkpt>
      <trkpt lat="43.63259" lon="3.84289">
        <ele>58.78</ele>
        <time>2013-06-16T10:54:57Z</time>
      </trkpt>
      <trkpt lat="43.63175" lon="3.84233">
        <ele>58.78</ele>
        <time>2013-06-16T10:55:03Z</time>
      </trkpt>
      <trkpt lat="43.63172" lon="3.84227">
        <ele>59.26</ele>
        <time>2013-06-16T10:55:04Z</time>
      </trkpt>
      <trkpt lat="43.63169" lon="3.84222">
        <ele>59.26</ele>
        <time>2013-06-16T10:55:05Z</time>
      </trkpt>
      <trkpt lat="43.63167" lon="3.84211">
        <ele>59.26</ele>
        <time>2013-06-16T10:55:06Z</time>
      </trkpt>
      <trkpt lat="43.63163" lon="3.84197">
        <ele>59.26</ele>
        <time>2013-06-16T10:55:07Z</time>
      </trkpt>
      <trkpt lat="43.63157" lon="3.84181">
        <ele>59.74</ele>
        <time>2013-06-16T10:55:08Z</time>
      </trkpt>
      <trkpt lat="43.63149" lon="3.84167">
        <ele>59.74</ele>
        <time>2013-06-16T10:55:09Z</time>
      </trkpt>
      <trkpt lat="43.63137" lon="3.84157">
        <ele>59.74</ele>
        <time>2013-06-16T10:55:10Z</time>
      </trkpt>
      <trkpt lat="43.63124" lon="3.84152">
        <ele>60.22</ele>
        <time>2013-06-16T10:55:11Z</time>
      </trkpt>
      <trkpt lat="43.63111" lon="3.84154">
        <ele>60.22</ele>
        <time>2013-06-16T10:55:12Z</time>
      </trkpt>
      <trkpt lat="43.63098" lon="3.84161">
        <ele>60.22</ele>
        <time>2013-06-16T10:55:13Z</time>
      </trkpt>
      <trkpt lat="43.63085" lon="3.8417">
        <ele>60.22</ele>
        <time>2013-06-16T10:55:14Z</time>
      </trkpt>
      <trkpt lat="43.63071" lon="3.84178">
        <ele>59.74</ele>
        <time>2013-06-16T10:55:15Z</time>
      </trkpt>
      <trkpt lat="43.63056" lon="3.84181">
        <ele>59.74</ele>
        <time>2013-06-16T10:55:16Z</time>
      </trkpt>
      <trkpt lat="43.63038" lon="3.84181">
        <ele>59.26</ele>
        <time>2013-06-16T10:55:17Z</time>
      </trkpt>
      <trkpt lat="43.6302" lon="3.84178">
        <ele>59.26</ele>
        <time>2013-06-16T10:55:18Z</time>
      </trkpt>
      <trkpt lat="43.62999" lon="3.84175">
        <ele>59.26</ele>
        <time>2013-06-16T10:55:19Z</time>
      </trkpt>
      <trkpt lat="43.62877" lon="3.84122">
        <ele>60.22</ele>
        <time>2013-06-16T10:55:25Z</time>
      </trkpt>
      <trkpt lat="43.6272" lon="3.83952">
        <ele>66.95</ele>
        <time>2013-06-16T10:55:34Z</time>
      </trkpt>
      <trkpt lat="43.62591" lon="3.83737">
        <ele>73.68</ele>
        <time>2013-06-16T10:55:44Z</time>
      </trkpt>
      <trkpt lat="43.62556" lon="3.83679">
        <ele>76.08</ele>
        <time>2013-06-16T10:55:48Z</time>
      </trkpt>
      <trkpt lat="43.62551" lon="3.83665">
        <ele>76.56</ele>
        <time>2013-06-16T10:55:49Z</time>
      </trkpt>
      <trkpt lat="43.62552" lon="3.83648">
        <ele>77.04</ele>
        <time>2013-06-16T10:55:50Z</time>
      </trkpt>
      <trkpt lat="43.62554" lon="3.83631">
        <ele>77.04</ele>
        <time>2013-06-16T10:55:51Z</time>
      </trkpt>
      <trkpt lat="43.62554" lon="3.83615">
        <ele>77.52</ele>
        <time>2013-06-16T10:55:52Z</time>
      </trkpt>
      <trkpt lat="43.6255" lon="3.836">
        <ele>77.52</ele>
        <time>2013-06-16T10:55:53Z</time>
      </trkpt>
      <trkpt lat="43.62542" lon="3.83588">
        <ele>77.52</ele>
        <time>2013-06-16T10:55:54Z</time>
      </trkpt>
      <trkpt lat="43.62533" lon="3.83577">
        <ele>77.52</ele>
        <time>2013-06-16T10:55:55Z</time>
      </trkpt>
      <trkpt lat="43.6252" lon="3.83575">
        <ele>77.04</ele>
        <time>2013-06-16T10:55:56Z</time>
      </trkpt>
      <trkpt lat="43.62505" lon="3.83581">
        <ele>77.04</ele>
        <time>2013-06-16T10:55:57Z</time>
      </trkpt>
      <trkpt lat="43.62493" lon="3.83589">
        <ele>77.04</ele>
        <time>2013-06-16T10:55:58Z</time>
      </trkpt>
      <trkpt lat="43.62483" lon="3.83598">
        <ele>76.56</ele>
        <time>2013-06-16T10:55:59Z</time>
      </trkpt>
      <trkpt lat="43.62476" lon="3.83608">
        <ele>76.56</ele>
        <time>2013-06-16T10:56:00Z</time>
      </trkpt>
      <trkpt lat="43.62472" lon="3.83619">
        <ele>76.08</ele>
        <time>2013-06-16T10:56:01Z</time>
      </trkpt>
      <trkpt lat="43.62468" lon="3.8363">
        <ele>76.08</ele>
        <time>2013-06-16T10:56:02Z</time>
      </trkpt>
      <trkpt lat="43.62463" lon="3.8364">
        <ele>76.08</ele>
        <time>2013-06-16T10:56:03Z</time>
      </trkpt>
      <trkpt lat="43.62457" lon="3.83646">
        <ele>76.08</ele>
        <time>2013-06-16T10:56:04Z</time>
      </trkpt>
      <trkpt lat="43.62449" lon="3.8365">
        <ele>76.08</ele>
        <time>2013-06-16T10:56:05Z</time>
      </trkpt>
      <trkpt lat="43.62442" lon="3.83651">
        <ele>76.08</ele>
        <time>2013-06-16T10:56:06Z</time>
      </trkpt>
      <trkpt lat="43.62436" lon="3.83651">
        <ele>76.08</ele>
        <time>2013-06-16T10:56:07Z</time>
      </trkpt>
      <trkpt lat="43.62429" lon="3.83651">
        <ele>76.08</ele>
        <time>2013-06-16T10:56:08Z</time>
      </trkpt>
      <trkpt lat="43.62422" lon="3.83651">
        <ele>76.56</ele>
        <time>2013-06-16T10:56:09Z</time>
      </trkpt>
      <trkpt lat="43.62416" lon="3.83655">
        <ele>76.56</ele>
        <time>2013-06-16T10:56:10Z</time>
      </trkpt>
      <trkpt lat="43.62411" lon="3.8366">
        <ele>77.04</ele>
        <time>2013-06-16T10:56:11Z</time>
      </trkpt>
      <trkpt lat="43.62408" lon="3.83666">
        <ele>77.04</ele>
        <time>2013-06-16T10:56:12Z</time>
      </trkpt>
      <trkpt lat="43.62407" lon="3.83672">
        <ele>77.52</ele>
        <time>2013-06-16T10:56:13Z</time>
      </trkpt>
      <trkpt lat="43.62407" lon="3.83678">
        <ele>77.52</ele>
        <time>2013-06-16T10:56:14Z</time>
      </trkpt>
      <trkpt lat="43.62408" lon="3.83683">
        <ele>77.04</ele>
        <time>2013-06-16T10:56:15Z</time>
      </trkpt>
      <trkpt lat="43.6241" lon="3.83688">
        <ele>77.04</ele>
        <time>2013-06-16T10:56:16Z</time>
      </trkpt>
      <trkpt lat="43.62413" lon="3.83692">
        <ele>76.56</ele>
        <time>2013-06-16T10:56:17Z</time>
      </trkpt>
      <trkpt lat="43.62417" lon="3.83695">
        <ele>76.56</ele>
        <time>2013-06-16T10:56:18Z</time>
      </trkpt>
      <trkpt lat="43.62422" lon="3.83702">
        <ele>76.08</ele>
        <time>2013-06-16T10:56:20Z</time>
      </trkpt>
      <trkpt lat="43.62425" lon="3.83708">
        <ele>76.56</ele>
        <time>2013-06-16T10:56:21Z</time>
      </trkpt>
      <trkpt lat="43.62427" lon="3.83717">
        <ele>76.08</ele>
        <time>2013-06-16T10:56:22Z</time>
      </trkpt>
      <trkpt lat="43.62437" lon="3.83768">
        <ele>76.56</ele>
        <time>2013-06-16T10:56:27Z</time>
      </trkpt>
      <trkpt lat="43.62435" lon="3.83776">
        <ele>76.56</ele>
        <time>2013-06-16T10:56:28Z</time>
      </trkpt>
      <trkpt lat="43.62427" lon="3.83792">
        <ele>77.52</ele>
        <time>2013-06-16T10:56:31Z</time>
      </trkpt>
      <trkpt lat="43.62403" lon="3.83763">
        <ele>63.58</ele>
        <time>2013-06-16T10:57:02Z</time>
      </trkpt>
      <trkpt lat="43.62413" lon="3.83784">
        <ele>66.47</ele>
        <time>2013-06-16T10:57:07Z</time>
      </trkpt>
      <trkpt lat="43.62414" lon="3.83808">
        <ele>76.56</ele>
        <time>2013-06-16T10:57:20Z</time>
      </trkpt>
      <trkpt lat="43.62413" lon="3.8382">
        <ele>77.52</ele>
        <time>2013-06-16T10:57:27Z</time>
      </trkpt>
    </trkseg>
  </trk>
</gpx>